<?xml version='1.0' encoding='UTF-8'?><gpx version="1.1" creator="JPX - https://github.com/jenetics/jpx" xmlns="http://www.topografix.com/GPX/1/1"><trk><trkseg><trkpt lat="45.2355204" lon="9.0369331"><ele>67.0</ele><time>2026-04-19T06:52:21.57Z</time></trkpt><trkpt lat="45.2355461" lon="9.0370158"><ele>67.0</ele><time>2026-04-19T06:52:44.595Z</time></trkpt><trkpt lat="45.2356016" lon="9.0370632"><ele>67.0</ele><time>2026-04-19T06:52:49.599Z</time></trkpt><trkpt lat="45.2356671" lon="9.0370555"><ele>67.0</ele><time>2026-04-19T06:52:54.594Z</time></trkpt><trkpt lat="45.2357398" lon="9.0369959"><ele>67.0</ele><time>2026-04-19T06:52:57.593Z</time></trkpt><trkpt lat="45.2357627" lon="9.0368805"><ele>67.0</ele><time>2026-04-19T06:52:59.589Z</time></trkpt><trkpt lat="45.2358231" lon="9.0368017"><ele>67.0</ele><time>2026-04-19T06:53:02.595Z</time></trkpt><trkpt lat="45.2358761" lon="9.036724"><ele>67.0</ele><time>2026-04-19T06:53:05.594Z</time></trkpt><trkpt lat="45.2359268" lon="9.0366463"><ele>67.0</ele><time>2026-04-19T06:53:08.591Z</time></trkpt><trkpt lat="45.2359811" lon="9.0365677"><ele>67.0</ele><time>2026-04-19T06:53:11.598Z</time></trkpt><trkpt lat="45.2360424" lon="9.0364875"><ele>67.0</ele><time>2026-04-19T06:53:14.597Z</time></trkpt><trkpt lat="45.2360937" lon="9.0364032"><ele>67.0</ele><time>2026-04-19T06:53:17.602Z</time></trkpt><trkpt lat="45.2361571" lon="9.0363137"><ele>67.0</ele><time>2026-04-19T06:53:20.577Z</time></trkpt><trkpt lat="45.2362012" lon="9.0362494"><ele>67.0</ele><time>2026-04-19T06:53:22.581Z</time></trkpt><trkpt lat="45.2362443" lon="9.036184"><ele>67.0</ele><time>2026-04-19T06:53:24.586Z</time></trkpt><trkpt lat="45.236296" lon="9.0360968"><ele>67.0</ele><time>2026-04-19T06:53:27.584Z</time></trkpt><trkpt lat="45.2363509" lon="9.0359859"><ele>67.0</ele><time>2026-04-19T06:53:30.585Z</time></trkpt><trkpt lat="45.2364037" lon="9.0358815"><ele>67.0</ele><time>2026-04-19T06:53:33.577Z</time></trkpt><trkpt lat="45.2364518" lon="9.0357728"><ele>67.0</ele><time>2026-04-19T06:53:36.582Z</time></trkpt><trkpt lat="45.2364824" lon="9.0356537"><ele>67.16666666666666</ele><time>2026-04-19T06:53:39.576Z</time></trkpt><trkpt lat="45.2364942" lon="9.0355273"><ele>67.33333333333333</ele><time>2026-04-19T06:53:42.583Z</time></trkpt><trkpt lat="45.2365097" lon="9.0353993"><ele>67.5</ele><time>2026-04-19T06:53:45.583Z</time></trkpt><trkpt lat="45.2365143" lon="9.0352761"><ele>67.66666666666667</ele><time>2026-04-19T06:53:48.652Z</time></trkpt><trkpt lat="45.2365231" lon="9.0351592"><ele>67.83333333333334</ele><time>2026-04-19T06:53:51.585Z</time></trkpt><trkpt lat="45.2364901" lon="9.0350707"><ele>68.0</ele><time>2026-04-19T06:53:54.58Z</time></trkpt><trkpt lat="45.2364547" lon="9.034973"><ele>67.83333333333334</ele><time>2026-04-19T06:53:58.583Z</time></trkpt><trkpt lat="45.2364595" lon="9.0348804"><ele>67.66666666666667</ele><time>2026-04-19T06:54:03.58Z</time></trkpt><trkpt lat="45.2364951" lon="9.0348"><ele>67.5</ele><time>2026-04-19T06:54:09.577Z</time></trkpt><trkpt lat="45.2365538" lon="9.0347213"><ele>67.33333333333333</ele><time>2026-04-19T06:54:14.585Z</time></trkpt><trkpt lat="45.2364907" lon="9.0347145"><ele>67.16666666666666</ele><time>2026-04-19T06:54:19.574Z</time></trkpt><trkpt lat="45.2363988" lon="9.0347966"><ele>67.0</ele><time>2026-04-19T06:54:21.579Z</time></trkpt><trkpt lat="45.2363412" lon="9.0348471"><ele>67.0</ele><time>2026-04-19T06:54:22.57Z</time></trkpt><trkpt lat="45.2362943" lon="9.0349144"><ele>67.0</ele><time>2026-04-19T06:54:23.568Z</time></trkpt><trkpt lat="45.2362234" lon="9.0350489"><ele>67.0</ele><time>2026-04-19T06:54:25.566Z</time></trkpt><trkpt lat="45.2361825" lon="9.0351742"><ele>67.0</ele><time>2026-04-19T06:54:26.568Z</time></trkpt><trkpt lat="45.2361233" lon="9.0352869"><ele>67.0</ele><time>2026-04-19T06:54:27.567Z</time></trkpt><trkpt lat="45.2360629" lon="9.035345"><ele>67.25</ele><time>2026-04-19T06:54:28.623Z</time></trkpt><trkpt lat="45.2360489" lon="9.0354873"><ele>67.5</ele><time>2026-04-19T06:54:30.586Z</time></trkpt><trkpt lat="45.2361839" lon="9.0354563"><ele>67.75</ele><time>2026-04-19T06:54:33.593Z</time></trkpt><trkpt lat="45.2362821" lon="9.0354351"><ele>68.0</ele><time>2026-04-19T06:54:35.578Z</time></trkpt><trkpt lat="45.2365093" lon="9.0353963"><ele>68.2</ele><time>2026-04-19T06:54:39.571Z</time></trkpt><trkpt lat="45.2366118" lon="9.0353697"><ele>68.4</ele><time>2026-04-19T06:54:41.575Z</time></trkpt><trkpt lat="45.2366823" lon="9.0353665"><ele>68.60000000000001</ele><time>2026-04-19T06:54:42.576Z</time></trkpt><trkpt lat="45.2367925" lon="9.035312"><ele>68.8</ele><time>2026-04-19T06:54:44.592Z</time></trkpt><trkpt lat="45.2368878" lon="9.0352542"><ele>69.0</ele><time>2026-04-19T06:54:46.574Z</time></trkpt><trkpt lat="45.236977" lon="9.0351815"><ele>69.0</ele><time>2026-04-19T06:54:48.584Z</time></trkpt><trkpt lat="45.2370831" lon="9.035089"><ele>69.0</ele><time>2026-04-19T06:54:50.586Z</time></trkpt><trkpt lat="45.2371854" lon="9.0350018"><ele>69.0</ele><time>2026-04-19T06:54:52.576Z</time></trkpt><trkpt lat="45.237288" lon="9.0348286"><ele>69.0</ele><time>2026-04-19T06:54:53.65Z</time></trkpt><trkpt lat="45.2373769" lon="9.0347158"><ele>69.0</ele><time>2026-04-19T06:54:55.613Z</time></trkpt><trkpt lat="45.2374608" lon="9.0346468"><ele>69.0</ele><time>2026-04-19T06:54:57.58Z</time></trkpt><trkpt lat="45.2375597" lon="9.0345997"><ele>69.0</ele><time>2026-04-19T06:54:59.576Z</time></trkpt><trkpt lat="45.2376559" lon="9.0345714"><ele>69.0</ele><time>2026-04-19T06:55:01.588Z</time></trkpt><trkpt lat="45.2377374" lon="9.0345772"><ele>69.0</ele><time>2026-04-19T06:55:03.606Z</time></trkpt><trkpt lat="45.2378098" lon="9.0345886"><ele>69.0</ele><time>2026-04-19T06:55:05.581Z</time></trkpt><trkpt lat="45.2378948" lon="9.0345963"><ele>69.0</ele><time>2026-04-19T06:55:08.584Z</time></trkpt><trkpt lat="45.2379792" lon="9.0346268"><ele>69.0</ele><time>2026-04-19T06:55:11.59Z</time></trkpt><trkpt lat="45.2380749" lon="9.0346565"><ele>69.0</ele><time>2026-04-19T06:55:14.579Z</time></trkpt><trkpt lat="45.2381414" lon="9.0346767"><ele>69.0</ele><time>2026-04-19T06:55:16.577Z</time></trkpt><trkpt lat="45.2382304" lon="9.0346947"><ele>69.0</ele><time>2026-04-19T06:55:19.585Z</time></trkpt><trkpt lat="45.2383113" lon="9.0347166"><ele>69.57142857142857</ele><time>2026-04-19T06:55:22.58Z</time></trkpt><trkpt lat="45.2383889" lon="9.0347451"><ele>70.14285714285715</ele><time>2026-04-19T06:55:25.587Z</time></trkpt><trkpt lat="45.2384522" lon="9.0347461"><ele>70.71428571428572</ele><time>2026-04-19T06:55:28.588Z</time></trkpt><trkpt lat="45.2385252" lon="9.0347568"><ele>71.28571428571429</ele><time>2026-04-19T06:55:32.583Z</time></trkpt><trkpt lat="45.238596" lon="9.0347886"><ele>71.85714285714286</ele><time>2026-04-19T06:55:35.584Z</time></trkpt><trkpt lat="45.2386619" lon="9.0348015"><ele>72.42857142857143</ele><time>2026-04-19T06:55:38.576Z</time></trkpt><trkpt lat="45.2387275" lon="9.0348393"><ele>73.0</ele><time>2026-04-19T06:55:42.581Z</time></trkpt><trkpt lat="45.2388057" lon="9.0348616"><ele>73.0</ele><time>2026-04-19T06:55:46.576Z</time></trkpt><trkpt lat="45.2388727" lon="9.0348912"><ele>73.0</ele><time>2026-04-19T06:55:49.578Z</time></trkpt><trkpt lat="45.2389452" lon="9.0349195"><ele>73.0</ele><time>2026-04-19T06:55:52.584Z</time></trkpt><trkpt lat="45.2390139" lon="9.0349392"><ele>73.0</ele><time>2026-04-19T06:55:55.573Z</time></trkpt><trkpt lat="45.239087" lon="9.0349606"><ele>73.0</ele><time>2026-04-19T06:55:58.648Z</time></trkpt><trkpt lat="45.2391583" lon="9.0349733"><ele>73.0</ele><time>2026-04-19T06:56:01.653Z</time></trkpt><trkpt lat="45.239243" lon="9.0349908"><ele>73.0</ele><time>2026-04-19T06:56:04.585Z</time></trkpt><trkpt lat="45.2393173" lon="9.035026"><ele>74.14285714285714</ele><time>2026-04-19T06:56:07.574Z</time></trkpt><trkpt lat="45.2393922" lon="9.0350638"><ele>75.28571428571429</ele><time>2026-04-19T06:56:10.581Z</time></trkpt><trkpt lat="45.2394604" lon="9.0350824"><ele>76.42857142857143</ele><time>2026-04-19T06:56:13.579Z</time></trkpt><trkpt lat="45.2395246" lon="9.035102"><ele>77.57142857142857</ele><time>2026-04-19T06:56:16.581Z</time></trkpt><trkpt lat="45.2395977" lon="9.0351166"><ele>78.71428571428571</ele><time>2026-04-19T06:56:19.572Z</time></trkpt><trkpt lat="45.2396721" lon="9.0351393"><ele>79.85714285714286</ele><time>2026-04-19T06:56:22.58Z</time></trkpt><trkpt lat="45.239746" lon="9.0351677"><ele>81.0</ele><time>2026-04-19T06:56:25.586Z</time></trkpt><trkpt lat="45.2397219" lon="9.0350746"><ele>81.0</ele><time>2026-04-19T06:56:33.581Z</time></trkpt><trkpt lat="45.2396519" lon="9.0350467"><ele>81.0</ele><time>2026-04-19T06:56:37.581Z</time></trkpt><trkpt lat="45.23959" lon="9.0350164"><ele>81.0</ele><time>2026-04-19T06:56:40.58Z</time></trkpt><trkpt lat="45.2395214" lon="9.0349745"><ele>81.0</ele><time>2026-04-19T06:56:43.578Z</time></trkpt><trkpt lat="45.2394547" lon="9.0349311"><ele>81.0</ele><time>2026-04-19T06:56:46.58Z</time></trkpt><trkpt lat="45.2393826" lon="9.034874"><ele>81.0</ele><time>2026-04-19T06:56:49.581Z</time></trkpt><trkpt lat="45.23932" lon="9.0348127"><ele>81.0</ele><time>2026-04-19T06:56:52.586Z</time></trkpt><trkpt lat="45.2392634" lon="9.0347288"><ele>81.33333333333333</ele><time>2026-04-19T06:56:55.585Z</time></trkpt><trkpt lat="45.2392074" lon="9.0346583"><ele>81.66666666666667</ele><time>2026-04-19T06:56:58.593Z</time></trkpt><trkpt lat="45.2391517" lon="9.0345757"><ele>82.0</ele><time>2026-04-19T06:57:01.592Z</time></trkpt><trkpt lat="45.2390883" lon="9.0344958"><ele>82.33333333333334</ele><time>2026-04-19T06:57:04.588Z</time></trkpt><trkpt lat="45.2390278" lon="9.0344126"><ele>82.66666666666667</ele><time>2026-04-19T06:57:07.583Z</time></trkpt><trkpt lat="45.2389663" lon="9.0343376"><ele>83.0</ele><time>2026-04-19T06:57:10.584Z</time></trkpt><trkpt lat="45.2389021" lon="9.0342694"><ele>81.33333333333334</ele><time>2026-04-19T06:57:13.584Z</time></trkpt><trkpt lat="45.2388618" lon="9.0341745"><ele>79.66666666666667</ele><time>2026-04-19T06:57:16.579Z</time></trkpt><trkpt lat="45.2388537" lon="9.0340566"><ele>78.0</ele><time>2026-04-19T06:57:19.591Z</time></trkpt><trkpt lat="45.2388503" lon="9.0339468"><ele>76.33333333333333</ele><time>2026-04-19T06:57:22.582Z</time></trkpt><trkpt lat="45.2388548" lon="9.0338355"><ele>74.66666666666666</ele><time>2026-04-19T06:57:25.593Z</time></trkpt><trkpt lat="45.2388715" lon="9.0337167"><ele>73.0</ele><time>2026-04-19T06:57:28.599Z</time></trkpt><trkpt lat="45.2388995" lon="9.0336106"><ele>72.83333333333333</ele><time>2026-04-19T06:57:31.59Z</time></trkpt><trkpt lat="45.2389365" lon="9.0335303"><ele>72.66666666666666</ele><time>2026-04-19T06:57:34.584Z</time></trkpt><trkpt lat="45.2389929" lon="9.03345"><ele>72.5</ele><time>2026-04-19T06:57:37.58Z</time></trkpt><trkpt lat="45.2390481" lon="9.0333661"><ele>72.33333333333333</ele><time>2026-04-19T06:57:40.582Z</time></trkpt><trkpt lat="45.2391011" lon="9.0332642"><ele>72.16666666666667</ele><time>2026-04-19T06:57:43.643Z</time></trkpt><trkpt lat="45.2391234" lon="9.0331451"><ele>72.0</ele><time>2026-04-19T06:57:46.577Z</time></trkpt><trkpt lat="45.2391158" lon="9.0330365"><ele>72.16666666666667</ele><time>2026-04-19T06:57:49.57Z</time></trkpt><trkpt lat="45.239079" lon="9.0329346"><ele>72.33333333333333</ele><time>2026-04-19T06:57:52.58Z</time></trkpt><trkpt lat="45.2390023" lon="9.0328925"><ele>72.5</ele><time>2026-04-19T06:57:55.62Z</time></trkpt><trkpt lat="45.2389271" lon="9.0328934"><ele>72.66666666666666</ele><time>2026-04-19T06:57:58.583Z</time></trkpt><trkpt lat="45.2388487" lon="9.0328926"><ele>72.83333333333333</ele><time>2026-04-19T06:58:01.589Z</time></trkpt><trkpt lat="45.2387653" lon="9.032897"><ele>73.0</ele><time>2026-04-19T06:58:04.579Z</time></trkpt><trkpt lat="45.2386934" lon="9.0328681"><ele>73.0</ele><time>2026-04-19T06:58:07.611Z</time></trkpt><trkpt lat="45.2386451" lon="9.0327718"><ele>73.0</ele><time>2026-04-19T06:58:10.582Z</time></trkpt><trkpt lat="45.2386156" lon="9.0326564"><ele>73.0</ele><time>2026-04-19T06:58:13.58Z</time></trkpt><trkpt lat="45.2385897" lon="9.032537"><ele>73.0</ele><time>2026-04-19T06:58:16.586Z</time></trkpt><trkpt lat="45.2385942" lon="9.0324031"><ele>73.0</ele><time>2026-04-19T06:58:19.588Z</time></trkpt><trkpt lat="45.2385972" lon="9.0323101"><ele>73.0</ele><time>2026-04-19T06:58:21.58Z</time></trkpt><trkpt lat="45.2386031" lon="9.0321762"><ele>73.33333333333333</ele><time>2026-04-19T06:58:24.581Z</time></trkpt><trkpt lat="45.2386039" lon="9.0320852"><ele>73.66666666666666</ele><time>2026-04-19T06:58:26.587Z</time></trkpt><trkpt lat="45.2386127" lon="9.0319476"><ele>74.0</ele><time>2026-04-19T06:58:29.582Z</time></trkpt><trkpt lat="45.2386498" lon="9.0318276"><ele>74.33333333333333</ele><time>2026-04-19T06:58:32.579Z</time></trkpt><trkpt lat="45.2387034" lon="9.0317287"><ele>74.66666666666667</ele><time>2026-04-19T06:58:35.584Z</time></trkpt><trkpt lat="45.2387648" lon="9.0316359"><ele>75.0</ele><time>2026-04-19T06:58:38.58Z</time></trkpt><trkpt lat="45.2388261" lon="9.0315417"><ele>75.0</ele><time>2026-04-19T06:58:41.583Z</time></trkpt><trkpt lat="45.2388856" lon="9.0314503"><ele>75.0</ele><time>2026-04-19T06:58:44.58Z</time></trkpt><trkpt lat="45.2389454" lon="9.0313642"><ele>75.0</ele><time>2026-04-19T06:58:47.592Z</time></trkpt><trkpt lat="45.2389896" lon="9.0312942"><ele>75.0</ele><time>2026-04-19T06:58:49.574Z</time></trkpt><trkpt lat="45.2390406" lon="9.0312327"><ele>75.0</ele><time>2026-04-19T06:58:51.585Z</time></trkpt><trkpt lat="45.2390958" lon="9.0311308"><ele>75.0</ele><time>2026-04-19T06:58:54.585Z</time></trkpt><trkpt lat="45.2391382" lon="9.0310641"><ele>76.33333333333333</ele><time>2026-04-19T06:58:56.58Z</time></trkpt><trkpt lat="45.2392009" lon="9.0309707"><ele>77.66666666666667</ele><time>2026-04-19T06:58:59.662Z</time></trkpt><trkpt lat="45.2392694" lon="9.0309321"><ele>79.0</ele><time>2026-04-19T06:59:01.582Z</time></trkpt><trkpt lat="45.2393355" lon="9.0309596"><ele>80.33333333333334</ele><time>2026-04-19T06:59:03.577Z</time></trkpt><trkpt lat="45.2394098" lon="9.0310207"><ele>81.66666666666667</ele><time>2026-04-19T06:59:06.583Z</time></trkpt><trkpt lat="45.2394765" lon="9.0310967"><ele>83.0</ele><time>2026-04-19T06:59:09.591Z</time></trkpt><trkpt lat="45.2395301" lon="9.0311476"><ele>83.0</ele><time>2026-04-19T06:59:11.59Z</time></trkpt><trkpt lat="45.2396064" lon="9.0312143"><ele>83.0</ele><time>2026-04-19T06:59:14.574Z</time></trkpt><trkpt lat="45.2396789" lon="9.0312969"><ele>83.0</ele><time>2026-04-19T06:59:17.611Z</time></trkpt><trkpt lat="45.2397272" lon="9.0313602"><ele>83.0</ele><time>2026-04-19T06:59:19.575Z</time></trkpt><trkpt lat="45.239779" lon="9.0314213"><ele>83.0</ele><time>2026-04-19T06:59:21.576Z</time></trkpt><trkpt lat="45.2398321" lon="9.0314733"><ele>83.0</ele><time>2026-04-19T06:59:23.579Z</time></trkpt><trkpt lat="45.2398917" lon="9.0315146"><ele>83.0</ele><time>2026-04-19T06:59:25.58Z</time></trkpt><trkpt lat="45.2399608" lon="9.0315645"><ele>82.83333333333334</ele><time>2026-04-19T06:59:27.587Z</time></trkpt><trkpt lat="45.2400385" lon="9.0316137"><ele>82.66666666666667</ele><time>2026-04-19T06:59:29.581Z</time></trkpt><trkpt lat="45.2401045" lon="9.0316557"><ele>82.5</ele><time>2026-04-19T06:59:31.583Z</time></trkpt><trkpt lat="45.2401846" lon="9.0317095"><ele>82.33333333333333</ele><time>2026-04-19T06:59:34.574Z</time></trkpt><trkpt lat="45.240245" lon="9.0316757"><ele>82.16666666666666</ele><time>2026-04-19T06:59:38.585Z</time></trkpt><trkpt lat="45.2401867" lon="9.0315913"><ele>82.0</ele><time>2026-04-19T06:59:41.587Z</time></trkpt><trkpt lat="45.2401267" lon="9.0315119"><ele>82.0</ele><time>2026-04-19T06:59:43.581Z</time></trkpt><trkpt lat="45.2400666" lon="9.0314218"><ele>82.0</ele><time>2026-04-19T06:59:45.583Z</time></trkpt><trkpt lat="45.2400211" lon="9.0313441"><ele>82.0</ele><time>2026-04-19T06:59:47.577Z</time></trkpt><trkpt lat="45.2399558" lon="9.0312565"><ele>82.0</ele><time>2026-04-19T06:59:49.587Z</time></trkpt><trkpt lat="45.2398692" lon="9.0311896"><ele>82.0</ele><time>2026-04-19T06:59:51.648Z</time></trkpt><trkpt lat="45.2397876" lon="9.0311141"><ele>82.0</ele><time>2026-04-19T06:59:53.621Z</time></trkpt><trkpt lat="45.2397008" lon="9.031034"><ele>82.19999999999999</ele><time>2026-04-19T06:59:55.583Z</time></trkpt><trkpt lat="45.2396193" lon="9.0309571"><ele>82.4</ele><time>2026-04-19T06:59:57.593Z</time></trkpt><trkpt lat="45.2395608" lon="9.0308602"><ele>82.6</ele><time>2026-04-19T06:59:59.585Z</time></trkpt><trkpt lat="45.2395366" lon="9.0307263"><ele>82.80000000000001</ele><time>2026-04-19T07:00:01.585Z</time></trkpt><trkpt lat="45.2395191" lon="9.0305522"><ele>83.0</ele><time>2026-04-19T07:00:03.589Z</time></trkpt><trkpt lat="45.2395001" lon="9.0304584"><ele>81.83333333333334</ele><time>2026-04-19T07:00:04.582Z</time></trkpt><trkpt lat="45.2394866" lon="9.0303575"><ele>80.66666666666667</ele><time>2026-04-19T07:00:05.589Z</time></trkpt><trkpt lat="45.2394681" lon="9.0302536"><ele>79.5</ele><time>2026-04-19T07:00:06.591Z</time></trkpt><trkpt lat="45.2394477" lon="9.0301502"><ele>78.33333333333333</ele><time>2026-04-19T07:00:07.592Z</time></trkpt><trkpt lat="45.2394295" lon="9.0300448"><ele>77.16666666666666</ele><time>2026-04-19T07:00:08.592Z</time></trkpt><trkpt lat="45.239412" lon="9.0299411"><ele>76.0</ele><time>2026-04-19T07:00:09.579Z</time></trkpt><trkpt lat="45.239396" lon="9.0298345"><ele>74.39999999999999</ele><time>2026-04-19T07:00:10.584Z</time></trkpt><trkpt lat="45.239374" lon="9.0297359"><ele>72.8</ele><time>2026-04-19T07:00:11.583Z</time></trkpt><trkpt lat="45.2393424" lon="9.0295666"><ele>71.19999999999999</ele><time>2026-04-19T07:00:13.58Z</time></trkpt><trkpt lat="45.2393217" lon="9.0294311"><ele>69.6</ele><time>2026-04-19T07:00:15.582Z</time></trkpt><trkpt lat="45.2393282" lon="9.0293009"><ele>68.0</ele><time>2026-04-19T07:00:17.618Z</time></trkpt><trkpt lat="45.2393648" lon="9.0292052"><ele>67.66666666666667</ele><time>2026-04-19T07:00:19.579Z</time></trkpt><trkpt lat="45.23937" lon="9.0290788"><ele>67.33333333333334</ele><time>2026-04-19T07:00:21.586Z</time></trkpt><trkpt lat="45.2393689" lon="9.0289572"><ele>67.0</ele><time>2026-04-19T07:00:23.583Z</time></trkpt><trkpt lat="45.2393971" lon="9.0288563"><ele>66.66666666666667</ele><time>2026-04-19T07:00:25.575Z</time></trkpt><trkpt lat="45.239437" lon="9.0287835"><ele>66.33333333333333</ele><time>2026-04-19T07:00:27.581Z</time></trkpt><trkpt lat="45.2395058" lon="9.0286938"><ele>66.0</ele><time>2026-04-19T07:00:30.592Z</time></trkpt><trkpt lat="45.2395547" lon="9.0286243"><ele>66.0</ele><time>2026-04-19T07:00:33.583Z</time></trkpt><trkpt lat="45.2396144" lon="9.0285563"><ele>66.0</ele><time>2026-04-19T07:00:36.581Z</time></trkpt><trkpt lat="45.2396778" lon="9.0284642"><ele>66.0</ele><time>2026-04-19T07:00:39.582Z</time></trkpt><trkpt lat="45.2397383" lon="9.0283714"><ele>66.0</ele><time>2026-04-19T07:00:42.648Z</time></trkpt><trkpt lat="45.2397811" lon="9.0283023"><ele>66.0</ele><time>2026-04-19T07:00:44.598Z</time></trkpt><trkpt lat="45.239835" lon="9.0282327"><ele>66.0</ele><time>2026-04-19T07:00:46.578Z</time></trkpt><trkpt lat="45.2398838" lon="9.0281682"><ele>65.85714285714286</ele><time>2026-04-19T07:00:48.585Z</time></trkpt><trkpt lat="45.2399268" lon="9.0281021"><ele>65.71428571428572</ele><time>2026-04-19T07:00:50.583Z</time></trkpt><trkpt lat="45.2399938" lon="9.0280088"><ele>65.57142857142858</ele><time>2026-04-19T07:00:53.579Z</time></trkpt><trkpt lat="45.2400416" lon="9.02794"><ele>65.42857142857143</ele><time>2026-04-19T07:00:55.576Z</time></trkpt><trkpt lat="45.2400719" lon="9.027857"><ele>65.28571428571429</ele><time>2026-04-19T07:00:57.59Z</time></trkpt><trkpt lat="45.240104" lon="9.0277734"><ele>65.14285714285715</ele><time>2026-04-19T07:00:59.623Z</time></trkpt><trkpt lat="45.240157" lon="9.0276683"><ele>65.0</ele><time>2026-04-19T07:01:02.58Z</time></trkpt><trkpt lat="45.2402073" lon="9.0275557"><ele>65.14285714285715</ele><time>2026-04-19T07:01:05.596Z</time></trkpt><trkpt lat="45.2402434" lon="9.0274762"><ele>65.28571428571429</ele><time>2026-04-19T07:01:07.588Z</time></trkpt><trkpt lat="45.2402682" lon="9.0273924"><ele>65.42857142857143</ele><time>2026-04-19T07:01:09.584Z</time></trkpt><trkpt lat="45.2403258" lon="9.0273077"><ele>65.57142857142858</ele><time>2026-04-19T07:01:12.591Z</time></trkpt><trkpt lat="45.2403955" lon="9.027283"><ele>65.71428571428572</ele><time>2026-04-19T07:01:15.575Z</time></trkpt><trkpt lat="45.2404798" lon="9.0273018"><ele>65.85714285714286</ele><time>2026-04-19T07:01:18.582Z</time></trkpt><trkpt lat="45.2405371" lon="9.027352"><ele>66.0</ele><time>2026-04-19T07:01:20.579Z</time></trkpt><trkpt lat="45.2406179" lon="9.0274395"><ele>66.0</ele><time>2026-04-19T07:01:23.582Z</time></trkpt><trkpt lat="45.2406728" lon="9.0274884"><ele>66.0</ele><time>2026-04-19T07:01:25.587Z</time></trkpt><trkpt lat="45.2407225" lon="9.0275435"><ele>66.0</ele><time>2026-04-19T07:01:27.593Z</time></trkpt><trkpt lat="45.2407714" lon="9.0276058"><ele>66.0</ele><time>2026-04-19T07:01:29.577Z</time></trkpt><trkpt lat="45.2408265" lon="9.027669"><ele>66.0</ele><time>2026-04-19T07:01:31.582Z</time></trkpt><trkpt lat="45.2408814" lon="9.0277281"><ele>66.0</ele><time>2026-04-19T07:01:33.617Z</time></trkpt><trkpt lat="45.2409333" lon="9.027789"><ele>66.0</ele><time>2026-04-19T07:01:35.58Z</time></trkpt><trkpt lat="45.2410097" lon="9.0278765"><ele>66.0</ele><time>2026-04-19T07:01:38.577Z</time></trkpt><trkpt lat="45.2410753" lon="9.027958"><ele>66.0</ele><time>2026-04-19T07:01:41.579Z</time></trkpt><trkpt lat="45.2411242" lon="9.0280145"><ele>66.0</ele><time>2026-04-19T07:01:43.582Z</time></trkpt><trkpt lat="45.2411883" lon="9.0281041"><ele>66.0</ele><time>2026-04-19T07:01:46.583Z</time></trkpt><trkpt lat="45.2412406" lon="9.0281727"><ele>66.0</ele><time>2026-04-19T07:01:48.588Z</time></trkpt><trkpt lat="45.2412949" lon="9.0282298"><ele>66.0</ele><time>2026-04-19T07:01:50.595Z</time></trkpt><trkpt lat="45.2413499" lon="9.0282963"><ele>66.0</ele><time>2026-04-19T07:01:52.581Z</time></trkpt><trkpt lat="45.2414011" lon="9.0283547"><ele>66.0</ele><time>2026-04-19T07:01:54.58Z</time></trkpt><trkpt lat="45.2414569" lon="9.0284109"><ele>66.0</ele><time>2026-04-19T07:01:56.589Z</time></trkpt><trkpt lat="45.2415113" lon="9.0284706"><ele>66.0</ele><time>2026-04-19T07:01:58.587Z</time></trkpt><trkpt lat="45.2415633" lon="9.028532"><ele>66.0</ele><time>2026-04-19T07:02:00.587Z</time></trkpt><trkpt lat="45.2416105" lon="9.0285994"><ele>66.0</ele><time>2026-04-19T07:02:02.592Z</time></trkpt><trkpt lat="45.2416593" lon="9.0286667"><ele>66.0</ele><time>2026-04-19T07:02:04.579Z</time></trkpt><trkpt lat="45.2417081" lon="9.0287245"><ele>66.66666666666667</ele><time>2026-04-19T07:02:06.576Z</time></trkpt><trkpt lat="45.2417543" lon="9.028786"><ele>67.33333333333333</ele><time>2026-04-19T07:02:08.577Z</time></trkpt><trkpt lat="45.2418056" lon="9.0288515"><ele>68.0</ele><time>2026-04-19T07:02:10.585Z</time></trkpt><trkpt lat="45.241863" lon="9.0289212"><ele>68.66666666666666</ele><time>2026-04-19T07:02:12.64Z</time></trkpt><trkpt lat="45.2419085" lon="9.0289853"><ele>69.33333333333333</ele><time>2026-04-19T07:02:14.581Z</time></trkpt><trkpt lat="45.2419783" lon="9.0290739"><ele>70.0</ele><time>2026-04-19T07:02:17.583Z</time></trkpt><trkpt lat="45.2420506" lon="9.0291575"><ele>70.28571428571429</ele><time>2026-04-19T07:02:20.581Z</time></trkpt><trkpt lat="45.2421011" lon="9.0292131"><ele>70.57142857142857</ele><time>2026-04-19T07:02:22.585Z</time></trkpt><trkpt lat="45.2421521" lon="9.0292841"><ele>70.85714285714286</ele><time>2026-04-19T07:02:24.585Z</time></trkpt><trkpt lat="45.2422232" lon="9.029375"><ele>71.14285714285714</ele><time>2026-04-19T07:02:27.579Z</time></trkpt><trkpt lat="45.2422708" lon="9.0294347"><ele>71.42857142857143</ele><time>2026-04-19T07:02:29.585Z</time></trkpt><trkpt lat="45.242323" lon="9.0294932"><ele>71.71428571428572</ele><time>2026-04-19T07:02:31.613Z</time></trkpt><trkpt lat="45.2423858" lon="9.0295624"><ele>72.0</ele><time>2026-04-19T07:02:34.583Z</time></trkpt><trkpt lat="45.2424667" lon="9.0295528"><ele>73.0</ele><time>2026-04-19T07:02:37.592Z</time></trkpt><trkpt lat="45.2425444" lon="9.0294914"><ele>74.0</ele><time>2026-04-19T07:02:40.587Z</time></trkpt><trkpt lat="45.2426225" lon="9.0294293"><ele>75.0</ele><time>2026-04-19T07:02:43.595Z</time></trkpt><trkpt lat="45.2426922" lon="9.0293536"><ele>76.0</ele><time>2026-04-19T07:02:46.584Z</time></trkpt><trkpt lat="45.2427726" lon="9.0292862"><ele>77.0</ele><time>2026-04-19T07:02:49.578Z</time></trkpt><trkpt lat="45.2428512" lon="9.029216"><ele>77.0</ele><time>2026-04-19T07:02:52.581Z</time></trkpt><trkpt lat="45.2429153" lon="9.0291248"><ele>77.0</ele><time>2026-04-19T07:02:55.585Z</time></trkpt><trkpt lat="45.2429176" lon="9.0290298"><ele>77.0</ele><time>2026-04-19T07:02:57.579Z</time></trkpt><trkpt lat="45.2429036" lon="9.0289387"><ele>77.0</ele><time>2026-04-19T07:02:59.58Z</time></trkpt><trkpt lat="45.2428949" lon="9.0288267"><ele>77.0</ele><time>2026-04-19T07:03:02.595Z</time></trkpt><trkpt lat="45.2428794" lon="9.0287003"><ele>77.0</ele><time>2026-04-19T07:03:05.581Z</time></trkpt><trkpt lat="45.2428784" lon="9.0285748"><ele>77.0</ele><time>2026-04-19T07:03:08.585Z</time></trkpt><trkpt lat="45.2428907" lon="9.0284811"><ele>77.0</ele><time>2026-04-19T07:03:10.588Z</time></trkpt><trkpt lat="45.2429189" lon="9.0283968"><ele>77.0</ele><time>2026-04-19T07:03:12.579Z</time></trkpt><trkpt lat="45.2429593" lon="9.0283224"><ele>77.0</ele><time>2026-04-19T07:03:14.584Z</time></trkpt><trkpt lat="45.2430178" lon="9.0282282"><ele>77.0</ele><time>2026-04-19T07:03:17.586Z</time></trkpt><trkpt lat="45.2430731" lon="9.0281235"><ele>77.0</ele><time>2026-04-19T07:03:20.583Z</time></trkpt><trkpt lat="45.243116" lon="9.0280577"><ele>77.0</ele><time>2026-04-19T07:03:22.587Z</time></trkpt><trkpt lat="45.2431624" lon="9.0279869"><ele>77.42857142857143</ele><time>2026-04-19T07:03:24.583Z</time></trkpt><trkpt lat="45.2432075" lon="9.0279106"><ele>77.85714285714286</ele><time>2026-04-19T07:03:26.59Z</time></trkpt><trkpt lat="45.2432527" lon="9.027847"><ele>78.28571428571428</ele><time>2026-04-19T07:03:28.649Z</time></trkpt><trkpt lat="45.2432943" lon="9.0277789"><ele>78.71428571428572</ele><time>2026-04-19T07:03:30.657Z</time></trkpt><trkpt lat="45.2433515" lon="9.0277069"><ele>79.14285714285714</ele><time>2026-04-19T07:03:33.589Z</time></trkpt><trkpt lat="45.2434204" lon="9.0276155"><ele>79.57142857142857</ele><time>2026-04-19T07:03:36.583Z</time></trkpt><trkpt lat="45.2434694" lon="9.027558"><ele>80.0</ele><time>2026-04-19T07:03:38.578Z</time></trkpt><trkpt lat="45.2435547" lon="9.0275123"><ele>80.0</ele><time>2026-04-19T07:03:41.574Z</time></trkpt><trkpt lat="45.2436186" lon="9.0275207"><ele>80.0</ele><time>2026-04-19T07:03:43.587Z</time></trkpt><trkpt lat="45.2436881" lon="9.027552"><ele>80.0</ele><time>2026-04-19T07:03:45.611Z</time></trkpt><trkpt lat="45.2437549" lon="9.0275827"><ele>80.0</ele><time>2026-04-19T07:03:47.58Z</time></trkpt><trkpt lat="45.2438136" lon="9.0276279"><ele>80.0</ele><time>2026-04-19T07:03:49.576Z</time></trkpt><trkpt lat="45.2438728" lon="9.027677"><ele>80.0</ele><time>2026-04-19T07:03:51.583Z</time></trkpt><trkpt lat="45.2439272" lon="9.0277286"><ele>80.0</ele><time>2026-04-19T07:03:53.584Z</time></trkpt><trkpt lat="45.2439806" lon="9.0277814"><ele>80.16666666666667</ele><time>2026-04-19T07:03:55.583Z</time></trkpt><trkpt lat="45.2440319" lon="9.0278411"><ele>80.33333333333334</ele><time>2026-04-19T07:03:57.585Z</time></trkpt><trkpt lat="45.2440863" lon="9.027898"><ele>80.5</ele><time>2026-04-19T07:03:59.581Z</time></trkpt><trkpt lat="45.2441567" lon="9.0279671"><ele>80.66666666666667</ele><time>2026-04-19T07:04:02.581Z</time></trkpt><trkpt lat="45.2442362" lon="9.0280361"><ele>80.83333333333333</ele><time>2026-04-19T07:04:05.587Z</time></trkpt><trkpt lat="45.2442927" lon="9.0280802"><ele>81.0</ele><time>2026-04-19T07:04:07.616Z</time></trkpt><trkpt lat="45.2443701" lon="9.0281503"><ele>81.0</ele><time>2026-04-19T07:04:10.576Z</time></trkpt><trkpt lat="45.2444251" lon="9.0282035"><ele>81.0</ele><time>2026-04-19T07:04:12.579Z</time></trkpt><trkpt lat="45.2444836" lon="9.0282484"><ele>81.0</ele><time>2026-04-19T07:04:14.575Z</time></trkpt><trkpt lat="45.2445648" lon="9.0283151"><ele>81.0</ele><time>2026-04-19T07:04:17.584Z</time></trkpt><trkpt lat="45.2446214" lon="9.0283625"><ele>81.0</ele><time>2026-04-19T07:04:19.584Z</time></trkpt><trkpt lat="45.2446771" lon="9.0284106"><ele>81.0</ele><time>2026-04-19T07:04:21.587Z</time></trkpt><trkpt lat="45.2447613" lon="9.0284749"><ele>81.0</ele><time>2026-04-19T07:04:24.591Z</time></trkpt><trkpt lat="45.2448158" lon="9.0285205"><ele>81.0</ele><time>2026-04-19T07:04:26.58Z</time></trkpt><trkpt lat="45.2448713" lon="9.0285695"><ele>81.0</ele><time>2026-04-19T07:04:28.576Z</time></trkpt><trkpt lat="45.244928" lon="9.0286114"><ele>81.0</ele><time>2026-04-19T07:04:30.592Z</time></trkpt><trkpt lat="45.2449847" lon="9.0286592"><ele>81.0</ele><time>2026-04-19T07:04:32.577Z</time></trkpt><trkpt lat="45.2450409" lon="9.0287071"><ele>81.0</ele><time>2026-04-19T07:04:34.576Z</time></trkpt><trkpt lat="45.2451019" lon="9.0287607"><ele>81.0</ele><time>2026-04-19T07:04:36.578Z</time></trkpt><trkpt lat="45.2451596" lon="9.0288097"><ele>81.0</ele><time>2026-04-19T07:04:38.582Z</time></trkpt><trkpt lat="45.2452125" lon="9.0288645"><ele>81.0</ele><time>2026-04-19T07:04:40.589Z</time></trkpt><trkpt lat="45.2452651" lon="9.0289173"><ele>81.0</ele><time>2026-04-19T07:04:42.588Z</time></trkpt><trkpt lat="45.2453212" lon="9.0289665"><ele>81.0</ele><time>2026-04-19T07:04:44.582Z</time></trkpt><trkpt lat="45.2453741" lon="9.0290153"><ele>81.0</ele><time>2026-04-19T07:04:46.583Z</time></trkpt><trkpt lat="45.24543" lon="9.0290655"><ele>81.0</ele><time>2026-04-19T07:04:48.587Z</time></trkpt><trkpt lat="45.245487" lon="9.0291164"><ele>81.0</ele><time>2026-04-19T07:04:50.579Z</time></trkpt><trkpt lat="45.2455479" lon="9.029165"><ele>81.16666666666667</ele><time>2026-04-19T07:04:52.574Z</time></trkpt><trkpt lat="45.2456049" lon="9.0292143"><ele>81.33333333333333</ele><time>2026-04-19T07:04:54.58Z</time></trkpt><trkpt lat="45.2456644" lon="9.029264"><ele>81.5</ele><time>2026-04-19T07:04:56.589Z</time></trkpt><trkpt lat="45.245742" lon="9.0293307"><ele>81.66666666666666</ele><time>2026-04-19T07:04:59.581Z</time></trkpt><trkpt lat="45.2458188" lon="9.0293892"><ele>81.83333333333333</ele><time>2026-04-19T07:05:02.581Z</time></trkpt><trkpt lat="45.245879" lon="9.0294533"><ele>82.0</ele><time>2026-04-19T07:05:05.608Z</time></trkpt><trkpt lat="45.2459452" lon="9.0294625"><ele>82.33333333333333</ele><time>2026-04-19T07:05:08.585Z</time></trkpt><trkpt lat="45.2460091" lon="9.0293935"><ele>82.66666666666666</ele><time>2026-04-19T07:05:11.577Z</time></trkpt><trkpt lat="45.2460594" lon="9.0292906"><ele>83.0</ele><time>2026-04-19T07:05:14.653Z</time></trkpt><trkpt lat="45.2460962" lon="9.0291739"><ele>83.33333333333333</ele><time>2026-04-19T07:05:17.58Z</time></trkpt><trkpt lat="45.2461359" lon="9.0290604"><ele>83.66666666666667</ele><time>2026-04-19T07:05:20.576Z</time></trkpt><trkpt lat="45.2461642" lon="9.0289773"><ele>84.0</ele><time>2026-04-19T07:05:22.582Z</time></trkpt><trkpt lat="45.246202" lon="9.0288693"><ele>84.0</ele><time>2026-04-19T07:05:25.581Z</time></trkpt><trkpt lat="45.2462338" lon="9.02876"><ele>84.0</ele><time>2026-04-19T07:05:28.592Z</time></trkpt><trkpt lat="45.2462647" lon="9.0286429"><ele>84.0</ele><time>2026-04-19T07:05:31.589Z</time></trkpt><trkpt lat="45.2462925" lon="9.0285188"><ele>84.0</ele><time>2026-04-19T07:05:34.582Z</time></trkpt><trkpt lat="45.2463211" lon="9.0283951"><ele>84.0</ele><time>2026-04-19T07:05:37.62Z</time></trkpt><trkpt lat="45.2463506" lon="9.0282745"><ele>84.0</ele><time>2026-04-19T07:05:40.584Z</time></trkpt><trkpt lat="45.2463705" lon="9.0281865"><ele>84.16666666666667</ele><time>2026-04-19T07:05:42.596Z</time></trkpt><trkpt lat="45.2463989" lon="9.0280598"><ele>84.33333333333333</ele><time>2026-04-19T07:05:45.582Z</time></trkpt><trkpt lat="45.2464256" lon="9.0279402"><ele>84.5</ele><time>2026-04-19T07:05:48.581Z</time></trkpt><trkpt lat="45.2464515" lon="9.027821"><ele>84.66666666666666</ele><time>2026-04-19T07:05:51.578Z</time></trkpt><trkpt lat="45.2464711" lon="9.0277337"><ele>84.83333333333333</ele><time>2026-04-19T07:05:53.58Z</time></trkpt><trkpt lat="45.2464889" lon="9.0276476"><ele>85.0</ele><time>2026-04-19T07:05:55.589Z</time></trkpt><trkpt lat="45.2465033" lon="9.0275593"><ele>85.33333333333333</ele><time>2026-04-19T07:05:57.578Z</time></trkpt><trkpt lat="45.2465197" lon="9.0274679"><ele>85.66666666666666</ele><time>2026-04-19T07:05:59.577Z</time></trkpt><trkpt lat="45.2465342" lon="9.0273786"><ele>86.0</ele><time>2026-04-19T07:06:01.578Z</time></trkpt><trkpt lat="45.2465564" lon="9.0272485"><ele>86.33333333333333</ele><time>2026-04-19T07:06:04.584Z</time></trkpt><trkpt lat="45.2465787" lon="9.0271516"><ele>86.66666666666667</ele><time>2026-04-19T07:06:06.582Z</time></trkpt><trkpt lat="45.2466114" lon="9.0270517"><ele>87.0</ele><time>2026-04-19T07:06:08.58Z</time></trkpt><trkpt lat="45.2466311" lon="9.0269455"><ele>87.0</ele><time>2026-04-19T07:06:10.58Z</time></trkpt><trkpt lat="45.2466515" lon="9.0268582"><ele>87.0</ele><time>2026-04-19T07:06:12.593Z</time></trkpt><trkpt lat="45.2466814" lon="9.0267301"><ele>87.0</ele><time>2026-04-19T07:06:15.579Z</time></trkpt><trkpt lat="45.2467139" lon="9.0266063"><ele>87.0</ele><time>2026-04-19T07:06:18.583Z</time></trkpt><trkpt lat="45.2467497" lon="9.0264833"><ele>87.0</ele><time>2026-04-19T07:06:21.58Z</time></trkpt><trkpt lat="45.2467968" lon="9.026416"><ele>87.0</ele><time>2026-04-19T07:06:23.592Z</time></trkpt><trkpt lat="45.2468832" lon="9.0263657"><ele>86.85714285714286</ele><time>2026-04-19T07:06:26.578Z</time></trkpt><trkpt lat="45.2469748" lon="9.0264022"><ele>86.71428571428572</ele><time>2026-04-19T07:06:29.585Z</time></trkpt><trkpt lat="45.247039" lon="9.0264411"><ele>86.57142857142858</ele><time>2026-04-19T07:06:31.585Z</time></trkpt><trkpt lat="45.2470996" lon="9.026474"><ele>86.42857142857143</ele><time>2026-04-19T07:06:33.579Z</time></trkpt><trkpt lat="45.2471628" lon="9.0265123"><ele>86.28571428571429</ele><time>2026-04-19T07:06:35.593Z</time></trkpt><trkpt lat="45.2472202" lon="9.026555"><ele>86.14285714285715</ele><time>2026-04-19T07:06:37.575Z</time></trkpt><trkpt lat="45.2472823" lon="9.026593"><ele>86.0</ele><time>2026-04-19T07:06:39.587Z</time></trkpt><trkpt lat="45.2473441" lon="9.0266338"><ele>86.33333333333334</ele><time>2026-04-19T07:06:41.609Z</time></trkpt><trkpt lat="45.2474073" lon="9.0266702"><ele>86.66666666666667</ele><time>2026-04-19T07:06:43.581Z</time></trkpt><trkpt lat="45.2474689" lon="9.0267117"><ele>87.0</ele><time>2026-04-19T07:06:45.581Z</time></trkpt><trkpt lat="45.2475268" lon="9.0267573"><ele>87.33333333333333</ele><time>2026-04-19T07:06:47.59Z</time></trkpt><trkpt lat="45.2476047" lon="9.0268185"><ele>87.66666666666666</ele><time>2026-04-19T07:06:50.586Z</time></trkpt><trkpt lat="45.2476613" lon="9.0268675"><ele>88.0</ele><time>2026-04-19T07:06:52.584Z</time></trkpt><trkpt lat="45.2477416" lon="9.0269312"><ele>88.0</ele><time>2026-04-19T07:06:55.584Z</time></trkpt><trkpt lat="45.2478195" lon="9.0270146"><ele>88.0</ele><time>2026-04-19T07:06:58.582Z</time></trkpt><trkpt lat="45.2478818" lon="9.0270837"><ele>88.0</ele><time>2026-04-19T07:07:01.578Z</time></trkpt><trkpt lat="45.2479603" lon="9.0271502"><ele>88.0</ele><time>2026-04-19T07:07:04.597Z</time></trkpt><trkpt lat="45.2480397" lon="9.0272079"><ele>88.0</ele><time>2026-04-19T07:07:07.586Z</time></trkpt><trkpt lat="45.2481262" lon="9.0272586"><ele>88.0</ele><time>2026-04-19T07:07:10.575Z</time></trkpt><trkpt lat="45.2482071" lon="9.0273217"><ele>88.0</ele><time>2026-04-19T07:07:13.581Z</time></trkpt><trkpt lat="45.2482625" lon="9.0273739"><ele>88.0</ele><time>2026-04-19T07:07:15.58Z</time></trkpt><trkpt lat="45.2483447" lon="9.0274394"><ele>88.0</ele><time>2026-04-19T07:07:18.588Z</time></trkpt><trkpt lat="45.2484303" lon="9.0275112"><ele>88.0</ele><time>2026-04-19T07:07:21.6Z</time></trkpt><trkpt lat="45.2484891" lon="9.0275581"><ele>88.0</ele><time>2026-04-19T07:07:23.581Z</time></trkpt><trkpt lat="45.2485471" lon="9.0276005"><ele>88.0</ele><time>2026-04-19T07:07:25.586Z</time></trkpt><trkpt lat="45.2486062" lon="9.0276416"><ele>88.0</ele><time>2026-04-19T07:07:27.574Z</time></trkpt><trkpt lat="45.2486711" lon="9.0276763"><ele>88.0</ele><time>2026-04-19T07:07:29.578Z</time></trkpt><trkpt lat="45.2487297" lon="9.027711"><ele>88.0</ele><time>2026-04-19T07:07:31.583Z</time></trkpt><trkpt lat="45.2487932" lon="9.0277417"><ele>88.0</ele><time>2026-04-19T07:07:33.582Z</time></trkpt><trkpt lat="45.2488565" lon="9.02777"><ele>88.0</ele><time>2026-04-19T07:07:35.579Z</time></trkpt><trkpt lat="45.2489208" lon="9.0277949"><ele>88.0</ele><time>2026-04-19T07:07:37.644Z</time></trkpt><trkpt lat="45.248985" lon="9.0278037"><ele>88.0</ele><time>2026-04-19T07:07:39.583Z</time></trkpt><trkpt lat="45.2490489" lon="9.0278168"><ele>88.0</ele><time>2026-04-19T07:07:41.582Z</time></trkpt><trkpt lat="45.2491129" lon="9.0278235"><ele>88.0</ele><time>2026-04-19T07:07:43.587Z</time></trkpt><trkpt lat="45.2491833" lon="9.0278198"><ele>88.0</ele><time>2026-04-19T07:07:45.577Z</time></trkpt><trkpt lat="45.2492532" lon="9.0278213"><ele>88.0</ele><time>2026-04-19T07:07:47.574Z</time></trkpt><trkpt lat="45.2493218" lon="9.0278168"><ele>88.0</ele><time>2026-04-19T07:07:49.582Z</time></trkpt><trkpt lat="45.2494141" lon="9.027783"><ele>88.0</ele><time>2026-04-19T07:07:52.589Z</time></trkpt><trkpt lat="45.2495065" lon="9.0277431"><ele>88.0</ele><time>2026-04-19T07:07:55.582Z</time></trkpt><trkpt lat="45.2495713" lon="9.0277043"><ele>88.0</ele><time>2026-04-19T07:07:57.587Z</time></trkpt><trkpt lat="45.2496361" lon="9.0276672"><ele>88.0</ele><time>2026-04-19T07:07:59.581Z</time></trkpt><trkpt lat="45.2496992" lon="9.02763"><ele>88.0</ele><time>2026-04-19T07:08:01.577Z</time></trkpt><trkpt lat="45.2497538" lon="9.027581"><ele>88.0</ele><time>2026-04-19T07:08:03.576Z</time></trkpt><trkpt lat="45.2498339" lon="9.0275089"><ele>88.0</ele><time>2026-04-19T07:08:06.58Z</time></trkpt><trkpt lat="45.2498929" lon="9.0274485"><ele>88.0</ele><time>2026-04-19T07:08:08.572Z</time></trkpt><trkpt lat="45.2499502" lon="9.0273863"><ele>88.0</ele><time>2026-04-19T07:08:10.583Z</time></trkpt><trkpt lat="45.2500345" lon="9.0273126"><ele>88.0</ele><time>2026-04-19T07:08:13.572Z</time></trkpt><trkpt lat="45.2500978" lon="9.0272618"><ele>88.0</ele><time>2026-04-19T07:08:15.579Z</time></trkpt><trkpt lat="45.2501558" lon="9.0272027"><ele>88.0</ele><time>2026-04-19T07:08:17.596Z</time></trkpt><trkpt lat="45.2502101" lon="9.0271346"><ele>88.0</ele><time>2026-04-19T07:08:19.583Z</time></trkpt><trkpt lat="45.2502712" lon="9.027058"><ele>88.0</ele><time>2026-04-19T07:08:21.579Z</time></trkpt><trkpt lat="45.2503309" lon="9.0270057"><ele>88.0</ele><time>2026-04-19T07:08:23.581Z</time></trkpt><trkpt lat="45.2503866" lon="9.026946"><ele>88.0</ele><time>2026-04-19T07:08:25.58Z</time></trkpt><trkpt lat="45.2504568" lon="9.0268565"><ele>88.0</ele><time>2026-04-19T07:08:27.581Z</time></trkpt><trkpt lat="45.2505221" lon="9.0267776"><ele>88.0</ele><time>2026-04-19T07:08:29.587Z</time></trkpt><trkpt lat="45.2505897" lon="9.0267165"><ele>88.0</ele><time>2026-04-19T07:08:31.576Z</time></trkpt><trkpt lat="45.2506704" lon="9.0266505"><ele>88.0</ele><time>2026-04-19T07:08:33.58Z</time></trkpt><trkpt lat="45.2507589" lon="9.0265969"><ele>88.0</ele><time>2026-04-19T07:08:35.58Z</time></trkpt><trkpt lat="45.2508376" lon="9.0265265"><ele>88.0</ele><time>2026-04-19T07:08:37.581Z</time></trkpt><trkpt lat="45.2509139" lon="9.0264514"><ele>88.0</ele><time>2026-04-19T07:08:39.581Z</time></trkpt><trkpt lat="45.2509826" lon="9.0263657"><ele>88.0</ele><time>2026-04-19T07:08:41.579Z</time></trkpt><trkpt lat="45.2510531" lon="9.0262885"><ele>88.0</ele><time>2026-04-19T07:08:43.581Z</time></trkpt><trkpt lat="45.2511275" lon="9.0262026"><ele>88.0</ele><time>2026-04-19T07:08:45.58Z</time></trkpt><trkpt lat="45.2512026" lon="9.0261208"><ele>88.0</ele><time>2026-04-19T07:08:47.583Z</time></trkpt><trkpt lat="45.2512639" lon="9.0260395"><ele>88.0</ele><time>2026-04-19T07:08:49.579Z</time></trkpt><trkpt lat="45.2513265" lon="9.0259645"><ele>88.0</ele><time>2026-04-19T07:08:51.608Z</time></trkpt><trkpt lat="45.2513916" lon="9.0258985"><ele>88.0</ele><time>2026-04-19T07:08:53.588Z</time></trkpt><trkpt lat="45.2514502" lon="9.0258247"><ele>88.0</ele><time>2026-04-19T07:08:55.582Z</time></trkpt><trkpt lat="45.2515134" lon="9.0257461"><ele>88.0</ele><time>2026-04-19T07:08:57.584Z</time></trkpt><trkpt lat="45.2515791" lon="9.0256656"><ele>88.0</ele><time>2026-04-19T07:08:59.588Z</time></trkpt><trkpt lat="45.2516465" lon="9.0255807"><ele>88.0</ele><time>2026-04-19T07:09:01.581Z</time></trkpt><trkpt lat="45.2517157" lon="9.0255079"><ele>88.0</ele><time>2026-04-19T07:09:03.578Z</time></trkpt><trkpt lat="45.2517975" lon="9.0254154"><ele>88.0</ele><time>2026-04-19T07:09:05.577Z</time></trkpt><trkpt lat="45.2518684" lon="9.0253288"><ele>88.0</ele><time>2026-04-19T07:09:07.58Z</time></trkpt><trkpt lat="45.2519493" lon="9.025268"><ele>88.0</ele><time>2026-04-19T07:09:09.577Z</time></trkpt><trkpt lat="45.2520291" lon="9.0252147"><ele>88.0</ele><time>2026-04-19T07:09:11.591Z</time></trkpt><trkpt lat="45.2521053" lon="9.0251628"><ele>88.0</ele><time>2026-04-19T07:09:13.576Z</time></trkpt><trkpt lat="45.2521823" lon="9.0251053"><ele>88.0</ele><time>2026-04-19T07:09:15.578Z</time></trkpt><trkpt lat="45.2522547" lon="9.0250453"><ele>88.0</ele><time>2026-04-19T07:09:17.573Z</time></trkpt><trkpt lat="45.2523232" lon="9.0249894"><ele>88.5</ele><time>2026-04-19T07:09:19.587Z</time></trkpt><trkpt lat="45.2523884" lon="9.0249041"><ele>89.0</ele><time>2026-04-19T07:09:21.61Z</time></trkpt><trkpt lat="45.2524484" lon="9.0248274"><ele>89.5</ele><time>2026-04-19T07:09:23.579Z</time></trkpt><trkpt lat="45.2524891" lon="9.0247466"><ele>90.0</ele><time>2026-04-19T07:09:25.579Z</time></trkpt><trkpt lat="45.2525439" lon="9.0246633"><ele>90.5</ele><time>2026-04-19T07:09:27.582Z</time></trkpt><trkpt lat="45.2525949" lon="9.0245639"><ele>91.0</ele><time>2026-04-19T07:09:29.577Z</time></trkpt><trkpt lat="45.252646" lon="9.0244694"><ele>91.0</ele><time>2026-04-19T07:09:31.582Z</time></trkpt><trkpt lat="45.2526969" lon="9.0243682"><ele>91.0</ele><time>2026-04-19T07:09:33.605Z</time></trkpt><trkpt lat="45.2527504" lon="9.0242569"><ele>91.0</ele><time>2026-04-19T07:09:35.571Z</time></trkpt><trkpt lat="45.2527988" lon="9.0241565"><ele>91.0</ele><time>2026-04-19T07:09:37.578Z</time></trkpt><trkpt lat="45.2528421" lon="9.0240523"><ele>91.0</ele><time>2026-04-19T07:09:39.584Z</time></trkpt><trkpt lat="45.2528969" lon="9.0239593"><ele>91.0</ele><time>2026-04-19T07:09:41.58Z</time></trkpt><trkpt lat="45.2529582" lon="9.0238739"><ele>91.0</ele><time>2026-04-19T07:09:43.572Z</time></trkpt><trkpt lat="45.2530163" lon="9.023807"><ele>91.0</ele><time>2026-04-19T07:09:45.575Z</time></trkpt><trkpt lat="45.2530693" lon="9.0237446"><ele>91.0</ele><time>2026-04-19T07:09:47.579Z</time></trkpt><trkpt lat="45.2531362" lon="9.0236583"><ele>91.0</ele><time>2026-04-19T07:09:50.578Z</time></trkpt><trkpt lat="45.2531898" lon="9.023586"><ele>91.0</ele><time>2026-04-19T07:09:52.573Z</time></trkpt><trkpt lat="45.2532346" lon="9.0235198"><ele>91.0</ele><time>2026-04-19T07:09:54.581Z</time></trkpt><trkpt lat="45.2532938" lon="9.0234238"><ele>91.0</ele><time>2026-04-19T07:09:57.582Z</time></trkpt><trkpt lat="45.2533539" lon="9.0233433"><ele>91.0</ele><time>2026-04-19T07:10:00.579Z</time></trkpt><trkpt lat="45.2534167" lon="9.0232435"><ele>91.0</ele><time>2026-04-19T07:10:03.577Z</time></trkpt><trkpt lat="45.2534694" lon="9.0231312"><ele>91.0</ele><time>2026-04-19T07:10:06.58Z</time></trkpt><trkpt lat="45.25351" lon="9.0230519"><ele>91.0</ele><time>2026-04-19T07:10:08.572Z</time></trkpt><trkpt lat="45.2535566" lon="9.0229795"><ele>91.0</ele><time>2026-04-19T07:10:10.576Z</time></trkpt><trkpt lat="45.2536017" lon="9.0229083"><ele>90.71428571428571</ele><time>2026-04-19T07:10:12.579Z</time></trkpt><trkpt lat="45.2536471" lon="9.0228322"><ele>90.42857142857143</ele><time>2026-04-19T07:10:14.573Z</time></trkpt><trkpt lat="45.253704" lon="9.0227425"><ele>90.14285714285714</ele><time>2026-04-19T07:10:16.574Z</time></trkpt><trkpt lat="45.2537469" lon="9.0226609"><ele>89.85714285714286</ele><time>2026-04-19T07:10:18.579Z</time></trkpt><trkpt lat="45.2537826" lon="9.0225824"><ele>89.57142857142857</ele><time>2026-04-19T07:10:20.573Z</time></trkpt><trkpt lat="45.2538187" lon="9.0224995"><ele>89.28571428571428</ele><time>2026-04-19T07:10:22.575Z</time></trkpt><trkpt lat="45.2538574" lon="9.0224141"><ele>89.0</ele><time>2026-04-19T07:10:24.639Z</time></trkpt><trkpt lat="45.2538966" lon="9.022319"><ele>89.0</ele><time>2026-04-19T07:10:26.635Z</time></trkpt><trkpt lat="45.2539352" lon="9.0222296"><ele>89.0</ele><time>2026-04-19T07:10:28.575Z</time></trkpt><trkpt lat="45.2539754" lon="9.0221383"><ele>89.0</ele><time>2026-04-19T07:10:30.577Z</time></trkpt><trkpt lat="45.2540062" lon="9.0220403"><ele>89.0</ele><time>2026-04-19T07:10:32.577Z</time></trkpt><trkpt lat="45.2540514" lon="9.0219491"><ele>89.0</ele><time>2026-04-19T07:10:34.586Z</time></trkpt><trkpt lat="45.2540918" lon="9.021859"><ele>89.0</ele><time>2026-04-19T07:10:36.577Z</time></trkpt><trkpt lat="45.2541357" lon="9.0217687"><ele>89.0</ele><time>2026-04-19T07:10:38.577Z</time></trkpt><trkpt lat="45.254179" lon="9.0216817"><ele>89.0</ele><time>2026-04-19T07:10:40.57Z</time></trkpt><trkpt lat="45.2542219" lon="9.0215868"><ele>89.0</ele><time>2026-04-19T07:10:42.578Z</time></trkpt><trkpt lat="45.2542761" lon="9.0214647"><ele>89.0</ele><time>2026-04-19T07:10:45.574Z</time></trkpt><trkpt lat="45.2543225" lon="9.0213491"><ele>89.0</ele><time>2026-04-19T07:10:48.572Z</time></trkpt><trkpt lat="45.2543437" lon="9.0212163"><ele>89.0</ele><time>2026-04-19T07:10:51.581Z</time></trkpt><trkpt lat="45.2542888" lon="9.0211226"><ele>89.0</ele><time>2026-04-19T07:10:54.577Z</time></trkpt><trkpt lat="45.2542109" lon="9.021067"><ele>89.0</ele><time>2026-04-19T07:10:57.595Z</time></trkpt><trkpt lat="45.2541233" lon="9.0210152"><ele>89.0</ele><time>2026-04-19T07:11:00.579Z</time></trkpt><trkpt lat="45.254062" lon="9.0209764"><ele>89.0</ele><time>2026-04-19T07:11:02.57Z</time></trkpt><trkpt lat="45.253997" lon="9.020937"><ele>89.0</ele><time>2026-04-19T07:11:04.576Z</time></trkpt><trkpt lat="45.2539329" lon="9.0208983"><ele>89.0</ele><time>2026-04-19T07:11:06.578Z</time></trkpt><trkpt lat="45.253862" lon="9.0208574"><ele>89.0</ele><time>2026-04-19T07:11:08.578Z</time></trkpt><trkpt lat="45.2537897" lon="9.0208009"><ele>89.0</ele><time>2026-04-19T07:11:10.575Z</time></trkpt><trkpt lat="45.2537161" lon="9.0207588"><ele>89.0</ele><time>2026-04-19T07:11:12.571Z</time></trkpt><trkpt lat="45.2536568" lon="9.0206971"><ele>89.0</ele><time>2026-04-19T07:11:14.575Z</time></trkpt><trkpt lat="45.253597" lon="9.0206345"><ele>89.0</ele><time>2026-04-19T07:11:16.583Z</time></trkpt><trkpt lat="45.253532" lon="9.0205904"><ele>89.0</ele><time>2026-04-19T07:11:18.583Z</time></trkpt><trkpt lat="45.2534592" lon="9.02055"><ele>89.0</ele><time>2026-04-19T07:11:20.573Z</time></trkpt><trkpt lat="45.253396" lon="9.0204956"><ele>89.0</ele><time>2026-04-19T07:11:22.575Z</time></trkpt><trkpt lat="45.2533228" lon="9.0204374"><ele>89.0</ele><time>2026-04-19T07:11:24.576Z</time></trkpt><trkpt lat="45.2532569" lon="9.0203903"><ele>89.0</ele><time>2026-04-19T07:11:26.582Z</time></trkpt><trkpt lat="45.253191" lon="9.0203375"><ele>89.0</ele><time>2026-04-19T07:11:28.578Z</time></trkpt><trkpt lat="45.2531196" lon="9.0202848"><ele>89.0</ele><time>2026-04-19T07:11:30.571Z</time></trkpt><trkpt lat="45.2530506" lon="9.0202176"><ele>89.0</ele><time>2026-04-19T07:11:32.576Z</time></trkpt><trkpt lat="45.2529872" lon="9.0201481"><ele>89.0</ele><time>2026-04-19T07:11:34.575Z</time></trkpt><trkpt lat="45.2529264" lon="9.020075"><ele>89.0</ele><time>2026-04-19T07:11:36.583Z</time></trkpt><trkpt lat="45.2528661" lon="9.0199979"><ele>89.0</ele><time>2026-04-19T07:11:38.585Z</time></trkpt><trkpt lat="45.2528123" lon="9.0199162"><ele>89.0</ele><time>2026-04-19T07:11:40.58Z</time></trkpt><trkpt lat="45.2527529" lon="9.0198476"><ele>89.0</ele><time>2026-04-19T07:11:42.581Z</time></trkpt><trkpt lat="45.2527041" lon="9.0197698"><ele>89.0</ele><time>2026-04-19T07:11:44.59Z</time></trkpt><trkpt lat="45.252663" lon="9.0196811"><ele>89.0</ele><time>2026-04-19T07:11:46.585Z</time></trkpt><trkpt lat="45.2526096" lon="9.0195972"><ele>89.0</ele><time>2026-04-19T07:11:48.592Z</time></trkpt><trkpt lat="45.2525625" lon="9.0195132"><ele>89.0</ele><time>2026-04-19T07:11:50.582Z</time></trkpt><trkpt lat="45.2525138" lon="9.0194197"><ele>89.0</ele><time>2026-04-19T07:11:52.577Z</time></trkpt><trkpt lat="45.2524594" lon="9.019329"><ele>89.0</ele><time>2026-04-19T07:11:54.586Z</time></trkpt><trkpt lat="45.2524107" lon="9.0192414"><ele>89.0</ele><time>2026-04-19T07:11:56.576Z</time></trkpt><trkpt lat="45.2523679" lon="9.0191618"><ele>89.0</ele><time>2026-04-19T07:11:58.577Z</time></trkpt><trkpt lat="45.2523302" lon="9.0190853"><ele>89.0</ele><time>2026-04-19T07:12:00.578Z</time></trkpt><trkpt lat="45.2522946" lon="9.0190061"><ele>89.0</ele><time>2026-04-19T07:12:02.578Z</time></trkpt><trkpt lat="45.252249" lon="9.0188784"><ele>89.0</ele><time>2026-04-19T07:12:04.572Z</time></trkpt><trkpt lat="45.2521935" lon="9.0187681"><ele>89.0</ele><time>2026-04-19T07:12:06.574Z</time></trkpt><trkpt lat="45.2521389" lon="9.0186721"><ele>89.0</ele><time>2026-04-19T07:12:08.587Z</time></trkpt><trkpt lat="45.2520761" lon="9.0185703"><ele>89.0</ele><time>2026-04-19T07:12:10.581Z</time></trkpt><trkpt lat="45.2520173" lon="9.0184734"><ele>89.0</ele><time>2026-04-19T07:12:12.583Z</time></trkpt><trkpt lat="45.2519456" lon="9.0183709"><ele>89.0</ele><time>2026-04-19T07:12:14.579Z</time></trkpt><trkpt lat="45.2518754" lon="9.0182516"><ele>89.0</ele><time>2026-04-19T07:12:16.585Z</time></trkpt><trkpt lat="45.2518018" lon="9.0181167"><ele>89.0</ele><time>2026-04-19T07:12:18.573Z</time></trkpt><trkpt lat="45.2517338" lon="9.0179891"><ele>89.0</ele><time>2026-04-19T07:12:20.579Z</time></trkpt><trkpt lat="45.2516715" lon="9.017848"><ele>89.0</ele><time>2026-04-19T07:12:22.575Z</time></trkpt><trkpt lat="45.2516172" lon="9.0177"><ele>89.0</ele><time>2026-04-19T07:12:24.582Z</time></trkpt><trkpt lat="45.2515665" lon="9.0175566"><ele>88.6</ele><time>2026-04-19T07:12:26.582Z</time></trkpt><trkpt lat="45.2515183" lon="9.0174183"><ele>88.2</ele><time>2026-04-19T07:12:28.586Z</time></trkpt><trkpt lat="45.2514738" lon="9.0172853"><ele>87.8</ele><time>2026-04-19T07:12:30.596Z</time></trkpt><trkpt lat="45.2514331" lon="9.0171611"><ele>87.39999999999999</ele><time>2026-04-19T07:12:32.575Z</time></trkpt><trkpt lat="45.2513754" lon="9.0170175"><ele>87.0</ele><time>2026-04-19T07:12:34.578Z</time></trkpt><trkpt lat="45.2513518" lon="9.0169312"><ele>86.8</ele><time>2026-04-19T07:12:35.613Z</time></trkpt><trkpt lat="45.2512962" lon="9.0167928"><ele>86.6</ele><time>2026-04-19T07:12:37.577Z</time></trkpt><trkpt lat="45.2512498" lon="9.0166688"><ele>86.39999999999999</ele><time>2026-04-19T07:12:39.584Z</time></trkpt><trkpt lat="45.2512044" lon="9.0165359"><ele>86.19999999999999</ele><time>2026-04-19T07:12:41.591Z</time></trkpt><trkpt lat="45.2511582" lon="9.0163795"><ele>86.0</ele><time>2026-04-19T07:12:43.572Z</time></trkpt><trkpt lat="45.251106" lon="9.016233"><ele>86.0</ele><time>2026-04-19T07:12:45.578Z</time></trkpt><trkpt lat="45.2510518" lon="9.0161004"><ele>86.0</ele><time>2026-04-19T07:12:47.582Z</time></trkpt><trkpt lat="45.2510012" lon="9.0159589"><ele>86.0</ele><time>2026-04-19T07:12:49.575Z</time></trkpt><trkpt lat="45.2509473" lon="9.0158226"><ele>86.0</ele><time>2026-04-19T07:12:51.754Z</time></trkpt><trkpt lat="45.2508933" lon="9.0156893"><ele>86.0</ele><time>2026-04-19T07:12:53.59Z</time></trkpt><trkpt lat="45.2508498" lon="9.0155559"><ele>85.75</ele><time>2026-04-19T07:12:55.584Z</time></trkpt><trkpt lat="45.2508009" lon="9.0154273"><ele>85.5</ele><time>2026-04-19T07:12:57.577Z</time></trkpt><trkpt lat="45.2507482" lon="9.015278"><ele>85.25</ele><time>2026-04-19T07:12:59.58Z</time></trkpt><trkpt lat="45.2506912" lon="9.0151342"><ele>85.0</ele><time>2026-04-19T07:13:01.582Z</time></trkpt><trkpt lat="45.2506372" lon="9.0149793"><ele>85.2</ele><time>2026-04-19T07:13:03.578Z</time></trkpt><trkpt lat="45.2505863" lon="9.0148313"><ele>85.4</ele><time>2026-04-19T07:13:05.614Z</time></trkpt><trkpt lat="45.2505303" lon="9.014692"><ele>85.6</ele><time>2026-04-19T07:13:07.586Z</time></trkpt><trkpt lat="45.250475" lon="9.0145414"><ele>85.8</ele><time>2026-04-19T07:13:09.581Z</time></trkpt><trkpt lat="45.2504455" lon="9.014458"><ele>86.0</ele><time>2026-04-19T07:13:10.586Z</time></trkpt><trkpt lat="45.2503968" lon="9.0143185"><ele>86.0</ele><time>2026-04-19T07:13:12.579Z</time></trkpt><trkpt lat="45.2503472" lon="9.0141852"><ele>86.0</ele><time>2026-04-19T07:13:14.581Z</time></trkpt><trkpt lat="45.250302" lon="9.0140511"><ele>86.0</ele><time>2026-04-19T07:13:16.578Z</time></trkpt><trkpt lat="45.2502551" lon="9.013923"><ele>86.0</ele><time>2026-04-19T07:13:18.648Z</time></trkpt><trkpt lat="45.2502019" lon="9.0138107"><ele>86.0</ele><time>2026-04-19T07:13:20.575Z</time></trkpt><trkpt lat="45.2501452" lon="9.0137123"><ele>86.16666666666667</ele><time>2026-04-19T07:13:22.579Z</time></trkpt><trkpt lat="45.2500595" lon="9.0136205"><ele>86.33333333333334</ele><time>2026-04-19T07:13:24.575Z</time></trkpt><trkpt lat="45.2499768" lon="9.01355"><ele>86.5</ele><time>2026-04-19T07:13:26.581Z</time></trkpt><trkpt lat="45.2499241" lon="9.0134971"><ele>86.66666666666667</ele><time>2026-04-19T07:13:28.58Z</time></trkpt><trkpt lat="45.2499029" lon="9.0133922"><ele>86.83333333333333</ele><time>2026-04-19T07:13:31.579Z</time></trkpt><trkpt lat="45.2499348" lon="9.0133103"><ele>87.0</ele><time>2026-04-19T07:13:33.578Z</time></trkpt><trkpt lat="45.2499769" lon="9.0132195"><ele>86.66666666666667</ele><time>2026-04-19T07:13:35.578Z</time></trkpt><trkpt lat="45.2500219" lon="9.0131244"><ele>86.33333333333333</ele><time>2026-04-19T07:13:37.58Z</time></trkpt><trkpt lat="45.2500843" lon="9.0130173"><ele>86.0</ele><time>2026-04-19T07:13:40.578Z</time></trkpt><trkpt lat="45.2501341" lon="9.0129356"><ele>85.66666666666666</ele><time>2026-04-19T07:13:42.575Z</time></trkpt><trkpt lat="45.2502027" lon="9.0128627"><ele>85.33333333333333</ele><time>2026-04-19T07:13:44.579Z</time></trkpt><trkpt lat="45.2502607" lon="9.0127951"><ele>85.0</ele><time>2026-04-19T07:13:46.582Z</time></trkpt><trkpt lat="45.2503252" lon="9.0127344"><ele>85.0</ele><time>2026-04-19T07:13:48.573Z</time></trkpt><trkpt lat="45.2504147" lon="9.012687"><ele>85.0</ele><time>2026-04-19T07:13:50.582Z</time></trkpt><trkpt lat="45.2504978" lon="9.0126842"><ele>85.0</ele><time>2026-04-19T07:13:52.581Z</time></trkpt><trkpt lat="45.2506" lon="9.0126986"><ele>85.0</ele><time>2026-04-19T07:13:54.584Z</time></trkpt><trkpt lat="45.2506652" lon="9.012703"><ele>85.0</ele><time>2026-04-19T07:13:56.581Z</time></trkpt><trkpt lat="45.2507375" lon="9.0127159"><ele>85.0</ele><time>2026-04-19T07:13:58.569Z</time></trkpt><trkpt lat="45.2508211" lon="9.0127314"><ele>85.8</ele><time>2026-04-19T07:14:00.574Z</time></trkpt><trkpt lat="45.2509214" lon="9.0127617"><ele>86.6</ele><time>2026-04-19T07:14:02.576Z</time></trkpt><trkpt lat="45.2510243" lon="9.0128411"><ele>87.4</ele><time>2026-04-19T07:14:04.574Z</time></trkpt><trkpt lat="45.2511058" lon="9.0129192"><ele>88.2</ele><time>2026-04-19T07:14:06.585Z</time></trkpt><trkpt lat="45.2511789" lon="9.0129995"><ele>89.0</ele><time>2026-04-19T07:14:08.575Z</time></trkpt><trkpt lat="45.2512633" lon="9.0130555"><ele>89.0</ele><time>2026-04-19T07:14:10.652Z</time></trkpt><trkpt lat="45.2513377" lon="9.013128"><ele>89.0</ele><time>2026-04-19T07:14:12.647Z</time></trkpt><trkpt lat="45.2514207" lon="9.0131932"><ele>89.0</ele><time>2026-04-19T07:14:14.589Z</time></trkpt><trkpt lat="45.2515028" lon="9.0132421"><ele>89.0</ele><time>2026-04-19T07:14:16.587Z</time></trkpt><trkpt lat="45.2515922" lon="9.0132984"><ele>89.0</ele><time>2026-04-19T07:14:18.589Z</time></trkpt><trkpt lat="45.2516707" lon="9.013341"><ele>89.16666666666667</ele><time>2026-04-19T07:14:20.58Z</time></trkpt><trkpt lat="45.2517504" lon="9.0133709"><ele>89.33333333333334</ele><time>2026-04-19T07:14:22.589Z</time></trkpt><trkpt lat="45.2518285" lon="9.0134129"><ele>89.5</ele><time>2026-04-19T07:14:24.583Z</time></trkpt><trkpt lat="45.2519122" lon="9.0134464"><ele>89.66666666666667</ele><time>2026-04-19T07:14:26.58Z</time></trkpt><trkpt lat="45.2519868" lon="9.0134694"><ele>89.83333333333333</ele><time>2026-04-19T07:14:28.583Z</time></trkpt><trkpt lat="45.2520696" lon="9.0135032"><ele>90.0</ele><time>2026-04-19T07:14:30.576Z</time></trkpt><trkpt lat="45.2521427" lon="9.0135225"><ele>90.0</ele><time>2026-04-19T07:14:32.578Z</time></trkpt><trkpt lat="45.2522132" lon="9.0135398"><ele>90.0</ele><time>2026-04-19T07:14:34.583Z</time></trkpt><trkpt lat="45.2522838" lon="9.0135576"><ele>90.0</ele><time>2026-04-19T07:14:36.592Z</time></trkpt><trkpt lat="45.2523558" lon="9.0135636"><ele>90.0</ele><time>2026-04-19T07:14:38.574Z</time></trkpt><trkpt lat="45.2524531" lon="9.0135638"><ele>90.0</ele><time>2026-04-19T07:14:40.58Z</time></trkpt><trkpt lat="45.252552" lon="9.0135337"><ele>90.0</ele><time>2026-04-19T07:14:42.579Z</time></trkpt><trkpt lat="45.2526139" lon="9.0134983"><ele>90.42857142857143</ele><time>2026-04-19T07:14:44.582Z</time></trkpt><trkpt lat="45.2526713" lon="9.0134509"><ele>90.85714285714286</ele><time>2026-04-19T07:14:46.583Z</time></trkpt><trkpt lat="45.2527282" lon="9.013403"><ele>91.28571428571429</ele><time>2026-04-19T07:14:48.576Z</time></trkpt><trkpt lat="45.2527837" lon="9.0133523"><ele>91.71428571428572</ele><time>2026-04-19T07:14:50.583Z</time></trkpt><trkpt lat="45.2528363" lon="9.0132997"><ele>92.14285714285714</ele><time>2026-04-19T07:14:52.586Z</time></trkpt><trkpt lat="45.2529001" lon="9.0132429"><ele>92.57142857142858</ele><time>2026-04-19T07:14:54.572Z</time></trkpt><trkpt lat="45.2529837" lon="9.0132065"><ele>93.0</ele><time>2026-04-19T07:14:56.575Z</time></trkpt><trkpt lat="45.2530997" lon="9.0132018"><ele>92.80000000000001</ele><time>2026-04-19T07:14:58.576Z</time></trkpt><trkpt lat="45.2532081" lon="9.0132075"><ele>92.6</ele><time>2026-04-19T07:15:00.588Z</time></trkpt><trkpt lat="45.2533008" lon="9.0132466"><ele>92.4</ele><time>2026-04-19T07:15:02.59Z</time></trkpt><trkpt lat="45.2533875" lon="9.0132926"><ele>92.19999999999999</ele><time>2026-04-19T07:15:04.588Z</time></trkpt><trkpt lat="45.2534915" lon="9.0133329"><ele>92.0</ele><time>2026-04-19T07:15:06.576Z</time></trkpt><trkpt lat="45.2535702" lon="9.0133875"><ele>92.5</ele><time>2026-04-19T07:15:08.577Z</time></trkpt><trkpt lat="45.2536478" lon="9.0134383"><ele>93.0</ele><time>2026-04-19T07:15:10.579Z</time></trkpt><trkpt lat="45.2537267" lon="9.0134823"><ele>93.5</ele><time>2026-04-19T07:15:12.577Z</time></trkpt><trkpt lat="45.2538111" lon="9.0135421"><ele>94.0</ele><time>2026-04-19T07:15:14.589Z</time></trkpt><trkpt lat="45.2538851" lon="9.0136079"><ele>94.5</ele><time>2026-04-19T07:15:16.588Z</time></trkpt><trkpt lat="45.2539621" lon="9.0136785"><ele>95.0</ele><time>2026-04-19T07:15:18.58Z</time></trkpt><trkpt lat="45.2540414" lon="9.0137363"><ele>93.66666666666667</ele><time>2026-04-19T07:15:21.585Z</time></trkpt><trkpt lat="45.2540981" lon="9.0137816"><ele>92.33333333333334</ele><time>2026-04-19T07:15:23.576Z</time></trkpt><trkpt lat="45.2541686" lon="9.0138216"><ele>91.0</ele><time>2026-04-19T07:15:25.582Z</time></trkpt><trkpt lat="45.254237" lon="9.0138706"><ele>89.66666666666667</ele><time>2026-04-19T07:15:27.589Z</time></trkpt><trkpt lat="45.2543056" lon="9.0139107"><ele>88.33333333333333</ele><time>2026-04-19T07:15:29.576Z</time></trkpt><trkpt lat="45.2543763" lon="9.0139677"><ele>87.0</ele><time>2026-04-19T07:15:31.584Z</time></trkpt><trkpt lat="45.2544622" lon="9.0140103"><ele>87.0</ele><time>2026-04-19T07:15:34.579Z</time></trkpt><trkpt lat="45.2545522" lon="9.0140495"><ele>87.0</ele><time>2026-04-19T07:15:37.61Z</time></trkpt><trkpt lat="45.2546164" lon="9.0140509"><ele>87.0</ele><time>2026-04-19T07:15:39.576Z</time></trkpt><trkpt lat="45.2546985" lon="9.0140034"><ele>87.0</ele><time>2026-04-19T07:15:41.58Z</time></trkpt><trkpt lat="45.2547762" lon="9.0139513"><ele>87.0</ele><time>2026-04-19T07:15:43.639Z</time></trkpt><trkpt lat="45.2548541" lon="9.0138964"><ele>87.0</ele><time>2026-04-19T07:15:45.592Z</time></trkpt><trkpt lat="45.2549403" lon="9.0138473"><ele>87.0</ele><time>2026-04-19T07:15:47.571Z</time></trkpt><trkpt lat="45.2550111" lon="9.0138042"><ele>87.0</ele><time>2026-04-19T07:15:49.579Z</time></trkpt><trkpt lat="45.2551111" lon="9.01375"><ele>87.0</ele><time>2026-04-19T07:15:51.581Z</time></trkpt><trkpt lat="45.2552187" lon="9.0137045"><ele>87.0</ele><time>2026-04-19T07:15:53.584Z</time></trkpt><trkpt lat="45.2553093" lon="9.0136437"><ele>87.0</ele><time>2026-04-19T07:15:55.579Z</time></trkpt><trkpt lat="45.2553971" lon="9.0136009"><ele>87.0</ele><time>2026-04-19T07:15:57.646Z</time></trkpt><trkpt lat="45.2554918" lon="9.0135595"><ele>87.0</ele><time>2026-04-19T07:15:59.629Z</time></trkpt><trkpt lat="45.2555682" lon="9.0135217"><ele>87.0</ele><time>2026-04-19T07:16:01.578Z</time></trkpt><trkpt lat="45.2556577" lon="9.0134741"><ele>87.0</ele><time>2026-04-19T07:16:03.582Z</time></trkpt><trkpt lat="45.2557485" lon="9.0133938"><ele>87.0</ele><time>2026-04-19T07:16:05.579Z</time></trkpt><trkpt lat="45.2558078" lon="9.0133626"><ele>87.0</ele><time>2026-04-19T07:16:06.587Z</time></trkpt><trkpt lat="45.2559125" lon="9.0132907"><ele>87.19999999999999</ele><time>2026-04-19T07:16:08.579Z</time></trkpt><trkpt lat="45.2560012" lon="9.0132181"><ele>87.4</ele><time>2026-04-19T07:16:10.582Z</time></trkpt><trkpt lat="45.2560883" lon="9.0131407"><ele>87.6</ele><time>2026-04-19T07:16:12.584Z</time></trkpt><trkpt lat="45.2561762" lon="9.0130503"><ele>87.80000000000001</ele><time>2026-04-19T07:16:14.585Z</time></trkpt><trkpt lat="45.256251" lon="9.0129546"><ele>88.0</ele><time>2026-04-19T07:16:16.582Z</time></trkpt><trkpt lat="45.2563237" lon="9.0128446"><ele>88.0</ele><time>2026-04-19T07:16:18.582Z</time></trkpt><trkpt lat="45.2563812" lon="9.0127417"><ele>88.0</ele><time>2026-04-19T07:16:20.574Z</time></trkpt><trkpt lat="45.2564336" lon="9.0126387"><ele>88.0</ele><time>2026-04-19T07:16:22.593Z</time></trkpt><trkpt lat="45.2564859" lon="9.012536"><ele>88.0</ele><time>2026-04-19T07:16:24.594Z</time></trkpt><trkpt lat="45.2565543" lon="9.0124418"><ele>88.0</ele><time>2026-04-19T07:16:26.581Z</time></trkpt><trkpt lat="45.2566061" lon="9.0123464"><ele>88.0</ele><time>2026-04-19T07:16:28.579Z</time></trkpt><trkpt lat="45.256662" lon="9.0122638"><ele>88.0</ele><time>2026-04-19T07:16:30.581Z</time></trkpt><trkpt lat="45.2567171" lon="9.0121743"><ele>88.0</ele><time>2026-04-19T07:16:32.572Z</time></trkpt><trkpt lat="45.2567842" lon="9.0120741"><ele>88.0</ele><time>2026-04-19T07:16:34.579Z</time></trkpt><trkpt lat="45.2568483" lon="9.0119479"><ele>88.0</ele><time>2026-04-19T07:16:36.577Z</time></trkpt><trkpt lat="45.2569022" lon="9.0118378"><ele>88.0</ele><time>2026-04-19T07:16:38.584Z</time></trkpt><trkpt lat="45.256956" lon="9.0117278"><ele>88.0</ele><time>2026-04-19T07:16:40.6Z</time></trkpt><trkpt lat="45.2570228" lon="9.0116094"><ele>88.0</ele><time>2026-04-19T07:16:42.584Z</time></trkpt><trkpt lat="45.257088" lon="9.0115235"><ele>88.0</ele><time>2026-04-19T07:16:44.582Z</time></trkpt><trkpt lat="45.2571654" lon="9.0114547"><ele>88.0</ele><time>2026-04-19T07:16:46.584Z</time></trkpt><trkpt lat="45.2572404" lon="9.0113875"><ele>88.4</ele><time>2026-04-19T07:16:48.588Z</time></trkpt><trkpt lat="45.2573094" lon="9.0113023"><ele>88.80000000000001</ele><time>2026-04-19T07:16:50.577Z</time></trkpt><trkpt lat="45.2573714" lon="9.0112281"><ele>89.2</ele><time>2026-04-19T07:16:52.576Z</time></trkpt><trkpt lat="45.2574512" lon="9.0111666"><ele>89.6</ele><time>2026-04-19T07:16:54.58Z</time></trkpt><trkpt lat="45.25753" lon="9.0110963"><ele>90.0</ele><time>2026-04-19T07:16:56.593Z</time></trkpt><trkpt lat="45.2576083" lon="9.0110042"><ele>90.0</ele><time>2026-04-19T07:16:58.582Z</time></trkpt><trkpt lat="45.257683" lon="9.0109301"><ele>90.0</ele><time>2026-04-19T07:17:00.589Z</time></trkpt><trkpt lat="45.2577583" lon="9.0108522"><ele>90.0</ele><time>2026-04-19T07:17:02.66Z</time></trkpt><trkpt lat="45.2578448" lon="9.0107656"><ele>90.0</ele><time>2026-04-19T07:17:04.593Z</time></trkpt><trkpt lat="45.2579299" lon="9.0106861"><ele>90.0</ele><time>2026-04-19T07:17:06.587Z</time></trkpt><trkpt lat="45.2579958" lon="9.0106114"><ele>90.2</ele><time>2026-04-19T07:17:08.575Z</time></trkpt><trkpt lat="45.2580696" lon="9.0105346"><ele>90.4</ele><time>2026-04-19T07:17:10.583Z</time></trkpt><trkpt lat="45.2581385" lon="9.0104589"><ele>90.6</ele><time>2026-04-19T07:17:12.58Z</time></trkpt><trkpt lat="45.2582335" lon="9.010376"><ele>90.8</ele><time>2026-04-19T07:17:14.586Z</time></trkpt><trkpt lat="45.2583206" lon="9.0102829"><ele>91.0</ele><time>2026-04-19T07:17:16.588Z</time></trkpt><trkpt lat="45.2583971" lon="9.0101988"><ele>91.0</ele><time>2026-04-19T07:17:18.574Z</time></trkpt><trkpt lat="45.2584847" lon="9.0101098"><ele>91.0</ele><time>2026-04-19T07:17:20.578Z</time></trkpt><trkpt lat="45.2585678" lon="9.0100326"><ele>91.0</ele><time>2026-04-19T07:17:22.585Z</time></trkpt><trkpt lat="45.2586422" lon="9.0099457"><ele>91.0</ele><time>2026-04-19T07:17:24.579Z</time></trkpt><trkpt lat="45.258716" lon="9.0098531"><ele>91.0</ele><time>2026-04-19T07:17:26.595Z</time></trkpt><trkpt lat="45.2587973" lon="9.0097635"><ele>91.0</ele><time>2026-04-19T07:17:28.574Z</time></trkpt><trkpt lat="45.2588636" lon="9.0096818"><ele>91.0</ele><time>2026-04-19T07:17:30.585Z</time></trkpt><trkpt lat="45.2589384" lon="9.0095813"><ele>91.0</ele><time>2026-04-19T07:17:32.576Z</time></trkpt><trkpt lat="45.2590265" lon="9.0095108"><ele>91.0</ele><time>2026-04-19T07:17:34.579Z</time></trkpt><trkpt lat="45.2591153" lon="9.0094552"><ele>91.0</ele><time>2026-04-19T07:17:36.589Z</time></trkpt><trkpt lat="45.2592108" lon="9.009407"><ele>91.0</ele><time>2026-04-19T07:17:38.589Z</time></trkpt><trkpt lat="45.2592995" lon="9.009363"><ele>91.0</ele><time>2026-04-19T07:17:40.582Z</time></trkpt><trkpt lat="45.2593852" lon="9.0093382"><ele>91.0</ele><time>2026-04-19T07:17:42.578Z</time></trkpt><trkpt lat="45.2594566" lon="9.0093081"><ele>91.0</ele><time>2026-04-19T07:17:44.585Z</time></trkpt><trkpt lat="45.2595087" lon="9.0092441"><ele>91.0</ele><time>2026-04-19T07:17:46.59Z</time></trkpt><trkpt lat="45.2595534" lon="9.0091414"><ele>91.0</ele><time>2026-04-19T07:17:48.58Z</time></trkpt><trkpt lat="45.2596086" lon="9.0090383"><ele>90.83333333333333</ele><time>2026-04-19T07:17:50.577Z</time></trkpt><trkpt lat="45.2596476" lon="9.0089322"><ele>90.66666666666666</ele><time>2026-04-19T07:17:52.575Z</time></trkpt><trkpt lat="45.2596786" lon="9.0088477"><ele>90.5</ele><time>2026-04-19T07:17:54.586Z</time></trkpt><trkpt lat="45.2597218" lon="9.0087431"><ele>90.33333333333333</ele><time>2026-04-19T07:17:56.591Z</time></trkpt><trkpt lat="45.2597597" lon="9.0086361"><ele>90.16666666666667</ele><time>2026-04-19T07:17:58.58Z</time></trkpt><trkpt lat="45.2597903" lon="9.0085575"><ele>90.0</ele><time>2026-04-19T07:18:00.585Z</time></trkpt><trkpt lat="45.2598431" lon="9.008442"><ele>89.6</ele><time>2026-04-19T07:18:03.574Z</time></trkpt><trkpt lat="45.2598874" lon="9.0083442"><ele>89.2</ele><time>2026-04-19T07:18:05.575Z</time></trkpt><trkpt lat="45.2599283" lon="9.0082684"><ele>88.80000000000001</ele><time>2026-04-19T07:18:06.585Z</time></trkpt><trkpt lat="45.2599781" lon="9.0081374"><ele>88.4</ele><time>2026-04-19T07:18:08.581Z</time></trkpt><trkpt lat="45.2600298" lon="9.0080164"><ele>88.0</ele><time>2026-04-19T07:18:10.584Z</time></trkpt><trkpt lat="45.2600712" lon="9.0078801"><ele>88.0</ele><time>2026-04-19T07:18:12.583Z</time></trkpt><trkpt lat="45.2601279" lon="9.007768"><ele>88.0</ele><time>2026-04-19T07:18:14.581Z</time></trkpt><trkpt lat="45.2601793" lon="9.0076604"><ele>88.0</ele><time>2026-04-19T07:18:16.577Z</time></trkpt><trkpt lat="45.2602317" lon="9.0075512"><ele>88.0</ele><time>2026-04-19T07:18:18.579Z</time></trkpt><trkpt lat="45.260271" lon="9.0074307"><ele>88.0</ele><time>2026-04-19T07:18:20.584Z</time></trkpt><trkpt lat="45.2603226" lon="9.0073181"><ele>88.60000000000001</ele><time>2026-04-19T07:18:22.585Z</time></trkpt><trkpt lat="45.260378" lon="9.0072111"><ele>89.2</ele><time>2026-04-19T07:18:24.58Z</time></trkpt><trkpt lat="45.2604414" lon="9.0071238"><ele>89.8</ele><time>2026-04-19T07:18:26.579Z</time></trkpt><trkpt lat="45.2604982" lon="9.0070292"><ele>90.4</ele><time>2026-04-19T07:18:28.577Z</time></trkpt><trkpt lat="45.2605563" lon="9.0069207"><ele>91.0</ele><time>2026-04-19T07:18:30.582Z</time></trkpt><trkpt lat="45.2606193" lon="9.0068112"><ele>91.0</ele><time>2026-04-19T07:18:32.578Z</time></trkpt><trkpt lat="45.2606842" lon="9.0067305"><ele>91.0</ele><time>2026-04-19T07:18:34.58Z</time></trkpt><trkpt lat="45.2607431" lon="9.0066699"><ele>91.0</ele><time>2026-04-19T07:18:36.58Z</time></trkpt><trkpt lat="45.2607982" lon="9.006588"><ele>91.0</ele><time>2026-04-19T07:18:38.584Z</time></trkpt><trkpt lat="45.2608439" lon="9.0064887"><ele>91.0</ele><time>2026-04-19T07:18:40.587Z</time></trkpt><trkpt lat="45.260904" lon="9.0063938"><ele>91.0</ele><time>2026-04-19T07:18:42.58Z</time></trkpt><trkpt lat="45.2609652" lon="9.006297"><ele>90.0</ele><time>2026-04-19T07:18:44.583Z</time></trkpt><trkpt lat="45.2610294" lon="9.0062119"><ele>89.0</ele><time>2026-04-19T07:18:46.587Z</time></trkpt><trkpt lat="45.2610794" lon="9.0061157"><ele>88.0</ele><time>2026-04-19T07:18:48.583Z</time></trkpt><trkpt lat="45.2611322" lon="9.0060384"><ele>87.0</ele><time>2026-04-19T07:18:50.585Z</time></trkpt><trkpt lat="45.2611871" lon="9.0059509"><ele>86.0</ele><time>2026-04-19T07:18:52.605Z</time></trkpt><trkpt lat="45.2612772" lon="9.0058241"><ele>86.5</ele><time>2026-04-19T07:18:55.581Z</time></trkpt><trkpt lat="45.2613392" lon="9.0057419"><ele>87.0</ele><time>2026-04-19T07:18:57.65Z</time></trkpt><trkpt lat="45.2614111" lon="9.0056712"><ele>87.5</ele><time>2026-04-19T07:18:59.58Z</time></trkpt><trkpt lat="45.2614798" lon="9.0056104"><ele>88.0</ele><time>2026-04-19T07:19:01.588Z</time></trkpt><trkpt lat="45.2615437" lon="9.0055487"><ele>88.5</ele><time>2026-04-19T07:19:03.583Z</time></trkpt><trkpt lat="45.2616136" lon="9.0054819"><ele>89.0</ele><time>2026-04-19T07:19:05.607Z</time></trkpt><trkpt lat="45.2616792" lon="9.005411"><ele>89.0</ele><time>2026-04-19T07:19:07.575Z</time></trkpt><trkpt lat="45.261752" lon="9.0053388"><ele>89.0</ele><time>2026-04-19T07:19:09.58Z</time></trkpt><trkpt lat="45.2618291" lon="9.0052597"><ele>89.0</ele><time>2026-04-19T07:19:11.584Z</time></trkpt><trkpt lat="45.2619064" lon="9.0051632"><ele>89.0</ele><time>2026-04-19T07:19:13.598Z</time></trkpt><trkpt lat="45.2619733" lon="9.0050596"><ele>89.0</ele><time>2026-04-19T07:19:15.583Z</time></trkpt><trkpt lat="45.2620452" lon="9.0049697"><ele>88.66666666666667</ele><time>2026-04-19T07:19:17.582Z</time></trkpt><trkpt lat="45.262105" lon="9.00487"><ele>88.33333333333334</ele><time>2026-04-19T07:19:19.584Z</time></trkpt><trkpt lat="45.2621449" lon="9.0047745"><ele>88.0</ele><time>2026-04-19T07:19:21.579Z</time></trkpt><trkpt lat="45.2621922" lon="9.0046861"><ele>87.66666666666667</ele><time>2026-04-19T07:19:23.612Z</time></trkpt><trkpt lat="45.2622363" lon="9.0045993"><ele>87.33333333333333</ele><time>2026-04-19T07:19:25.59Z</time></trkpt><trkpt lat="45.2622785" lon="9.0045141"><ele>87.0</ele><time>2026-04-19T07:19:27.581Z</time></trkpt><trkpt lat="45.2623264" lon="9.004444"><ele>87.66666666666667</ele><time>2026-04-19T07:19:29.588Z</time></trkpt><trkpt lat="45.2623861" lon="9.004367"><ele>88.33333333333333</ele><time>2026-04-19T07:19:31.597Z</time></trkpt><trkpt lat="45.2624402" lon="9.0042631"><ele>89.0</ele><time>2026-04-19T07:19:33.584Z</time></trkpt><trkpt lat="45.2625071" lon="9.0041806"><ele>89.66666666666666</ele><time>2026-04-19T07:19:35.647Z</time></trkpt><trkpt lat="45.262559" lon="9.0041057"><ele>90.33333333333333</ele><time>2026-04-19T07:19:37.6Z</time></trkpt><trkpt lat="45.2626052" lon="9.0040298"><ele>91.0</ele><time>2026-04-19T07:19:39.575Z</time></trkpt><trkpt lat="45.2626559" lon="9.0039406"><ele>91.0</ele><time>2026-04-19T07:19:41.579Z</time></trkpt><trkpt lat="45.2627179" lon="9.0038566"><ele>91.0</ele><time>2026-04-19T07:19:43.58Z</time></trkpt><trkpt lat="45.2628079" lon="9.0037795"><ele>91.0</ele><time>2026-04-19T07:19:45.581Z</time></trkpt><trkpt lat="45.2628685" lon="9.0036781"><ele>91.0</ele><time>2026-04-19T07:19:47.582Z</time></trkpt><trkpt lat="45.2629305" lon="9.0035749"><ele>91.0</ele><time>2026-04-19T07:19:49.653Z</time></trkpt><trkpt lat="45.2630005" lon="9.0034587"><ele>91.0</ele><time>2026-04-19T07:19:51.605Z</time></trkpt><trkpt lat="45.2630719" lon="9.0033453"><ele>91.0</ele><time>2026-04-19T07:19:53.579Z</time></trkpt><trkpt lat="45.2631296" lon="9.0032324"><ele>91.0</ele><time>2026-04-19T07:19:55.583Z</time></trkpt><trkpt lat="45.2631864" lon="9.0031132"><ele>91.0</ele><time>2026-04-19T07:19:57.592Z</time></trkpt><trkpt lat="45.2632421" lon="9.0029945"><ele>91.0</ele><time>2026-04-19T07:19:59.579Z</time></trkpt><trkpt lat="45.2632926" lon="9.002892"><ele>91.66666666666666</ele><time>2026-04-19T07:20:01.59Z</time></trkpt><trkpt lat="45.2633529" lon="9.0028154"><ele>92.33333333333333</ele><time>2026-04-19T07:20:03.579Z</time></trkpt><trkpt lat="45.2634197" lon="9.0027624"><ele>93.0</ele><time>2026-04-19T07:20:05.572Z</time></trkpt><trkpt lat="45.263508" lon="9.0027155"><ele>93.66666666666667</ele><time>2026-04-19T07:20:07.576Z</time></trkpt><trkpt lat="45.2635851" lon="9.0026847"><ele>94.33333333333334</ele><time>2026-04-19T07:20:09.58Z</time></trkpt><trkpt lat="45.2636371" lon="9.0026191"><ele>95.0</ele><time>2026-04-19T07:20:11.583Z</time></trkpt><trkpt lat="45.2636898" lon="9.0025326"><ele>94.6</ele><time>2026-04-19T07:20:13.583Z</time></trkpt><trkpt lat="45.2637733" lon="9.0024118"><ele>94.2</ele><time>2026-04-19T07:20:15.585Z</time></trkpt><trkpt lat="45.2638256" lon="9.0023083"><ele>93.80000000000001</ele><time>2026-04-19T07:20:17.574Z</time></trkpt><trkpt lat="45.2638805" lon="9.0021949"><ele>93.4</ele><time>2026-04-19T07:20:19.585Z</time></trkpt><trkpt lat="45.2639424" lon="9.0020682"><ele>93.0</ele><time>2026-04-19T07:20:21.581Z</time></trkpt><trkpt lat="45.2639957" lon="9.0019568"><ele>93.80000000000001</ele><time>2026-04-19T07:20:23.581Z</time></trkpt><trkpt lat="45.2640561" lon="9.0018578"><ele>94.6</ele><time>2026-04-19T07:20:25.578Z</time></trkpt><trkpt lat="45.2641033" lon="9.0017528"><ele>95.4</ele><time>2026-04-19T07:20:27.585Z</time></trkpt><trkpt lat="45.2641592" lon="9.0016396"><ele>96.19999999999999</ele><time>2026-04-19T07:20:29.596Z</time></trkpt><trkpt lat="45.2642219" lon="9.0015325"><ele>97.0</ele><time>2026-04-19T07:20:31.579Z</time></trkpt><trkpt lat="45.2642788" lon="9.0014164"><ele>97.0</ele><time>2026-04-19T07:20:33.572Z</time></trkpt><trkpt lat="45.2643272" lon="9.0012962"><ele>97.0</ele><time>2026-04-19T07:20:35.582Z</time></trkpt><trkpt lat="45.2643683" lon="9.0011897"><ele>97.0</ele><time>2026-04-19T07:20:37.572Z</time></trkpt><trkpt lat="45.2644185" lon="9.001089"><ele>97.0</ele><time>2026-04-19T07:20:39.575Z</time></trkpt><trkpt lat="45.2644679" lon="9.0009715"><ele>97.0</ele><time>2026-04-19T07:20:41.574Z</time></trkpt><trkpt lat="45.2645164" lon="9.0008517"><ele>96.66666666666667</ele><time>2026-04-19T07:20:43.611Z</time></trkpt><trkpt lat="45.2645681" lon="9.0007377"><ele>96.33333333333334</ele><time>2026-04-19T07:20:45.571Z</time></trkpt><trkpt lat="45.2646128" lon="9.0006314"><ele>96.0</ele><time>2026-04-19T07:20:47.58Z</time></trkpt><trkpt lat="45.2646715" lon="9.000529"><ele>95.66666666666667</ele><time>2026-04-19T07:20:49.584Z</time></trkpt><trkpt lat="45.2647223" lon="9.0004301"><ele>95.33333333333334</ele><time>2026-04-19T07:20:51.572Z</time></trkpt><trkpt lat="45.2647727" lon="9.0003378"><ele>95.0</ele><time>2026-04-19T07:20:53.649Z</time></trkpt><trkpt lat="45.2648112" lon="9.0002451"><ele>95.0</ele><time>2026-04-19T07:20:55.584Z</time></trkpt><trkpt lat="45.2648386" lon="9.0001577"><ele>95.0</ele><time>2026-04-19T07:20:57.581Z</time></trkpt><trkpt lat="45.2648728" lon="9.0000384"><ele>95.0</ele><time>2026-04-19T07:21:00.579Z</time></trkpt><trkpt lat="45.2649121" lon="8.9999301"><ele>95.0</ele><time>2026-04-19T07:21:03.584Z</time></trkpt><trkpt lat="45.2649401" lon="8.999839"><ele>95.0</ele><time>2026-04-19T07:21:06.58Z</time></trkpt><trkpt lat="45.2649972" lon="8.9997684"><ele>95.0</ele><time>2026-04-19T07:21:10.58Z</time></trkpt><trkpt lat="45.2650698" lon="8.9997134"><ele>95.0</ele><time>2026-04-19T07:21:13.585Z</time></trkpt><trkpt lat="45.2651217" lon="8.9996323"><ele>95.0</ele><time>2026-04-19T07:21:15.58Z</time></trkpt><trkpt lat="45.2651695" lon="8.9995439"><ele>95.0</ele><time>2026-04-19T07:21:17.578Z</time></trkpt><trkpt lat="45.2652195" lon="8.999461"><ele>95.0</ele><time>2026-04-19T07:21:19.57Z</time></trkpt><trkpt lat="45.2652867" lon="8.9993436"><ele>95.0</ele><time>2026-04-19T07:21:21.584Z</time></trkpt><trkpt lat="45.2653352" lon="8.9992567"><ele>95.0</ele><time>2026-04-19T07:21:23.594Z</time></trkpt><trkpt lat="45.2653813" lon="8.9991651"><ele>95.0</ele><time>2026-04-19T07:21:25.582Z</time></trkpt><trkpt lat="45.2654408" lon="8.9990701"><ele>95.0</ele><time>2026-04-19T07:21:27.573Z</time></trkpt><trkpt lat="45.2654887" lon="8.9989565"><ele>95.0</ele><time>2026-04-19T07:21:29.583Z</time></trkpt><trkpt lat="45.265532" lon="8.998864"><ele>95.0</ele><time>2026-04-19T07:21:31.595Z</time></trkpt><trkpt lat="45.265582" lon="8.9987707"><ele>95.0</ele><time>2026-04-19T07:21:33.575Z</time></trkpt><trkpt lat="45.2656273" lon="8.9986688"><ele>95.0</ele><time>2026-04-19T07:21:35.582Z</time></trkpt><trkpt lat="45.2656794" lon="8.9985882"><ele>95.0</ele><time>2026-04-19T07:21:37.58Z</time></trkpt><trkpt lat="45.2657258" lon="8.9984837"><ele>95.0</ele><time>2026-04-19T07:21:39.575Z</time></trkpt><trkpt lat="45.265771" lon="8.9983791"><ele>95.0</ele><time>2026-04-19T07:21:41.579Z</time></trkpt><trkpt lat="45.2658248" lon="8.9982837"><ele>95.0</ele><time>2026-04-19T07:21:43.579Z</time></trkpt><trkpt lat="45.2658777" lon="8.998189"><ele>95.0</ele><time>2026-04-19T07:21:45.579Z</time></trkpt><trkpt lat="45.26592" lon="8.9981015"><ele>95.0</ele><time>2026-04-19T07:21:47.581Z</time></trkpt><trkpt lat="45.2659655" lon="8.9980226"><ele>95.0</ele><time>2026-04-19T07:21:49.573Z</time></trkpt><trkpt lat="45.2660132" lon="8.9979441"><ele>95.0</ele><time>2026-04-19T07:21:51.581Z</time></trkpt><trkpt lat="45.2660673" lon="8.9978363"><ele>95.0</ele><time>2026-04-19T07:21:53.576Z</time></trkpt><trkpt lat="45.2661204" lon="8.9977224"><ele>95.0</ele><time>2026-04-19T07:21:55.583Z</time></trkpt><trkpt lat="45.2661695" lon="8.997627"><ele>95.0</ele><time>2026-04-19T07:21:57.58Z</time></trkpt><trkpt lat="45.2662165" lon="8.9975255"><ele>95.0</ele><time>2026-04-19T07:21:59.576Z</time></trkpt><trkpt lat="45.2662673" lon="8.9974308"><ele>94.83333333333334</ele><time>2026-04-19T07:22:01.723Z</time></trkpt><trkpt lat="45.2663216" lon="8.9973286"><ele>94.66666666666667</ele><time>2026-04-19T07:22:03.578Z</time></trkpt><trkpt lat="45.2663697" lon="8.9972305"><ele>94.5</ele><time>2026-04-19T07:22:05.586Z</time></trkpt><trkpt lat="45.2664183" lon="8.9971371"><ele>94.33333333333333</ele><time>2026-04-19T07:22:07.579Z</time></trkpt><trkpt lat="45.2664663" lon="8.9970414"><ele>94.16666666666666</ele><time>2026-04-19T07:22:09.602Z</time></trkpt><trkpt lat="45.2665226" lon="8.9969489"><ele>94.0</ele><time>2026-04-19T07:22:11.577Z</time></trkpt><trkpt lat="45.2665732" lon="8.9968577"><ele>94.0</ele><time>2026-04-19T07:22:13.581Z</time></trkpt><trkpt lat="45.2666241" lon="8.996763"><ele>94.0</ele><time>2026-04-19T07:22:15.586Z</time></trkpt><trkpt lat="45.2666663" lon="8.9966862"><ele>94.0</ele><time>2026-04-19T07:22:17.57Z</time></trkpt><trkpt lat="45.266708" lon="8.9966169"><ele>94.0</ele><time>2026-04-19T07:22:19.579Z</time></trkpt><trkpt lat="45.2667882" lon="8.9966243"><ele>94.0</ele><time>2026-04-19T07:22:22.573Z</time></trkpt><trkpt lat="45.2668677" lon="8.9966984"><ele>94.0</ele><time>2026-04-19T07:22:25.586Z</time></trkpt><trkpt lat="45.2669235" lon="8.9967599"><ele>94.0</ele><time>2026-04-19T07:22:27.579Z</time></trkpt><trkpt lat="45.2669825" lon="8.9968246"><ele>94.0</ele><time>2026-04-19T07:22:29.578Z</time></trkpt><trkpt lat="45.2670512" lon="8.9968755"><ele>94.0</ele><time>2026-04-19T07:22:31.619Z</time></trkpt><trkpt lat="45.2671254" lon="8.996932"><ele>94.0</ele><time>2026-04-19T07:22:33.58Z</time></trkpt><trkpt lat="45.2671951" lon="8.9969852"><ele>94.0</ele><time>2026-04-19T07:22:35.577Z</time></trkpt><trkpt lat="45.2672673" lon="8.997044"><ele>94.0</ele><time>2026-04-19T07:22:37.587Z</time></trkpt><trkpt lat="45.2673442" lon="8.9971085"><ele>94.5</ele><time>2026-04-19T07:22:39.656Z</time></trkpt><trkpt lat="45.267414" lon="8.9971586"><ele>95.0</ele><time>2026-04-19T07:22:41.755Z</time></trkpt><trkpt lat="45.2674752" lon="8.9972073"><ele>95.5</ele><time>2026-04-19T07:22:43.585Z</time></trkpt><trkpt lat="45.2675443" lon="8.9972657"><ele>96.0</ele><time>2026-04-19T07:22:45.579Z</time></trkpt><trkpt lat="45.2676133" lon="8.9973278"><ele>96.50000000000001</ele><time>2026-04-19T07:22:47.577Z</time></trkpt><trkpt lat="45.2676775" lon="8.9973806"><ele>97.0</ele><time>2026-04-19T07:22:49.577Z</time></trkpt><trkpt lat="45.2677498" lon="8.9974444"><ele>97.00000000000001</ele><time>2026-04-19T07:22:51.574Z</time></trkpt><trkpt lat="45.26782" lon="8.9975007"><ele>97.0</ele><time>2026-04-19T07:22:53.574Z</time></trkpt><trkpt lat="45.2678852" lon="8.9975537"><ele>97.0</ele><time>2026-04-19T07:22:55.587Z</time></trkpt><trkpt lat="45.2679516" lon="8.9976108"><ele>97.0</ele><time>2026-04-19T07:22:57.589Z</time></trkpt><trkpt lat="45.2680134" lon="8.9976504"><ele>97.00000000000001</ele><time>2026-04-19T07:22:59.583Z</time></trkpt><trkpt lat="45.2680786" lon="8.997605"><ele>97.0</ele><time>2026-04-19T07:23:02.584Z</time></trkpt><trkpt lat="45.2681254" lon="8.997512"><ele>97.0</ele><time>2026-04-19T07:23:05.583Z</time></trkpt><trkpt lat="45.2681557" lon="8.9974155"><ele>97.0</ele><time>2026-04-19T07:23:07.575Z</time></trkpt><trkpt lat="45.2681882" lon="8.9973235"><ele>97.0</ele><time>2026-04-19T07:23:09.578Z</time></trkpt><trkpt lat="45.2682218" lon="8.9972328"><ele>97.0</ele><time>2026-04-19T07:23:11.575Z</time></trkpt><trkpt lat="45.2682513" lon="8.997145"><ele>97.0</ele><time>2026-04-19T07:23:13.574Z</time></trkpt><trkpt lat="45.268284" lon="8.9970581"><ele>97.0</ele><time>2026-04-19T07:23:15.582Z</time></trkpt><trkpt lat="45.2683179" lon="8.996967"><ele>97.0</ele><time>2026-04-19T07:23:17.596Z</time></trkpt><trkpt lat="45.2683471" lon="8.9968609"><ele>97.00000000000001</ele><time>2026-04-19T07:23:19.579Z</time></trkpt><trkpt lat="45.2683781" lon="8.996766"><ele>97.0</ele><time>2026-04-19T07:23:21.573Z</time></trkpt><trkpt lat="45.2684158" lon="8.9966507"><ele>97.0</ele><time>2026-04-19T07:23:24.576Z</time></trkpt><trkpt lat="45.2684626" lon="8.9965276"><ele>97.0</ele><time>2026-04-19T07:23:27.575Z</time></trkpt><trkpt lat="45.2685002" lon="8.9964342"><ele>97.00000000000001</ele><time>2026-04-19T07:23:29.585Z</time></trkpt><trkpt lat="45.2685704" lon="8.9963843"><ele>97.0</ele><time>2026-04-19T07:23:31.608Z</time></trkpt><trkpt lat="45.2686431" lon="8.9963545"><ele>97.00000000000001</ele><time>2026-04-19T07:23:33.582Z</time></trkpt><trkpt lat="45.2687249" lon="8.996324"><ele>97.0</ele><time>2026-04-19T07:23:35.579Z</time></trkpt><trkpt lat="45.2687964" lon="8.9962548"><ele>97.0</ele><time>2026-04-19T07:23:37.582Z</time></trkpt><trkpt lat="45.2688504" lon="8.9961835"><ele>97.0</ele><time>2026-04-19T07:23:39.583Z</time></trkpt><trkpt lat="45.268907" lon="8.9961104"><ele>97.00000000000001</ele><time>2026-04-19T07:23:41.581Z</time></trkpt><trkpt lat="45.2689705" lon="8.996027"><ele>97.0</ele><time>2026-04-19T07:23:43.582Z</time></trkpt><trkpt lat="45.2690294" lon="8.995956"><ele>97.0</ele><time>2026-04-19T07:23:45.581Z</time></trkpt><trkpt lat="45.2690798" lon="8.9958871"><ele>97.0</ele><time>2026-04-19T07:23:47.661Z</time></trkpt><trkpt lat="45.269137" lon="8.995825"><ele>97.0</ele><time>2026-04-19T07:23:49.586Z</time></trkpt><trkpt lat="45.2691932" lon="8.995755"><ele>97.0</ele><time>2026-04-19T07:23:51.572Z</time></trkpt><trkpt lat="45.2692443" lon="8.9956838"><ele>97.0</ele><time>2026-04-19T07:23:53.58Z</time></trkpt><trkpt lat="45.2692886" lon="8.9956122"><ele>97.0</ele><time>2026-04-19T07:23:55.581Z</time></trkpt><trkpt lat="45.2693336" lon="8.9955366"><ele>97.0</ele><time>2026-04-19T07:23:57.585Z</time></trkpt><trkpt lat="45.2693937" lon="8.9954347"><ele>97.0</ele><time>2026-04-19T07:24:00.646Z</time></trkpt><trkpt lat="45.2694573" lon="8.9954035"><ele>97.0</ele><time>2026-04-19T07:24:02.583Z</time></trkpt><trkpt lat="45.2695213" lon="8.9954421"><ele>97.0</ele><time>2026-04-19T07:24:04.575Z</time></trkpt><trkpt lat="45.2696006" lon="8.9954899"><ele>97.0</ele><time>2026-04-19T07:24:06.583Z</time></trkpt><trkpt lat="45.2696702" lon="8.9955296"><ele>97.0</ele><time>2026-04-19T07:24:08.575Z</time></trkpt><trkpt lat="45.2697366" lon="8.9955944"><ele>97.0</ele><time>2026-04-19T07:24:10.576Z</time></trkpt><trkpt lat="45.2697994" lon="8.9956371"><ele>97.0</ele><time>2026-04-19T07:24:12.58Z</time></trkpt><trkpt lat="45.2698726" lon="8.9956819"><ele>96.83333333333334</ele><time>2026-04-19T07:24:14.584Z</time></trkpt><trkpt lat="45.2699288" lon="8.995726"><ele>96.66666666666667</ele><time>2026-04-19T07:24:16.579Z</time></trkpt><trkpt lat="45.2700156" lon="8.9957946"><ele>96.5</ele><time>2026-04-19T07:24:19.585Z</time></trkpt><trkpt lat="45.2700753" lon="8.9958415"><ele>96.33333333333334</ele><time>2026-04-19T07:24:21.616Z</time></trkpt><trkpt lat="45.270158" lon="8.99585"><ele>96.16666666666667</ele><time>2026-04-19T07:24:24.577Z</time></trkpt><trkpt lat="45.2702253" lon="8.9958275"><ele>96.0</ele><time>2026-04-19T07:24:27.577Z</time></trkpt><trkpt lat="45.2702861" lon="8.9957672"><ele>95.99999999999999</ele><time>2026-04-19T07:24:30.589Z</time></trkpt><trkpt lat="45.2703234" lon="8.9956871"><ele>96.0</ele><time>2026-04-19T07:24:32.581Z</time></trkpt><trkpt lat="45.2703616" lon="8.9956084"><ele>96.0</ele><time>2026-04-19T07:24:34.58Z</time></trkpt><trkpt lat="45.2704027" lon="8.9955134"><ele>96.0</ele><time>2026-04-19T07:24:36.582Z</time></trkpt><trkpt lat="45.270462" lon="8.9954326"><ele>96.0</ele><time>2026-04-19T07:24:38.581Z</time></trkpt><trkpt lat="45.2705077" lon="8.9953639"><ele>95.99999999999999</ele><time>2026-04-19T07:24:40.576Z</time></trkpt><trkpt lat="45.2705601" lon="8.9952991"><ele>96.0</ele><time>2026-04-19T07:24:42.582Z</time></trkpt><trkpt lat="45.2706382" lon="8.9952118"><ele>96.0</ele><time>2026-04-19T07:24:45.574Z</time></trkpt><trkpt lat="45.2707111" lon="8.9951475"><ele>96.0</ele><time>2026-04-19T07:24:47.581Z</time></trkpt><trkpt lat="45.2707809" lon="8.9951171"><ele>96.0</ele><time>2026-04-19T07:24:49.58Z</time></trkpt><trkpt lat="45.2708515" lon="8.9951127"><ele>96.0</ele><time>2026-04-19T07:24:51.594Z</time></trkpt><trkpt lat="45.2709222" lon="8.9951225"><ele>96.0</ele><time>2026-04-19T07:24:53.647Z</time></trkpt><trkpt lat="45.2710026" lon="8.9951622"><ele>96.0</ele><time>2026-04-19T07:24:56.578Z</time></trkpt><trkpt lat="45.2710654" lon="8.9951277"><ele>96.0</ele><time>2026-04-19T07:25:01.576Z</time></trkpt><trkpt lat="45.2710608" lon="8.9950264"><ele>96.0</ele><time>2026-04-19T07:25:03.577Z</time></trkpt><trkpt lat="45.2710236" lon="8.9949371"><ele>96.0</ele><time>2026-04-19T07:25:05.577Z</time></trkpt><trkpt lat="45.2709207" lon="8.9949187"><ele>96.0</ele><time>2026-04-19T07:25:07.583Z</time></trkpt><trkpt lat="45.2707932" lon="8.9949413"><ele>96.0</ele><time>2026-04-19T07:25:09.595Z</time></trkpt><trkpt lat="45.2706825" lon="8.9949633"><ele>96.0</ele><time>2026-04-19T07:25:11.585Z</time></trkpt><trkpt lat="45.2706163" lon="8.994972"><ele>96.0</ele><time>2026-04-19T07:25:12.576Z</time></trkpt><trkpt lat="45.2705527" lon="8.9949692"><ele>96.0</ele><time>2026-04-19T07:25:13.581Z</time></trkpt><trkpt lat="45.2704847" lon="8.9949811"><ele>96.0</ele><time>2026-04-19T07:25:14.579Z</time></trkpt><trkpt lat="45.2703568" lon="8.9950195"><ele>96.0</ele><time>2026-04-19T07:25:16.581Z</time></trkpt><trkpt lat="45.2702833" lon="8.9950333"><ele>96.0</ele><time>2026-04-19T07:25:17.579Z</time></trkpt><trkpt lat="45.2702037" lon="8.9950212"><ele>95.33333333333333</ele><time>2026-04-19T07:25:18.591Z</time></trkpt><trkpt lat="45.2701211" lon="8.9949787"><ele>94.66666666666667</ele><time>2026-04-19T07:25:19.577Z</time></trkpt><trkpt lat="45.2700513" lon="8.994929"><ele>94.0</ele><time>2026-04-19T07:25:20.572Z</time></trkpt><trkpt lat="45.2699794" lon="8.9948591"><ele>93.33333333333334</ele><time>2026-04-19T07:25:21.578Z</time></trkpt><trkpt lat="45.2699044" lon="8.9947909"><ele>92.66666666666667</ele><time>2026-04-19T07:25:22.574Z</time></trkpt><trkpt lat="45.2698213" lon="8.9947358"><ele>92.0</ele><time>2026-04-19T07:25:23.588Z</time></trkpt><trkpt lat="45.2697348" lon="8.9946552"><ele>92.0</ele><time>2026-04-19T07:25:24.582Z</time></trkpt><trkpt lat="45.2696384" lon="8.9945813"><ele>92.0</ele><time>2026-04-19T07:25:25.604Z</time></trkpt><trkpt lat="45.269561" lon="8.9944831"><ele>92.0</ele><time>2026-04-19T07:25:26.583Z</time></trkpt><trkpt lat="45.2694732" lon="8.9943891"><ele>92.0</ele><time>2026-04-19T07:25:27.576Z</time></trkpt><trkpt lat="45.2693945" lon="8.9942801"><ele>92.0</ele><time>2026-04-19T07:25:28.573Z</time></trkpt><trkpt lat="45.2693292" lon="8.9941854"><ele>90.28571428571429</ele><time>2026-04-19T07:25:29.58Z</time></trkpt><trkpt lat="45.2692668" lon="8.9940984"><ele>88.57142857142857</ele><time>2026-04-19T07:25:30.579Z</time></trkpt><trkpt lat="45.2692168" lon="8.9940196"><ele>86.85714285714286</ele><time>2026-04-19T07:25:31.577Z</time></trkpt><trkpt lat="45.2691781" lon="8.9939337"><ele>85.14285714285714</ele><time>2026-04-19T07:25:32.575Z</time></trkpt><trkpt lat="45.2691532" lon="8.9938408"><ele>83.42857142857143</ele><time>2026-04-19T07:25:33.574Z</time></trkpt><trkpt lat="45.2691311" lon="8.9937537"><ele>81.71428571428571</ele><time>2026-04-19T07:25:34.584Z</time></trkpt><trkpt lat="45.2691273" lon="8.9936638"><ele>80.0</ele><time>2026-04-19T07:25:35.568Z</time></trkpt><trkpt lat="45.2691132" lon="8.9934986"><ele>80.0</ele><time>2026-04-19T07:25:37.577Z</time></trkpt><trkpt lat="45.2690684" lon="8.9933483"><ele>80.0</ele><time>2026-04-19T07:25:39.577Z</time></trkpt><trkpt lat="45.2690114" lon="8.9932367"><ele>80.0</ele><time>2026-04-19T07:25:41.575Z</time></trkpt><trkpt lat="45.2689714" lon="8.993138"><ele>80.0</ele><time>2026-04-19T07:25:43.606Z</time></trkpt><trkpt lat="45.2689364" lon="8.9930587"><ele>80.0</ele><time>2026-04-19T07:25:45.574Z</time></trkpt><trkpt lat="45.2689002" lon="8.9929844"><ele>80.0</ele><time>2026-04-19T07:25:47.571Z</time></trkpt><trkpt lat="45.2688569" lon="8.9928962"><ele>79.66666666666667</ele><time>2026-04-19T07:25:50.575Z</time></trkpt><trkpt lat="45.2687937" lon="8.9928108"><ele>79.33333333333334</ele><time>2026-04-19T07:25:53.579Z</time></trkpt><trkpt lat="45.2687505" lon="8.9927179"><ele>79.0</ele><time>2026-04-19T07:25:55.602Z</time></trkpt><trkpt lat="45.2687082" lon="8.9926284"><ele>78.66666666666667</ele><time>2026-04-19T07:25:57.653Z</time></trkpt><trkpt lat="45.2686613" lon="8.9925359"><ele>78.33333333333333</ele><time>2026-04-19T07:25:59.582Z</time></trkpt><trkpt lat="45.2686067" lon="8.9924403"><ele>78.0</ele><time>2026-04-19T07:26:01.584Z</time></trkpt><trkpt lat="45.2685614" lon="8.9923508"><ele>77.33333333333333</ele><time>2026-04-19T07:26:03.581Z</time></trkpt><trkpt lat="45.2685152" lon="8.9922568"><ele>76.66666666666667</ele><time>2026-04-19T07:26:05.587Z</time></trkpt><trkpt lat="45.2684804" lon="8.9921698"><ele>76.0</ele><time>2026-04-19T07:26:07.574Z</time></trkpt><trkpt lat="45.2684487" lon="8.9920813"><ele>75.33333333333334</ele><time>2026-04-19T07:26:09.581Z</time></trkpt><trkpt lat="45.2684483" lon="8.9919529"><ele>74.66666666666667</ele><time>2026-04-19T07:26:12.573Z</time></trkpt><trkpt lat="45.2684548" lon="8.9918594"><ele>74.0</ele><time>2026-04-19T07:26:14.585Z</time></trkpt><trkpt lat="45.2684626" lon="8.9917538"><ele>73.8</ele><time>2026-04-19T07:26:16.578Z</time></trkpt><trkpt lat="45.2684554" lon="8.9916197"><ele>73.60000000000001</ele><time>2026-04-19T07:26:18.576Z</time></trkpt><trkpt lat="45.2684503" lon="8.9914937"><ele>73.4</ele><time>2026-04-19T07:26:20.57Z</time></trkpt><trkpt lat="45.2684387" lon="8.9913953"><ele>73.2</ele><time>2026-04-19T07:26:22.574Z</time></trkpt><trkpt lat="45.2684325" lon="8.9912335"><ele>73.0</ele><time>2026-04-19T07:26:25.584Z</time></trkpt><trkpt lat="45.2684746" lon="8.9911286"><ele>73.0</ele><time>2026-04-19T07:26:27.569Z</time></trkpt><trkpt lat="45.2685363" lon="8.9910515"><ele>73.0</ele><time>2026-04-19T07:26:29.581Z</time></trkpt><trkpt lat="45.2686219" lon="8.9910045"><ele>73.0</ele><time>2026-04-19T07:26:31.609Z</time></trkpt><trkpt lat="45.2686928" lon="8.9909599"><ele>73.0</ele><time>2026-04-19T07:26:33.572Z</time></trkpt><trkpt lat="45.2687649" lon="8.9909035"><ele>73.0</ele><time>2026-04-19T07:26:35.584Z</time></trkpt><trkpt lat="45.2688431" lon="8.9908332"><ele>73.0</ele><time>2026-04-19T07:26:37.603Z</time></trkpt><trkpt lat="45.2689154" lon="8.9907797"><ele>72.83333333333333</ele><time>2026-04-19T07:26:39.577Z</time></trkpt><trkpt lat="45.2689961" lon="8.99072"><ele>72.66666666666666</ele><time>2026-04-19T07:26:41.58Z</time></trkpt><trkpt lat="45.2690793" lon="8.9906589"><ele>72.5</ele><time>2026-04-19T07:26:43.57Z</time></trkpt><trkpt lat="45.2691499" lon="8.9905874"><ele>72.33333333333333</ele><time>2026-04-19T07:26:45.575Z</time></trkpt><trkpt lat="45.2692244" lon="8.990519"><ele>72.16666666666667</ele><time>2026-04-19T07:26:47.577Z</time></trkpt><trkpt lat="45.2692863" lon="8.9904542"><ele>72.0</ele><time>2026-04-19T07:26:49.575Z</time></trkpt><trkpt lat="45.2693444" lon="8.9903978"><ele>72.00000000000001</ele><time>2026-04-19T07:26:51.572Z</time></trkpt><trkpt lat="45.2693988" lon="8.9903512"><ele>72.0</ele><time>2026-04-19T07:26:53.569Z</time></trkpt><trkpt lat="45.2694587" lon="8.9903061"><ele>72.0</ele><time>2026-04-19T07:26:55.585Z</time></trkpt><trkpt lat="45.2695145" lon="8.9902638"><ele>72.0</ele><time>2026-04-19T07:26:57.604Z</time></trkpt><trkpt lat="45.2695815" lon="8.9902148"><ele>72.0</ele><time>2026-04-19T07:26:59.575Z</time></trkpt><trkpt lat="45.2696478" lon="8.9901636"><ele>72.00000000000001</ele><time>2026-04-19T07:27:01.582Z</time></trkpt><trkpt lat="45.2697137" lon="8.9901289"><ele>72.0</ele><time>2026-04-19T07:27:03.576Z</time></trkpt><trkpt lat="45.2697907" lon="8.9901052"><ele>72.33333333333333</ele><time>2026-04-19T07:27:06.582Z</time></trkpt><trkpt lat="45.269878" lon="8.9901092"><ele>72.66666666666667</ele><time>2026-04-19T07:27:09.608Z</time></trkpt><trkpt lat="45.2699433" lon="8.9900386"><ele>73.0</ele><time>2026-04-19T07:27:12.582Z</time></trkpt><trkpt lat="45.2699894" lon="8.989957"><ele>73.33333333333334</ele><time>2026-04-19T07:27:15.64Z</time></trkpt><trkpt lat="45.2700646" lon="8.9899118"><ele>73.66666666666667</ele><time>2026-04-19T07:27:19.576Z</time></trkpt><trkpt lat="45.2701409" lon="8.9898799"><ele>74.0</ele><time>2026-04-19T07:27:22.577Z</time></trkpt><trkpt lat="45.2701951" lon="8.9898338"><ele>74.0</ele><time>2026-04-19T07:27:24.579Z</time></trkpt><trkpt lat="45.2702681" lon="8.9897989"><ele>74.0</ele><time>2026-04-19T07:27:27.584Z</time></trkpt><trkpt lat="45.2703281" lon="8.98976"><ele>74.0</ele><time>2026-04-19T07:27:29.582Z</time></trkpt><trkpt lat="45.2703937" lon="8.9897055"><ele>74.0</ele><time>2026-04-19T07:27:32.583Z</time></trkpt><trkpt lat="45.2704749" lon="8.9896514"><ele>74.0</ele><time>2026-04-19T07:27:35.582Z</time></trkpt><trkpt lat="45.2705563" lon="8.9895822"><ele>74.0</ele><time>2026-04-19T07:27:38.579Z</time></trkpt><trkpt lat="45.270619" lon="8.989543"><ele>74.14285714285714</ele><time>2026-04-19T07:27:40.589Z</time></trkpt><trkpt lat="45.2706876" lon="8.9895105"><ele>74.28571428571428</ele><time>2026-04-19T07:27:42.586Z</time></trkpt><trkpt lat="45.270752" lon="8.989471"><ele>74.42857142857142</ele><time>2026-04-19T07:27:44.579Z</time></trkpt><trkpt lat="45.2708073" lon="8.9894271"><ele>74.57142857142857</ele><time>2026-04-19T07:27:46.576Z</time></trkpt><trkpt lat="45.2708678" lon="8.9893871"><ele>74.71428571428571</ele><time>2026-04-19T07:27:48.588Z</time></trkpt><trkpt lat="45.2709485" lon="8.9894086"><ele>74.85714285714285</ele><time>2026-04-19T07:27:51.583Z</time></trkpt><trkpt lat="45.2710093" lon="8.9894485"><ele>75.0</ele><time>2026-04-19T07:27:53.605Z</time></trkpt><trkpt lat="45.271078" lon="8.9894995"><ele>75.0</ele><time>2026-04-19T07:27:55.653Z</time></trkpt><trkpt lat="45.2711553" lon="8.9895616"><ele>75.0</ele><time>2026-04-19T07:27:57.583Z</time></trkpt><trkpt lat="45.2712246" lon="8.9896119"><ele>75.0</ele><time>2026-04-19T07:27:59.582Z</time></trkpt><trkpt lat="45.2712931" lon="8.9896668"><ele>75.0</ele><time>2026-04-19T07:28:01.587Z</time></trkpt><trkpt lat="45.271369" lon="8.98972"><ele>75.0</ele><time>2026-04-19T07:28:03.587Z</time></trkpt><trkpt lat="45.271446" lon="8.9897694"><ele>75.0</ele><time>2026-04-19T07:28:05.582Z</time></trkpt><trkpt lat="45.2715259" lon="8.9898224"><ele>74.66666666666667</ele><time>2026-04-19T07:28:07.577Z</time></trkpt><trkpt lat="45.27161" lon="8.9898595"><ele>74.33333333333333</ele><time>2026-04-19T07:28:09.623Z</time></trkpt><trkpt lat="45.2716748" lon="8.9898968"><ele>74.0</ele><time>2026-04-19T07:28:11.582Z</time></trkpt><trkpt lat="45.2717429" lon="8.9899423"><ele>73.66666666666666</ele><time>2026-04-19T07:28:13.579Z</time></trkpt><trkpt lat="45.2718071" lon="8.9899974"><ele>73.33333333333333</ele><time>2026-04-19T07:28:15.582Z</time></trkpt><trkpt lat="45.2718657" lon="8.9900496"><ele>73.0</ele><time>2026-04-19T07:28:17.571Z</time></trkpt><trkpt lat="45.2719213" lon="8.9901149"><ele>73.0</ele><time>2026-04-19T07:28:19.575Z</time></trkpt><trkpt lat="45.2719793" lon="8.9901761"><ele>73.0</ele><time>2026-04-19T07:28:21.576Z</time></trkpt><trkpt lat="45.2720472" lon="8.9902095"><ele>73.0</ele><time>2026-04-19T07:28:24.579Z</time></trkpt><trkpt lat="45.2721167" lon="8.9901843"><ele>73.0</ele><time>2026-04-19T07:28:27.569Z</time></trkpt><trkpt lat="45.2721867" lon="8.9901415"><ele>73.0</ele><time>2026-04-19T07:28:30.578Z</time></trkpt><trkpt lat="45.2722702" lon="8.9901192"><ele>73.0</ele><time>2026-04-19T07:28:33.572Z</time></trkpt><trkpt lat="45.2723605" lon="8.9900847"><ele>73.0</ele><time>2026-04-19T07:28:36.581Z</time></trkpt><trkpt lat="45.2724368" lon="8.9900476"><ele>73.0</ele><time>2026-04-19T07:28:38.576Z</time></trkpt><trkpt lat="45.2725136" lon="8.9900123"><ele>73.0</ele><time>2026-04-19T07:28:40.583Z</time></trkpt><trkpt lat="45.2725883" lon="8.9899403"><ele>73.0</ele><time>2026-04-19T07:28:42.584Z</time></trkpt><trkpt lat="45.2726517" lon="8.9898782"><ele>73.0</ele><time>2026-04-19T07:28:45.581Z</time></trkpt><trkpt lat="45.2727386" lon="8.9898305"><ele>73.0</ele><time>2026-04-19T07:28:48.585Z</time></trkpt><trkpt lat="45.2728143" lon="8.9897868"><ele>72.85714285714286</ele><time>2026-04-19T07:28:50.581Z</time></trkpt><trkpt lat="45.2728929" lon="8.9897533"><ele>72.71428571428572</ele><time>2026-04-19T07:28:52.581Z</time></trkpt><trkpt lat="45.2729548" lon="8.9897194"><ele>72.57142857142858</ele><time>2026-04-19T07:28:54.587Z</time></trkpt><trkpt lat="45.2730246" lon="8.9896934"><ele>72.42857142857143</ele><time>2026-04-19T07:28:56.576Z</time></trkpt><trkpt lat="45.2731138" lon="8.9896508"><ele>72.28571428571429</ele><time>2026-04-19T07:28:59.611Z</time></trkpt><trkpt lat="45.2731747" lon="8.9896222"><ele>72.14285714285715</ele><time>2026-04-19T07:29:01.571Z</time></trkpt><trkpt lat="45.2732324" lon="8.98958"><ele>72.0</ele><time>2026-04-19T07:29:03.575Z</time></trkpt><trkpt lat="45.2732912" lon="8.9895331"><ele>72.00000000000001</ele><time>2026-04-19T07:29:05.582Z</time></trkpt><trkpt lat="45.2733442" lon="8.9894819"><ele>72.0</ele><time>2026-04-19T07:29:07.58Z</time></trkpt><trkpt lat="45.2734005" lon="8.9894199"><ele>72.0</ele><time>2026-04-19T07:29:09.58Z</time></trkpt><trkpt lat="45.2734599" lon="8.9893578"><ele>72.0</ele><time>2026-04-19T07:29:11.58Z</time></trkpt><trkpt lat="45.2735117" lon="8.9892947"><ele>72.0</ele><time>2026-04-19T07:29:13.651Z</time></trkpt><trkpt lat="45.2735712" lon="8.9892493"><ele>72.00000000000001</ele><time>2026-04-19T07:29:15.596Z</time></trkpt><trkpt lat="45.2736382" lon="8.9892021"><ele>72.0</ele><time>2026-04-19T07:29:17.585Z</time></trkpt><trkpt lat="45.2736993" lon="8.9891553"><ele>72.00000000000001</ele><time>2026-04-19T07:29:19.573Z</time></trkpt><trkpt lat="45.2737615" lon="8.9891188"><ele>72.0</ele><time>2026-04-19T07:29:21.58Z</time></trkpt><trkpt lat="45.2738214" lon="8.9890529"><ele>72.0</ele><time>2026-04-19T07:29:23.578Z</time></trkpt><trkpt lat="45.2738791" lon="8.9890146"><ele>72.0</ele><time>2026-04-19T07:29:25.583Z</time></trkpt><trkpt lat="45.2739554" lon="8.9889722"><ele>72.0</ele><time>2026-04-19T07:29:27.578Z</time></trkpt><trkpt lat="45.2740271" lon="8.9889328"><ele>72.00000000000001</ele><time>2026-04-19T07:29:29.577Z</time></trkpt><trkpt lat="45.2740969" lon="8.9888854"><ele>72.0</ele><time>2026-04-19T07:29:31.584Z</time></trkpt><trkpt lat="45.2741591" lon="8.9888188"><ele>72.28571428571429</ele><time>2026-04-19T07:29:33.586Z</time></trkpt><trkpt lat="45.2742008" lon="8.9887454"><ele>72.57142857142857</ele><time>2026-04-19T07:29:35.584Z</time></trkpt><trkpt lat="45.2742454" lon="8.9886769"><ele>72.85714285714286</ele><time>2026-04-19T07:29:37.576Z</time></trkpt><trkpt lat="45.2743123" lon="8.9886204"><ele>73.14285714285714</ele><time>2026-04-19T07:29:40.582Z</time></trkpt><trkpt lat="45.2743671" lon="8.9885643"><ele>73.42857142857143</ele><time>2026-04-19T07:29:42.583Z</time></trkpt><trkpt lat="45.2744204" lon="8.9884928"><ele>73.71428571428572</ele><time>2026-04-19T07:29:44.578Z</time></trkpt><trkpt lat="45.2744697" lon="8.9883871"><ele>74.0</ele><time>2026-04-19T07:29:47.58Z</time></trkpt><trkpt lat="45.2745254" lon="8.9882739"><ele>74.14285714285714</ele><time>2026-04-19T07:29:50.575Z</time></trkpt><trkpt lat="45.274555" lon="8.9881874"><ele>74.28571428571428</ele><time>2026-04-19T07:29:52.577Z</time></trkpt><trkpt lat="45.2745906" lon="8.9881013"><ele>74.42857142857142</ele><time>2026-04-19T07:29:54.574Z</time></trkpt><trkpt lat="45.2746261" lon="8.9879778"><ele>74.57142857142857</ele><time>2026-04-19T07:29:57.578Z</time></trkpt><trkpt lat="45.274653" lon="8.9878957"><ele>74.71428571428571</ele><time>2026-04-19T07:29:59.576Z</time></trkpt><trkpt lat="45.2746859" lon="8.9878112"><ele>74.85714285714285</ele><time>2026-04-19T07:30:01.577Z</time></trkpt><trkpt lat="45.274717" lon="8.987725"><ele>75.0</ele><time>2026-04-19T07:30:03.577Z</time></trkpt><trkpt lat="45.2747508" lon="8.9876251"><ele>75.5</ele><time>2026-04-19T07:30:05.589Z</time></trkpt><trkpt lat="45.2747911" lon="8.9875374"><ele>76.0</ele><time>2026-04-19T07:30:07.597Z</time></trkpt><trkpt lat="45.274817" lon="8.9874555"><ele>76.5</ele><time>2026-04-19T07:30:09.582Z</time></trkpt><trkpt lat="45.2748654" lon="8.9873394"><ele>77.0</ele><time>2026-04-19T07:30:12.589Z</time></trkpt><trkpt lat="45.2749047" lon="8.9872144"><ele>77.5</ele><time>2026-04-19T07:30:15.578Z</time></trkpt><trkpt lat="45.2749294" lon="8.9871268"><ele>78.0</ele><time>2026-04-19T07:30:17.578Z</time></trkpt><trkpt lat="45.2749612" lon="8.9870238"><ele>78.0</ele><time>2026-04-19T07:30:19.58Z</time></trkpt><trkpt lat="45.2750182" lon="8.9869462"><ele>78.0</ele><time>2026-04-19T07:30:21.573Z</time></trkpt><trkpt lat="45.2750426" lon="8.9868518"><ele>78.0</ele><time>2026-04-19T07:30:23.576Z</time></trkpt><trkpt lat="45.2750835" lon="8.9867274"><ele>78.0</ele><time>2026-04-19T07:30:26.581Z</time></trkpt><trkpt lat="45.2751255" lon="8.9866383"><ele>78.0</ele><time>2026-04-19T07:30:28.587Z</time></trkpt><trkpt lat="45.2751541" lon="8.9865474"><ele>78.0</ele><time>2026-04-19T07:30:30.578Z</time></trkpt><trkpt lat="45.2751813" lon="8.9864452"><ele>77.33333333333333</ele><time>2026-04-19T07:30:32.576Z</time></trkpt><trkpt lat="45.2752258" lon="8.986339"><ele>76.66666666666667</ele><time>2026-04-19T07:30:34.579Z</time></trkpt><trkpt lat="45.2752694" lon="8.9862554"><ele>76.0</ele><time>2026-04-19T07:30:36.581Z</time></trkpt><trkpt lat="45.2753" lon="8.986148"><ele>75.33333333333334</ele><time>2026-04-19T07:30:39.575Z</time></trkpt><trkpt lat="45.275352" lon="8.9860743"><ele>74.66666666666667</ele><time>2026-04-19T07:30:42.637Z</time></trkpt><trkpt lat="45.2754227" lon="8.9860592"><ele>74.0</ele><time>2026-04-19T07:30:46.579Z</time></trkpt><trkpt lat="45.2754654" lon="8.986162"><ele>74.0</ele><time>2026-04-19T07:30:49.582Z</time></trkpt><trkpt lat="45.2755129" lon="8.9862585"><ele>74.0</ele><time>2026-04-19T07:30:52.58Z</time></trkpt><trkpt lat="45.2755676" lon="8.9863339"><ele>74.0</ele><time>2026-04-19T07:30:55.571Z</time></trkpt><trkpt lat="45.2756198" lon="8.9864409"><ele>74.0</ele><time>2026-04-19T07:30:58.581Z</time></trkpt><trkpt lat="45.2756618" lon="8.9865139"><ele>74.0</ele><time>2026-04-19T07:31:00.58Z</time></trkpt><trkpt lat="45.2756982" lon="8.9865957"><ele>74.0</ele><time>2026-04-19T07:31:02.575Z</time></trkpt><trkpt lat="45.2757449" lon="8.9866751"><ele>74.83333333333334</ele><time>2026-04-19T07:31:04.592Z</time></trkpt><trkpt lat="45.2757877" lon="8.9867553"><ele>75.66666666666667</ele><time>2026-04-19T07:31:06.574Z</time></trkpt><trkpt lat="45.2758358" lon="8.986841"><ele>76.5</ele><time>2026-04-19T07:31:08.579Z</time></trkpt><trkpt lat="45.2758991" lon="8.9869065"><ele>77.33333333333333</ele><time>2026-04-19T07:31:10.643Z</time></trkpt><trkpt lat="45.2759869" lon="8.9868408"><ele>78.16666666666666</ele><time>2026-04-19T07:31:14.569Z</time></trkpt><trkpt lat="45.2760372" lon="8.986765"><ele>79.0</ele><time>2026-04-19T07:31:16.587Z</time></trkpt><trkpt lat="45.2760914" lon="8.9867053"><ele>78.66666666666666</ele><time>2026-04-19T07:31:18.581Z</time></trkpt><trkpt lat="45.276152" lon="8.9866482"><ele>78.33333333333333</ele><time>2026-04-19T07:31:20.583Z</time></trkpt><trkpt lat="45.2762119" lon="8.9865794"><ele>78.0</ele><time>2026-04-19T07:31:22.576Z</time></trkpt><trkpt lat="45.2763053" lon="8.9864834"><ele>77.66666666666667</ele><time>2026-04-19T07:31:25.584Z</time></trkpt><trkpt lat="45.2763619" lon="8.9864215"><ele>77.33333333333334</ele><time>2026-04-19T07:31:27.581Z</time></trkpt><trkpt lat="45.2764301" lon="8.9863834"><ele>77.0</ele><time>2026-04-19T07:31:29.582Z</time></trkpt><trkpt lat="45.2765096" lon="8.9863228"><ele>76.66666666666667</ele><time>2026-04-19T07:31:32.579Z</time></trkpt><trkpt lat="45.2765636" lon="8.9862756"><ele>76.33333333333334</ele><time>2026-04-19T07:31:34.643Z</time></trkpt><trkpt lat="45.2766197" lon="8.9862131"><ele>76.0</ele><time>2026-04-19T07:31:36.59Z</time></trkpt><trkpt lat="45.2766677" lon="8.986128"><ele>75.66666666666667</ele><time>2026-04-19T07:31:38.584Z</time></trkpt><trkpt lat="45.2767446" lon="8.9860319"><ele>75.33333333333333</ele><time>2026-04-19T07:31:40.585Z</time></trkpt><trkpt lat="45.2768125" lon="8.9859631"><ele>75.0</ele><time>2026-04-19T07:31:42.58Z</time></trkpt><trkpt lat="45.2768817" lon="8.9858998"><ele>75.0</ele><time>2026-04-19T07:31:44.589Z</time></trkpt><trkpt lat="45.2769603" lon="8.9858526"><ele>75.0</ele><time>2026-04-19T07:31:46.581Z</time></trkpt><trkpt lat="45.2770452" lon="8.9857981"><ele>75.0</ele><time>2026-04-19T07:31:49.577Z</time></trkpt><trkpt lat="45.2771177" lon="8.9857472"><ele>75.0</ele><time>2026-04-19T07:31:51.646Z</time></trkpt><trkpt lat="45.2771763" lon="8.9857025"><ele>75.0</ele><time>2026-04-19T07:31:53.603Z</time></trkpt><trkpt lat="45.2772457" lon="8.98567"><ele>75.0</ele><time>2026-04-19T07:31:55.573Z</time></trkpt><trkpt lat="45.2773091" lon="8.9856297"><ele>75.0</ele><time>2026-04-19T07:31:57.575Z</time></trkpt><trkpt lat="45.2773712" lon="8.985593"><ele>75.0</ele><time>2026-04-19T07:31:59.585Z</time></trkpt><trkpt lat="45.2774387" lon="8.985561"><ele>75.0</ele><time>2026-04-19T07:32:01.579Z</time></trkpt><trkpt lat="45.2775244" lon="8.9855329"><ele>75.0</ele><time>2026-04-19T07:32:04.584Z</time></trkpt><trkpt lat="45.2775911" lon="8.9855029"><ele>75.0</ele><time>2026-04-19T07:32:06.577Z</time></trkpt><trkpt lat="45.2776793" lon="8.9854617"><ele>75.0</ele><time>2026-04-19T07:32:09.571Z</time></trkpt><trkpt lat="45.2777357" lon="8.9854173"><ele>75.0</ele><time>2026-04-19T07:32:11.584Z</time></trkpt><trkpt lat="45.2777682" lon="8.9853339"><ele>75.0</ele><time>2026-04-19T07:32:13.567Z</time></trkpt><trkpt lat="45.2777498" lon="8.9852069"><ele>75.0</ele><time>2026-04-19T07:32:16.569Z</time></trkpt><trkpt lat="45.2777127" lon="8.9851088"><ele>75.0</ele><time>2026-04-19T07:32:18.578Z</time></trkpt><trkpt lat="45.2776504" lon="8.985014"><ele>75.0</ele><time>2026-04-19T07:32:21.582Z</time></trkpt><trkpt lat="45.2775787" lon="8.9849219"><ele>75.0</ele><time>2026-04-19T07:32:24.58Z</time></trkpt><trkpt lat="45.2775172" lon="8.9848534"><ele>74.66666666666667</ele><time>2026-04-19T07:32:26.579Z</time></trkpt><trkpt lat="45.2774618" lon="8.9848058"><ele>74.33333333333333</ele><time>2026-04-19T07:32:28.578Z</time></trkpt><trkpt lat="45.2773907" lon="8.9847186"><ele>74.0</ele><time>2026-04-19T07:32:31.581Z</time></trkpt><trkpt lat="45.2773229" lon="8.9846462"><ele>73.66666666666666</ele><time>2026-04-19T07:32:34.576Z</time></trkpt><trkpt lat="45.2772479" lon="8.9845659"><ele>73.33333333333333</ele><time>2026-04-19T07:32:37.573Z</time></trkpt><trkpt lat="45.2772049" lon="8.9844965"><ele>73.0</ele><time>2026-04-19T07:32:39.588Z</time></trkpt><trkpt lat="45.277164" lon="8.9844238"><ele>72.83333333333333</ele><time>2026-04-19T07:32:41.59Z</time></trkpt><trkpt lat="45.2771108" lon="8.984319"><ele>72.66666666666666</ele><time>2026-04-19T07:32:44.57Z</time></trkpt><trkpt lat="45.2770687" lon="8.9842476"><ele>72.5</ele><time>2026-04-19T07:32:46.574Z</time></trkpt><trkpt lat="45.2770089" lon="8.9841386"><ele>72.33333333333333</ele><time>2026-04-19T07:32:49.595Z</time></trkpt><trkpt lat="45.2769601" lon="8.9840489"><ele>72.16666666666667</ele><time>2026-04-19T07:32:51.584Z</time></trkpt><trkpt lat="45.2769185" lon="8.9839598"><ele>72.0</ele><time>2026-04-19T07:32:53.581Z</time></trkpt><trkpt lat="45.276876" lon="8.9838608"><ele>72.0</ele><time>2026-04-19T07:32:55.579Z</time></trkpt><trkpt lat="45.2768241" lon="8.9837656"><ele>72.0</ele><time>2026-04-19T07:32:57.595Z</time></trkpt><trkpt lat="45.2767661" lon="8.9836695"><ele>72.0</ele><time>2026-04-19T07:32:59.578Z</time></trkpt><trkpt lat="45.2767107" lon="8.9835717"><ele>72.0</ele><time>2026-04-19T07:33:01.576Z</time></trkpt><trkpt lat="45.2766565" lon="8.9834938"><ele>72.0</ele><time>2026-04-19T07:33:02.587Z</time></trkpt><trkpt lat="45.2766" lon="8.9833746"><ele>72.0</ele><time>2026-04-19T07:33:04.574Z</time></trkpt><trkpt lat="45.2765608" lon="8.9832699"><ele>72.16666666666667</ele><time>2026-04-19T07:33:06.581Z</time></trkpt><trkpt lat="45.2765354" lon="8.9831791"><ele>72.33333333333333</ele><time>2026-04-19T07:33:08.577Z</time></trkpt><trkpt lat="45.2765011" lon="8.9830585"><ele>72.5</ele><time>2026-04-19T07:33:11.583Z</time></trkpt><trkpt lat="45.276487" lon="8.9829313"><ele>72.66666666666666</ele><time>2026-04-19T07:33:14.573Z</time></trkpt><trkpt lat="45.2764709" lon="8.9828197"><ele>72.83333333333333</ele><time>2026-04-19T07:33:16.576Z</time></trkpt><trkpt lat="45.2764435" lon="8.9827112"><ele>73.0</ele><time>2026-04-19T07:33:18.582Z</time></trkpt><trkpt lat="45.2764228" lon="8.9826019"><ele>73.5</ele><time>2026-04-19T07:33:20.584Z</time></trkpt><trkpt lat="45.2763889" lon="8.9824742"><ele>74.0</ele><time>2026-04-19T07:33:23.574Z</time></trkpt><trkpt lat="45.2763746" lon="8.9823856"><ele>74.5</ele><time>2026-04-19T07:33:25.585Z</time></trkpt><trkpt lat="45.2763488" lon="8.9822976"><ele>75.0</ele><time>2026-04-19T07:33:27.586Z</time></trkpt><trkpt lat="45.2763147" lon="8.9822003"><ele>75.5</ele><time>2026-04-19T07:33:29.583Z</time></trkpt><trkpt lat="45.2762806" lon="8.9821031"><ele>76.0</ele><time>2026-04-19T07:33:31.576Z</time></trkpt><trkpt lat="45.2762415" lon="8.9820059"><ele>76.0</ele><time>2026-04-19T07:33:33.652Z</time></trkpt><trkpt lat="45.2762137" lon="8.9819091"><ele>76.0</ele><time>2026-04-19T07:33:35.613Z</time></trkpt><trkpt lat="45.2762555" lon="8.9818057"><ele>76.0</ele><time>2026-04-19T07:33:38.575Z</time></trkpt><trkpt lat="45.2763301" lon="8.9817746"><ele>76.0</ele><time>2026-04-19T07:33:41.579Z</time></trkpt><trkpt lat="45.2764091" lon="8.9817784"><ele>76.0</ele><time>2026-04-19T07:33:44.572Z</time></trkpt><trkpt lat="45.2764732" lon="8.9817821"><ele>76.0</ele><time>2026-04-19T07:33:46.577Z</time></trkpt><trkpt lat="45.2765463" lon="8.9817839"><ele>75.42857142857143</ele><time>2026-04-19T07:33:48.584Z</time></trkpt><trkpt lat="45.2766316" lon="8.9818187"><ele>74.85714285714286</ele><time>2026-04-19T07:33:51.582Z</time></trkpt><trkpt lat="45.2766924" lon="8.9818433"><ele>74.28571428571429</ele><time>2026-04-19T07:33:53.577Z</time></trkpt><trkpt lat="45.2767613" lon="8.9818546"><ele>73.71428571428572</ele><time>2026-04-19T07:33:55.6Z</time></trkpt><trkpt lat="45.276833" lon="8.9818373"><ele>73.14285714285714</ele><time>2026-04-19T07:33:57.573Z</time></trkpt><trkpt lat="45.2769007" lon="8.9818233"><ele>72.57142857142858</ele><time>2026-04-19T07:33:59.581Z</time></trkpt><trkpt lat="45.2769654" lon="8.9817991"><ele>72.0</ele><time>2026-04-19T07:34:01.579Z</time></trkpt><trkpt lat="45.2770337" lon="8.9817679"><ele>72.0</ele><time>2026-04-19T07:34:03.583Z</time></trkpt><trkpt lat="45.2770947" lon="8.9817408"><ele>72.0</ele><time>2026-04-19T07:34:05.573Z</time></trkpt><trkpt lat="45.2771853" lon="8.9817003"><ele>72.0</ele><time>2026-04-19T07:34:08.581Z</time></trkpt><trkpt lat="45.2772525" lon="8.9816647"><ele>72.0</ele><time>2026-04-19T07:34:10.656Z</time></trkpt><trkpt lat="45.2773411" lon="8.9816103"><ele>72.0</ele><time>2026-04-19T07:34:13.581Z</time></trkpt><trkpt lat="45.277398" lon="8.9815328"><ele>72.0</ele><time>2026-04-19T07:34:15.593Z</time></trkpt><trkpt lat="45.2774521" lon="8.9814403"><ele>71.5</ele><time>2026-04-19T07:34:17.59Z</time></trkpt><trkpt lat="45.2775022" lon="8.9813456"><ele>71.0</ele><time>2026-04-19T07:34:19.585Z</time></trkpt><trkpt lat="45.2775445" lon="8.9812622"><ele>70.5</ele><time>2026-04-19T07:34:21.577Z</time></trkpt><trkpt lat="45.2775915" lon="8.9811834"><ele>70.0</ele><time>2026-04-19T07:34:23.66Z</time></trkpt><trkpt lat="45.2776396" lon="8.9810993"><ele>69.5</ele><time>2026-04-19T07:34:25.61Z</time></trkpt><trkpt lat="45.2776959" lon="8.9810285"><ele>69.0</ele><time>2026-04-19T07:34:27.574Z</time></trkpt><trkpt lat="45.2777352" lon="8.9809396"><ele>69.0</ele><time>2026-04-19T07:34:29.573Z</time></trkpt><trkpt lat="45.2777738" lon="8.9808402"><ele>69.0</ele><time>2026-04-19T07:34:31.584Z</time></trkpt><trkpt lat="45.2778096" lon="8.9807428"><ele>69.0</ele><time>2026-04-19T07:34:33.602Z</time></trkpt><trkpt lat="45.277836" lon="8.9806355"><ele>69.0</ele><time>2026-04-19T07:34:35.587Z</time></trkpt><trkpt lat="45.2778613" lon="8.9805369"><ele>69.0</ele><time>2026-04-19T07:34:37.579Z</time></trkpt><trkpt lat="45.2778854" lon="8.9804478"><ele>69.0</ele><time>2026-04-19T07:34:39.577Z</time></trkpt><trkpt lat="45.2779044" lon="8.9803515"><ele>69.0</ele><time>2026-04-19T07:34:41.581Z</time></trkpt><trkpt lat="45.2779443" lon="8.9802199"><ele>69.0</ele><time>2026-04-19T07:34:44.574Z</time></trkpt><trkpt lat="45.2779795" lon="8.9801305"><ele>69.0</ele><time>2026-04-19T07:34:46.58Z</time></trkpt><trkpt lat="45.2780066" lon="8.9800338"><ele>69.0</ele><time>2026-04-19T07:34:48.574Z</time></trkpt><trkpt lat="45.2780419" lon="8.979909"><ele>69.0</ele><time>2026-04-19T07:34:51.652Z</time></trkpt><trkpt lat="45.2780752" lon="8.9798127"><ele>69.0</ele><time>2026-04-19T07:34:53.612Z</time></trkpt><trkpt lat="45.2781078" lon="8.9797073"><ele>69.0</ele><time>2026-04-19T07:34:55.576Z</time></trkpt><trkpt lat="45.2781387" lon="8.9796273"><ele>69.83333333333333</ele><time>2026-04-19T07:34:57.575Z</time></trkpt><trkpt lat="45.2781827" lon="8.9795257"><ele>70.66666666666667</ele><time>2026-04-19T07:35:00.577Z</time></trkpt><trkpt lat="45.2782193" lon="8.9794262"><ele>71.5</ele><time>2026-04-19T07:35:03.584Z</time></trkpt><trkpt lat="45.27826" lon="8.9793182"><ele>72.33333333333334</ele><time>2026-04-19T07:35:06.579Z</time></trkpt><trkpt lat="45.2783249" lon="8.9792325"><ele>73.16666666666667</ele><time>2026-04-19T07:35:09.57Z</time></trkpt><trkpt lat="45.2783907" lon="8.9791708"><ele>74.0</ele><time>2026-04-19T07:35:12.583Z</time></trkpt><trkpt lat="45.2784589" lon="8.9790998"><ele>74.0</ele><time>2026-04-19T07:35:15.577Z</time></trkpt><trkpt lat="45.2785218" lon="8.9790153"><ele>74.0</ele><time>2026-04-19T07:35:19.573Z</time></trkpt><trkpt lat="45.2785951" lon="8.9789585"><ele>74.0</ele><time>2026-04-19T07:35:22.578Z</time></trkpt><trkpt lat="45.2786558" lon="8.9789248"><ele>74.0</ele><time>2026-04-19T07:35:24.577Z</time></trkpt><trkpt lat="45.2787361" lon="8.9788559"><ele>74.0</ele><time>2026-04-19T07:35:27.578Z</time></trkpt><trkpt lat="45.2787971" lon="8.9788037"><ele>74.0</ele><time>2026-04-19T07:35:30.575Z</time></trkpt><trkpt lat="45.2788711" lon="8.9787335"><ele>74.0</ele><time>2026-04-19T07:35:33.583Z</time></trkpt><trkpt lat="45.278931" lon="8.9786917"><ele>74.0</ele><time>2026-04-19T07:35:35.583Z</time></trkpt><trkpt lat="45.2789861" lon="8.9786451"><ele>74.0</ele><time>2026-04-19T07:35:37.608Z</time></trkpt><trkpt lat="45.2790556" lon="8.978584"><ele>74.0</ele><time>2026-04-19T07:35:39.584Z</time></trkpt><trkpt lat="45.2791367" lon="8.9784654"><ele>74.0</ele><time>2026-04-19T07:35:42.642Z</time></trkpt><trkpt lat="45.2791905" lon="8.9783575"><ele>74.0</ele><time>2026-04-19T07:35:44.589Z</time></trkpt><trkpt lat="45.2792198" lon="8.9782535"><ele>74.0</ele><time>2026-04-19T07:35:47.579Z</time></trkpt><trkpt lat="45.2792606" lon="8.9781597"><ele>74.0</ele><time>2026-04-19T07:35:49.582Z</time></trkpt><trkpt lat="45.2792934" lon="8.9780535"><ele>74.0</ele><time>2026-04-19T07:35:51.579Z</time></trkpt><trkpt lat="45.2793278" lon="8.9779579"><ele>74.0</ele><time>2026-04-19T07:35:53.584Z</time></trkpt><trkpt lat="45.2793556" lon="8.9778638"><ele>74.0</ele><time>2026-04-19T07:35:55.618Z</time></trkpt><trkpt lat="45.2793908" lon="8.9777733"><ele>74.0</ele><time>2026-04-19T07:35:57.58Z</time></trkpt><trkpt lat="45.2794663" lon="8.9777092"><ele>74.0</ele><time>2026-04-19T07:36:00.577Z</time></trkpt><trkpt lat="45.2795342" lon="8.9776738"><ele>74.0</ele><time>2026-04-19T07:36:02.581Z</time></trkpt><trkpt lat="45.279592" lon="8.9776357"><ele>74.0</ele><time>2026-04-19T07:36:04.579Z</time></trkpt><trkpt lat="45.2796578" lon="8.9775585"><ele>74.0</ele><time>2026-04-19T07:36:07.577Z</time></trkpt><trkpt lat="45.2797145" lon="8.9774697"><ele>74.0</ele><time>2026-04-19T07:36:10.573Z</time></trkpt><trkpt lat="45.2797782" lon="8.977414"><ele>74.0</ele><time>2026-04-19T07:36:13.578Z</time></trkpt><trkpt lat="45.2798322" lon="8.9773555"><ele>74.0</ele><time>2026-04-19T07:36:15.576Z</time></trkpt><trkpt lat="45.2799007" lon="8.9773151"><ele>75.0</ele><time>2026-04-19T07:36:17.584Z</time></trkpt><trkpt lat="45.279968" lon="8.9772735"><ele>76.0</ele><time>2026-04-19T07:36:19.611Z</time></trkpt><trkpt lat="45.2800321" lon="8.9772133"><ele>77.0</ele><time>2026-04-19T07:36:21.579Z</time></trkpt><trkpt lat="45.2800941" lon="8.9771334"><ele>78.0</ele><time>2026-04-19T07:36:23.583Z</time></trkpt><trkpt lat="45.2801396" lon="8.9770347"><ele>79.0</ele><time>2026-04-19T07:36:25.588Z</time></trkpt><trkpt lat="45.280167" lon="8.9769476"><ele>80.0</ele><time>2026-04-19T07:36:27.581Z</time></trkpt><trkpt lat="45.2801593" lon="8.9768335"><ele>80.0</ele><time>2026-04-19T07:36:30.574Z</time></trkpt><trkpt lat="45.2801308" lon="8.9767448"><ele>80.0</ele><time>2026-04-19T07:36:32.58Z</time></trkpt><trkpt lat="45.2801103" lon="8.9766315"><ele>80.0</ele><time>2026-04-19T07:36:35.575Z</time></trkpt><trkpt lat="45.2800471" lon="8.9765523"><ele>80.0</ele><time>2026-04-19T07:36:38.589Z</time></trkpt><trkpt lat="45.2799661" lon="8.9764819"><ele>80.0</ele><time>2026-04-19T07:36:41.571Z</time></trkpt><trkpt lat="45.2798917" lon="8.9764223"><ele>80.0</ele><time>2026-04-19T07:36:44.575Z</time></trkpt><trkpt lat="45.279836" lon="8.9763467"><ele>80.16666666666667</ele><time>2026-04-19T07:36:47.575Z</time></trkpt><trkpt lat="45.2797878" lon="8.9762426"><ele>80.33333333333334</ele><time>2026-04-19T07:36:50.581Z</time></trkpt><trkpt lat="45.2797584" lon="8.9761518"><ele>80.5</ele><time>2026-04-19T07:36:52.571Z</time></trkpt><trkpt lat="45.2797263" lon="8.9760652"><ele>80.66666666666667</ele><time>2026-04-19T07:36:54.575Z</time></trkpt><trkpt lat="45.2797209" lon="8.9759651"><ele>80.83333333333333</ele><time>2026-04-19T07:36:57.582Z</time></trkpt><trkpt lat="45.2797624" lon="8.9758435"><ele>81.0</ele><time>2026-04-19T07:37:00.579Z</time></trkpt><trkpt lat="45.2797866" lon="8.975745"><ele>80.42857142857143</ele><time>2026-04-19T07:37:02.575Z</time></trkpt><trkpt lat="45.2798115" lon="8.9756438"><ele>79.85714285714286</ele><time>2026-04-19T07:37:04.574Z</time></trkpt><trkpt lat="45.279837" lon="8.9755344"><ele>79.28571428571428</ele><time>2026-04-19T07:37:06.575Z</time></trkpt><trkpt lat="45.2798616" lon="8.975436"><ele>78.71428571428572</ele><time>2026-04-19T07:37:08.568Z</time></trkpt><trkpt lat="45.2798875" lon="8.9753414"><ele>78.14285714285714</ele><time>2026-04-19T07:37:10.578Z</time></trkpt><trkpt lat="45.2799072" lon="8.9752516"><ele>77.57142857142857</ele><time>2026-04-19T07:37:12.572Z</time></trkpt><trkpt lat="45.2799197" lon="8.9751507"><ele>77.0</ele><time>2026-04-19T07:37:14.565Z</time></trkpt><trkpt lat="45.2799311" lon="8.9750356"><ele>76.57142857142857</ele><time>2026-04-19T07:37:16.569Z</time></trkpt><trkpt lat="45.2799419" lon="8.9749418"><ele>76.14285714285714</ele><time>2026-04-19T07:37:18.581Z</time></trkpt><trkpt lat="45.2799568" lon="8.9748522"><ele>75.71428571428572</ele><time>2026-04-19T07:37:20.579Z</time></trkpt><trkpt lat="45.2799693" lon="8.9747262"><ele>75.28571428571428</ele><time>2026-04-19T07:37:23.574Z</time></trkpt><trkpt lat="45.2800104" lon="8.9746477"><ele>74.85714285714286</ele><time>2026-04-19T07:37:26.567Z</time></trkpt><trkpt lat="45.2800556" lon="8.9745487"><ele>74.42857142857143</ele><time>2026-04-19T07:37:30.576Z</time></trkpt><trkpt lat="45.2800885" lon="8.974467"><ele>74.0</ele><time>2026-04-19T07:37:32.573Z</time></trkpt><trkpt lat="45.2801292" lon="8.9743668"><ele>74.0</ele><time>2026-04-19T07:37:35.611Z</time></trkpt><trkpt lat="45.2801879" lon="8.9742621"><ele>74.0</ele><time>2026-04-19T07:37:38.631Z</time></trkpt><trkpt lat="45.2802285" lon="8.9741921"><ele>74.0</ele><time>2026-04-19T07:37:40.637Z</time></trkpt><trkpt lat="45.2802841" lon="8.9740875"><ele>74.0</ele><time>2026-04-19T07:37:43.568Z</time></trkpt><trkpt lat="45.2803448" lon="8.9739943"><ele>74.0</ele><time>2026-04-19T07:37:46.57Z</time></trkpt><trkpt lat="45.2803897" lon="8.9739125"><ele>74.0</ele><time>2026-04-19T07:37:49.571Z</time></trkpt><trkpt lat="45.2804491" lon="8.9738114"><ele>74.0</ele><time>2026-04-19T07:37:52.566Z</time></trkpt><trkpt lat="45.2805056" lon="8.9737138"><ele>74.0</ele><time>2026-04-19T07:37:55.575Z</time></trkpt><trkpt lat="45.2805665" lon="8.9736161"><ele>74.0</ele><time>2026-04-19T07:37:58.59Z</time></trkpt><trkpt lat="45.2806367" lon="8.9735371"><ele>74.0</ele><time>2026-04-19T07:38:01.574Z</time></trkpt><trkpt lat="45.2806824" lon="8.973473"><ele>74.0</ele><time>2026-04-19T07:38:03.578Z</time></trkpt><trkpt lat="45.2807411" lon="8.9733671"><ele>74.0</ele><time>2026-04-19T07:38:06.64Z</time></trkpt><trkpt lat="45.2807816" lon="8.9732841"><ele>74.0</ele><time>2026-04-19T07:38:09.569Z</time></trkpt><trkpt lat="45.2808372" lon="8.973186"><ele>74.0</ele><time>2026-04-19T07:38:12.57Z</time></trkpt><trkpt lat="45.2808793" lon="8.9730928"><ele>74.0</ele><time>2026-04-19T07:38:15.574Z</time></trkpt><trkpt lat="45.28093" lon="8.97301"><ele>74.0</ele><time>2026-04-19T07:38:19.578Z</time></trkpt><trkpt lat="45.2809923" lon="8.9729445"><ele>74.0</ele><time>2026-04-19T07:38:22.577Z</time></trkpt><trkpt lat="45.2810559" lon="8.9728843"><ele>74.0</ele><time>2026-04-19T07:38:25.577Z</time></trkpt><trkpt lat="45.281109" lon="8.9728014"><ele>74.0</ele><time>2026-04-19T07:38:28.579Z</time></trkpt><trkpt lat="45.2812339" lon="8.9727131"><ele>74.0</ele><time>2026-04-19T07:38:46.576Z</time></trkpt><trkpt lat="45.2812824" lon="8.9726406"><ele>74.0</ele><time>2026-04-19T07:39:10.577Z</time></trkpt><trkpt lat="45.2813247" lon="8.9725683"><ele>74.0</ele><time>2026-04-19T07:39:20.571Z</time></trkpt><trkpt lat="45.2813803" lon="8.9724805"><ele>74.0</ele><time>2026-04-19T07:39:24.57Z</time></trkpt><trkpt lat="45.2814425" lon="8.9723968"><ele>74.0</ele><time>2026-04-19T07:39:27.58Z</time></trkpt><trkpt lat="45.2814821" lon="8.9722915"><ele>75.16666666666667</ele><time>2026-04-19T07:39:30.576Z</time></trkpt><trkpt lat="45.2815332" lon="8.9722321"><ele>76.33333333333334</ele><time>2026-04-19T07:39:33.579Z</time></trkpt><trkpt lat="45.2815826" lon="8.9721606"><ele>77.5</ele><time>2026-04-19T07:39:36.583Z</time></trkpt><trkpt lat="45.2816346" lon="8.9720365"><ele>78.66666666666667</ele><time>2026-04-19T07:39:39.575Z</time></trkpt><trkpt lat="45.2816718" lon="8.9719604"><ele>79.83333333333333</ele><time>2026-04-19T07:39:41.596Z</time></trkpt><trkpt lat="45.2817654" lon="8.9719357"><ele>81.0</ele><time>2026-04-19T07:39:44.577Z</time></trkpt><trkpt lat="45.2818253" lon="8.9719702"><ele>81.0</ele><time>2026-04-19T07:39:46.575Z</time></trkpt><trkpt lat="45.2818808" lon="8.9720397"><ele>81.0</ele><time>2026-04-19T07:39:48.574Z</time></trkpt><trkpt lat="45.2819344" lon="8.9721315"><ele>81.0</ele><time>2026-04-19T07:39:51.573Z</time></trkpt><trkpt lat="45.2819625" lon="8.9722228"><ele>81.0</ele><time>2026-04-19T07:39:53.573Z</time></trkpt><trkpt lat="45.2819713" lon="8.9723132"><ele>81.0</ele><time>2026-04-19T07:39:55.58Z</time></trkpt><trkpt lat="45.2819477" lon="8.9724222"><ele>81.0</ele><time>2026-04-19T07:39:58.575Z</time></trkpt><trkpt lat="45.2819117" lon="8.9725181"><ele>81.0</ele><time>2026-04-19T07:40:00.576Z</time></trkpt><trkpt lat="45.2818837" lon="8.972621"><ele>81.66666666666667</ele><time>2026-04-19T07:40:02.583Z</time></trkpt><trkpt lat="45.2818574" lon="8.9727465"><ele>82.33333333333333</ele><time>2026-04-19T07:40:05.571Z</time></trkpt><trkpt lat="45.2818372" lon="8.9728488"><ele>83.0</ele><time>2026-04-19T07:40:07.576Z</time></trkpt><trkpt lat="45.2818021" lon="8.9729382"><ele>83.66666666666666</ele><time>2026-04-19T07:40:09.568Z</time></trkpt><trkpt lat="45.2817735" lon="8.9730449"><ele>84.33333333333333</ele><time>2026-04-19T07:40:12.576Z</time></trkpt><trkpt lat="45.2817326" lon="8.9731728"><ele>85.0</ele><time>2026-04-19T07:40:15.575Z</time></trkpt><trkpt lat="45.2816891" lon="8.9732915"><ele>85.71428571428572</ele><time>2026-04-19T07:40:18.577Z</time></trkpt><trkpt lat="45.2816599" lon="8.9733834"><ele>86.42857142857142</ele><time>2026-04-19T07:40:20.569Z</time></trkpt><trkpt lat="45.2816383" lon="8.9734749"><ele>87.14285714285714</ele><time>2026-04-19T07:40:22.571Z</time></trkpt><trkpt lat="45.2816201" lon="8.9735722"><ele>87.85714285714286</ele><time>2026-04-19T07:40:24.577Z</time></trkpt><trkpt lat="45.2816143" lon="8.9736633"><ele>88.57142857142858</ele><time>2026-04-19T07:40:26.571Z</time></trkpt><trkpt lat="45.2815753" lon="8.9737622"><ele>89.28571428571428</ele><time>2026-04-19T07:40:29.619Z</time></trkpt><trkpt lat="45.281543" lon="8.9738672"><ele>90.0</ele><time>2026-04-19T07:40:32.564Z</time></trkpt><trkpt lat="45.2815058" lon="8.9739851"><ele>90.0</ele><time>2026-04-19T07:40:35.564Z</time></trkpt><trkpt lat="45.2814736" lon="8.9740931"><ele>90.0</ele><time>2026-04-19T07:40:38.572Z</time></trkpt><trkpt lat="45.2814559" lon="8.9741948"><ele>90.0</ele><time>2026-04-19T07:40:41.573Z</time></trkpt><trkpt lat="45.2814434" lon="8.9742995"><ele>90.0</ele><time>2026-04-19T07:40:44.572Z</time></trkpt><trkpt lat="45.2814147" lon="8.9743799"><ele>90.0</ele><time>2026-04-19T07:40:46.572Z</time></trkpt><trkpt lat="45.2813724" lon="8.9744924"><ele>90.0</ele><time>2026-04-19T07:40:49.61Z</time></trkpt><trkpt lat="45.2813253" lon="8.9745772"><ele>90.0</ele><time>2026-04-19T07:40:52.572Z</time></trkpt><trkpt lat="45.2812722" lon="8.9746348"><ele>90.0</ele><time>2026-04-19T07:40:55.641Z</time></trkpt><trkpt lat="45.2811982" lon="8.9746404"><ele>90.0</ele><time>2026-04-19T07:40:58.572Z</time></trkpt><trkpt lat="45.281122" lon="8.9746477"><ele>90.0</ele><time>2026-04-19T07:41:01.569Z</time></trkpt><trkpt lat="45.2810525" lon="8.9746448"><ele>90.0</ele><time>2026-04-19T07:41:04.574Z</time></trkpt><trkpt lat="45.2809756" lon="8.9746104"><ele>90.0</ele><time>2026-04-19T07:41:08.573Z</time></trkpt><trkpt lat="45.2809117" lon="8.9745733"><ele>90.0</ele><time>2026-04-19T07:41:13.571Z</time></trkpt><trkpt lat="45.2808399" lon="8.9745457"><ele>90.0</ele><time>2026-04-19T07:41:17.568Z</time></trkpt><trkpt lat="45.2807902" lon="8.9746152"><ele>90.0</ele><time>2026-04-19T07:41:20.577Z</time></trkpt><trkpt lat="45.2807874" lon="8.97473"><ele>90.0</ele><time>2026-04-19T07:41:25.574Z</time></trkpt><trkpt lat="45.2807927" lon="8.9748257"><ele>90.0</ele><time>2026-04-19T07:41:28.573Z</time></trkpt><trkpt lat="45.2808088" lon="8.9749335"><ele>90.0</ele><time>2026-04-19T07:41:31.572Z</time></trkpt><trkpt lat="45.28079" lon="8.975021"><ele>90.0</ele><time>2026-04-19T07:41:35.565Z</time></trkpt><trkpt lat="45.2808383" lon="8.9750893"><ele>90.0</ele><time>2026-04-19T07:41:42.576Z</time></trkpt><trkpt lat="45.2809083" lon="8.9751277"><ele>90.0</ele><time>2026-04-19T07:41:46.576Z</time></trkpt><trkpt lat="45.2809779" lon="8.9750741"><ele>90.0</ele><time>2026-04-19T07:41:52.578Z</time></trkpt><trkpt lat="45.2810404" lon="8.9750605"><ele>90.0</ele><time>2026-04-19T07:41:55.574Z</time></trkpt><trkpt lat="45.2811082" lon="8.9750648"><ele>90.0</ele><time>2026-04-19T07:41:58.579Z</time></trkpt><trkpt lat="45.2811984" lon="8.9750641"><ele>90.0</ele><time>2026-04-19T07:42:03.578Z</time></trkpt><trkpt lat="45.2812598" lon="8.9750189"><ele>90.0</ele><time>2026-04-19T07:42:05.573Z</time></trkpt><trkpt lat="45.2813415" lon="8.9749979"><ele>90.0</ele><time>2026-04-19T07:42:09.576Z</time></trkpt><trkpt lat="45.2814268" lon="8.9749917"><ele>90.0</ele><time>2026-04-19T07:42:13.572Z</time></trkpt><trkpt lat="45.2815078" lon="8.9750394"><ele>90.0</ele><time>2026-04-19T07:42:18.575Z</time></trkpt><trkpt lat="45.2815576" lon="8.97512"><ele>90.0</ele><time>2026-04-19T07:42:21.579Z</time></trkpt><trkpt lat="45.2815907" lon="8.975201"><ele>90.0</ele><time>2026-04-19T07:42:24.573Z</time></trkpt><trkpt lat="45.281618" lon="8.9752975"><ele>90.0</ele><time>2026-04-19T07:42:28.585Z</time></trkpt><trkpt lat="45.2816127" lon="8.9753952"><ele>91.14285714285714</ele><time>2026-04-19T07:42:31.572Z</time></trkpt><trkpt lat="45.2816032" lon="8.9754957"><ele>92.28571428571429</ele><time>2026-04-19T07:42:34.572Z</time></trkpt><trkpt lat="45.2815841" lon="8.9755935"><ele>93.42857142857143</ele><time>2026-04-19T07:42:38.642Z</time></trkpt><trkpt lat="45.2815474" lon="8.9756971"><ele>94.57142857142857</ele><time>2026-04-19T07:42:42.569Z</time></trkpt><trkpt lat="45.2815802" lon="8.9757909"><ele>95.71428571428572</ele><time>2026-04-19T07:42:46.57Z</time></trkpt><trkpt lat="45.2816442" lon="8.975809"><ele>96.85714285714286</ele><time>2026-04-19T07:42:49.58Z</time></trkpt><trkpt lat="45.2817168" lon="8.9758064"><ele>98.0</ele><time>2026-04-19T07:42:52.568Z</time></trkpt><trkpt lat="45.2817967" lon="8.9758013"><ele>97.99999999999999</ele><time>2026-04-19T07:42:55.569Z</time></trkpt><trkpt lat="45.2818743" lon="8.9757837"><ele>98.0</ele><time>2026-04-19T07:42:58.578Z</time></trkpt><trkpt lat="45.2819417" lon="8.9757738"><ele>98.0</ele><time>2026-04-19T07:43:01.573Z</time></trkpt><trkpt lat="45.2820095" lon="8.9757468"><ele>98.0</ele><time>2026-04-19T07:43:04.576Z</time></trkpt><trkpt lat="45.2820907" lon="8.9757225"><ele>97.99999999999999</ele><time>2026-04-19T07:43:07.574Z</time></trkpt><trkpt lat="45.2821714" lon="8.9757136"><ele>98.0</ele><time>2026-04-19T07:43:10.58Z</time></trkpt><trkpt lat="45.2822554" lon="8.9757064"><ele>97.99999999999999</ele><time>2026-04-19T07:43:13.57Z</time></trkpt><trkpt lat="45.282337" lon="8.9756822"><ele>98.0</ele><time>2026-04-19T07:43:16.573Z</time></trkpt><trkpt lat="45.2824179" lon="8.9756735"><ele>98.0</ele><time>2026-04-19T07:43:19.577Z</time></trkpt><trkpt lat="45.2824993" lon="8.975672"><ele>98.0</ele><time>2026-04-19T07:43:22.577Z</time></trkpt><trkpt lat="45.2825766" lon="8.9756595"><ele>97.99999999999999</ele><time>2026-04-19T07:43:25.576Z</time></trkpt><trkpt lat="45.2826491" lon="8.9756393"><ele>98.0</ele><time>2026-04-19T07:43:28.646Z</time></trkpt><trkpt lat="45.2827109" lon="8.9756583"><ele>97.99999999999999</ele><time>2026-04-19T07:43:31.572Z</time></trkpt><trkpt lat="45.2828028" lon="8.9756594"><ele>98.0</ele><time>2026-04-19T07:43:34.567Z</time></trkpt><trkpt lat="45.282891" lon="8.9756505"><ele>98.0</ele><time>2026-04-19T07:43:37.58Z</time></trkpt><trkpt lat="45.2829736" lon="8.9756179"><ele>98.0</ele><time>2026-04-19T07:43:40.571Z</time></trkpt><trkpt lat="45.283072" lon="8.9756215"><ele>97.99999999999999</ele><time>2026-04-19T07:43:43.638Z</time></trkpt><trkpt lat="45.2831333" lon="8.9755976"><ele>98.0</ele><time>2026-04-19T07:43:45.578Z</time></trkpt><trkpt lat="45.2832011" lon="8.9755603"><ele>98.49999999999999</ele><time>2026-04-19T07:43:48.588Z</time></trkpt><trkpt lat="45.2832676" lon="8.9755163"><ele>99.0</ele><time>2026-04-19T07:43:51.577Z</time></trkpt><trkpt lat="45.2833566" lon="8.9754655"><ele>99.5</ele><time>2026-04-19T07:43:54.637Z</time></trkpt><trkpt lat="45.2834414" lon="8.9754313"><ele>100.0</ele><time>2026-04-19T07:43:57.572Z</time></trkpt><trkpt lat="45.2835243" lon="8.975392"><ele>100.49999999999999</ele><time>2026-04-19T07:44:00.574Z</time></trkpt><trkpt lat="45.2835901" lon="8.9753727"><ele>101.0</ele><time>2026-04-19T07:44:02.568Z</time></trkpt><trkpt lat="45.2836523" lon="8.9753422"><ele>100.99999999999999</ele><time>2026-04-19T07:44:04.579Z</time></trkpt><trkpt lat="45.2837256" lon="8.97529"><ele>101.0</ele><time>2026-04-19T07:44:07.599Z</time></trkpt><trkpt lat="45.2837985" lon="8.9752381"><ele>101.0</ele><time>2026-04-19T07:44:10.577Z</time></trkpt><trkpt lat="45.2838797" lon="8.9751811"><ele>101.0</ele><time>2026-04-19T07:44:13.57Z</time></trkpt><trkpt lat="45.2839397" lon="8.9751286"><ele>100.99999999999999</ele><time>2026-04-19T07:44:15.615Z</time></trkpt><trkpt lat="45.2840025" lon="8.9750902"><ele>101.0</ele><time>2026-04-19T07:44:17.582Z</time></trkpt><trkpt lat="45.28407" lon="8.9750467"><ele>101.33333333333333</ele><time>2026-04-19T07:44:19.573Z</time></trkpt><trkpt lat="45.2841368" lon="8.9750066"><ele>101.66666666666666</ele><time>2026-04-19T07:44:21.58Z</time></trkpt><trkpt lat="45.2841967" lon="8.9749667"><ele>102.0</ele><time>2026-04-19T07:44:23.588Z</time></trkpt><trkpt lat="45.2842587" lon="8.9749258"><ele>102.33333333333334</ele><time>2026-04-19T07:44:25.573Z</time></trkpt><trkpt lat="45.2843332" lon="8.9748833"><ele>102.66666666666667</ele><time>2026-04-19T07:44:28.582Z</time></trkpt><trkpt lat="45.284406" lon="8.974819"><ele>103.0</ele><time>2026-04-19T07:44:31.573Z</time></trkpt><trkpt lat="45.2844803" lon="8.9747631"><ele>103.00000000000001</ele><time>2026-04-19T07:44:34.569Z</time></trkpt><trkpt lat="45.2845645" lon="8.974726"><ele>103.0</ele><time>2026-04-19T07:44:37.57Z</time></trkpt><trkpt lat="45.2846261" lon="8.9747063"><ele>103.0</ele><time>2026-04-19T07:44:39.571Z</time></trkpt><trkpt lat="45.2846882" lon="8.9746803"><ele>103.0</ele><time>2026-04-19T07:44:41.582Z</time></trkpt><trkpt lat="45.2847489" lon="8.9746524"><ele>103.00000000000001</ele><time>2026-04-19T07:44:43.59Z</time></trkpt><trkpt lat="45.2848291" lon="8.9745999"><ele>103.0</ele><time>2026-04-19T07:44:46.576Z</time></trkpt><trkpt lat="45.2849172" lon="8.9745481"><ele>102.99999999999999</ele><time>2026-04-19T07:44:49.578Z</time></trkpt><trkpt lat="45.2849804" lon="8.9745222"><ele>103.0</ele><time>2026-04-19T07:44:51.576Z</time></trkpt><trkpt lat="45.2850418" lon="8.9744899"><ele>103.0</ele><time>2026-04-19T07:44:53.574Z</time></trkpt><trkpt lat="45.2851063" lon="8.974459"><ele>103.0</ele><time>2026-04-19T07:44:55.575Z</time></trkpt><trkpt lat="45.2851856" lon="8.9744142"><ele>103.0</ele><time>2026-04-19T07:44:58.581Z</time></trkpt><trkpt lat="45.2852372" lon="8.9743376"><ele>102.99999999999999</ele><time>2026-04-19T07:45:00.639Z</time></trkpt><trkpt lat="45.2852896" lon="8.9742819"><ele>103.0</ele><time>2026-04-19T07:45:02.581Z</time></trkpt><trkpt lat="45.2853593" lon="8.9742235"><ele>102.99999999999999</ele><time>2026-04-19T07:45:05.566Z</time></trkpt><trkpt lat="45.2854148" lon="8.9741781"><ele>103.0</ele><time>2026-04-19T07:45:07.575Z</time></trkpt><trkpt lat="45.2854807" lon="8.9741416"><ele>103.0</ele><time>2026-04-19T07:45:09.575Z</time></trkpt><trkpt lat="45.2855496" lon="8.974104"><ele>103.0</ele><time>2026-04-19T07:45:11.6Z</time></trkpt><trkpt lat="45.2856154" lon="8.9740731"><ele>103.0</ele><time>2026-04-19T07:45:13.572Z</time></trkpt><trkpt lat="45.2856843" lon="8.9740494"><ele>102.99999999999999</ele><time>2026-04-19T07:45:15.627Z</time></trkpt><trkpt lat="45.2857724" lon="8.9740175"><ele>103.0</ele><time>2026-04-19T07:45:18.568Z</time></trkpt><trkpt lat="45.2858598" lon="8.9739763"><ele>102.83333333333334</ele><time>2026-04-19T07:45:21.574Z</time></trkpt><trkpt lat="45.2859498" lon="8.9739488"><ele>102.66666666666667</ele><time>2026-04-19T07:45:24.568Z</time></trkpt><trkpt lat="45.2860407" lon="8.9738923"><ele>102.5</ele><time>2026-04-19T07:45:27.635Z</time></trkpt><trkpt lat="45.2861275" lon="8.9738633"><ele>102.33333333333334</ele><time>2026-04-19T07:45:30.577Z</time></trkpt><trkpt lat="45.2861884" lon="8.9738318"><ele>102.16666666666667</ele><time>2026-04-19T07:45:32.573Z</time></trkpt><trkpt lat="45.2862715" lon="8.97379"><ele>102.0</ele><time>2026-04-19T07:45:35.593Z</time></trkpt><trkpt lat="45.2863438" lon="8.9737522"><ele>102.0</ele><time>2026-04-19T07:45:38.568Z</time></trkpt><trkpt lat="45.2864289" lon="8.9737181"><ele>102.0</ele><time>2026-04-19T07:45:41.573Z</time></trkpt><trkpt lat="45.2864936" lon="8.9737004"><ele>102.0</ele><time>2026-04-19T07:45:43.594Z</time></trkpt><trkpt lat="45.2865562" lon="8.9736779"><ele>102.0</ele><time>2026-04-19T07:45:45.575Z</time></trkpt><trkpt lat="45.2866383" lon="8.9736432"><ele>102.0</ele><time>2026-04-19T07:45:48.567Z</time></trkpt><trkpt lat="45.286703" lon="8.9736121"><ele>102.0</ele><time>2026-04-19T07:45:50.577Z</time></trkpt><trkpt lat="45.2867645" lon="8.9735731"><ele>102.0</ele><time>2026-04-19T07:45:52.582Z</time></trkpt><trkpt lat="45.2868283" lon="8.9735406"><ele>102.0</ele><time>2026-04-19T07:45:54.568Z</time></trkpt><trkpt lat="45.2869176" lon="8.9735039"><ele>102.0</ele><time>2026-04-19T07:45:57.569Z</time></trkpt><trkpt lat="45.2869788" lon="8.9734704"><ele>102.0</ele><time>2026-04-19T07:45:59.571Z</time></trkpt><trkpt lat="45.287061" lon="8.9734339"><ele>102.0</ele><time>2026-04-19T07:46:02.572Z</time></trkpt><trkpt lat="45.2871426" lon="8.973394"><ele>102.0</ele><time>2026-04-19T07:46:05.567Z</time></trkpt><trkpt lat="45.2872315" lon="8.9733652"><ele>102.0</ele><time>2026-04-19T07:46:08.633Z</time></trkpt><trkpt lat="45.2872962" lon="8.9733451"><ele>102.0</ele><time>2026-04-19T07:46:10.584Z</time></trkpt><trkpt lat="45.2873693" lon="8.9733297"><ele>102.0</ele><time>2026-04-19T07:46:12.572Z</time></trkpt><trkpt lat="45.2874345" lon="8.9732958"><ele>102.0</ele><time>2026-04-19T07:46:15.571Z</time></trkpt><trkpt lat="45.2875171" lon="8.9732856"><ele>102.0</ele><time>2026-04-19T07:46:18.579Z</time></trkpt><trkpt lat="45.2876074" lon="8.9732621"><ele>102.0</ele><time>2026-04-19T07:46:21.638Z</time></trkpt><trkpt lat="45.2876882" lon="8.9732336"><ele>102.0</ele><time>2026-04-19T07:46:24.577Z</time></trkpt><trkpt lat="45.2877548" lon="8.9732144"><ele>102.0</ele><time>2026-04-19T07:46:26.571Z</time></trkpt><trkpt lat="45.2878196" lon="8.9731961"><ele>102.0</ele><time>2026-04-19T07:46:28.582Z</time></trkpt><trkpt lat="45.2879161" lon="8.9731813"><ele>102.0</ele><time>2026-04-19T07:46:31.573Z</time></trkpt><trkpt lat="45.2879856" lon="8.9731558"><ele>102.0</ele><time>2026-04-19T07:46:33.564Z</time></trkpt><trkpt lat="45.2880552" lon="8.9731451"><ele>102.0</ele><time>2026-04-19T07:46:35.577Z</time></trkpt><trkpt lat="45.2881431" lon="8.9731405"><ele>102.0</ele><time>2026-04-19T07:46:38.566Z</time></trkpt><trkpt lat="45.2882263" lon="8.973134"><ele>102.0</ele><time>2026-04-19T07:46:41.575Z</time></trkpt><trkpt lat="45.2883199" lon="8.9731223"><ele>102.0</ele><time>2026-04-19T07:46:44.574Z</time></trkpt><trkpt lat="45.2883889" lon="8.9731032"><ele>102.0</ele><time>2026-04-19T07:46:46.578Z</time></trkpt><trkpt lat="45.288451" lon="8.9730837"><ele>102.0</ele><time>2026-04-19T07:46:48.576Z</time></trkpt><trkpt lat="45.2885162" lon="8.9730612"><ele>102.0</ele><time>2026-04-19T07:46:50.571Z</time></trkpt><trkpt lat="45.2886001" lon="8.9730413"><ele>102.0</ele><time>2026-04-19T07:46:53.577Z</time></trkpt><trkpt lat="45.2886767" lon="8.973034"><ele>102.0</ele><time>2026-04-19T07:46:56.579Z</time></trkpt><trkpt lat="45.2887696" lon="8.9730191"><ele>102.0</ele><time>2026-04-19T07:46:59.603Z</time></trkpt><trkpt lat="45.2888598" lon="8.9729823"><ele>102.0</ele><time>2026-04-19T07:47:02.58Z</time></trkpt><trkpt lat="45.288924" lon="8.9729419"><ele>102.0</ele><time>2026-04-19T07:47:04.584Z</time></trkpt><trkpt lat="45.2889884" lon="8.9729086"><ele>102.0</ele><time>2026-04-19T07:47:06.569Z</time></trkpt><trkpt lat="45.2890817" lon="8.9728778"><ele>102.0</ele><time>2026-04-19T07:47:09.57Z</time></trkpt><trkpt lat="45.2891443" lon="8.9728491"><ele>102.42857142857143</ele><time>2026-04-19T07:47:11.58Z</time></trkpt><trkpt lat="45.2892048" lon="8.9728206"><ele>102.85714285714286</ele><time>2026-04-19T07:47:13.583Z</time></trkpt><trkpt lat="45.2892749" lon="8.9727966"><ele>103.28571428571428</ele><time>2026-04-19T07:47:15.568Z</time></trkpt><trkpt lat="45.289341" lon="8.9727683"><ele>103.71428571428572</ele><time>2026-04-19T07:47:17.572Z</time></trkpt><trkpt lat="45.2894084" lon="8.9727377"><ele>104.14285714285714</ele><time>2026-04-19T07:47:19.576Z</time></trkpt><trkpt lat="45.2894678" lon="8.9727034"><ele>104.57142857142857</ele><time>2026-04-19T07:47:21.574Z</time></trkpt><trkpt lat="45.2895533" lon="8.9726601"><ele>105.0</ele><time>2026-04-19T07:47:24.584Z</time></trkpt><trkpt lat="45.2896173" lon="8.9726372"><ele>105.0</ele><time>2026-04-19T07:47:26.644Z</time></trkpt><trkpt lat="45.2896776" lon="8.9726084"><ele>105.0</ele><time>2026-04-19T07:47:28.579Z</time></trkpt><trkpt lat="45.2897429" lon="8.9725798"><ele>105.0</ele><time>2026-04-19T07:47:30.573Z</time></trkpt><trkpt lat="45.2898114" lon="8.9725498"><ele>105.0</ele><time>2026-04-19T07:47:32.572Z</time></trkpt><trkpt lat="45.2898774" lon="8.9725179"><ele>105.0</ele><time>2026-04-19T07:47:34.571Z</time></trkpt><trkpt lat="45.2899437" lon="8.9725028"><ele>105.0</ele><time>2026-04-19T07:47:36.576Z</time></trkpt><trkpt lat="45.2900112" lon="8.9724687"><ele>105.0</ele><time>2026-04-19T07:47:38.583Z</time></trkpt><trkpt lat="45.2900962" lon="8.9724345"><ele>104.85714285714286</ele><time>2026-04-19T07:47:40.572Z</time></trkpt><trkpt lat="45.2901786" lon="8.9724021"><ele>104.71428571428572</ele><time>2026-04-19T07:47:42.576Z</time></trkpt><trkpt lat="45.2902509" lon="8.9723824"><ele>104.57142857142857</ele><time>2026-04-19T07:47:44.571Z</time></trkpt><trkpt lat="45.290315" lon="8.9723682"><ele>104.42857142857143</ele><time>2026-04-19T07:47:46.57Z</time></trkpt><trkpt lat="45.2903836" lon="8.9723539"><ele>104.28571428571429</ele><time>2026-04-19T07:47:48.576Z</time></trkpt><trkpt lat="45.2904621" lon="8.9723405"><ele>104.14285714285714</ele><time>2026-04-19T07:47:50.578Z</time></trkpt><trkpt lat="45.2905373" lon="8.9723202"><ele>104.0</ele><time>2026-04-19T07:47:52.577Z</time></trkpt><trkpt lat="45.2906034" lon="8.9723005"><ele>103.85714285714285</ele><time>2026-04-19T07:47:54.577Z</time></trkpt><trkpt lat="45.2906722" lon="8.9722956"><ele>103.71428571428572</ele><time>2026-04-19T07:47:56.566Z</time></trkpt><trkpt lat="45.2907436" lon="8.9722922"><ele>103.57142857142857</ele><time>2026-04-19T07:47:58.567Z</time></trkpt><trkpt lat="45.2908131" lon="8.9722855"><ele>103.42857142857142</ele><time>2026-04-19T07:48:00.576Z</time></trkpt><trkpt lat="45.2908924" lon="8.9722567"><ele>103.28571428571428</ele><time>2026-04-19T07:48:02.571Z</time></trkpt><trkpt lat="45.2909621" lon="8.9722384"><ele>103.14285714285714</ele><time>2026-04-19T07:48:04.636Z</time></trkpt><trkpt lat="45.2910259" lon="8.9722275"><ele>103.0</ele><time>2026-04-19T07:48:06.574Z</time></trkpt><trkpt lat="45.2911154" lon="8.9722077"><ele>103.00000000000001</ele><time>2026-04-19T07:48:09.566Z</time></trkpt><trkpt lat="45.291198" lon="8.9721829"><ele>103.0</ele><time>2026-04-19T07:48:12.569Z</time></trkpt><trkpt lat="45.2912822" lon="8.9721814"><ele>103.0</ele><time>2026-04-19T07:48:15.575Z</time></trkpt><trkpt lat="45.2913693" lon="8.9721433"><ele>103.0</ele><time>2026-04-19T07:48:18.644Z</time></trkpt><trkpt lat="45.2914311" lon="8.9721149"><ele>103.00000000000001</ele><time>2026-04-19T07:48:20.577Z</time></trkpt><trkpt lat="45.2915145" lon="8.9720763"><ele>103.0</ele><time>2026-04-19T07:48:23.573Z</time></trkpt><trkpt lat="45.2915755" lon="8.972051"><ele>102.66666666666667</ele><time>2026-04-19T07:48:25.589Z</time></trkpt><trkpt lat="45.2916624" lon="8.9719975"><ele>102.33333333333334</ele><time>2026-04-19T07:48:28.579Z</time></trkpt><trkpt lat="45.2917261" lon="8.9719597"><ele>102.0</ele><time>2026-04-19T07:48:30.645Z</time></trkpt><trkpt lat="45.2918012" lon="8.9719004"><ele>101.66666666666666</ele><time>2026-04-19T07:48:32.575Z</time></trkpt><trkpt lat="45.2918785" lon="8.9718741"><ele>101.33333333333333</ele><time>2026-04-19T07:48:34.568Z</time></trkpt><trkpt lat="45.2919719" lon="8.9718359"><ele>101.0</ele><time>2026-04-19T07:48:36.575Z</time></trkpt><trkpt lat="45.2920596" lon="8.971797"><ele>101.0</ele><time>2026-04-19T07:48:38.567Z</time></trkpt><trkpt lat="45.2921297" lon="8.9717623"><ele>101.0</ele><time>2026-04-19T07:48:40.566Z</time></trkpt><trkpt lat="45.2922111" lon="8.9717245"><ele>101.0</ele><time>2026-04-19T07:48:42.574Z</time></trkpt><trkpt lat="45.2922772" lon="8.9716936"><ele>101.0</ele><time>2026-04-19T07:48:44.575Z</time></trkpt><trkpt lat="45.2923469" lon="8.9716499"><ele>101.0</ele><time>2026-04-19T07:48:46.567Z</time></trkpt><trkpt lat="45.2924174" lon="8.9716286"><ele>101.0</ele><time>2026-04-19T07:48:48.573Z</time></trkpt><trkpt lat="45.2924853" lon="8.9716018"><ele>101.0</ele><time>2026-04-19T07:48:50.571Z</time></trkpt><trkpt lat="45.2925581" lon="8.9715914"><ele>100.66666666666666</ele><time>2026-04-19T07:48:52.58Z</time></trkpt><trkpt lat="45.292646" lon="8.9715637"><ele>100.33333333333333</ele><time>2026-04-19T07:48:55.577Z</time></trkpt><trkpt lat="45.2927249" lon="8.9715425"><ele>100.0</ele><time>2026-04-19T07:48:58.634Z</time></trkpt><trkpt lat="45.2927931" lon="8.9715132"><ele>99.66666666666666</ele><time>2026-04-19T07:49:00.582Z</time></trkpt><trkpt lat="45.2928776" lon="8.9714867"><ele>99.33333333333333</ele><time>2026-04-19T07:49:03.574Z</time></trkpt><trkpt lat="45.2929618" lon="8.9714556"><ele>99.0</ele><time>2026-04-19T07:49:06.575Z</time></trkpt><trkpt lat="45.2930503" lon="8.9714051"><ele>99.16666666666667</ele><time>2026-04-19T07:49:09.57Z</time></trkpt><trkpt lat="45.2931137" lon="8.9713656"><ele>99.33333333333334</ele><time>2026-04-19T07:49:11.566Z</time></trkpt><trkpt lat="45.2931756" lon="8.9713337"><ele>99.5</ele><time>2026-04-19T07:49:13.576Z</time></trkpt><trkpt lat="45.2932561" lon="8.9712876"><ele>99.66666666666667</ele><time>2026-04-19T07:49:16.575Z</time></trkpt><trkpt lat="45.2933145" lon="8.9712484"><ele>99.83333333333334</ele><time>2026-04-19T07:49:18.575Z</time></trkpt><trkpt lat="45.2934001" lon="8.9711941"><ele>100.0</ele><time>2026-04-19T07:49:21.572Z</time></trkpt><trkpt lat="45.2934675" lon="8.9711306"><ele>100.00000000000001</ele><time>2026-04-19T07:49:24.575Z</time></trkpt><trkpt lat="45.2935173" lon="8.9710697"><ele>100.0</ele><time>2026-04-19T07:49:26.575Z</time></trkpt><trkpt lat="45.2935728" lon="8.9710274"><ele>100.0</ele><time>2026-04-19T07:49:28.581Z</time></trkpt><trkpt lat="45.293651" lon="8.9709817"><ele>100.0</ele><time>2026-04-19T07:49:31.571Z</time></trkpt><trkpt lat="45.2937372" lon="8.9709472"><ele>100.00000000000001</ele><time>2026-04-19T07:49:34.574Z</time></trkpt><trkpt lat="45.293823" lon="8.9709063"><ele>100.0</ele><time>2026-04-19T07:49:37.564Z</time></trkpt><trkpt lat="45.2938998" lon="8.9708744"><ele>99.83333333333334</ele><time>2026-04-19T07:49:39.576Z</time></trkpt><trkpt lat="45.2939892" lon="8.9708412"><ele>99.66666666666667</ele><time>2026-04-19T07:49:41.569Z</time></trkpt><trkpt lat="45.294071" lon="8.97083"><ele>99.5</ele><time>2026-04-19T07:49:43.571Z</time></trkpt><trkpt lat="45.2941517" lon="8.9708135"><ele>99.33333333333334</ele><time>2026-04-19T07:49:45.753Z</time></trkpt><trkpt lat="45.2942363" lon="8.970804"><ele>99.16666666666667</ele><time>2026-04-19T07:49:47.636Z</time></trkpt><trkpt lat="45.2943173" lon="8.9708022"><ele>99.0</ele><time>2026-04-19T07:49:49.585Z</time></trkpt><trkpt lat="45.2943982" lon="8.9707888"><ele>99.0</ele><time>2026-04-19T07:49:51.571Z</time></trkpt><trkpt lat="45.294472" lon="8.9707855"><ele>99.0</ele><time>2026-04-19T07:49:53.57Z</time></trkpt><trkpt lat="45.2945607" lon="8.970774"><ele>99.0</ele><time>2026-04-19T07:49:55.574Z</time></trkpt><trkpt lat="45.2946357" lon="8.9707606"><ele>99.0</ele><time>2026-04-19T07:49:57.597Z</time></trkpt><trkpt lat="45.2947074" lon="8.9707382"><ele>99.0</ele><time>2026-04-19T07:49:59.577Z</time></trkpt><trkpt lat="45.2947884" lon="8.9707303"><ele>99.0</ele><time>2026-04-19T07:50:01.574Z</time></trkpt><trkpt lat="45.2948671" lon="8.9707256"><ele>98.83333333333333</ele><time>2026-04-19T07:50:03.575Z</time></trkpt><trkpt lat="45.2949413" lon="8.9707124"><ele>98.66666666666666</ele><time>2026-04-19T07:50:05.581Z</time></trkpt><trkpt lat="45.2950044" lon="8.9707046"><ele>98.5</ele><time>2026-04-19T07:50:07.562Z</time></trkpt><trkpt lat="45.2950855" lon="8.9707018"><ele>98.33333333333333</ele><time>2026-04-19T07:50:09.571Z</time></trkpt><trkpt lat="45.2951797" lon="8.9706707"><ele>98.16666666666666</ele><time>2026-04-19T07:50:11.584Z</time></trkpt><trkpt lat="45.2952575" lon="8.9706586"><ele>98.0</ele><time>2026-04-19T07:50:13.65Z</time></trkpt><trkpt lat="45.2953326" lon="8.9706544"><ele>98.0</ele><time>2026-04-19T07:50:15.628Z</time></trkpt><trkpt lat="45.2954071" lon="8.970646"><ele>98.0</ele><time>2026-04-19T07:50:17.574Z</time></trkpt><trkpt lat="45.2954876" lon="8.9706373"><ele>98.0</ele><time>2026-04-19T07:50:19.571Z</time></trkpt><trkpt lat="45.295557" lon="8.9706434"><ele>98.0</ele><time>2026-04-19T07:50:21.569Z</time></trkpt><trkpt lat="45.2956283" lon="8.9706458"><ele>98.0</ele><time>2026-04-19T07:50:23.569Z</time></trkpt><trkpt lat="45.2956941" lon="8.9706368"><ele>98.0</ele><time>2026-04-19T07:50:25.57Z</time></trkpt><trkpt lat="45.295766" lon="8.9706268"><ele>98.0</ele><time>2026-04-19T07:50:27.576Z</time></trkpt><trkpt lat="45.2958408" lon="8.9705688"><ele>97.85714285714286</ele><time>2026-04-19T07:50:30.574Z</time></trkpt><trkpt lat="45.295848" lon="8.9704789"><ele>97.71428571428572</ele><time>2026-04-19T07:50:32.569Z</time></trkpt><trkpt lat="45.2958538" lon="8.9703888"><ele>97.57142857142857</ele><time>2026-04-19T07:50:34.571Z</time></trkpt><trkpt lat="45.295858" lon="8.9702891"><ele>97.42857142857143</ele><time>2026-04-19T07:50:36.587Z</time></trkpt><trkpt lat="45.2958571" lon="8.9701942"><ele>97.28571428571429</ele><time>2026-04-19T07:50:38.574Z</time></trkpt><trkpt lat="45.2958686" lon="8.9700998"><ele>97.14285714285714</ele><time>2026-04-19T07:50:40.574Z</time></trkpt><trkpt lat="45.2958789" lon="8.9700096"><ele>97.0</ele><time>2026-04-19T07:50:42.58Z</time></trkpt><trkpt lat="45.2958863" lon="8.9698912"><ele>97.28571428571428</ele><time>2026-04-19T07:50:45.581Z</time></trkpt><trkpt lat="45.2958959" lon="8.9697992"><ele>97.57142857142858</ele><time>2026-04-19T07:50:47.577Z</time></trkpt><trkpt lat="45.2959037" lon="8.9697048"><ele>97.85714285714286</ele><time>2026-04-19T07:50:49.569Z</time></trkpt><trkpt lat="45.2959021" lon="8.9696032"><ele>98.14285714285714</ele><time>2026-04-19T07:50:51.574Z</time></trkpt><trkpt lat="45.2959014" lon="8.9695095"><ele>98.42857142857142</ele><time>2026-04-19T07:50:53.602Z</time></trkpt><trkpt lat="45.2958982" lon="8.969416"><ele>98.71428571428572</ele><time>2026-04-19T07:50:55.572Z</time></trkpt><trkpt lat="45.295889" lon="8.9693213"><ele>99.0</ele><time>2026-04-19T07:50:57.578Z</time></trkpt><trkpt lat="45.2958825" lon="8.9692234"><ele>98.66666666666667</ele><time>2026-04-19T07:50:59.565Z</time></trkpt><trkpt lat="45.2958691" lon="8.9690909"><ele>98.33333333333334</ele><time>2026-04-19T07:51:02.567Z</time></trkpt><trkpt lat="45.2958484" lon="8.968994"><ele>98.0</ele><time>2026-04-19T07:51:04.57Z</time></trkpt><trkpt lat="45.295836" lon="8.9689023"><ele>97.66666666666667</ele><time>2026-04-19T07:51:06.645Z</time></trkpt><trkpt lat="45.2958276" lon="8.9688026"><ele>97.33333333333334</ele><time>2026-04-19T07:51:08.641Z</time></trkpt><trkpt lat="45.2958162" lon="8.9686692"><ele>97.0</ele><time>2026-04-19T07:51:11.574Z</time></trkpt><trkpt lat="45.295811" lon="8.9685709"><ele>97.0</ele><time>2026-04-19T07:51:13.579Z</time></trkpt><trkpt lat="45.295804" lon="8.9684732"><ele>97.0</ele><time>2026-04-19T07:51:15.575Z</time></trkpt><trkpt lat="45.2957968" lon="8.968378"><ele>97.0</ele><time>2026-04-19T07:51:17.612Z</time></trkpt><trkpt lat="45.295793" lon="8.9682837"><ele>97.0</ele><time>2026-04-19T07:51:19.569Z</time></trkpt><trkpt lat="45.2957866" lon="8.9681793"><ele>97.0</ele><time>2026-04-19T07:51:21.58Z</time></trkpt><trkpt lat="45.2957777" lon="8.9680864"><ele>97.0</ele><time>2026-04-19T07:51:23.592Z</time></trkpt><trkpt lat="45.2957766" lon="8.9679521"><ele>97.0</ele><time>2026-04-19T07:51:26.569Z</time></trkpt><trkpt lat="45.2957846" lon="8.9678161"><ele>97.14285714285714</ele><time>2026-04-19T07:51:29.578Z</time></trkpt><trkpt lat="45.2957896" lon="8.9677226"><ele>97.28571428571429</ele><time>2026-04-19T07:51:31.578Z</time></trkpt><trkpt lat="45.2958047" lon="8.9676329"><ele>97.42857142857143</ele><time>2026-04-19T07:51:33.642Z</time></trkpt><trkpt lat="45.2958329" lon="8.9675472"><ele>97.57142857142857</ele><time>2026-04-19T07:51:35.582Z</time></trkpt><trkpt lat="45.2959119" lon="8.9674954"><ele>97.71428571428572</ele><time>2026-04-19T07:51:38.574Z</time></trkpt><trkpt lat="45.2959984" lon="8.9675038"><ele>97.85714285714286</ele><time>2026-04-19T07:51:41.574Z</time></trkpt><trkpt lat="45.2960627" lon="8.967504"><ele>98.0</ele><time>2026-04-19T07:51:43.576Z</time></trkpt><trkpt lat="45.2961271" lon="8.9675027"><ele>97.99999999999999</ele><time>2026-04-19T07:51:45.575Z</time></trkpt><trkpt lat="45.2962013" lon="8.9675166"><ele>98.0</ele><time>2026-04-19T07:51:47.571Z</time></trkpt><trkpt lat="45.2962675" lon="8.9675222"><ele>98.0</ele><time>2026-04-19T07:51:49.576Z</time></trkpt><trkpt lat="45.2963404" lon="8.9675309"><ele>98.0</ele><time>2026-04-19T07:51:51.574Z</time></trkpt><trkpt lat="45.2964317" lon="8.9675456"><ele>97.99999999999999</ele><time>2026-04-19T07:51:54.573Z</time></trkpt><trkpt lat="45.296508" lon="8.9675421"><ele>98.0</ele><time>2026-04-19T07:51:56.564Z</time></trkpt><trkpt lat="45.2965785" lon="8.9675439"><ele>98.0</ele><time>2026-04-19T07:51:58.572Z</time></trkpt><trkpt lat="45.296642" lon="8.9675654"><ele>98.0</ele><time>2026-04-19T07:52:00.573Z</time></trkpt><trkpt lat="45.2967322" lon="8.9675688"><ele>98.0</ele><time>2026-04-19T07:52:03.579Z</time></trkpt><trkpt lat="45.2968104" lon="8.9675657"><ele>98.0</ele><time>2026-04-19T07:52:05.577Z</time></trkpt><trkpt lat="45.2968778" lon="8.9675695"><ele>98.0</ele><time>2026-04-19T07:52:07.58Z</time></trkpt><trkpt lat="45.2969464" lon="8.9675694"><ele>98.0</ele><time>2026-04-19T07:52:09.573Z</time></trkpt><trkpt lat="45.2970135" lon="8.967574"><ele>98.0</ele><time>2026-04-19T07:52:11.577Z</time></trkpt><trkpt lat="45.2970788" lon="8.9675902"><ele>98.0</ele><time>2026-04-19T07:52:13.574Z</time></trkpt><trkpt lat="45.2971432" lon="8.9676011"><ele>98.0</ele><time>2026-04-19T07:52:15.566Z</time></trkpt><trkpt lat="45.2972075" lon="8.9676108"><ele>98.0</ele><time>2026-04-19T07:52:17.573Z</time></trkpt><trkpt lat="45.2972751" lon="8.9676182"><ele>98.0</ele><time>2026-04-19T07:52:19.581Z</time></trkpt><trkpt lat="45.2973418" lon="8.9676301"><ele>98.0</ele><time>2026-04-19T07:52:21.576Z</time></trkpt><trkpt lat="45.2974144" lon="8.9676353"><ele>98.0</ele><time>2026-04-19T07:52:23.637Z</time></trkpt><trkpt lat="45.2974819" lon="8.9676372"><ele>98.0</ele><time>2026-04-19T07:52:25.569Z</time></trkpt><trkpt lat="45.2975537" lon="8.967643"><ele>97.83333333333333</ele><time>2026-04-19T07:52:27.571Z</time></trkpt><trkpt lat="45.297633" lon="8.9676513"><ele>97.66666666666666</ele><time>2026-04-19T07:52:29.577Z</time></trkpt><trkpt lat="45.2977055" lon="8.9676596"><ele>97.5</ele><time>2026-04-19T07:52:31.567Z</time></trkpt><trkpt lat="45.2977731" lon="8.9676747"><ele>97.33333333333334</ele><time>2026-04-19T07:52:33.567Z</time></trkpt><trkpt lat="45.2978388" lon="8.9676871"><ele>97.16666666666667</ele><time>2026-04-19T07:52:35.581Z</time></trkpt><trkpt lat="45.2979369" lon="8.9676892"><ele>97.0</ele><time>2026-04-19T07:52:38.585Z</time></trkpt><trkpt lat="45.2980081" lon="8.9677002"><ele>97.00000000000001</ele><time>2026-04-19T07:52:40.586Z</time></trkpt><trkpt lat="45.2980731" lon="8.9677082"><ele>97.0</ele><time>2026-04-19T07:52:42.572Z</time></trkpt><trkpt lat="45.2981412" lon="8.9677125"><ele>97.0</ele><time>2026-04-19T07:52:44.577Z</time></trkpt><trkpt lat="45.2982272" lon="8.9677228"><ele>97.0</ele><time>2026-04-19T07:52:46.568Z</time></trkpt><trkpt lat="45.2983049" lon="8.9677366"><ele>97.00000000000001</ele><time>2026-04-19T07:52:48.572Z</time></trkpt><trkpt lat="45.2984014" lon="8.9677594"><ele>97.0</ele><time>2026-04-19T07:52:51.641Z</time></trkpt><trkpt lat="45.2984691" lon="8.9677723"><ele>97.14285714285714</ele><time>2026-04-19T07:52:53.614Z</time></trkpt><trkpt lat="45.2985368" lon="8.967787"><ele>97.28571428571429</ele><time>2026-04-19T07:52:55.573Z</time></trkpt><trkpt lat="45.2986002" lon="8.9678033"><ele>97.42857142857143</ele><time>2026-04-19T07:52:57.569Z</time></trkpt><trkpt lat="45.298671" lon="8.9678094"><ele>97.57142857142857</ele><time>2026-04-19T07:52:59.575Z</time></trkpt><trkpt lat="45.298762" lon="8.9678219"><ele>97.71428571428572</ele><time>2026-04-19T07:53:02.573Z</time></trkpt><trkpt lat="45.2988259" lon="8.967842"><ele>97.85714285714286</ele><time>2026-04-19T07:53:04.571Z</time></trkpt><trkpt lat="45.2988967" lon="8.9678447"><ele>98.0</ele><time>2026-04-19T07:53:06.574Z</time></trkpt><trkpt lat="45.2989772" lon="8.9678723"><ele>98.28571428571429</ele><time>2026-04-19T07:53:08.582Z</time></trkpt><trkpt lat="45.2990478" lon="8.9679028"><ele>98.57142857142857</ele><time>2026-04-19T07:53:10.572Z</time></trkpt><trkpt lat="45.2991205" lon="8.9679322"><ele>98.85714285714286</ele><time>2026-04-19T07:53:12.571Z</time></trkpt><trkpt lat="45.2991914" lon="8.9679679"><ele>99.14285714285714</ele><time>2026-04-19T07:53:14.574Z</time></trkpt><trkpt lat="45.2992656" lon="8.9680046"><ele>99.42857142857143</ele><time>2026-04-19T07:53:16.572Z</time></trkpt><trkpt lat="45.299328" lon="8.968029"><ele>99.71428571428572</ele><time>2026-04-19T07:53:18.574Z</time></trkpt><trkpt lat="45.2994001" lon="8.9680632"><ele>100.0</ele><time>2026-04-19T07:53:20.57Z</time></trkpt><trkpt lat="45.2994714" lon="8.9680868"><ele>100.00000000000001</ele><time>2026-04-19T07:53:22.574Z</time></trkpt><trkpt lat="45.2995419" lon="8.9681146"><ele>100.0</ele><time>2026-04-19T07:53:24.572Z</time></trkpt><trkpt lat="45.2996091" lon="8.9681485"><ele>100.0</ele><time>2026-04-19T07:53:26.578Z</time></trkpt><trkpt lat="45.2996722" lon="8.9681909"><ele>100.0</ele><time>2026-04-19T07:53:28.57Z</time></trkpt><trkpt lat="45.2997319" lon="8.9682413"><ele>100.0</ele><time>2026-04-19T07:53:30.567Z</time></trkpt><trkpt lat="45.2997896" lon="8.9682984"><ele>100.00000000000001</ele><time>2026-04-19T07:53:32.57Z</time></trkpt><trkpt lat="45.2998445" lon="8.9683521"><ele>100.0</ele><time>2026-04-19T07:53:34.573Z</time></trkpt><trkpt lat="45.2999029" lon="8.9684124"><ele>99.83333333333334</ele><time>2026-04-19T07:53:36.577Z</time></trkpt><trkpt lat="45.299959" lon="8.9684742"><ele>99.66666666666667</ele><time>2026-04-19T07:53:38.58Z</time></trkpt><trkpt lat="45.3000301" lon="8.9685278"><ele>99.5</ele><time>2026-04-19T07:53:40.573Z</time></trkpt><trkpt lat="45.3000976" lon="8.9685843"><ele>99.33333333333334</ele><time>2026-04-19T07:53:42.649Z</time></trkpt><trkpt lat="45.3001599" lon="8.9686269"><ele>99.16666666666667</ele><time>2026-04-19T07:53:44.569Z</time></trkpt><trkpt lat="45.3002297" lon="8.9686754"><ele>99.0</ele><time>2026-04-19T07:53:46.575Z</time></trkpt><trkpt lat="45.3003111" lon="8.9687023"><ele>99.0</ele><time>2026-04-19T07:53:48.575Z</time></trkpt><trkpt lat="45.3003846" lon="8.9687325"><ele>99.0</ele><time>2026-04-19T07:53:50.577Z</time></trkpt><trkpt lat="45.3004542" lon="8.9687581"><ele>99.0</ele><time>2026-04-19T07:53:52.572Z</time></trkpt><trkpt lat="45.3005218" lon="8.9687674"><ele>99.0</ele><time>2026-04-19T07:53:54.578Z</time></trkpt><trkpt lat="45.3005904" lon="8.9687817"><ele>99.0</ele><time>2026-04-19T07:53:56.64Z</time></trkpt><trkpt lat="45.3006597" lon="8.9687924"><ele>99.0</ele><time>2026-04-19T07:53:58.564Z</time></trkpt><trkpt lat="45.300736" lon="8.9687959"><ele>99.0</ele><time>2026-04-19T07:54:00.576Z</time></trkpt><trkpt lat="45.3008124" lon="8.9688122"><ele>99.0</ele><time>2026-04-19T07:54:02.563Z</time></trkpt><trkpt lat="45.3008843" lon="8.9688185"><ele>99.0</ele><time>2026-04-19T07:54:04.57Z</time></trkpt><trkpt lat="45.3009498" lon="8.9688265"><ele>99.0</ele><time>2026-04-19T07:54:06.576Z</time></trkpt><trkpt lat="45.3010224" lon="8.9688321"><ele>99.0</ele><time>2026-04-19T07:54:08.579Z</time></trkpt><trkpt lat="45.3010916" lon="8.9688409"><ele>99.0</ele><time>2026-04-19T07:54:10.571Z</time></trkpt><trkpt lat="45.3011657" lon="8.9688575"><ele>99.0</ele><time>2026-04-19T07:54:12.58Z</time></trkpt><trkpt lat="45.301234" lon="8.9688569"><ele>99.0</ele><time>2026-04-19T07:54:14.576Z</time></trkpt><trkpt lat="45.3013108" lon="8.9688663"><ele>99.0</ele><time>2026-04-19T07:54:16.587Z</time></trkpt><trkpt lat="45.3013875" lon="8.9688837"><ele>99.0</ele><time>2026-04-19T07:54:18.57Z</time></trkpt><trkpt lat="45.3014676" lon="8.9689"><ele>99.0</ele><time>2026-04-19T07:54:20.574Z</time></trkpt><trkpt lat="45.3015388" lon="8.9689066"><ele>99.0</ele><time>2026-04-19T07:54:22.579Z</time></trkpt><trkpt lat="45.301612" lon="8.9689091"><ele>99.0</ele><time>2026-04-19T07:54:24.579Z</time></trkpt><trkpt lat="45.3016869" lon="8.9689274"><ele>99.0</ele><time>2026-04-19T07:54:26.568Z</time></trkpt><trkpt lat="45.3017729" lon="8.9689412"><ele>99.0</ele><time>2026-04-19T07:54:28.57Z</time></trkpt><trkpt lat="45.3018495" lon="8.9689609"><ele>99.0</ele><time>2026-04-19T07:54:30.569Z</time></trkpt><trkpt lat="45.3019199" lon="8.9689683"><ele>99.0</ele><time>2026-04-19T07:54:32.578Z</time></trkpt><trkpt lat="45.3019919" lon="8.968978"><ele>99.0</ele><time>2026-04-19T07:54:34.574Z</time></trkpt><trkpt lat="45.3020696" lon="8.9689853"><ele>99.0</ele><time>2026-04-19T07:54:36.578Z</time></trkpt><trkpt lat="45.3021464" lon="8.9690018"><ele>99.0</ele><time>2026-04-19T07:54:38.568Z</time></trkpt><trkpt lat="45.3022195" lon="8.9690125"><ele>99.5</ele><time>2026-04-19T07:54:40.572Z</time></trkpt><trkpt lat="45.3022981" lon="8.9690317"><ele>100.0</ele><time>2026-04-19T07:54:42.572Z</time></trkpt><trkpt lat="45.3023756" lon="8.9690454"><ele>100.5</ele><time>2026-04-19T07:54:44.565Z</time></trkpt><trkpt lat="45.3024483" lon="8.969058"><ele>101.0</ele><time>2026-04-19T07:54:46.576Z</time></trkpt><trkpt lat="45.3025328" lon="8.9690655"><ele>101.5</ele><time>2026-04-19T07:54:48.578Z</time></trkpt><trkpt lat="45.3026063" lon="8.9690806"><ele>102.0</ele><time>2026-04-19T07:54:50.579Z</time></trkpt><trkpt lat="45.3026768" lon="8.9690893"><ele>102.0</ele><time>2026-04-19T07:54:52.573Z</time></trkpt><trkpt lat="45.3027511" lon="8.9690926"><ele>102.0</ele><time>2026-04-19T07:54:54.584Z</time></trkpt><trkpt lat="45.302838" lon="8.9690842"><ele>102.0</ele><time>2026-04-19T07:54:56.572Z</time></trkpt><trkpt lat="45.3029229" lon="8.9690298"><ele>102.0</ele><time>2026-04-19T07:54:59.569Z</time></trkpt><trkpt lat="45.3029392" lon="8.9689167"><ele>102.0</ele><time>2026-04-19T07:55:02.57Z</time></trkpt><trkpt lat="45.3029348" lon="8.9688182"><ele>102.0</ele><time>2026-04-19T07:55:04.571Z</time></trkpt><trkpt lat="45.3029328" lon="8.9686976"><ele>102.0</ele><time>2026-04-19T07:55:06.571Z</time></trkpt><trkpt lat="45.3029423" lon="8.9685968"><ele>102.0</ele><time>2026-04-19T07:55:08.565Z</time></trkpt><trkpt lat="45.3029545" lon="8.9685007"><ele>102.0</ele><time>2026-04-19T07:55:10.573Z</time></trkpt><trkpt lat="45.3029718" lon="8.9684053"><ele>102.0</ele><time>2026-04-19T07:55:12.584Z</time></trkpt><trkpt lat="45.3029851" lon="8.9683132"><ele>102.0</ele><time>2026-04-19T07:55:14.571Z</time></trkpt><trkpt lat="45.3030005" lon="8.9681903"><ele>102.0</ele><time>2026-04-19T07:55:17.608Z</time></trkpt><trkpt lat="45.3030195" lon="8.9680916"><ele>102.0</ele><time>2026-04-19T07:55:19.569Z</time></trkpt><trkpt lat="45.3030339" lon="8.9679972"><ele>101.83333333333333</ele><time>2026-04-19T07:55:21.57Z</time></trkpt><trkpt lat="45.3030501" lon="8.9679031"><ele>101.66666666666666</ele><time>2026-04-19T07:55:23.572Z</time></trkpt><trkpt lat="45.3030593" lon="8.9677766"><ele>101.5</ele><time>2026-04-19T07:55:26.577Z</time></trkpt><trkpt lat="45.3030598" lon="8.967645"><ele>101.33333333333333</ele><time>2026-04-19T07:55:29.573Z</time></trkpt><trkpt lat="45.3030561" lon="8.9675385"><ele>101.16666666666666</ele><time>2026-04-19T07:55:31.567Z</time></trkpt><trkpt lat="45.3030487" lon="8.9674265"><ele>101.0</ele><time>2026-04-19T07:55:33.572Z</time></trkpt><trkpt lat="45.3030468" lon="8.9673182"><ele>100.66666666666666</ele><time>2026-04-19T07:55:35.605Z</time></trkpt><trkpt lat="45.3030435" lon="8.9672188"><ele>100.33333333333333</ele><time>2026-04-19T07:55:37.572Z</time></trkpt><trkpt lat="45.3030394" lon="8.9670929"><ele>100.0</ele><time>2026-04-19T07:55:40.573Z</time></trkpt><trkpt lat="45.3030405" lon="8.9669583"><ele>99.66666666666666</ele><time>2026-04-19T07:55:43.608Z</time></trkpt><trkpt lat="45.3030382" lon="8.9668641"><ele>99.33333333333333</ele><time>2026-04-19T07:55:45.576Z</time></trkpt><trkpt lat="45.303038" lon="8.9667728"><ele>99.0</ele><time>2026-04-19T07:55:47.568Z</time></trkpt><trkpt lat="45.3030437" lon="8.9666721"><ele>99.0</ele><time>2026-04-19T07:55:49.578Z</time></trkpt><trkpt lat="45.3030469" lon="8.9665824"><ele>99.0</ele><time>2026-04-19T07:55:51.595Z</time></trkpt><trkpt lat="45.3030488" lon="8.9664911"><ele>99.0</ele><time>2026-04-19T07:55:53.576Z</time></trkpt><trkpt lat="45.3030539" lon="8.9663605"><ele>99.0</ele><time>2026-04-19T07:55:56.577Z</time></trkpt><trkpt lat="45.3030519" lon="8.9662589"><ele>99.0</ele><time>2026-04-19T07:55:58.583Z</time></trkpt><trkpt lat="45.3030583" lon="8.9661698"><ele>99.0</ele><time>2026-04-19T07:56:00.566Z</time></trkpt><trkpt lat="45.3030651" lon="8.9660804"><ele>99.0</ele><time>2026-04-19T07:56:02.572Z</time></trkpt><trkpt lat="45.3030796" lon="8.9659615"><ele>99.0</ele><time>2026-04-19T07:56:05.578Z</time></trkpt><trkpt lat="45.3031678" lon="8.9659223"><ele>99.0</ele><time>2026-04-19T07:56:08.578Z</time></trkpt><trkpt lat="45.3032446" lon="8.9659481"><ele>99.0</ele><time>2026-04-19T07:56:11.568Z</time></trkpt><trkpt lat="45.3033168" lon="8.965952"><ele>99.0</ele><time>2026-04-19T07:56:14.655Z</time></trkpt><trkpt lat="45.3033894" lon="8.9659056"><ele>99.0</ele><time>2026-04-19T07:56:18.574Z</time></trkpt><trkpt lat="45.3034414" lon="8.9658016"><ele>99.0</ele><time>2026-04-19T07:56:23.567Z</time></trkpt><trkpt lat="45.3034773" lon="8.9656798"><ele>99.0</ele><time>2026-04-19T07:56:26.571Z</time></trkpt><trkpt lat="45.3034804" lon="8.965578"><ele>99.0</ele><time>2026-04-19T07:56:29.566Z</time></trkpt><trkpt lat="45.3034989" lon="8.9654372"><ele>99.0</ele><time>2026-04-19T07:56:32.577Z</time></trkpt><trkpt lat="45.3035155" lon="8.9653421"><ele>99.0</ele><time>2026-04-19T07:56:33.575Z</time></trkpt><trkpt lat="45.303517" lon="8.9652447"><ele>99.0</ele><time>2026-04-19T07:56:34.57Z</time></trkpt><trkpt lat="45.3035148" lon="8.9651541"><ele>99.0</ele><time>2026-04-19T07:56:35.605Z</time></trkpt><trkpt lat="45.3035533" lon="8.9650298"><ele>98.14285714285715</ele><time>2026-04-19T07:56:37.571Z</time></trkpt><trkpt lat="45.3036171" lon="8.9649683"><ele>97.28571428571428</ele><time>2026-04-19T07:56:39.563Z</time></trkpt><trkpt lat="45.3036843" lon="8.9649499"><ele>96.42857142857143</ele><time>2026-04-19T07:56:42.578Z</time></trkpt><trkpt lat="45.3037518" lon="8.9649415"><ele>95.57142857142858</ele><time>2026-04-19T07:56:45.577Z</time></trkpt><trkpt lat="45.3038363" lon="8.9648965"><ele>94.71428571428572</ele><time>2026-04-19T07:56:48.574Z</time></trkpt><trkpt lat="45.3039011" lon="8.9648813"><ele>93.85714285714286</ele><time>2026-04-19T07:56:50.568Z</time></trkpt><trkpt lat="45.3039677" lon="8.9648651"><ele>93.0</ele><time>2026-04-19T07:56:52.573Z</time></trkpt><trkpt lat="45.3040383" lon="8.9648495"><ele>92.28571428571429</ele><time>2026-04-19T07:56:54.567Z</time></trkpt><trkpt lat="45.3041006" lon="8.9648331"><ele>91.57142857142857</ele><time>2026-04-19T07:56:56.568Z</time></trkpt><trkpt lat="45.30417" lon="8.964819"><ele>90.85714285714286</ele><time>2026-04-19T07:56:58.571Z</time></trkpt><trkpt lat="45.3042368" lon="8.9648051"><ele>90.14285714285714</ele><time>2026-04-19T07:57:00.571Z</time></trkpt><trkpt lat="45.3043242" lon="8.9647664"><ele>89.42857142857143</ele><time>2026-04-19T07:57:03.588Z</time></trkpt><trkpt lat="45.3043965" lon="8.9647537"><ele>88.71428571428572</ele><time>2026-04-19T07:57:05.568Z</time></trkpt><trkpt lat="45.3044662" lon="8.9647408"><ele>88.0</ele><time>2026-04-19T07:57:07.638Z</time></trkpt><trkpt lat="45.3045377" lon="8.9647267"><ele>88.0</ele><time>2026-04-19T07:57:09.565Z</time></trkpt><trkpt lat="45.3046083" lon="8.9647083"><ele>88.0</ele><time>2026-04-19T07:57:11.575Z</time></trkpt><trkpt lat="45.3046803" lon="8.9647018"><ele>88.0</ele><time>2026-04-19T07:57:13.566Z</time></trkpt><trkpt lat="45.3047525" lon="8.964701"><ele>88.0</ele><time>2026-04-19T07:57:15.574Z</time></trkpt><trkpt lat="45.3048469" lon="8.9647051"><ele>88.0</ele><time>2026-04-19T07:57:18.573Z</time></trkpt><trkpt lat="45.3049157" lon="8.9647013"><ele>88.0</ele><time>2026-04-19T07:57:20.575Z</time></trkpt><trkpt lat="45.3049864" lon="8.9646961"><ele>88.0</ele><time>2026-04-19T07:57:22.576Z</time></trkpt><trkpt lat="45.3050818" lon="8.9646954"><ele>88.0</ele><time>2026-04-19T07:57:25.567Z</time></trkpt><trkpt lat="45.3051485" lon="8.9646966"><ele>88.0</ele><time>2026-04-19T07:57:27.572Z</time></trkpt><trkpt lat="45.3052207" lon="8.9647055"><ele>88.0</ele><time>2026-04-19T07:57:29.573Z</time></trkpt><trkpt lat="45.3052936" lon="8.964722"><ele>88.0</ele><time>2026-04-19T07:57:31.603Z</time></trkpt><trkpt lat="45.3053702" lon="8.9647615"><ele>88.0</ele><time>2026-04-19T07:57:33.565Z</time></trkpt><trkpt lat="45.305445" lon="8.9647847"><ele>88.0</ele><time>2026-04-19T07:57:35.572Z</time></trkpt><trkpt lat="45.3055156" lon="8.9648052"><ele>88.0</ele><time>2026-04-19T07:57:37.568Z</time></trkpt><trkpt lat="45.3055782" lon="8.9648967"><ele>88.0</ele><time>2026-04-19T07:57:40.573Z</time></trkpt><trkpt lat="45.3055939" lon="8.9650092"><ele>88.0</ele><time>2026-04-19T07:57:42.581Z</time></trkpt><trkpt lat="45.3056028" lon="8.9651106"><ele>88.0</ele><time>2026-04-19T07:57:44.58Z</time></trkpt><trkpt lat="45.3056052" lon="8.9652147"><ele>88.0</ele><time>2026-04-19T07:57:46.644Z</time></trkpt><trkpt lat="45.3056127" lon="8.9653112"><ele>88.16666666666666</ele><time>2026-04-19T07:57:48.572Z</time></trkpt><trkpt lat="45.3056114" lon="8.9654253"><ele>88.33333333333333</ele><time>2026-04-19T07:57:50.574Z</time></trkpt><trkpt lat="45.3056132" lon="8.9655292"><ele>88.5</ele><time>2026-04-19T07:57:52.577Z</time></trkpt><trkpt lat="45.3056221" lon="8.965626"><ele>88.66666666666667</ele><time>2026-04-19T07:57:54.571Z</time></trkpt><trkpt lat="45.3056328" lon="8.9657233"><ele>88.83333333333334</ele><time>2026-04-19T07:57:56.568Z</time></trkpt><trkpt lat="45.3056533" lon="8.9658526"><ele>89.0</ele><time>2026-04-19T07:57:59.643Z</time></trkpt><trkpt lat="45.3056629" lon="8.9659465"><ele>89.28571428571428</ele><time>2026-04-19T07:58:01.571Z</time></trkpt><trkpt lat="45.3056736" lon="8.9660406"><ele>89.57142857142857</ele><time>2026-04-19T07:58:03.584Z</time></trkpt><trkpt lat="45.3056872" lon="8.9661412"><ele>89.85714285714286</ele><time>2026-04-19T07:58:05.615Z</time></trkpt><trkpt lat="45.3056949" lon="8.9662381"><ele>90.14285714285714</ele><time>2026-04-19T07:58:07.568Z</time></trkpt><trkpt lat="45.3057105" lon="8.9663366"><ele>90.42857142857143</ele><time>2026-04-19T07:58:09.573Z</time></trkpt><trkpt lat="45.3057238" lon="8.9664317"><ele>90.71428571428571</ele><time>2026-04-19T07:58:11.58Z</time></trkpt><trkpt lat="45.3057359" lon="8.9665212"><ele>91.0</ele><time>2026-04-19T07:58:13.576Z</time></trkpt><trkpt lat="45.3057456" lon="8.966619"><ele>91.57142857142857</ele><time>2026-04-19T07:58:15.58Z</time></trkpt><trkpt lat="45.3057563" lon="8.9667116"><ele>92.14285714285714</ele><time>2026-04-19T07:58:17.575Z</time></trkpt><trkpt lat="45.3057663" lon="8.9668011"><ele>92.71428571428572</ele><time>2026-04-19T07:58:19.578Z</time></trkpt><trkpt lat="45.3057778" lon="8.9668951"><ele>93.28571428571428</ele><time>2026-04-19T07:58:21.586Z</time></trkpt><trkpt lat="45.3057813" lon="8.9669854"><ele>93.85714285714286</ele><time>2026-04-19T07:58:23.588Z</time></trkpt><trkpt lat="45.3057907" lon="8.9671012"><ele>94.42857142857143</ele><time>2026-04-19T07:58:26.575Z</time></trkpt><trkpt lat="45.3058291" lon="8.9672043"><ele>95.0</ele><time>2026-04-19T07:58:29.578Z</time></trkpt><trkpt lat="45.305907" lon="8.967238"><ele>95.0</ele><time>2026-04-19T07:58:32.576Z</time></trkpt><trkpt lat="45.3059994" lon="8.9672262"><ele>95.0</ele><time>2026-04-19T07:58:35.571Z</time></trkpt><trkpt lat="45.3060887" lon="8.9672137"><ele>95.0</ele><time>2026-04-19T07:58:38.572Z</time></trkpt><trkpt lat="45.3061664" lon="8.9672"><ele>95.0</ele><time>2026-04-19T07:58:40.57Z</time></trkpt><trkpt lat="45.3062398" lon="8.9671887"><ele>95.0</ele><time>2026-04-19T07:58:42.579Z</time></trkpt><trkpt lat="45.3063299" lon="8.9671807"><ele>95.0</ele><time>2026-04-19T07:58:44.572Z</time></trkpt><trkpt lat="45.3064061" lon="8.9671783"><ele>95.16666666666667</ele><time>2026-04-19T07:58:46.566Z</time></trkpt><trkpt lat="45.3064877" lon="8.9671541"><ele>95.33333333333334</ele><time>2026-04-19T07:58:48.573Z</time></trkpt><trkpt lat="45.3065667" lon="8.9671204"><ele>95.5</ele><time>2026-04-19T07:58:50.575Z</time></trkpt><trkpt lat="45.3066449" lon="8.9671063"><ele>95.66666666666667</ele><time>2026-04-19T07:58:52.571Z</time></trkpt><trkpt lat="45.3067208" lon="8.9670746"><ele>95.83333333333333</ele><time>2026-04-19T07:58:54.576Z</time></trkpt><trkpt lat="45.306789" lon="8.9670561"><ele>96.0</ele><time>2026-04-19T07:58:56.578Z</time></trkpt><trkpt lat="45.3068546" lon="8.967036"><ele>95.99999999999999</ele><time>2026-04-19T07:58:58.58Z</time></trkpt><trkpt lat="45.3069203" lon="8.9670118"><ele>96.0</ele><time>2026-04-19T07:59:00.572Z</time></trkpt><trkpt lat="45.3069908" lon="8.9669957"><ele>96.0</ele><time>2026-04-19T07:59:02.572Z</time></trkpt><trkpt lat="45.3070608" lon="8.9669713"><ele>96.0</ele><time>2026-04-19T07:59:04.571Z</time></trkpt><trkpt lat="45.3071359" lon="8.9669571"><ele>96.0</ele><time>2026-04-19T07:59:06.569Z</time></trkpt><trkpt lat="45.3072043" lon="8.9669347"><ele>95.99999999999999</ele><time>2026-04-19T07:59:08.563Z</time></trkpt><trkpt lat="45.3072711" lon="8.9669173"><ele>96.0</ele><time>2026-04-19T07:59:10.577Z</time></trkpt><trkpt lat="45.3073422" lon="8.9669049"><ele>96.57142857142857</ele><time>2026-04-19T07:59:12.581Z</time></trkpt><trkpt lat="45.3074202" lon="8.9668873"><ele>97.14285714285714</ele><time>2026-04-19T07:59:14.569Z</time></trkpt><trkpt lat="45.3074906" lon="8.9668678"><ele>97.71428571428572</ele><time>2026-04-19T07:59:16.574Z</time></trkpt><trkpt lat="45.3075565" lon="8.9668469"><ele>98.28571428571428</ele><time>2026-04-19T07:59:18.573Z</time></trkpt><trkpt lat="45.3076247" lon="8.966832"><ele>98.85714285714286</ele><time>2026-04-19T07:59:20.573Z</time></trkpt><trkpt lat="45.3076968" lon="8.9668165"><ele>99.42857142857143</ele><time>2026-04-19T07:59:22.572Z</time></trkpt><trkpt lat="45.3077618" lon="8.9667918"><ele>100.0</ele><time>2026-04-19T07:59:24.587Z</time></trkpt><trkpt lat="45.3078528" lon="8.9667647"><ele>100.00000000000001</ele><time>2026-04-19T07:59:27.574Z</time></trkpt><trkpt lat="45.3079181" lon="8.9667435"><ele>100.0</ele><time>2026-04-19T07:59:29.574Z</time></trkpt><trkpt lat="45.3079861" lon="8.9667148"><ele>100.0</ele><time>2026-04-19T07:59:31.572Z</time></trkpt><trkpt lat="45.3080583" lon="8.9666985"><ele>100.0</ele><time>2026-04-19T07:59:33.574Z</time></trkpt><trkpt lat="45.3081279" lon="8.9666754"><ele>100.0</ele><time>2026-04-19T07:59:35.598Z</time></trkpt><trkpt lat="45.3081957" lon="8.966654"><ele>100.00000000000001</ele><time>2026-04-19T07:59:37.567Z</time></trkpt><trkpt lat="45.3082625" lon="8.966634"><ele>100.0</ele><time>2026-04-19T07:59:39.568Z</time></trkpt><trkpt lat="45.3083543" lon="8.9666033"><ele>99.28571428571429</ele><time>2026-04-19T07:59:42.573Z</time></trkpt><trkpt lat="45.3084187" lon="8.9665767"><ele>98.57142857142857</ele><time>2026-04-19T07:59:44.574Z</time></trkpt><trkpt lat="45.3085138" lon="8.9665581"><ele>97.85714285714286</ele><time>2026-04-19T07:59:47.576Z</time></trkpt><trkpt lat="45.3085774" lon="8.9665578"><ele>97.14285714285714</ele><time>2026-04-19T07:59:49.576Z</time></trkpt><trkpt lat="45.3086466" lon="8.9665526"><ele>96.42857142857143</ele><time>2026-04-19T07:59:51.574Z</time></trkpt><trkpt lat="45.3087131" lon="8.9665382"><ele>95.71428571428572</ele><time>2026-04-19T07:59:53.571Z</time></trkpt><trkpt lat="45.3087776" lon="8.9665268"><ele>95.0</ele><time>2026-04-19T07:59:55.578Z</time></trkpt><trkpt lat="45.3088466" lon="8.966526"><ele>94.66666666666667</ele><time>2026-04-19T07:59:57.584Z</time></trkpt><trkpt lat="45.3089213" lon="8.9665376"><ele>94.33333333333334</ele><time>2026-04-19T07:59:59.573Z</time></trkpt><trkpt lat="45.3089924" lon="8.9665542"><ele>94.0</ele><time>2026-04-19T08:00:01.567Z</time></trkpt><trkpt lat="45.3090623" lon="8.966573"><ele>93.66666666666667</ele><time>2026-04-19T08:00:03.568Z</time></trkpt><trkpt lat="45.3091272" lon="8.9665993"><ele>93.33333333333333</ele><time>2026-04-19T08:00:05.575Z</time></trkpt><trkpt lat="45.3092105" lon="8.9666382"><ele>93.0</ele><time>2026-04-19T08:00:08.573Z</time></trkpt><trkpt lat="45.3092871" lon="8.9666639"><ele>93.00000000000001</ele><time>2026-04-19T08:00:11.573Z</time></trkpt><trkpt lat="45.3093576" lon="8.9666579"><ele>93.0</ele><time>2026-04-19T08:00:14.575Z</time></trkpt><trkpt lat="45.3094296" lon="8.9666466"><ele>93.0</ele><time>2026-04-19T08:00:16.571Z</time></trkpt><trkpt lat="45.3095022" lon="8.9666278"><ele>93.0</ele><time>2026-04-19T08:00:18.573Z</time></trkpt><trkpt lat="45.3095786" lon="8.9665907"><ele>93.0</ele><time>2026-04-19T08:00:20.57Z</time></trkpt><trkpt lat="45.3096499" lon="8.9665685"><ele>93.00000000000001</ele><time>2026-04-19T08:00:22.644Z</time></trkpt><trkpt lat="45.3097124" lon="8.9665531"><ele>93.0</ele><time>2026-04-19T08:00:24.573Z</time></trkpt><trkpt lat="45.3097768" lon="8.9665263"><ele>93.66666666666667</ele><time>2026-04-19T08:00:26.577Z</time></trkpt><trkpt lat="45.30985" lon="8.9664988"><ele>94.33333333333334</ele><time>2026-04-19T08:00:28.576Z</time></trkpt><trkpt lat="45.3099303" lon="8.9664754"><ele>95.0</ele><time>2026-04-19T08:00:30.582Z</time></trkpt><trkpt lat="45.3099969" lon="8.9664459"><ele>95.66666666666667</ele><time>2026-04-19T08:00:32.575Z</time></trkpt><trkpt lat="45.3100675" lon="8.9664304"><ele>96.33333333333334</ele><time>2026-04-19T08:00:34.571Z</time></trkpt><trkpt lat="45.3101616" lon="8.9664095"><ele>97.0</ele><time>2026-04-19T08:00:37.581Z</time></trkpt><trkpt lat="45.3102499" lon="8.9663879"><ele>97.00000000000001</ele><time>2026-04-19T08:00:40.568Z</time></trkpt><trkpt lat="45.3103139" lon="8.96637"><ele>97.0</ele><time>2026-04-19T08:00:42.569Z</time></trkpt><trkpt lat="45.3103845" lon="8.9663532"><ele>97.0</ele><time>2026-04-19T08:00:44.566Z</time></trkpt><trkpt lat="45.3104535" lon="8.9663307"><ele>97.0</ele><time>2026-04-19T08:00:46.575Z</time></trkpt><trkpt lat="45.3105286" lon="8.9663098"><ele>97.00000000000001</ele><time>2026-04-19T08:00:48.572Z</time></trkpt><trkpt lat="45.3105942" lon="8.9662823"><ele>97.0</ele><time>2026-04-19T08:00:50.574Z</time></trkpt><trkpt lat="45.3106887" lon="8.9662485"><ele>98.00000000000001</ele><time>2026-04-19T08:00:53.576Z</time></trkpt><trkpt lat="45.3107652" lon="8.9662358"><ele>99.0</ele><time>2026-04-19T08:00:55.575Z</time></trkpt><trkpt lat="45.3108419" lon="8.9662199"><ele>100.0</ele><time>2026-04-19T08:00:57.578Z</time></trkpt><trkpt lat="45.3109219" lon="8.9661851"><ele>101.0</ele><time>2026-04-19T08:00:59.582Z</time></trkpt><trkpt lat="45.3109928" lon="8.9661558"><ele>102.00000000000001</ele><time>2026-04-19T08:01:01.571Z</time></trkpt><trkpt lat="45.3110671" lon="8.9661525"><ele>103.0</ele><time>2026-04-19T08:01:03.571Z</time></trkpt><trkpt lat="45.3111561" lon="8.9661497"><ele>103.00000000000001</ele><time>2026-04-19T08:01:05.568Z</time></trkpt><trkpt lat="45.3112389" lon="8.9661393"><ele>103.0</ele><time>2026-04-19T08:01:07.568Z</time></trkpt><trkpt lat="45.3113293" lon="8.96614"><ele>103.0</ele><time>2026-04-19T08:01:09.571Z</time></trkpt><trkpt lat="45.3114039" lon="8.9661459"><ele>103.0</ele><time>2026-04-19T08:01:11.565Z</time></trkpt><trkpt lat="45.3114722" lon="8.9661421"><ele>103.00000000000001</ele><time>2026-04-19T08:01:14.57Z</time></trkpt><trkpt lat="45.3114083" lon="8.9661072"><ele>103.0</ele><time>2026-04-19T08:01:18.564Z</time></trkpt><trkpt lat="45.3113372" lon="8.9661549"><ele>102.99999999999999</ele><time>2026-04-19T08:01:21.576Z</time></trkpt><trkpt lat="45.3112426" lon="8.9661709"><ele>103.0</ele><time>2026-04-19T08:01:24.578Z</time></trkpt><trkpt lat="45.3111784" lon="8.9661773"><ele>103.0</ele><time>2026-04-19T08:01:26.566Z</time></trkpt><trkpt lat="45.3111117" lon="8.9661787"><ele>103.0</ele><time>2026-04-19T08:01:28.572Z</time></trkpt><trkpt lat="45.3110446" lon="8.9661819"><ele>103.0</ele><time>2026-04-19T08:01:30.569Z</time></trkpt><trkpt lat="45.3109818" lon="8.9661978"><ele>102.99999999999999</ele><time>2026-04-19T08:01:32.576Z</time></trkpt><trkpt lat="45.310908" lon="8.9662149"><ele>103.0</ele><time>2026-04-19T08:01:34.566Z</time></trkpt><trkpt lat="45.3108425" lon="8.9662343"><ele>103.00000000000001</ele><time>2026-04-19T08:01:36.564Z</time></trkpt><trkpt lat="45.3107679" lon="8.9662566"><ele>103.0</ele><time>2026-04-19T08:01:38.567Z</time></trkpt><trkpt lat="45.3106736" lon="8.9662756"><ele>103.0</ele><time>2026-04-19T08:01:41.567Z</time></trkpt><trkpt lat="45.3105874" lon="8.9663051"><ele>103.0</ele><time>2026-04-19T08:01:44.573Z</time></trkpt><trkpt lat="45.3105208" lon="8.9663213"><ele>103.00000000000001</ele><time>2026-04-19T08:01:46.572Z</time></trkpt><trkpt lat="45.3104563" lon="8.9663437"><ele>103.0</ele><time>2026-04-19T08:01:48.563Z</time></trkpt><trkpt lat="45.3103843" lon="8.966362"><ele>102.00000000000001</ele><time>2026-04-19T08:01:50.571Z</time></trkpt><trkpt lat="45.3103121" lon="8.9663704"><ele>101.0</ele><time>2026-04-19T08:01:52.632Z</time></trkpt><trkpt lat="45.3102409" lon="8.9663868"><ele>100.0</ele><time>2026-04-19T08:01:54.573Z</time></trkpt><trkpt lat="45.3101681" lon="8.9664095"><ele>99.0</ele><time>2026-04-19T08:01:56.571Z</time></trkpt><trkpt lat="45.3100935" lon="8.966426"><ele>98.00000000000001</ele><time>2026-04-19T08:01:58.567Z</time></trkpt><trkpt lat="45.310009" lon="8.9664558"><ele>97.0</ele><time>2026-04-19T08:02:00.575Z</time></trkpt><trkpt lat="45.3099328" lon="8.9664753"><ele>97.00000000000001</ele><time>2026-04-19T08:02:02.575Z</time></trkpt><trkpt lat="45.309859" lon="8.9665049"><ele>97.0</ele><time>2026-04-19T08:02:04.574Z</time></trkpt><trkpt lat="45.3097897" lon="8.9665244"><ele>97.0</ele><time>2026-04-19T08:02:06.575Z</time></trkpt><trkpt lat="45.3097143" lon="8.9665465"><ele>97.0</ele><time>2026-04-19T08:02:08.574Z</time></trkpt><trkpt lat="45.3096031" lon="8.9665773"><ele>97.00000000000001</ele><time>2026-04-19T08:02:11.56Z</time></trkpt><trkpt lat="45.3095303" lon="8.9666005"><ele>97.0</ele><time>2026-04-19T08:02:13.569Z</time></trkpt><trkpt lat="45.3094499" lon="8.9666137"><ele>96.19999999999999</ele><time>2026-04-19T08:02:15.568Z</time></trkpt><trkpt lat="45.3093888" lon="8.9666378"><ele>95.4</ele><time>2026-04-19T08:02:17.571Z</time></trkpt><trkpt lat="45.3093016" lon="8.966643"><ele>94.6</ele><time>2026-04-19T08:02:20.566Z</time></trkpt><trkpt lat="45.3092219" lon="8.966609"><ele>93.80000000000001</ele><time>2026-04-19T08:02:22.568Z</time></trkpt><trkpt lat="45.3091202" lon="8.9665926"><ele>93.0</ele><time>2026-04-19T08:02:24.569Z</time></trkpt><trkpt lat="45.3090042" lon="8.9665624"><ele>93.5</ele><time>2026-04-19T08:02:26.568Z</time></trkpt><trkpt lat="45.3088867" lon="8.966539"><ele>94.0</ele><time>2026-04-19T08:02:28.59Z</time></trkpt><trkpt lat="45.3087769" lon="8.9665369"><ele>94.5</ele><time>2026-04-19T08:02:30.571Z</time></trkpt><trkpt lat="45.3086654" lon="8.9665544"><ele>95.0</ele><time>2026-04-19T08:02:32.568Z</time></trkpt><trkpt lat="45.3085537" lon="8.9665738"><ele>95.0</ele><time>2026-04-19T08:02:34.636Z</time></trkpt><trkpt lat="45.3084562" lon="8.9665878"><ele>95.0</ele><time>2026-04-19T08:02:36.584Z</time></trkpt><trkpt lat="45.3083592" lon="8.9666147"><ele>95.0</ele><time>2026-04-19T08:02:38.575Z</time></trkpt><trkpt lat="45.3082671" lon="8.966627"><ele>95.0</ele><time>2026-04-19T08:02:40.568Z</time></trkpt><trkpt lat="45.3081813" lon="8.9666567"><ele>95.0</ele><time>2026-04-19T08:02:42.575Z</time></trkpt><trkpt lat="45.3081136" lon="8.9666766"><ele>95.0</ele><time>2026-04-19T08:02:44.575Z</time></trkpt><trkpt lat="45.3080225" lon="8.9666953"><ele>95.83333333333334</ele><time>2026-04-19T08:02:47.637Z</time></trkpt><trkpt lat="45.3079528" lon="8.9667135"><ele>96.66666666666667</ele><time>2026-04-19T08:02:49.594Z</time></trkpt><trkpt lat="45.307873" lon="8.966733"><ele>97.5</ele><time>2026-04-19T08:02:51.574Z</time></trkpt><trkpt lat="45.3078011" lon="8.9667488"><ele>98.33333333333334</ele><time>2026-04-19T08:02:53.575Z</time></trkpt><trkpt lat="45.307723" lon="8.9667689"><ele>99.16666666666667</ele><time>2026-04-19T08:02:55.573Z</time></trkpt><trkpt lat="45.3076573" lon="8.9667994"><ele>100.0</ele><time>2026-04-19T08:02:57.574Z</time></trkpt><trkpt lat="45.3075758" lon="8.9668319"><ele>100.00000000000001</ele><time>2026-04-19T08:03:00.574Z</time></trkpt><trkpt lat="45.3075138" lon="8.9668571"><ele>100.0</ele><time>2026-04-19T08:03:02.572Z</time></trkpt><trkpt lat="45.3074192" lon="8.9668901"><ele>100.0</ele><time>2026-04-19T08:03:05.572Z</time></trkpt><trkpt lat="45.3073546" lon="8.9669087"><ele>100.0</ele><time>2026-04-19T08:03:07.567Z</time></trkpt><trkpt lat="45.307276" lon="8.9669287"><ele>100.00000000000001</ele><time>2026-04-19T08:03:09.575Z</time></trkpt><trkpt lat="45.3072045" lon="8.9669572"><ele>100.0</ele><time>2026-04-19T08:03:11.571Z</time></trkpt><trkpt lat="45.3071196" lon="8.9669881"><ele>99.42857142857143</ele><time>2026-04-19T08:03:13.568Z</time></trkpt><trkpt lat="45.3070256" lon="8.9669893"><ele>98.85714285714286</ele><time>2026-04-19T08:03:15.633Z</time></trkpt><trkpt lat="45.3069608" lon="8.9670007"><ele>98.28571428571428</ele><time>2026-04-19T08:03:17.601Z</time></trkpt><trkpt lat="45.3068743" lon="8.9670287"><ele>97.71428571428572</ele><time>2026-04-19T08:03:20.574Z</time></trkpt><trkpt lat="45.3068127" lon="8.9670555"><ele>97.14285714285714</ele><time>2026-04-19T08:03:22.573Z</time></trkpt><trkpt lat="45.3067501" lon="8.9670722"><ele>96.57142857142857</ele><time>2026-04-19T08:03:24.583Z</time></trkpt><trkpt lat="45.3066844" lon="8.9670846"><ele>96.0</ele><time>2026-04-19T08:03:26.639Z</time></trkpt><trkpt lat="45.3065957" lon="8.9671031"><ele>95.99999999999999</ele><time>2026-04-19T08:03:29.608Z</time></trkpt><trkpt lat="45.3065027" lon="8.9671244"><ele>96.0</ele><time>2026-04-19T08:03:32.57Z</time></trkpt><trkpt lat="45.3064339" lon="8.9671413"><ele>96.0</ele><time>2026-04-19T08:03:34.572Z</time></trkpt><trkpt lat="45.3063527" lon="8.967161"><ele>96.0</ele><time>2026-04-19T08:03:36.583Z</time></trkpt><trkpt lat="45.3062889" lon="8.9671827"><ele>96.0</ele><time>2026-04-19T08:03:38.575Z</time></trkpt><trkpt lat="45.3062249" lon="8.9672005"><ele>95.99999999999999</ele><time>2026-04-19T08:03:40.575Z</time></trkpt><trkpt lat="45.3061562" lon="8.9672237"><ele>96.0</ele><time>2026-04-19T08:03:42.57Z</time></trkpt><trkpt lat="45.3060846" lon="8.9672461"><ele>95.83333333333333</ele><time>2026-04-19T08:03:44.577Z</time></trkpt><trkpt lat="45.3060139" lon="8.9672631"><ele>95.66666666666667</ele><time>2026-04-19T08:03:46.567Z</time></trkpt><trkpt lat="45.3059468" lon="8.9672822"><ele>95.5</ele><time>2026-04-19T08:03:48.567Z</time></trkpt><trkpt lat="45.3058634" lon="8.9672675"><ele>95.33333333333334</ele><time>2026-04-19T08:03:51.567Z</time></trkpt><trkpt lat="45.305798" lon="8.9672117"><ele>95.16666666666667</ele><time>2026-04-19T08:03:54.583Z</time></trkpt><trkpt lat="45.3057834" lon="8.9670868"><ele>95.0</ele><time>2026-04-19T08:03:57.578Z</time></trkpt><trkpt lat="45.3057751" lon="8.9669567"><ele>95.0</ele><time>2026-04-19T08:04:00.569Z</time></trkpt><trkpt lat="45.3057601" lon="8.966829"><ele>95.0</ele><time>2026-04-19T08:04:03.566Z</time></trkpt><trkpt lat="45.3057508" lon="8.9667365"><ele>95.0</ele><time>2026-04-19T08:04:05.571Z</time></trkpt><trkpt lat="45.3057359" lon="8.9666357"><ele>95.0</ele><time>2026-04-19T08:04:07.647Z</time></trkpt><trkpt lat="45.3057299" lon="8.9665319"><ele>95.0</ele><time>2026-04-19T08:04:09.611Z</time></trkpt><trkpt lat="45.305722" lon="8.9664371"><ele>95.0</ele><time>2026-04-19T08:04:11.569Z</time></trkpt><trkpt lat="45.3057126" lon="8.9663372"><ele>95.0</ele><time>2026-04-19T08:04:13.574Z</time></trkpt><trkpt lat="45.3057021" lon="8.9662476"><ele>94.33333333333334</ele><time>2026-04-19T08:04:15.565Z</time></trkpt><trkpt lat="45.3056898" lon="8.9661526"><ele>93.66666666666667</ele><time>2026-04-19T08:04:17.578Z</time></trkpt><trkpt lat="45.3056686" lon="8.9660326"><ele>93.0</ele><time>2026-04-19T08:04:20.641Z</time></trkpt><trkpt lat="45.3056489" lon="8.9659033"><ele>92.33333333333333</ele><time>2026-04-19T08:04:23.575Z</time></trkpt><trkpt lat="45.3056383" lon="8.9658057"><ele>91.66666666666666</ele><time>2026-04-19T08:04:25.578Z</time></trkpt><trkpt lat="45.3056364" lon="8.9657107"><ele>91.0</ele><time>2026-04-19T08:04:27.572Z</time></trkpt><trkpt lat="45.3056231" lon="8.9655952"><ele>90.66666666666666</ele><time>2026-04-19T08:04:29.572Z</time></trkpt><trkpt lat="45.3056203" lon="8.965481"><ele>90.33333333333333</ele><time>2026-04-19T08:04:31.575Z</time></trkpt><trkpt lat="45.3056133" lon="8.9653513"><ele>90.0</ele><time>2026-04-19T08:04:33.578Z</time></trkpt><trkpt lat="45.3056084" lon="8.9652407"><ele>89.66666666666667</ele><time>2026-04-19T08:04:35.566Z</time></trkpt><trkpt lat="45.3056061" lon="8.9651314"><ele>89.33333333333334</ele><time>2026-04-19T08:04:37.575Z</time></trkpt><trkpt lat="45.3056003" lon="8.9650368"><ele>89.0</ele><time>2026-04-19T08:04:39.572Z</time></trkpt><trkpt lat="45.3055845" lon="8.964909"><ele>88.83333333333334</ele><time>2026-04-19T08:04:42.574Z</time></trkpt><trkpt lat="45.3055354" lon="8.9648286"><ele>88.66666666666667</ele><time>2026-04-19T08:04:45.587Z</time></trkpt><trkpt lat="45.3054425" lon="8.9647883"><ele>88.5</ele><time>2026-04-19T08:04:48.581Z</time></trkpt><trkpt lat="45.3053539" lon="8.9647545"><ele>88.33333333333333</ele><time>2026-04-19T08:04:51.578Z</time></trkpt><trkpt lat="45.3052822" lon="8.9647359"><ele>88.16666666666666</ele><time>2026-04-19T08:04:53.597Z</time></trkpt><trkpt lat="45.3052119" lon="8.9647165"><ele>88.0</ele><time>2026-04-19T08:04:55.566Z</time></trkpt><trkpt lat="45.3051261" lon="8.9646993"><ele>88.0</ele><time>2026-04-19T08:04:58.579Z</time></trkpt><trkpt lat="45.3050312" lon="8.9646954"><ele>88.0</ele><time>2026-04-19T08:05:01.57Z</time></trkpt><trkpt lat="45.3049682" lon="8.9646924"><ele>88.0</ele><time>2026-04-19T08:05:03.572Z</time></trkpt><trkpt lat="45.3049017" lon="8.9646889"><ele>88.0</ele><time>2026-04-19T08:05:05.575Z</time></trkpt><trkpt lat="45.3048312" lon="8.9646877"><ele>88.0</ele><time>2026-04-19T08:05:07.609Z</time></trkpt><trkpt lat="45.3047615" lon="8.9646916"><ele>88.0</ele><time>2026-04-19T08:05:09.569Z</time></trkpt><trkpt lat="45.3046838" lon="8.9646935"><ele>88.0</ele><time>2026-04-19T08:05:11.567Z</time></trkpt><trkpt lat="45.3046057" lon="8.9647024"><ele>88.0</ele><time>2026-04-19T08:05:13.565Z</time></trkpt><trkpt lat="45.30454" lon="8.9647142"><ele>88.0</ele><time>2026-04-19T08:05:15.579Z</time></trkpt><trkpt lat="45.3044739" lon="8.9647282"><ele>88.0</ele><time>2026-04-19T08:05:17.611Z</time></trkpt><trkpt lat="45.304411" lon="8.9647405"><ele>88.0</ele><time>2026-04-19T08:05:19.575Z</time></trkpt><trkpt lat="45.3043144" lon="8.9647569"><ele>88.0</ele><time>2026-04-19T08:05:22.565Z</time></trkpt><trkpt lat="45.3042187" lon="8.9647806"><ele>88.0</ele><time>2026-04-19T08:05:25.575Z</time></trkpt><trkpt lat="45.3041296" lon="8.9648028"><ele>88.0</ele><time>2026-04-19T08:05:28.573Z</time></trkpt><trkpt lat="45.3040445" lon="8.9648129"><ele>88.0</ele><time>2026-04-19T08:05:31.613Z</time></trkpt><trkpt lat="45.3039675" lon="8.9648196"><ele>88.0</ele><time>2026-04-19T08:05:34.575Z</time></trkpt><trkpt lat="45.3038798" lon="8.9648413"><ele>88.0</ele><time>2026-04-19T08:05:37.578Z</time></trkpt><trkpt lat="45.3037618" lon="8.9648745"><ele>88.0</ele><time>2026-04-19T08:05:41.577Z</time></trkpt><trkpt lat="45.3036819" lon="8.9648947"><ele>88.83333333333333</ele><time>2026-04-19T08:05:44.583Z</time></trkpt><trkpt lat="45.3036027" lon="8.9649148"><ele>89.66666666666666</ele><time>2026-04-19T08:05:47.57Z</time></trkpt><trkpt lat="45.3035108" lon="8.9649371"><ele>90.5</ele><time>2026-04-19T08:05:50.644Z</time></trkpt><trkpt lat="45.3034606" lon="8.9650325"><ele>91.33333333333333</ele><time>2026-04-19T08:05:53.583Z</time></trkpt><trkpt lat="45.3034474" lon="8.9651462"><ele>92.16666666666667</ele><time>2026-04-19T08:05:56.575Z</time></trkpt><trkpt lat="45.3034428" lon="8.9652795"><ele>93.0</ele><time>2026-04-19T08:05:59.579Z</time></trkpt><trkpt lat="45.3034345" lon="8.9654"><ele>93.83333333333333</ele><time>2026-04-19T08:06:02.573Z</time></trkpt><trkpt lat="45.3034511" lon="8.9654902"><ele>94.66666666666666</ele><time>2026-04-19T08:06:06.578Z</time></trkpt><trkpt lat="45.3034594" lon="8.9655908"><ele>95.5</ele><time>2026-04-19T08:06:10.581Z</time></trkpt><trkpt lat="45.3034312" lon="8.9657595"><ele>96.33333333333333</ele><time>2026-04-19T08:06:17.572Z</time></trkpt><trkpt lat="45.3033973" lon="8.9658406"><ele>97.16666666666666</ele><time>2026-04-19T08:06:21.579Z</time></trkpt><trkpt lat="45.3033175" lon="8.9658715"><ele>98.0</ele><time>2026-04-19T08:06:25.634Z</time></trkpt><trkpt lat="45.303228" lon="8.9658767"><ele>97.99999999999999</ele><time>2026-04-19T08:06:28.574Z</time></trkpt><trkpt lat="45.3031634" lon="8.9658698"><ele>98.0</ele><time>2026-04-19T08:06:30.576Z</time></trkpt><trkpt lat="45.3030907" lon="8.9658772"><ele>98.0</ele><time>2026-04-19T08:06:33.575Z</time></trkpt><trkpt lat="45.3030332" lon="8.965964"><ele>98.0</ele><time>2026-04-19T08:06:36.577Z</time></trkpt><trkpt lat="45.3030196" lon="8.9660923"><ele>97.99999999999999</ele><time>2026-04-19T08:06:39.594Z</time></trkpt><trkpt lat="45.303015" lon="8.9662094"><ele>98.0</ele><time>2026-04-19T08:06:42.631Z</time></trkpt><trkpt lat="45.3030193" lon="8.9663267"><ele>98.16666666666666</ele><time>2026-04-19T08:06:45.568Z</time></trkpt><trkpt lat="45.3030257" lon="8.9664178"><ele>98.33333333333333</ele><time>2026-04-19T08:06:47.567Z</time></trkpt><trkpt lat="45.3030205" lon="8.9665439"><ele>98.5</ele><time>2026-04-19T08:06:50.581Z</time></trkpt><trkpt lat="45.3030176" lon="8.9666401"><ele>98.66666666666666</ele><time>2026-04-19T08:06:52.58Z</time></trkpt><trkpt lat="45.3030107" lon="8.9667671"><ele>98.83333333333333</ele><time>2026-04-19T08:06:55.641Z</time></trkpt><trkpt lat="45.303012" lon="8.9668571"><ele>99.0</ele><time>2026-04-19T08:06:57.578Z</time></trkpt><trkpt lat="45.3030078" lon="8.966979"><ele>99.0</ele><time>2026-04-19T08:07:00.574Z</time></trkpt><trkpt lat="45.3030081" lon="8.9671083"><ele>99.0</ele><time>2026-04-19T08:07:03.577Z</time></trkpt><trkpt lat="45.3030121" lon="8.9672051"><ele>99.0</ele><time>2026-04-19T08:07:05.565Z</time></trkpt><trkpt lat="45.3030125" lon="8.9673016"><ele>99.0</ele><time>2026-04-19T08:07:07.569Z</time></trkpt><trkpt lat="45.303013" lon="8.9674001"><ele>99.0</ele><time>2026-04-19T08:07:09.581Z</time></trkpt><trkpt lat="45.303014" lon="8.9674902"><ele>99.0</ele><time>2026-04-19T08:07:11.568Z</time></trkpt><trkpt lat="45.3030216" lon="8.9675846"><ele>99.0</ele><time>2026-04-19T08:07:13.573Z</time></trkpt><trkpt lat="45.3030277" lon="8.9676868"><ele>99.28571428571429</ele><time>2026-04-19T08:07:15.569Z</time></trkpt><trkpt lat="45.3030379" lon="8.9677962"><ele>99.57142857142857</ele><time>2026-04-19T08:07:17.596Z</time></trkpt><trkpt lat="45.3030529" lon="8.9678871"><ele>99.85714285714286</ele><time>2026-04-19T08:07:19.569Z</time></trkpt><trkpt lat="45.3030379" lon="8.9679984"><ele>100.14285714285714</ele><time>2026-04-19T08:07:21.639Z</time></trkpt><trkpt lat="45.3030209" lon="8.9681045"><ele>100.42857142857142</ele><time>2026-04-19T08:07:23.565Z</time></trkpt><trkpt lat="45.303003" lon="8.9682083"><ele>100.71428571428571</ele><time>2026-04-19T08:07:25.57Z</time></trkpt><trkpt lat="45.3029904" lon="8.9683084"><ele>101.0</ele><time>2026-04-19T08:07:27.566Z</time></trkpt><trkpt lat="45.3029715" lon="8.9684112"><ele>101.16666666666666</ele><time>2026-04-19T08:07:29.571Z</time></trkpt><trkpt lat="45.3029556" lon="8.9685176"><ele>101.33333333333333</ele><time>2026-04-19T08:07:31.569Z</time></trkpt><trkpt lat="45.3029467" lon="8.968624"><ele>101.5</ele><time>2026-04-19T08:07:33.568Z</time></trkpt><trkpt lat="45.3029333" lon="8.9687356"><ele>101.66666666666666</ele><time>2026-04-19T08:07:35.57Z</time></trkpt><trkpt lat="45.3029301" lon="8.9688526"><ele>101.83333333333333</ele><time>2026-04-19T08:07:37.572Z</time></trkpt><trkpt lat="45.3029331" lon="8.9689462"><ele>102.0</ele><time>2026-04-19T08:07:39.57Z</time></trkpt><trkpt lat="45.3029341" lon="8.9690573"><ele>102.0</ele><time>2026-04-19T08:07:42.567Z</time></trkpt><trkpt lat="45.3028573" lon="8.9691227"><ele>102.0</ele><time>2026-04-19T08:07:45.571Z</time></trkpt><trkpt lat="45.302787" lon="8.9691251"><ele>102.0</ele><time>2026-04-19T08:07:47.637Z</time></trkpt><trkpt lat="45.3027096" lon="8.9691399"><ele>102.0</ele><time>2026-04-19T08:07:49.596Z</time></trkpt><trkpt lat="45.3026323" lon="8.9691282"><ele>102.0</ele><time>2026-04-19T08:07:51.571Z</time></trkpt><trkpt lat="45.3025477" lon="8.9691258"><ele>102.0</ele><time>2026-04-19T08:07:53.568Z</time></trkpt><trkpt lat="45.3024702" lon="8.9691159"><ele>102.0</ele><time>2026-04-19T08:07:55.566Z</time></trkpt><trkpt lat="45.3023854" lon="8.9691009"><ele>102.0</ele><time>2026-04-19T08:07:57.573Z</time></trkpt><trkpt lat="45.3023008" lon="8.969085"><ele>102.0</ele><time>2026-04-19T08:07:59.566Z</time></trkpt><trkpt lat="45.3022249" lon="8.9690573"><ele>102.0</ele><time>2026-04-19T08:08:01.574Z</time></trkpt><trkpt lat="45.3021494" lon="8.9690412"><ele>102.0</ele><time>2026-04-19T08:08:03.569Z</time></trkpt><trkpt lat="45.302077" lon="8.9690355"><ele>102.0</ele><time>2026-04-19T08:08:05.573Z</time></trkpt><trkpt lat="45.3019878" lon="8.9690234"><ele>101.5</ele><time>2026-04-19T08:08:07.592Z</time></trkpt><trkpt lat="45.3019037" lon="8.9690032"><ele>101.0</ele><time>2026-04-19T08:08:09.568Z</time></trkpt><trkpt lat="45.3018347" lon="8.9689965"><ele>100.5</ele><time>2026-04-19T08:08:11.571Z</time></trkpt><trkpt lat="45.301764" lon="8.9689923"><ele>100.0</ele><time>2026-04-19T08:08:13.578Z</time></trkpt><trkpt lat="45.3016885" lon="8.9689703"><ele>99.5</ele><time>2026-04-19T08:08:15.569Z</time></trkpt><trkpt lat="45.3016121" lon="8.9689545"><ele>99.0</ele><time>2026-04-19T08:08:17.564Z</time></trkpt><trkpt lat="45.3015272" lon="8.9689495"><ele>99.0</ele><time>2026-04-19T08:08:19.577Z</time></trkpt><trkpt lat="45.3014493" lon="8.96894"><ele>99.0</ele><time>2026-04-19T08:08:21.574Z</time></trkpt><trkpt lat="45.3013705" lon="8.9689102"><ele>99.0</ele><time>2026-04-19T08:08:23.559Z</time></trkpt><trkpt lat="45.3012893" lon="8.9688856"><ele>99.0</ele><time>2026-04-19T08:08:25.575Z</time></trkpt><trkpt lat="45.3012097" lon="8.9688839"><ele>99.0</ele><time>2026-04-19T08:08:27.569Z</time></trkpt><trkpt lat="45.3011334" lon="8.9688861"><ele>99.0</ele><time>2026-04-19T08:08:29.599Z</time></trkpt><trkpt lat="45.3010602" lon="8.968878"><ele>99.0</ele><time>2026-04-19T08:08:31.577Z</time></trkpt><trkpt lat="45.3009909" lon="8.9688688"><ele>99.0</ele><time>2026-04-19T08:08:33.582Z</time></trkpt><trkpt lat="45.3009162" lon="8.9688585"><ele>99.0</ele><time>2026-04-19T08:08:35.572Z</time></trkpt><trkpt lat="45.3008428" lon="8.9688573"><ele>99.0</ele><time>2026-04-19T08:08:37.569Z</time></trkpt><trkpt lat="45.3007685" lon="8.9688444"><ele>99.0</ele><time>2026-04-19T08:08:39.573Z</time></trkpt><trkpt lat="45.300692" lon="8.9688365"><ele>99.0</ele><time>2026-04-19T08:08:41.568Z</time></trkpt><trkpt lat="45.3006146" lon="8.9688254"><ele>99.0</ele><time>2026-04-19T08:08:43.572Z</time></trkpt><trkpt lat="45.3005453" lon="8.9688183"><ele>99.0</ele><time>2026-04-19T08:08:45.573Z</time></trkpt><trkpt lat="45.3004766" lon="8.9688122"><ele>99.0</ele><time>2026-04-19T08:08:47.572Z</time></trkpt><trkpt lat="45.3004015" lon="8.9687805"><ele>99.0</ele><time>2026-04-19T08:08:49.573Z</time></trkpt><trkpt lat="45.3003324" lon="8.9687534"><ele>99.0</ele><time>2026-04-19T08:08:51.583Z</time></trkpt><trkpt lat="45.3002547" lon="8.9687159"><ele>99.0</ele><time>2026-04-19T08:08:53.632Z</time></trkpt><trkpt lat="45.3001764" lon="8.9686737"><ele>99.0</ele><time>2026-04-19T08:08:55.568Z</time></trkpt><trkpt lat="45.300098" lon="8.9686347"><ele>99.0</ele><time>2026-04-19T08:08:57.568Z</time></trkpt><trkpt lat="45.3000303" lon="8.9685793"><ele>99.0</ele><time>2026-04-19T08:08:59.571Z</time></trkpt><trkpt lat="45.2999679" lon="8.9685234"><ele>99.0</ele><time>2026-04-19T08:09:01.572Z</time></trkpt><trkpt lat="45.2999079" lon="8.9684744"><ele>99.0</ele><time>2026-04-19T08:09:03.607Z</time></trkpt><trkpt lat="45.299848" lon="8.9684071"><ele>99.0</ele><time>2026-04-19T08:09:05.573Z</time></trkpt><trkpt lat="45.2997771" lon="8.9683431"><ele>99.0</ele><time>2026-04-19T08:09:07.567Z</time></trkpt><trkpt lat="45.2997165" lon="8.9682899"><ele>99.16666666666667</ele><time>2026-04-19T08:09:09.564Z</time></trkpt><trkpt lat="45.2996583" lon="8.9682274"><ele>99.33333333333334</ele><time>2026-04-19T08:09:11.565Z</time></trkpt><trkpt lat="45.2995925" lon="8.9681664"><ele>99.5</ele><time>2026-04-19T08:09:13.603Z</time></trkpt><trkpt lat="45.2995204" lon="8.9681228"><ele>99.66666666666667</ele><time>2026-04-19T08:09:15.567Z</time></trkpt><trkpt lat="45.2994363" lon="8.9680881"><ele>99.83333333333334</ele><time>2026-04-19T08:09:17.576Z</time></trkpt><trkpt lat="45.2993533" lon="8.9680493"><ele>100.0</ele><time>2026-04-19T08:09:19.569Z</time></trkpt><trkpt lat="45.2992722" lon="8.9680262"><ele>100.00000000000001</ele><time>2026-04-19T08:09:21.575Z</time></trkpt><trkpt lat="45.2992009" lon="8.9680124"><ele>100.0</ele><time>2026-04-19T08:09:23.573Z</time></trkpt><trkpt lat="45.2991256" lon="8.9679841"><ele>100.0</ele><time>2026-04-19T08:09:25.563Z</time></trkpt><trkpt lat="45.29905" lon="8.9679467"><ele>100.0</ele><time>2026-04-19T08:09:27.574Z</time></trkpt><trkpt lat="45.2989773" lon="8.9679083"><ele>100.00000000000001</ele><time>2026-04-19T08:09:29.595Z</time></trkpt><trkpt lat="45.2989065" lon="8.9678953"><ele>100.0</ele><time>2026-04-19T08:09:31.565Z</time></trkpt><trkpt lat="45.2988314" lon="8.9678722"><ele>99.71428571428572</ele><time>2026-04-19T08:09:33.573Z</time></trkpt><trkpt lat="45.2987607" lon="8.9678523"><ele>99.42857142857143</ele><time>2026-04-19T08:09:35.563Z</time></trkpt><trkpt lat="45.2986866" lon="8.9678456"><ele>99.14285714285714</ele><time>2026-04-19T08:09:37.567Z</time></trkpt><trkpt lat="45.2986143" lon="8.9678299"><ele>98.85714285714286</ele><time>2026-04-19T08:09:39.577Z</time></trkpt><trkpt lat="45.2985499" lon="8.9678173"><ele>98.57142857142857</ele><time>2026-04-19T08:09:41.619Z</time></trkpt><trkpt lat="45.2984821" lon="8.9678067"><ele>98.28571428571429</ele><time>2026-04-19T08:09:43.573Z</time></trkpt><trkpt lat="45.2983999" lon="8.9678029"><ele>98.0</ele><time>2026-04-19T08:09:45.568Z</time></trkpt><trkpt lat="45.2983106" lon="8.9677963"><ele>97.99999999999999</ele><time>2026-04-19T08:09:48.566Z</time></trkpt><trkpt lat="45.2982197" lon="8.967773"><ele>98.0</ele><time>2026-04-19T08:09:51.578Z</time></trkpt><trkpt lat="45.2981548" lon="8.9677544"><ele>98.0</ele><time>2026-04-19T08:09:53.567Z</time></trkpt><trkpt lat="45.2980712" lon="8.9677411"><ele>98.0</ele><time>2026-04-19T08:09:55.564Z</time></trkpt><trkpt lat="45.2979886" lon="8.9677211"><ele>97.99999999999999</ele><time>2026-04-19T08:09:57.573Z</time></trkpt><trkpt lat="45.2979077" lon="8.9677222"><ele>98.0</ele><time>2026-04-19T08:09:59.591Z</time></trkpt><trkpt lat="45.29784" lon="8.9677161"><ele>97.83333333333333</ele><time>2026-04-19T08:10:01.57Z</time></trkpt><trkpt lat="45.297774" lon="8.9677072"><ele>97.66666666666666</ele><time>2026-04-19T08:10:03.575Z</time></trkpt><trkpt lat="45.297704" lon="8.9677048"><ele>97.5</ele><time>2026-04-19T08:10:05.572Z</time></trkpt><trkpt lat="45.2976345" lon="8.9676866"><ele>97.33333333333334</ele><time>2026-04-19T08:10:07.572Z</time></trkpt><trkpt lat="45.2975332" lon="8.9676761"><ele>97.16666666666667</ele><time>2026-04-19T08:10:10.591Z</time></trkpt><trkpt lat="45.2974531" lon="8.967659"><ele>97.0</ele><time>2026-04-19T08:10:12.579Z</time></trkpt><trkpt lat="45.2973794" lon="8.9676467"><ele>97.0</ele><time>2026-04-19T08:10:14.564Z</time></trkpt><trkpt lat="45.2973094" lon="8.9676492"><ele>97.0</ele><time>2026-04-19T08:10:16.572Z</time></trkpt><trkpt lat="45.2972306" lon="8.9676377"><ele>97.0</ele><time>2026-04-19T08:10:18.58Z</time></trkpt><trkpt lat="45.2971588" lon="8.9676382"><ele>97.0</ele><time>2026-04-19T08:10:20.576Z</time></trkpt><trkpt lat="45.2970846" lon="8.9676388"><ele>97.0</ele><time>2026-04-19T08:10:22.57Z</time></trkpt><trkpt lat="45.297007" lon="8.9676281"><ele>97.0</ele><time>2026-04-19T08:10:24.571Z</time></trkpt><trkpt lat="45.2969366" lon="8.9676081"><ele>97.0</ele><time>2026-04-19T08:10:26.573Z</time></trkpt><trkpt lat="45.2968705" lon="8.9676016"><ele>97.14285714285714</ele><time>2026-04-19T08:10:28.585Z</time></trkpt><trkpt lat="45.2967998" lon="8.9676024"><ele>97.28571428571429</ele><time>2026-04-19T08:10:30.561Z</time></trkpt><trkpt lat="45.2967161" lon="8.9675892"><ele>97.42857142857143</ele><time>2026-04-19T08:10:32.572Z</time></trkpt><trkpt lat="45.2966407" lon="8.9675835"><ele>97.57142857142857</ele><time>2026-04-19T08:10:34.569Z</time></trkpt><trkpt lat="45.2965582" lon="8.967583"><ele>97.71428571428572</ele><time>2026-04-19T08:10:36.573Z</time></trkpt><trkpt lat="45.2964942" lon="8.9675795"><ele>97.85714285714286</ele><time>2026-04-19T08:10:38.57Z</time></trkpt><trkpt lat="45.2964262" lon="8.967585"><ele>98.0</ele><time>2026-04-19T08:10:40.572Z</time></trkpt><trkpt lat="45.2963545" lon="8.9675726"><ele>98.0</ele><time>2026-04-19T08:10:42.579Z</time></trkpt><trkpt lat="45.2962673" lon="8.9675582"><ele>98.0</ele><time>2026-04-19T08:10:44.574Z</time></trkpt><trkpt lat="45.2961976" lon="8.9675597"><ele>98.0</ele><time>2026-04-19T08:10:46.57Z</time></trkpt><trkpt lat="45.2961288" lon="8.9675511"><ele>98.0</ele><time>2026-04-19T08:10:48.572Z</time></trkpt><trkpt lat="45.2960564" lon="8.9675368"><ele>98.0</ele><time>2026-04-19T08:10:50.573Z</time></trkpt><trkpt lat="45.2959915" lon="8.9675238"><ele>98.0</ele><time>2026-04-19T08:10:52.566Z</time></trkpt><trkpt lat="45.2959285" lon="8.9675245"><ele>98.0</ele><time>2026-04-19T08:10:54.57Z</time></trkpt><trkpt lat="45.2958599" lon="8.9675171"><ele>97.99999999999999</ele><time>2026-04-19T08:10:56.575Z</time></trkpt><trkpt lat="45.2957801" lon="8.9675067"><ele>98.0</ele><time>2026-04-19T08:10:58.566Z</time></trkpt><trkpt lat="45.2956869" lon="8.9675162"><ele>98.0</ele><time>2026-04-19T08:11:01.609Z</time></trkpt><trkpt lat="45.295618" lon="8.9675358"><ele>98.0</ele><time>2026-04-19T08:11:03.578Z</time></trkpt><trkpt lat="45.2955366" lon="8.9675427"><ele>97.99999999999999</ele><time>2026-04-19T08:11:05.574Z</time></trkpt><trkpt lat="45.2954599" lon="8.9675519"><ele>98.0</ele><time>2026-04-19T08:11:07.567Z</time></trkpt><trkpt lat="45.2953928" lon="8.9675548"><ele>98.14285714285714</ele><time>2026-04-19T08:11:09.573Z</time></trkpt><trkpt lat="45.2953233" lon="8.9675659"><ele>98.28571428571428</ele><time>2026-04-19T08:11:11.576Z</time></trkpt><trkpt lat="45.29525" lon="8.9675712"><ele>98.42857142857143</ele><time>2026-04-19T08:11:13.568Z</time></trkpt><trkpt lat="45.2951695" lon="8.9675759"><ele>98.57142857142857</ele><time>2026-04-19T08:11:15.636Z</time></trkpt><trkpt lat="45.2951016" lon="8.9675752"><ele>98.71428571428571</ele><time>2026-04-19T08:11:17.755Z</time></trkpt><trkpt lat="45.2950186" lon="8.9675808"><ele>98.85714285714286</ele><time>2026-04-19T08:11:20.57Z</time></trkpt><trkpt lat="45.2949516" lon="8.9675706"><ele>99.0</ele><time>2026-04-19T08:11:22.571Z</time></trkpt><trkpt lat="45.2948777" lon="8.9675726"><ele>99.0</ele><time>2026-04-19T08:11:24.572Z</time></trkpt><trkpt lat="45.2947998" lon="8.9675696"><ele>99.0</ele><time>2026-04-19T08:11:26.574Z</time></trkpt><trkpt lat="45.2947195" lon="8.9675666"><ele>99.0</ele><time>2026-04-19T08:11:28.571Z</time></trkpt><trkpt lat="45.2946296" lon="8.9675719"><ele>99.0</ele><time>2026-04-19T08:11:31.589Z</time></trkpt><trkpt lat="45.2945636" lon="8.9675808"><ele>99.0</ele><time>2026-04-19T08:11:33.576Z</time></trkpt><trkpt lat="45.2944957" lon="8.9675843"><ele>99.0</ele><time>2026-04-19T08:11:35.563Z</time></trkpt><trkpt lat="45.2944198" lon="8.9675924"><ele>99.0</ele><time>2026-04-19T08:11:37.567Z</time></trkpt><trkpt lat="45.2943431" lon="8.9675988"><ele>99.0</ele><time>2026-04-19T08:11:39.571Z</time></trkpt><trkpt lat="45.294277" lon="8.9676041"><ele>99.0</ele><time>2026-04-19T08:11:41.562Z</time></trkpt><trkpt lat="45.2942136" lon="8.9676189"><ele>99.0</ele><time>2026-04-19T08:11:43.569Z</time></trkpt><trkpt lat="45.2941403" lon="8.9676346"><ele>99.0</ele><time>2026-04-19T08:11:45.571Z</time></trkpt><trkpt lat="45.2940654" lon="8.9676446"><ele>99.0</ele><time>2026-04-19T08:11:47.604Z</time></trkpt><trkpt lat="45.2939799" lon="8.9676562"><ele>99.0</ele><time>2026-04-19T08:11:49.566Z</time></trkpt><trkpt lat="45.2939041" lon="8.9676625"><ele>98.85714285714286</ele><time>2026-04-19T08:11:51.569Z</time></trkpt><trkpt lat="45.2938355" lon="8.9676629"><ele>98.71428571428571</ele><time>2026-04-19T08:11:53.565Z</time></trkpt><trkpt lat="45.2937585" lon="8.9676681"><ele>98.57142857142857</ele><time>2026-04-19T08:11:55.566Z</time></trkpt><trkpt lat="45.2936759" lon="8.9676835"><ele>98.42857142857143</ele><time>2026-04-19T08:11:57.635Z</time></trkpt><trkpt lat="45.2936019" lon="8.9676954"><ele>98.28571428571428</ele><time>2026-04-19T08:11:59.614Z</time></trkpt><trkpt lat="45.2935342" lon="8.9677011"><ele>98.14285714285714</ele><time>2026-04-19T08:12:01.566Z</time></trkpt><trkpt lat="45.2934649" lon="8.9677077"><ele>98.0</ele><time>2026-04-19T08:12:03.574Z</time></trkpt><trkpt lat="45.2933881" lon="8.9677089"><ele>97.99999999999999</ele><time>2026-04-19T08:12:05.569Z</time></trkpt><trkpt lat="45.2933199" lon="8.9677244"><ele>98.0</ele><time>2026-04-19T08:12:07.574Z</time></trkpt><trkpt lat="45.2932224" lon="8.9677305"><ele>98.0</ele><time>2026-04-19T08:12:10.566Z</time></trkpt><trkpt lat="45.2931491" lon="8.9677389"><ele>98.0</ele><time>2026-04-19T08:12:12.571Z</time></trkpt><trkpt lat="45.293066" lon="8.9677376"><ele>97.99999999999999</ele><time>2026-04-19T08:12:15.574Z</time></trkpt><trkpt lat="45.2929681" lon="8.9677441"><ele>98.0</ele><time>2026-04-19T08:12:18.572Z</time></trkpt><trkpt lat="45.2928966" lon="8.9677636"><ele>98.16666666666666</ele><time>2026-04-19T08:12:20.575Z</time></trkpt><trkpt lat="45.2928115" lon="8.967793"><ele>98.33333333333333</ele><time>2026-04-19T08:12:22.563Z</time></trkpt><trkpt lat="45.2927314" lon="8.9678225"><ele>98.5</ele><time>2026-04-19T08:12:24.565Z</time></trkpt><trkpt lat="45.2926617" lon="8.9678486"><ele>98.66666666666666</ele><time>2026-04-19T08:12:26.568Z</time></trkpt><trkpt lat="45.2925985" lon="8.9678717"><ele>98.83333333333333</ele><time>2026-04-19T08:12:28.577Z</time></trkpt><trkpt lat="45.2925265" lon="8.9678962"><ele>99.0</ele><time>2026-04-19T08:12:30.566Z</time></trkpt><trkpt lat="45.2924564" lon="8.9679337"><ele>99.0</ele><time>2026-04-19T08:12:32.568Z</time></trkpt><trkpt lat="45.2924059" lon="8.9679907"><ele>99.0</ele><time>2026-04-19T08:12:34.565Z</time></trkpt><trkpt lat="45.2924008" lon="8.9681268"><ele>99.0</ele><time>2026-04-19T08:12:37.601Z</time></trkpt><trkpt lat="45.2924122" lon="8.9682426"><ele>99.0</ele><time>2026-04-19T08:12:39.571Z</time></trkpt><trkpt lat="45.2924269" lon="8.9683331"><ele>99.0</ele><time>2026-04-19T08:12:41.571Z</time></trkpt><trkpt lat="45.2924297" lon="8.9684268"><ele>99.0</ele><time>2026-04-19T08:12:43.565Z</time></trkpt><trkpt lat="45.2924356" lon="8.9685387"><ele>99.0</ele><time>2026-04-19T08:12:45.572Z</time></trkpt><trkpt lat="45.2924407" lon="8.9686297"><ele>99.0</ele><time>2026-04-19T08:12:47.576Z</time></trkpt><trkpt lat="45.2924463" lon="8.9687609"><ele>99.0</ele><time>2026-04-19T08:12:50.57Z</time></trkpt><trkpt lat="45.292455" lon="8.9688627"><ele>99.0</ele><time>2026-04-19T08:12:52.571Z</time></trkpt><trkpt lat="45.2924602" lon="8.9689841"><ele>99.0</ele><time>2026-04-19T08:12:54.574Z</time></trkpt><trkpt lat="45.2924638" lon="8.9690798"><ele>99.0</ele><time>2026-04-19T08:12:56.577Z</time></trkpt><trkpt lat="45.2924692" lon="8.9692146"><ele>99.66666666666667</ele><time>2026-04-19T08:12:59.573Z</time></trkpt><trkpt lat="45.2924785" lon="8.9693116"><ele>100.33333333333334</ele><time>2026-04-19T08:13:01.64Z</time></trkpt><trkpt lat="45.2924807" lon="8.9694077"><ele>101.0</ele><time>2026-04-19T08:13:03.577Z</time></trkpt><trkpt lat="45.2924926" lon="8.9695355"><ele>101.66666666666667</ele><time>2026-04-19T08:13:06.579Z</time></trkpt><trkpt lat="45.2924976" lon="8.9696324"><ele>102.33333333333334</ele><time>2026-04-19T08:13:08.585Z</time></trkpt><trkpt lat="45.2924997" lon="8.9697566"><ele>103.0</ele><time>2026-04-19T08:13:11.561Z</time></trkpt><trkpt lat="45.2924588" lon="8.9698817"><ele>103.00000000000001</ele><time>2026-04-19T08:13:14.578Z</time></trkpt><trkpt lat="45.2924048" lon="8.9699281"><ele>103.0</ele><time>2026-04-19T08:13:16.564Z</time></trkpt><trkpt lat="45.2923188" lon="8.9699773"><ele>103.0</ele><time>2026-04-19T08:13:19.579Z</time></trkpt><trkpt lat="45.2922673" lon="8.9700896"><ele>103.0</ele><time>2026-04-19T08:13:22.58Z</time></trkpt><trkpt lat="45.292266" lon="8.9701799"><ele>103.00000000000001</ele><time>2026-04-19T08:13:24.564Z</time></trkpt><trkpt lat="45.292268" lon="8.9702748"><ele>103.0</ele><time>2026-04-19T08:13:26.569Z</time></trkpt><trkpt lat="45.2922707" lon="8.9703785"><ele>102.71428571428571</ele><time>2026-04-19T08:13:28.574Z</time></trkpt><trkpt lat="45.2922774" lon="8.970475"><ele>102.42857142857143</ele><time>2026-04-19T08:13:30.583Z</time></trkpt><trkpt lat="45.292288" lon="8.9705652"><ele>102.14285714285714</ele><time>2026-04-19T08:13:32.559Z</time></trkpt><trkpt lat="45.2922959" lon="8.9706588"><ele>101.85714285714286</ele><time>2026-04-19T08:13:34.571Z</time></trkpt><trkpt lat="45.2923006" lon="8.9707598"><ele>101.57142857142857</ele><time>2026-04-19T08:13:36.568Z</time></trkpt><trkpt lat="45.2923204" lon="8.970861"><ele>101.28571428571428</ele><time>2026-04-19T08:13:38.565Z</time></trkpt><trkpt lat="45.2923255" lon="8.9709671"><ele>101.0</ele><time>2026-04-19T08:13:40.561Z</time></trkpt><trkpt lat="45.2923454" lon="8.9710816"><ele>100.66666666666666</ele><time>2026-04-19T08:13:43.58Z</time></trkpt><trkpt lat="45.292356" lon="8.9711732"><ele>100.33333333333333</ele><time>2026-04-19T08:13:45.57Z</time></trkpt><trkpt lat="45.2923672" lon="8.9712653"><ele>100.0</ele><time>2026-04-19T08:13:47.562Z</time></trkpt><trkpt lat="45.2923831" lon="8.9713744"><ele>99.66666666666666</ele><time>2026-04-19T08:13:50.572Z</time></trkpt><trkpt lat="45.2923899" lon="8.9715108"><ele>99.33333333333333</ele><time>2026-04-19T08:13:53.633Z</time></trkpt><trkpt lat="45.2923573" lon="8.9716102"><ele>99.0</ele><time>2026-04-19T08:13:55.577Z</time></trkpt><trkpt lat="45.2922993" lon="8.9716772"><ele>99.33333333333333</ele><time>2026-04-19T08:13:57.567Z</time></trkpt><trkpt lat="45.2922358" lon="8.9717156"><ele>99.66666666666666</ele><time>2026-04-19T08:13:59.564Z</time></trkpt><trkpt lat="45.2921508" lon="8.9717468"><ele>100.0</ele><time>2026-04-19T08:14:01.558Z</time></trkpt><trkpt lat="45.2920825" lon="8.9717775"><ele>100.33333333333333</ele><time>2026-04-19T08:14:03.623Z</time></trkpt><trkpt lat="45.2920094" lon="8.9718115"><ele>100.66666666666666</ele><time>2026-04-19T08:14:05.597Z</time></trkpt><trkpt lat="45.2919446" lon="8.9718473"><ele>101.0</ele><time>2026-04-19T08:14:07.566Z</time></trkpt><trkpt lat="45.2918702" lon="8.9718732"><ele>101.0</ele><time>2026-04-19T08:14:09.574Z</time></trkpt><trkpt lat="45.2917992" lon="8.971919"><ele>101.0</ele><time>2026-04-19T08:14:11.579Z</time></trkpt><trkpt lat="45.2917264" lon="8.9719869"><ele>101.0</ele><time>2026-04-19T08:14:14.571Z</time></trkpt><trkpt lat="45.2916693" lon="8.9720264"><ele>101.0</ele><time>2026-04-19T08:14:16.634Z</time></trkpt><trkpt lat="45.2916008" lon="8.9720643"><ele>101.0</ele><time>2026-04-19T08:14:18.579Z</time></trkpt><trkpt lat="45.2915364" lon="8.9720952"><ele>101.0</ele><time>2026-04-19T08:14:20.568Z</time></trkpt><trkpt lat="45.2914695" lon="8.9721274"><ele>101.0</ele><time>2026-04-19T08:14:22.573Z</time></trkpt><trkpt lat="45.2913991" lon="8.9721591"><ele>101.28571428571428</ele><time>2026-04-19T08:14:24.569Z</time></trkpt><trkpt lat="45.2913137" lon="8.9721793"><ele>101.57142857142857</ele><time>2026-04-19T08:14:27.566Z</time></trkpt><trkpt lat="45.2912445" lon="8.9721885"><ele>101.85714285714286</ele><time>2026-04-19T08:14:29.571Z</time></trkpt><trkpt lat="45.2911741" lon="8.9721956"><ele>102.14285714285714</ele><time>2026-04-19T08:14:31.566Z</time></trkpt><trkpt lat="45.2911011" lon="8.9722171"><ele>102.42857142857143</ele><time>2026-04-19T08:14:33.58Z</time></trkpt><trkpt lat="45.2910294" lon="8.9722278"><ele>102.71428571428571</ele><time>2026-04-19T08:14:35.563Z</time></trkpt><trkpt lat="45.2909582" lon="8.9722452"><ele>103.0</ele><time>2026-04-19T08:14:37.564Z</time></trkpt><trkpt lat="45.2908933" lon="8.9722586"><ele>103.00000000000001</ele><time>2026-04-19T08:14:39.57Z</time></trkpt><trkpt lat="45.290817" lon="8.9722711"><ele>103.0</ele><time>2026-04-19T08:14:41.568Z</time></trkpt><trkpt lat="45.2907452" lon="8.9722655"><ele>103.0</ele><time>2026-04-19T08:14:43.579Z</time></trkpt><trkpt lat="45.2906634" lon="8.9722452"><ele>103.0</ele><time>2026-04-19T08:14:46.562Z</time></trkpt><trkpt lat="45.2906492" lon="8.9721227"><ele>103.00000000000001</ele><time>2026-04-19T08:14:49.566Z</time></trkpt><trkpt lat="45.2906702" lon="8.9720287"><ele>103.0</ele><time>2026-04-19T08:14:51.583Z</time></trkpt><trkpt lat="45.2906872" lon="8.9719021"><ele>103.00000000000001</ele><time>2026-04-19T08:14:54.572Z</time></trkpt><trkpt lat="45.2906932" lon="8.9718029"><ele>103.0</ele><time>2026-04-19T08:14:56.571Z</time></trkpt><trkpt lat="45.2906846" lon="8.9716946"><ele>103.0</ele><time>2026-04-19T08:14:58.571Z</time></trkpt><trkpt lat="45.2906765" lon="8.9715567"><ele>103.0</ele><time>2026-04-19T08:15:00.566Z</time></trkpt><trkpt lat="45.2906638" lon="8.9714376"><ele>103.00000000000001</ele><time>2026-04-19T08:15:02.575Z</time></trkpt><trkpt lat="45.2906587" lon="8.9713334"><ele>103.0</ele><time>2026-04-19T08:15:04.563Z</time></trkpt><trkpt lat="45.2906507" lon="8.9712446"><ele>102.66666666666667</ele><time>2026-04-19T08:15:06.57Z</time></trkpt><trkpt lat="45.290648" lon="8.9711517"><ele>102.33333333333334</ele><time>2026-04-19T08:15:08.575Z</time></trkpt><trkpt lat="45.2906389" lon="8.9710284"><ele>102.0</ele><time>2026-04-19T08:15:11.571Z</time></trkpt><trkpt lat="45.2906283" lon="8.9709099"><ele>101.66666666666666</ele><time>2026-04-19T08:15:14.568Z</time></trkpt><trkpt lat="45.2906244" lon="8.9707798"><ele>101.33333333333333</ele><time>2026-04-19T08:15:17.569Z</time></trkpt><trkpt lat="45.2906129" lon="8.9706771"><ele>101.0</ele><time>2026-04-19T08:15:19.571Z</time></trkpt><trkpt lat="45.2906011" lon="8.9705708"><ele>100.83333333333333</ele><time>2026-04-19T08:15:21.565Z</time></trkpt><trkpt lat="45.2905806" lon="8.9704432"><ele>100.66666666666666</ele><time>2026-04-19T08:15:23.572Z</time></trkpt><trkpt lat="45.2905768" lon="8.9703114"><ele>100.5</ele><time>2026-04-19T08:15:25.572Z</time></trkpt><trkpt lat="45.2905661" lon="8.9702082"><ele>100.33333333333334</ele><time>2026-04-19T08:15:27.601Z</time></trkpt><trkpt lat="45.2905654" lon="8.970103"><ele>100.16666666666667</ele><time>2026-04-19T08:15:29.566Z</time></trkpt><trkpt lat="45.2905658" lon="8.9699757"><ele>100.0</ele><time>2026-04-19T08:15:32.575Z</time></trkpt><trkpt lat="45.2905671" lon="8.9698819"><ele>99.71428571428572</ele><time>2026-04-19T08:15:34.564Z</time></trkpt><trkpt lat="45.2905637" lon="8.9697884"><ele>99.42857142857143</ele><time>2026-04-19T08:15:36.569Z</time></trkpt><trkpt lat="45.2905512" lon="8.9696572"><ele>99.14285714285714</ele><time>2026-04-19T08:15:39.565Z</time></trkpt><trkpt lat="45.2905487" lon="8.9695592"><ele>98.85714285714286</ele><time>2026-04-19T08:15:41.574Z</time></trkpt><trkpt lat="45.2905395" lon="8.9694623"><ele>98.57142857142857</ele><time>2026-04-19T08:15:43.597Z</time></trkpt><trkpt lat="45.2905292" lon="8.9693665"><ele>98.28571428571429</ele><time>2026-04-19T08:15:45.574Z</time></trkpt><trkpt lat="45.2905194" lon="8.9692693"><ele>98.0</ele><time>2026-04-19T08:15:47.559Z</time></trkpt><trkpt lat="45.2905094" lon="8.969165"><ele>98.0</ele><time>2026-04-19T08:15:49.573Z</time></trkpt><trkpt lat="45.2904983" lon="8.9690522"><ele>98.0</ele><time>2026-04-19T08:15:51.571Z</time></trkpt><trkpt lat="45.2904737" lon="8.9689279"><ele>98.0</ele><time>2026-04-19T08:15:53.573Z</time></trkpt><trkpt lat="45.2904637" lon="8.968837"><ele>98.0</ele><time>2026-04-19T08:15:55.571Z</time></trkpt><trkpt lat="45.2904186" lon="8.9687693"><ele>98.0</ele><time>2026-04-19T08:15:58.562Z</time></trkpt><trkpt lat="45.2903571" lon="8.9687919"><ele>98.0</ele><time>2026-04-19T08:16:00.564Z</time></trkpt><trkpt lat="45.2902977" lon="8.9688227"><ele>98.0</ele><time>2026-04-19T08:16:02.571Z</time></trkpt><trkpt lat="45.2902192" lon="8.9688335"><ele>97.99999999999999</ele><time>2026-04-19T08:16:05.567Z</time></trkpt><trkpt lat="45.2901556" lon="8.9688289"><ele>98.0</ele><time>2026-04-19T08:16:08.57Z</time></trkpt><trkpt lat="45.2901043" lon="8.9687677"><ele>98.0</ele><time>2026-04-19T08:16:13.564Z</time></trkpt><trkpt lat="45.2900804" lon="8.9686465"><ele>98.0</ele><time>2026-04-19T08:16:16.627Z</time></trkpt><trkpt lat="45.2900598" lon="8.9685475"><ele>97.99999999999999</ele><time>2026-04-19T08:16:18.569Z</time></trkpt><trkpt lat="45.2900499" lon="8.9684522"><ele>98.0</ele><time>2026-04-19T08:16:20.57Z</time></trkpt><trkpt lat="45.2900633" lon="8.9683235"><ele>98.16666666666666</ele><time>2026-04-19T08:16:23.58Z</time></trkpt><trkpt lat="45.2900688" lon="8.9682204"><ele>98.33333333333333</ele><time>2026-04-19T08:16:25.569Z</time></trkpt><trkpt lat="45.2900711" lon="8.9681061"><ele>98.5</ele><time>2026-04-19T08:16:27.574Z</time></trkpt><trkpt lat="45.2900594" lon="8.967999"><ele>98.66666666666666</ele><time>2026-04-19T08:16:29.564Z</time></trkpt><trkpt lat="45.2900359" lon="8.9678752"><ele>98.83333333333333</ele><time>2026-04-19T08:16:31.573Z</time></trkpt><trkpt lat="45.2900087" lon="8.9677448"><ele>99.0</ele><time>2026-04-19T08:16:33.581Z</time></trkpt><trkpt lat="45.2900022" lon="8.9676123"><ele>99.33333333333333</ele><time>2026-04-19T08:16:35.567Z</time></trkpt><trkpt lat="45.2899914" lon="8.967485"><ele>99.66666666666666</ele><time>2026-04-19T08:16:37.568Z</time></trkpt><trkpt lat="45.2899718" lon="8.9673507"><ele>100.0</ele><time>2026-04-19T08:16:39.561Z</time></trkpt><trkpt lat="45.2899629" lon="8.9672214"><ele>100.33333333333333</ele><time>2026-04-19T08:16:41.566Z</time></trkpt><trkpt lat="45.2899505" lon="8.9670957"><ele>100.66666666666666</ele><time>2026-04-19T08:16:43.627Z</time></trkpt><trkpt lat="45.2899253" lon="8.9669851"><ele>101.0</ele><time>2026-04-19T08:16:45.603Z</time></trkpt><trkpt lat="45.2898951" lon="8.9668715"><ele>101.0</ele><time>2026-04-19T08:16:47.575Z</time></trkpt><trkpt lat="45.2898786" lon="8.9667743"><ele>101.0</ele><time>2026-04-19T08:16:49.572Z</time></trkpt><trkpt lat="45.2898525" lon="8.9666927"><ele>101.0</ele><time>2026-04-19T08:16:51.581Z</time></trkpt><trkpt lat="45.2898192" lon="8.9666148"><ele>101.0</ele><time>2026-04-19T08:16:54.569Z</time></trkpt><trkpt lat="45.289809" lon="8.9665169"><ele>101.0</ele><time>2026-04-19T08:17:15.564Z</time></trkpt><trkpt lat="45.2897991" lon="8.9664119"><ele>101.0</ele><time>2026-04-19T08:17:18.569Z</time></trkpt><trkpt lat="45.2897862" lon="8.9663128"><ele>101.0</ele><time>2026-04-19T08:17:21.571Z</time></trkpt><trkpt lat="45.2897749" lon="8.9661907"><ele>100.33333333333333</ele><time>2026-04-19T08:17:24.571Z</time></trkpt><trkpt lat="45.2897823" lon="8.9660963"><ele>99.66666666666666</ele><time>2026-04-19T08:17:26.574Z</time></trkpt><trkpt lat="45.2897899" lon="8.9659697"><ele>99.0</ele><time>2026-04-19T08:17:29.562Z</time></trkpt><trkpt lat="45.289783" lon="8.9658772"><ele>98.33333333333334</ele><time>2026-04-19T08:17:31.568Z</time></trkpt><trkpt lat="45.2897655" lon="8.9657683"><ele>97.66666666666667</ele><time>2026-04-19T08:17:34.566Z</time></trkpt><trkpt lat="45.2897388" lon="8.9656459"><ele>97.0</ele><time>2026-04-19T08:17:37.57Z</time></trkpt><trkpt lat="45.2897361" lon="8.9655419"><ele>94.8</ele><time>2026-04-19T08:17:40.578Z</time></trkpt><trkpt lat="45.2897257" lon="8.9653292"><ele>92.6</ele><time>2026-04-19T08:17:51.571Z</time></trkpt><trkpt lat="45.2896901" lon="8.9652261"><ele>90.39999999999999</ele><time>2026-04-19T08:17:58.569Z</time></trkpt><trkpt lat="45.2896247" lon="8.9651595"><ele>88.19999999999999</ele><time>2026-04-19T08:18:02.564Z</time></trkpt><trkpt lat="45.2896146" lon="8.9650496"><ele>86.0</ele><time>2026-04-19T08:18:06.57Z</time></trkpt><trkpt lat="45.2896244" lon="8.9649388"><ele>85.5</ele><time>2026-04-19T08:18:10.57Z</time></trkpt><trkpt lat="45.2896035" lon="8.9648272"><ele>85.0</ele><time>2026-04-19T08:18:13.567Z</time></trkpt><trkpt lat="45.2895718" lon="8.9647331"><ele>84.5</ele><time>2026-04-19T08:18:16.575Z</time></trkpt><trkpt lat="45.2895384" lon="8.9646397"><ele>84.0</ele><time>2026-04-19T08:18:19.565Z</time></trkpt><trkpt lat="45.289508" lon="8.9645429"><ele>83.5</ele><time>2026-04-19T08:18:22.568Z</time></trkpt><trkpt lat="45.2894712" lon="8.9644554"><ele>83.0</ele><time>2026-04-19T08:18:25.568Z</time></trkpt><trkpt lat="45.2894452" lon="8.9643467"><ele>83.0</ele><time>2026-04-19T08:18:28.568Z</time></trkpt><trkpt lat="45.289407" lon="8.9642381"><ele>83.0</ele><time>2026-04-19T08:18:31.563Z</time></trkpt><trkpt lat="45.2893687" lon="8.9641358"><ele>83.0</ele><time>2026-04-19T08:18:34.569Z</time></trkpt><trkpt lat="45.2893352" lon="8.9640397"><ele>83.0</ele><time>2026-04-19T08:18:37.594Z</time></trkpt><trkpt lat="45.2892535" lon="8.9640577"><ele>83.0</ele><time>2026-04-19T08:18:41.556Z</time></trkpt><trkpt lat="45.2891826" lon="8.9640961"><ele>83.0</ele><time>2026-04-19T08:18:44.564Z</time></trkpt><trkpt lat="45.2890995" lon="8.9641494"><ele>83.0</ele><time>2026-04-19T08:18:47.561Z</time></trkpt><trkpt lat="45.2890329" lon="8.9642062"><ele>83.0</ele><time>2026-04-19T08:18:49.574Z</time></trkpt><trkpt lat="45.288972" lon="8.9642512"><ele>83.0</ele><time>2026-04-19T08:18:51.6Z</time></trkpt><trkpt lat="45.2889073" lon="8.9642851"><ele>83.0</ele><time>2026-04-19T08:18:53.566Z</time></trkpt><trkpt lat="45.2888411" lon="8.9643276"><ele>83.0</ele><time>2026-04-19T08:18:55.564Z</time></trkpt><trkpt lat="45.2887775" lon="8.9643636"><ele>83.0</ele><time>2026-04-19T08:18:57.569Z</time></trkpt><trkpt lat="45.2887087" lon="8.9644021"><ele>83.0</ele><time>2026-04-19T08:18:59.57Z</time></trkpt><trkpt lat="45.2886242" lon="8.9644485"><ele>82.71428571428571</ele><time>2026-04-19T08:19:02.572Z</time></trkpt><trkpt lat="45.2885633" lon="8.9644803"><ele>82.42857142857143</ele><time>2026-04-19T08:19:04.641Z</time></trkpt><trkpt lat="45.2884933" lon="8.9645158"><ele>82.14285714285714</ele><time>2026-04-19T08:19:06.581Z</time></trkpt><trkpt lat="45.2884272" lon="8.9645577"><ele>81.85714285714286</ele><time>2026-04-19T08:19:08.569Z</time></trkpt><trkpt lat="45.2883635" lon="8.9645971"><ele>81.57142857142857</ele><time>2026-04-19T08:19:10.572Z</time></trkpt><trkpt lat="45.2882847" lon="8.9646681"><ele>81.28571428571429</ele><time>2026-04-19T08:19:13.564Z</time></trkpt><trkpt lat="45.2882257" lon="8.964708"><ele>81.0</ele><time>2026-04-19T08:19:15.567Z</time></trkpt><trkpt lat="45.2881623" lon="8.9647517"><ele>81.0</ele><time>2026-04-19T08:19:17.639Z</time></trkpt><trkpt lat="45.2880965" lon="8.9647925"><ele>81.0</ele><time>2026-04-19T08:19:19.583Z</time></trkpt><trkpt lat="45.2880299" lon="8.9648404"><ele>81.0</ele><time>2026-04-19T08:19:21.574Z</time></trkpt><trkpt lat="45.2879651" lon="8.9648763"><ele>81.0</ele><time>2026-04-19T08:19:23.568Z</time></trkpt><trkpt lat="45.2879013" lon="8.9649145"><ele>81.0</ele><time>2026-04-19T08:19:25.566Z</time></trkpt><trkpt lat="45.2878269" lon="8.9649448"><ele>81.0</ele><time>2026-04-19T08:19:27.572Z</time></trkpt><trkpt lat="45.2877304" lon="8.964968"><ele>80.85714285714286</ele><time>2026-04-19T08:19:29.566Z</time></trkpt><trkpt lat="45.2876579" lon="8.9649826"><ele>80.71428571428571</ele><time>2026-04-19T08:19:31.569Z</time></trkpt><trkpt lat="45.2875861" lon="8.9649893"><ele>80.57142857142857</ele><time>2026-04-19T08:19:33.639Z</time></trkpt><trkpt lat="45.2875163" lon="8.9649945"><ele>80.42857142857143</ele><time>2026-04-19T08:19:35.569Z</time></trkpt><trkpt lat="45.2874467" lon="8.9650104"><ele>80.28571428571429</ele><time>2026-04-19T08:19:37.572Z</time></trkpt><trkpt lat="45.2873751" lon="8.9650145"><ele>80.14285714285714</ele><time>2026-04-19T08:19:39.57Z</time></trkpt><trkpt lat="45.2873061" lon="8.9650061"><ele>80.0</ele><time>2026-04-19T08:19:41.562Z</time></trkpt><trkpt lat="45.2872223" lon="8.9649992"><ele>79.2</ele><time>2026-04-19T08:19:43.571Z</time></trkpt><trkpt lat="45.2871541" lon="8.9649872"><ele>78.4</ele><time>2026-04-19T08:19:44.567Z</time></trkpt><trkpt lat="45.2870571" lon="8.9650059"><ele>77.6</ele><time>2026-04-19T08:19:46.562Z</time></trkpt><trkpt lat="45.2869472" lon="8.9650199"><ele>76.8</ele><time>2026-04-19T08:19:48.565Z</time></trkpt><trkpt lat="45.2868318" lon="8.9650291"><ele>76.0</ele><time>2026-04-19T08:19:50.569Z</time></trkpt><trkpt lat="45.2867069" lon="8.9650184"><ele>76.0</ele><time>2026-04-19T08:19:52.572Z</time></trkpt><trkpt lat="45.2866448" lon="8.965"><ele>76.0</ele><time>2026-04-19T08:19:53.573Z</time></trkpt><trkpt lat="45.2865553" lon="8.9649454"><ele>76.0</ele><time>2026-04-19T08:19:55.57Z</time></trkpt><trkpt lat="45.2864445" lon="8.9648764"><ele>76.0</ele><time>2026-04-19T08:19:57.57Z</time></trkpt><trkpt lat="45.286332" lon="8.964814"><ele>76.0</ele><time>2026-04-19T08:19:59.576Z</time></trkpt><trkpt lat="45.2862226" lon="8.9647666"><ele>75.39999999999999</ele><time>2026-04-19T08:20:01.579Z</time></trkpt><trkpt lat="45.2861227" lon="8.9647088"><ele>74.8</ele><time>2026-04-19T08:20:03.569Z</time></trkpt><trkpt lat="45.2860249" lon="8.9646312"><ele>74.19999999999999</ele><time>2026-04-19T08:20:05.575Z</time></trkpt><trkpt lat="45.2859292" lon="8.9645608"><ele>73.6</ele><time>2026-04-19T08:20:07.568Z</time></trkpt><trkpt lat="45.2858545" lon="8.9645145"><ele>73.0</ele><time>2026-04-19T08:20:09.564Z</time></trkpt><trkpt lat="45.2857857" lon="8.9644762"><ele>73.0</ele><time>2026-04-19T08:20:11.562Z</time></trkpt><trkpt lat="45.2857249" lon="8.9644191"><ele>73.0</ele><time>2026-04-19T08:20:13.573Z</time></trkpt><trkpt lat="45.2856556" lon="8.9643702"><ele>73.0</ele><time>2026-04-19T08:20:15.565Z</time></trkpt><trkpt lat="45.2855901" lon="8.9643144"><ele>73.0</ele><time>2026-04-19T08:20:17.569Z</time></trkpt><trkpt lat="45.2855183" lon="8.9642775"><ele>73.0</ele><time>2026-04-19T08:20:19.569Z</time></trkpt><trkpt lat="45.2854391" lon="8.9641969"><ele>73.0</ele><time>2026-04-19T08:20:22.566Z</time></trkpt><trkpt lat="45.2853534" lon="8.9641729"><ele>73.42857142857143</ele><time>2026-04-19T08:20:25.578Z</time></trkpt><trkpt lat="45.2852828" lon="8.9641659"><ele>73.85714285714286</ele><time>2026-04-19T08:20:28.57Z</time></trkpt><trkpt lat="45.2852056" lon="8.9641576"><ele>74.28571428571428</ele><time>2026-04-19T08:20:31.573Z</time></trkpt><trkpt lat="45.2851424" lon="8.964171"><ele>74.71428571428572</ele><time>2026-04-19T08:20:33.572Z</time></trkpt><trkpt lat="45.285083" lon="8.9642019"><ele>75.14285714285715</ele><time>2026-04-19T08:20:35.566Z</time></trkpt><trkpt lat="45.285006" lon="8.9642721"><ele>75.57142857142857</ele><time>2026-04-19T08:20:38.569Z</time></trkpt><trkpt lat="45.2849521" lon="8.9643348"><ele>76.0</ele><time>2026-04-19T08:20:40.622Z</time></trkpt><trkpt lat="45.2848979" lon="8.9643812"><ele>76.0</ele><time>2026-04-19T08:20:42.583Z</time></trkpt><trkpt lat="45.2848388" lon="8.9644138"><ele>76.0</ele><time>2026-04-19T08:20:44.57Z</time></trkpt><trkpt lat="45.2847836" lon="8.9644621"><ele>76.0</ele><time>2026-04-19T08:20:46.567Z</time></trkpt><trkpt lat="45.2847104" lon="8.9645389"><ele>76.0</ele><time>2026-04-19T08:20:49.564Z</time></trkpt><trkpt lat="45.2846568" lon="8.96461"><ele>76.0</ele><time>2026-04-19T08:20:51.571Z</time></trkpt><trkpt lat="45.2845917" lon="8.9646759"><ele>76.0</ele><time>2026-04-19T08:20:53.563Z</time></trkpt><trkpt lat="45.2845164" lon="8.9647245"><ele>75.66666666666666</ele><time>2026-04-19T08:20:55.564Z</time></trkpt><trkpt lat="45.2844685" lon="8.964791"><ele>75.33333333333333</ele><time>2026-04-19T08:20:57.567Z</time></trkpt><trkpt lat="45.2844161" lon="8.9648794"><ele>75.0</ele><time>2026-04-19T08:20:59.564Z</time></trkpt><trkpt lat="45.2843847" lon="8.9649711"><ele>74.66666666666667</ele><time>2026-04-19T08:21:00.57Z</time></trkpt><trkpt lat="45.284314" lon="8.9650673"><ele>74.33333333333334</ele><time>2026-04-19T08:21:02.574Z</time></trkpt><trkpt lat="45.2842538" lon="8.9651617"><ele>74.0</ele><time>2026-04-19T08:21:04.624Z</time></trkpt><trkpt lat="45.2842152" lon="8.9652403"><ele>74.0</ele><time>2026-04-19T08:21:06.634Z</time></trkpt><trkpt lat="45.2841687" lon="8.9653125"><ele>74.0</ele><time>2026-04-19T08:21:08.566Z</time></trkpt><trkpt lat="45.2841369" lon="8.9654162"><ele>74.0</ele><time>2026-04-19T08:21:10.565Z</time></trkpt><trkpt lat="45.2841083" lon="8.9655052"><ele>74.0</ele><time>2026-04-19T08:21:12.562Z</time></trkpt><trkpt lat="45.284068" lon="8.965591"><ele>74.0</ele><time>2026-04-19T08:21:14.571Z</time></trkpt><trkpt lat="45.2840365" lon="8.9656846"><ele>74.0</ele><time>2026-04-19T08:21:16.576Z</time></trkpt><trkpt lat="45.2839848" lon="8.9657827"><ele>74.0</ele><time>2026-04-19T08:21:18.559Z</time></trkpt><trkpt lat="45.2839524" lon="8.9658749"><ele>73.85714285714286</ele><time>2026-04-19T08:21:20.571Z</time></trkpt><trkpt lat="45.2838979" lon="8.9659545"><ele>73.71428571428571</ele><time>2026-04-19T08:21:22.564Z</time></trkpt><trkpt lat="45.2838422" lon="8.9660034"><ele>73.57142857142857</ele><time>2026-04-19T08:21:24.571Z</time></trkpt><trkpt lat="45.2837847" lon="8.9660461"><ele>73.42857142857143</ele><time>2026-04-19T08:21:26.567Z</time></trkpt><trkpt lat="45.2837306" lon="8.9660996"><ele>73.28571428571429</ele><time>2026-04-19T08:21:28.564Z</time></trkpt><trkpt lat="45.2836599" lon="8.9661823"><ele>73.14285714285714</ele><time>2026-04-19T08:21:31.563Z</time></trkpt><trkpt lat="45.2836024" lon="8.9662553"><ele>73.0</ele><time>2026-04-19T08:21:34.561Z</time></trkpt><trkpt lat="45.2835467" lon="8.9663221"><ele>73.0</ele><time>2026-04-19T08:21:36.571Z</time></trkpt><trkpt lat="45.283495" lon="8.9664238"><ele>73.0</ele><time>2026-04-19T08:21:39.567Z</time></trkpt><trkpt lat="45.2834881" lon="8.9665219"><ele>73.0</ele><time>2026-04-19T08:21:41.564Z</time></trkpt><trkpt lat="45.2834963" lon="8.9666242"><ele>73.0</ele><time>2026-04-19T08:21:44.57Z</time></trkpt><trkpt lat="45.2834464" lon="8.9666946"><ele>73.0</ele><time>2026-04-19T08:21:54.582Z</time></trkpt><trkpt lat="45.2834149" lon="8.9667785"><ele>73.0</ele><time>2026-04-19T08:21:57.572Z</time></trkpt><trkpt lat="45.2833977" lon="8.9669132"><ele>73.66666666666666</ele><time>2026-04-19T08:22:00.631Z</time></trkpt><trkpt lat="45.2833718" lon="8.9670189"><ele>74.33333333333333</ele><time>2026-04-19T08:22:03.577Z</time></trkpt><trkpt lat="45.2833251" lon="8.9671168"><ele>75.0</ele><time>2026-04-19T08:22:06.578Z</time></trkpt><trkpt lat="45.2832937" lon="8.9672284"><ele>75.66666666666667</ele><time>2026-04-19T08:22:09.569Z</time></trkpt><trkpt lat="45.2832576" lon="8.9673151"><ele>76.33333333333334</ele><time>2026-04-19T08:22:12.565Z</time></trkpt><trkpt lat="45.2831933" lon="8.9673948"><ele>77.0</ele><time>2026-04-19T08:22:15.595Z</time></trkpt><trkpt lat="45.2831536" lon="8.9674992"><ele>77.0</ele><time>2026-04-19T08:22:19.558Z</time></trkpt><trkpt lat="45.2831345" lon="8.9675902"><ele>77.0</ele><time>2026-04-19T08:22:21.569Z</time></trkpt><trkpt lat="45.2831144" lon="8.9676783"><ele>77.0</ele><time>2026-04-19T08:22:23.562Z</time></trkpt><trkpt lat="45.2830697" lon="8.9677602"><ele>77.0</ele><time>2026-04-19T08:22:25.572Z</time></trkpt><trkpt lat="45.2829856" lon="8.9678042"><ele>77.0</ele><time>2026-04-19T08:22:28.571Z</time></trkpt><trkpt lat="45.2829394" lon="8.9678658"><ele>77.0</ele><time>2026-04-19T08:22:30.565Z</time></trkpt><trkpt lat="45.2829104" lon="8.9679511"><ele>77.0</ele><time>2026-04-19T08:22:32.561Z</time></trkpt><trkpt lat="45.2828768" lon="8.9680693"><ele>77.0</ele><time>2026-04-19T08:22:35.562Z</time></trkpt><trkpt lat="45.2828474" lon="8.9681492"><ele>77.0</ele><time>2026-04-19T08:22:37.57Z</time></trkpt><trkpt lat="45.2827797" lon="8.9682143"><ele>77.0</ele><time>2026-04-19T08:22:40.572Z</time></trkpt><trkpt lat="45.2827338" lon="8.9683138"><ele>77.0</ele><time>2026-04-19T08:22:42.568Z</time></trkpt><trkpt lat="45.2826765" lon="8.968391"><ele>77.0</ele><time>2026-04-19T08:22:45.567Z</time></trkpt><trkpt lat="45.2826159" lon="8.968463"><ele>77.0</ele><time>2026-04-19T08:22:47.569Z</time></trkpt><trkpt lat="45.2825317" lon="8.9685313"><ele>77.0</ele><time>2026-04-19T08:22:49.582Z</time></trkpt><trkpt lat="45.2824644" lon="8.9685967"><ele>77.0</ele><time>2026-04-19T08:22:52.567Z</time></trkpt><trkpt lat="45.2824382" lon="8.9686923"><ele>77.0</ele><time>2026-04-19T08:22:54.581Z</time></trkpt><trkpt lat="45.2823843" lon="8.9687689"><ele>77.0</ele><time>2026-04-19T08:22:59.564Z</time></trkpt><trkpt lat="45.2823395" lon="8.9688495"><ele>77.0</ele><time>2026-04-19T08:23:02.567Z</time></trkpt><trkpt lat="45.2822584" lon="8.9689176"><ele>77.0</ele><time>2026-04-19T08:23:05.634Z</time></trkpt><trkpt lat="45.2821983" lon="8.9689802"><ele>76.33333333333334</ele><time>2026-04-19T08:23:08.569Z</time></trkpt><trkpt lat="45.2821269" lon="8.9690428"><ele>75.66666666666667</ele><time>2026-04-19T08:23:11.561Z</time></trkpt><trkpt lat="45.2820562" lon="8.9690684"><ele>75.0</ele><time>2026-04-19T08:23:14.565Z</time></trkpt><trkpt lat="45.2820034" lon="8.9691303"><ele>74.33333333333333</ele><time>2026-04-19T08:23:17.596Z</time></trkpt><trkpt lat="45.2819489" lon="8.9692654"><ele>73.66666666666666</ele><time>2026-04-19T08:23:20.563Z</time></trkpt><trkpt lat="45.2819474" lon="8.9693734"><ele>73.0</ele><time>2026-04-19T08:23:22.561Z</time></trkpt><trkpt lat="45.2819198" lon="8.9694991"><ele>73.0</ele><time>2026-04-19T08:23:25.57Z</time></trkpt><trkpt lat="45.281838" lon="8.9695695"><ele>73.0</ele><time>2026-04-19T08:23:28.578Z</time></trkpt><trkpt lat="45.2817752" lon="8.9695895"><ele>73.0</ele><time>2026-04-19T08:23:30.566Z</time></trkpt><trkpt lat="45.281719" lon="8.9696662"><ele>73.0</ele><time>2026-04-19T08:23:33.562Z</time></trkpt><trkpt lat="45.2816851" lon="8.9697598"><ele>73.0</ele><time>2026-04-19T08:23:35.567Z</time></trkpt><trkpt lat="45.2816744" lon="8.9698539"><ele>73.0</ele><time>2026-04-19T08:23:37.57Z</time></trkpt><trkpt lat="45.2816566" lon="8.9699399"><ele>73.0</ele><time>2026-04-19T08:23:39.56Z</time></trkpt><trkpt lat="45.2816446" lon="8.9700584"><ele>73.16666666666666</ele><time>2026-04-19T08:23:42.572Z</time></trkpt><trkpt lat="45.2816197" lon="8.9701653"><ele>73.33333333333333</ele><time>2026-04-19T08:23:45.565Z</time></trkpt><trkpt lat="45.2815706" lon="8.9702821"><ele>73.5</ele><time>2026-04-19T08:23:48.568Z</time></trkpt><trkpt lat="45.2815351" lon="8.9703816"><ele>73.66666666666667</ele><time>2026-04-19T08:23:50.565Z</time></trkpt><trkpt lat="45.2815086" lon="8.9704836"><ele>73.83333333333334</ele><time>2026-04-19T08:23:52.564Z</time></trkpt><trkpt lat="45.2814524" lon="8.9705466"><ele>74.0</ele><time>2026-04-19T08:23:54.564Z</time></trkpt><trkpt lat="45.2813952" lon="8.9706431"><ele>74.0</ele><time>2026-04-19T08:23:57.562Z</time></trkpt><trkpt lat="45.2813359" lon="8.9707282"><ele>74.0</ele><time>2026-04-19T08:23:59.577Z</time></trkpt><trkpt lat="45.2813118" lon="8.9708286"><ele>74.0</ele><time>2026-04-19T08:24:02.569Z</time></trkpt><trkpt lat="45.2812504" lon="8.9708936"><ele>74.0</ele><time>2026-04-19T08:24:04.568Z</time></trkpt><trkpt lat="45.2811832" lon="8.970964"><ele>74.0</ele><time>2026-04-19T08:24:06.57Z</time></trkpt><trkpt lat="45.281122" lon="8.9710346"><ele>74.0</ele><time>2026-04-19T08:24:08.56Z</time></trkpt><trkpt lat="45.2810553" lon="8.9711161"><ele>74.0</ele><time>2026-04-19T08:24:11.56Z</time></trkpt><trkpt lat="45.2809953" lon="8.9711726"><ele>74.0</ele><time>2026-04-19T08:24:13.564Z</time></trkpt><trkpt lat="45.2809401" lon="8.9712326"><ele>74.0</ele><time>2026-04-19T08:24:15.559Z</time></trkpt><trkpt lat="45.280882" lon="8.9713339"><ele>74.0</ele><time>2026-04-19T08:24:18.566Z</time></trkpt><trkpt lat="45.2808479" lon="8.9714282"><ele>74.0</ele><time>2026-04-19T08:24:20.567Z</time></trkpt><trkpt lat="45.280839" lon="8.9715482"><ele>74.0</ele><time>2026-04-19T08:24:23.568Z</time></trkpt><trkpt lat="45.2808394" lon="8.9716429"><ele>73.66666666666667</ele><time>2026-04-19T08:24:25.568Z</time></trkpt><trkpt lat="45.2808523" lon="8.9717429"><ele>73.33333333333334</ele><time>2026-04-19T08:24:27.585Z</time></trkpt><trkpt lat="45.2808873" lon="8.9718292"><ele>73.0</ele><time>2026-04-19T08:24:30.567Z</time></trkpt><trkpt lat="45.2808725" lon="8.9719377"><ele>72.66666666666667</ele><time>2026-04-19T08:24:33.558Z</time></trkpt><trkpt lat="45.2808179" lon="8.9720679"><ele>72.33333333333333</ele><time>2026-04-19T08:24:35.56Z</time></trkpt><trkpt lat="45.2807565" lon="8.9721378"><ele>72.0</ele><time>2026-04-19T08:24:37.566Z</time></trkpt><trkpt lat="45.2806714" lon="8.9721819"><ele>71.83333333333333</ele><time>2026-04-19T08:24:40.559Z</time></trkpt><trkpt lat="45.2805901" lon="8.9722398"><ele>71.66666666666667</ele><time>2026-04-19T08:24:43.569Z</time></trkpt><trkpt lat="45.2805329" lon="8.972286"><ele>71.5</ele><time>2026-04-19T08:24:45.559Z</time></trkpt><trkpt lat="45.2804712" lon="8.9723296"><ele>71.33333333333334</ele><time>2026-04-19T08:24:47.571Z</time></trkpt><trkpt lat="45.280401" lon="8.9723599"><ele>71.16666666666667</ele><time>2026-04-19T08:24:49.554Z</time></trkpt><trkpt lat="45.2803185" lon="8.972394"><ele>71.0</ele><time>2026-04-19T08:24:52.56Z</time></trkpt><trkpt lat="45.280238" lon="8.9724319"><ele>70.71428571428571</ele><time>2026-04-19T08:24:57.562Z</time></trkpt><trkpt lat="45.2802002" lon="8.9725238"><ele>70.42857142857142</ele><time>2026-04-19T08:25:00.559Z</time></trkpt><trkpt lat="45.2802044" lon="8.9726269"><ele>70.14285714285714</ele><time>2026-04-19T08:25:02.559Z</time></trkpt><trkpt lat="45.2802046" lon="8.9727291"><ele>69.85714285714286</ele><time>2026-04-19T08:25:04.571Z</time></trkpt><trkpt lat="45.2802171" lon="8.9728548"><ele>69.57142857142858</ele><time>2026-04-19T08:25:07.572Z</time></trkpt><trkpt lat="45.2802494" lon="8.9729389"><ele>69.28571428571429</ele><time>2026-04-19T08:25:09.567Z</time></trkpt><trkpt lat="45.2802697" lon="8.9730264"><ele>69.0</ele><time>2026-04-19T08:25:11.567Z</time></trkpt><trkpt lat="45.2802911" lon="8.9731142"><ele>69.0</ele><time>2026-04-19T08:25:13.561Z</time></trkpt><trkpt lat="45.280303" lon="8.9732049"><ele>69.0</ele><time>2026-04-19T08:25:16.563Z</time></trkpt><trkpt lat="45.2802855" lon="8.9733128"><ele>69.0</ele><time>2026-04-19T08:25:20.577Z</time></trkpt><trkpt lat="45.2802276" lon="8.9734032"><ele>69.0</ele><time>2026-04-19T08:25:23.559Z</time></trkpt><trkpt lat="45.2801735" lon="8.9734536"><ele>69.0</ele><time>2026-04-19T08:25:25.567Z</time></trkpt><trkpt lat="45.2800928" lon="8.9735143"><ele>69.0</ele><time>2026-04-19T08:25:28.629Z</time></trkpt><trkpt lat="45.2800195" lon="8.9735913"><ele>69.42857142857143</ele><time>2026-04-19T08:25:31.626Z</time></trkpt><trkpt lat="45.279968" lon="8.9736889"><ele>69.85714285714286</ele><time>2026-04-19T08:25:34.565Z</time></trkpt><trkpt lat="45.2799369" lon="8.9737699"><ele>70.28571428571429</ele><time>2026-04-19T08:25:36.562Z</time></trkpt><trkpt lat="45.2799039" lon="8.9738594"><ele>70.71428571428572</ele><time>2026-04-19T08:25:38.563Z</time></trkpt><trkpt lat="45.2798705" lon="8.9739385"><ele>71.14285714285714</ele><time>2026-04-19T08:25:40.571Z</time></trkpt><trkpt lat="45.2798321" lon="8.9740109"><ele>71.57142857142858</ele><time>2026-04-19T08:25:42.566Z</time></trkpt><trkpt lat="45.2798053" lon="8.9741388"><ele>72.0</ele><time>2026-04-19T08:25:45.569Z</time></trkpt><trkpt lat="45.2798368" lon="8.9742467"><ele>72.28571428571429</ele><time>2026-04-19T08:25:47.588Z</time></trkpt><trkpt lat="45.2798565" lon="8.974332"><ele>72.57142857142857</ele><time>2026-04-19T08:25:49.572Z</time></trkpt><trkpt lat="45.2798794" lon="8.9744296"><ele>72.85714285714286</ele><time>2026-04-19T08:25:51.561Z</time></trkpt><trkpt lat="45.2798899" lon="8.9745244"><ele>73.14285714285714</ele><time>2026-04-19T08:25:53.572Z</time></trkpt><trkpt lat="45.2799" lon="8.9746353"><ele>73.42857142857143</ele><time>2026-04-19T08:25:56.565Z</time></trkpt><trkpt lat="45.2799079" lon="8.9747558"><ele>73.71428571428572</ele><time>2026-04-19T08:25:59.559Z</time></trkpt><trkpt lat="45.2798944" lon="8.9748476"><ele>74.0</ele><time>2026-04-19T08:26:01.567Z</time></trkpt><trkpt lat="45.2798681" lon="8.9749356"><ele>73.66666666666667</ele><time>2026-04-19T08:26:03.56Z</time></trkpt><trkpt lat="45.2798466" lon="8.9750249"><ele>73.33333333333334</ele><time>2026-04-19T08:26:05.564Z</time></trkpt><trkpt lat="45.2798256" lon="8.9751463"><ele>73.0</ele><time>2026-04-19T08:26:08.57Z</time></trkpt><trkpt lat="45.2797951" lon="8.975257"><ele>72.66666666666667</ele><time>2026-04-19T08:26:11.576Z</time></trkpt><trkpt lat="45.2797718" lon="8.9753738"><ele>72.33333333333333</ele><time>2026-04-19T08:26:14.566Z</time></trkpt><trkpt lat="45.2797457" lon="8.9754847"><ele>72.0</ele><time>2026-04-19T08:26:17.563Z</time></trkpt><trkpt lat="45.2797062" lon="8.9755764"><ele>72.0</ele><time>2026-04-19T08:26:19.628Z</time></trkpt><trkpt lat="45.2796723" lon="8.9756601"><ele>72.0</ele><time>2026-04-19T08:26:21.582Z</time></trkpt><trkpt lat="45.2796507" lon="8.9757541"><ele>72.0</ele><time>2026-04-19T08:26:23.563Z</time></trkpt><trkpt lat="45.2796398" lon="8.9758769"><ele>72.0</ele><time>2026-04-19T08:26:26.566Z</time></trkpt><trkpt lat="45.2796642" lon="8.9759708"><ele>72.0</ele><time>2026-04-19T08:26:28.563Z</time></trkpt><trkpt lat="45.2796982" lon="8.976094"><ele>72.0</ele><time>2026-04-19T08:26:31.567Z</time></trkpt><trkpt lat="45.279734" lon="8.9761757"><ele>73.5</ele><time>2026-04-19T08:26:33.56Z</time></trkpt><trkpt lat="45.2797982" lon="8.9762799"><ele>75.0</ele><time>2026-04-19T08:26:36.568Z</time></trkpt><trkpt lat="45.2798588" lon="8.9763267"><ele>76.5</ele><time>2026-04-19T08:26:38.562Z</time></trkpt><trkpt lat="45.2799433" lon="8.9763942"><ele>78.0</ele><time>2026-04-19T08:26:41.565Z</time></trkpt><trkpt lat="45.2800058" lon="8.976439"><ele>79.5</ele><time>2026-04-19T08:26:44.569Z</time></trkpt><trkpt lat="45.2800576" lon="8.9764956"><ele>81.0</ele><time>2026-04-19T08:26:46.575Z</time></trkpt><trkpt lat="45.2800748" lon="8.9765972"><ele>80.83333333333333</ele><time>2026-04-19T08:26:48.568Z</time></trkpt><trkpt lat="45.280091" lon="8.9766917"><ele>80.66666666666667</ele><time>2026-04-19T08:26:50.563Z</time></trkpt><trkpt lat="45.2801153" lon="8.976787"><ele>80.5</ele><time>2026-04-19T08:26:52.563Z</time></trkpt><trkpt lat="45.2801327" lon="8.9769092"><ele>80.33333333333334</ele><time>2026-04-19T08:26:55.571Z</time></trkpt><trkpt lat="45.2801338" lon="8.976999"><ele>80.16666666666667</ele><time>2026-04-19T08:26:57.568Z</time></trkpt><trkpt lat="45.2800896" lon="8.9771066"><ele>80.0</ele><time>2026-04-19T08:27:00.568Z</time></trkpt><trkpt lat="45.2800284" lon="8.9771618"><ele>80.0</ele><time>2026-04-19T08:27:02.568Z</time></trkpt><trkpt lat="45.2799452" lon="8.9772236"><ele>80.0</ele><time>2026-04-19T08:27:05.564Z</time></trkpt><trkpt lat="45.2798843" lon="8.977253"><ele>80.0</ele><time>2026-04-19T08:27:07.559Z</time></trkpt><trkpt lat="45.2798214" lon="8.9772939"><ele>80.0</ele><time>2026-04-19T08:27:09.57Z</time></trkpt><trkpt lat="45.2797642" lon="8.9773359"><ele>80.0</ele><time>2026-04-19T08:27:11.561Z</time></trkpt><trkpt lat="45.2796873" lon="8.9774112"><ele>80.0</ele><time>2026-04-19T08:27:14.566Z</time></trkpt><trkpt lat="45.279631" lon="8.9774787"><ele>79.0</ele><time>2026-04-19T08:27:16.564Z</time></trkpt><trkpt lat="45.2795538" lon="8.97755"><ele>78.0</ele><time>2026-04-19T08:27:19.574Z</time></trkpt><trkpt lat="45.2794607" lon="8.9776045"><ele>77.0</ele><time>2026-04-19T08:27:22.562Z</time></trkpt><trkpt lat="45.2793921" lon="8.977683"><ele>76.0</ele><time>2026-04-19T08:27:25.565Z</time></trkpt><trkpt lat="45.2793693" lon="8.9777728"><ele>75.0</ele><time>2026-04-19T08:27:27.561Z</time></trkpt><trkpt lat="45.2793726" lon="8.9778728"><ele>74.0</ele><time>2026-04-19T08:27:29.561Z</time></trkpt><trkpt lat="45.2793643" lon="8.9779676"><ele>74.0</ele><time>2026-04-19T08:27:31.558Z</time></trkpt><trkpt lat="45.2793672" lon="8.9780872"><ele>74.0</ele><time>2026-04-19T08:27:33.598Z</time></trkpt><trkpt lat="45.2793524" lon="8.9781944"><ele>74.0</ele><time>2026-04-19T08:27:35.566Z</time></trkpt><trkpt lat="45.2793301" lon="8.9782953"><ele>74.0</ele><time>2026-04-19T08:27:37.566Z</time></trkpt><trkpt lat="45.2792911" lon="8.9783874"><ele>74.0</ele><time>2026-04-19T08:27:39.568Z</time></trkpt><trkpt lat="45.279269" lon="8.9784905"><ele>74.0</ele><time>2026-04-19T08:27:41.62Z</time></trkpt><trkpt lat="45.2792736" lon="8.9786782"><ele>74.33333333333334</ele><time>2026-04-19T08:27:44.564Z</time></trkpt><trkpt lat="45.2792815" lon="8.9787912"><ele>74.66666666666667</ele><time>2026-04-19T08:27:46.564Z</time></trkpt><trkpt lat="45.2792944" lon="8.9788849"><ele>75.0</ele><time>2026-04-19T08:27:48.559Z</time></trkpt><trkpt lat="45.2793047" lon="8.9789923"><ele>75.33333333333333</ele><time>2026-04-19T08:27:51.568Z</time></trkpt><trkpt lat="45.2792781" lon="8.9790828"><ele>75.66666666666666</ele><time>2026-04-19T08:27:54.565Z</time></trkpt><trkpt lat="45.2791967" lon="8.9791662"><ele>76.0</ele><time>2026-04-19T08:27:57.571Z</time></trkpt><trkpt lat="45.2791384" lon="8.9792098"><ele>76.5</ele><time>2026-04-19T08:27:59.58Z</time></trkpt><trkpt lat="45.279066" lon="8.9792589"><ele>77.0</ele><time>2026-04-19T08:28:01.56Z</time></trkpt><trkpt lat="45.2789909" lon="8.9793154"><ele>77.5</ele><time>2026-04-19T08:28:04.574Z</time></trkpt><trkpt lat="45.2789593" lon="8.9794381"><ele>78.0</ele><time>2026-04-19T08:28:07.552Z</time></trkpt><trkpt lat="45.2789601" lon="8.9795343"><ele>78.5</ele><time>2026-04-19T08:28:09.565Z</time></trkpt><trkpt lat="45.278979" lon="8.9796355"><ele>79.0</ele><time>2026-04-19T08:28:11.562Z</time></trkpt><trkpt lat="45.2789911" lon="8.9797602"><ele>79.0</ele><time>2026-04-19T08:28:14.565Z</time></trkpt><trkpt lat="45.2790076" lon="8.9798745"><ele>79.0</ele><time>2026-04-19T08:28:17.563Z</time></trkpt><trkpt lat="45.2790302" lon="8.9799643"><ele>79.0</ele><time>2026-04-19T08:28:19.755Z</time></trkpt><trkpt lat="45.2790629" lon="8.9800543"><ele>79.0</ele><time>2026-04-19T08:28:21.567Z</time></trkpt><trkpt lat="45.2790946" lon="8.9801385"><ele>79.0</ele><time>2026-04-19T08:28:23.565Z</time></trkpt><trkpt lat="45.279127" lon="8.980234"><ele>79.0</ele><time>2026-04-19T08:28:26.564Z</time></trkpt><trkpt lat="45.2791501" lon="8.9803576"><ele>78.66666666666666</ele><time>2026-04-19T08:28:29.566Z</time></trkpt><trkpt lat="45.2791548" lon="8.9804496"><ele>78.33333333333333</ele><time>2026-04-19T08:28:31.572Z</time></trkpt><trkpt lat="45.2791514" lon="8.9805773"><ele>78.0</ele><time>2026-04-19T08:28:34.565Z</time></trkpt><trkpt lat="45.2791263" lon="8.9806821"><ele>77.66666666666667</ele><time>2026-04-19T08:28:37.576Z</time></trkpt><trkpt lat="45.27911" lon="8.9807882"><ele>77.33333333333334</ele><time>2026-04-19T08:28:40.566Z</time></trkpt><trkpt lat="45.2790815" lon="8.9808982"><ele>77.0</ele><time>2026-04-19T08:28:43.567Z</time></trkpt><trkpt lat="45.2790397" lon="8.9809678"><ele>77.0</ele><time>2026-04-19T08:28:45.592Z</time></trkpt><trkpt lat="45.2789861" lon="8.9810211"><ele>77.0</ele><time>2026-04-19T08:28:47.571Z</time></trkpt><trkpt lat="45.2789113" lon="8.9810589"><ele>77.0</ele><time>2026-04-19T08:28:49.56Z</time></trkpt><trkpt lat="45.2788359" lon="8.9810938"><ele>77.0</ele><time>2026-04-19T08:28:52.563Z</time></trkpt><trkpt lat="45.2787538" lon="8.981127"><ele>77.0</ele><time>2026-04-19T08:28:55.604Z</time></trkpt><trkpt lat="45.2786733" lon="8.9811843"><ele>77.0</ele><time>2026-04-19T08:28:58.564Z</time></trkpt><trkpt lat="45.2785918" lon="8.9812476"><ele>76.71428571428571</ele><time>2026-04-19T08:29:01.568Z</time></trkpt><trkpt lat="45.2785469" lon="8.981313"><ele>76.42857142857143</ele><time>2026-04-19T08:29:03.566Z</time></trkpt><trkpt lat="45.2785546" lon="8.981426"><ele>76.14285714285714</ele><time>2026-04-19T08:29:06.56Z</time></trkpt><trkpt lat="45.2785995" lon="8.9814973"><ele>75.85714285714286</ele><time>2026-04-19T08:29:08.564Z</time></trkpt><trkpt lat="45.2786684" lon="8.9815952"><ele>75.57142857142857</ele><time>2026-04-19T08:29:11.573Z</time></trkpt><trkpt lat="45.2787031" lon="8.9816749"><ele>75.28571428571428</ele><time>2026-04-19T08:29:13.559Z</time></trkpt><trkpt lat="45.2787448" lon="8.981754"><ele>75.0</ele><time>2026-04-19T08:29:15.57Z</time></trkpt><trkpt lat="45.2787945" lon="8.9818325"><ele>74.5</ele><time>2026-04-19T08:29:17.56Z</time></trkpt><trkpt lat="45.2788584" lon="8.9819045"><ele>74.0</ele><time>2026-04-19T08:29:19.567Z</time></trkpt><trkpt lat="45.2789221" lon="8.9819568"><ele>73.5</ele><time>2026-04-19T08:29:21.562Z</time></trkpt><trkpt lat="45.2790006" lon="8.9820052"><ele>73.0</ele><time>2026-04-19T08:29:24.565Z</time></trkpt><trkpt lat="45.2790602" lon="8.9820858"><ele>72.5</ele><time>2026-04-19T08:29:27.569Z</time></trkpt><trkpt lat="45.2791382" lon="8.9821639"><ele>72.0</ele><time>2026-04-19T08:29:30.572Z</time></trkpt><trkpt lat="45.2791939" lon="8.982218"><ele>72.0</ele><time>2026-04-19T08:29:32.559Z</time></trkpt><trkpt lat="45.2792709" lon="8.9822753"><ele>72.0</ele><time>2026-04-19T08:29:35.596Z</time></trkpt><trkpt lat="45.2793472" lon="8.9823389"><ele>72.0</ele><time>2026-04-19T08:29:38.631Z</time></trkpt><trkpt lat="45.2794248" lon="8.9823877"><ele>72.0</ele><time>2026-04-19T08:29:41.567Z</time></trkpt><trkpt lat="45.2794837" lon="8.9824281"><ele>72.0</ele><time>2026-04-19T08:29:43.567Z</time></trkpt><trkpt lat="45.2795451" lon="8.9824788"><ele>72.0</ele><time>2026-04-19T08:29:45.581Z</time></trkpt><trkpt lat="45.2795973" lon="8.9825355"><ele>71.83333333333333</ele><time>2026-04-19T08:29:47.567Z</time></trkpt><trkpt lat="45.2796402" lon="8.9826022"><ele>71.66666666666667</ele><time>2026-04-19T08:29:49.565Z</time></trkpt><trkpt lat="45.2796953" lon="8.9827007"><ele>71.5</ele><time>2026-04-19T08:29:52.564Z</time></trkpt><trkpt lat="45.2797211" lon="8.9827836"><ele>71.33333333333334</ele><time>2026-04-19T08:29:54.563Z</time></trkpt><trkpt lat="45.2797618" lon="8.9828959"><ele>71.16666666666667</ele><time>2026-04-19T08:29:57.566Z</time></trkpt><trkpt lat="45.2798132" lon="8.9830096"><ele>71.0</ele><time>2026-04-19T08:30:00.568Z</time></trkpt><trkpt lat="45.2798362" lon="8.9831057"><ele>71.0</ele><time>2026-04-19T08:30:02.573Z</time></trkpt><trkpt lat="45.279867" lon="8.9832161"><ele>71.0</ele><time>2026-04-19T08:30:04.568Z</time></trkpt><trkpt lat="45.2798963" lon="8.9833178"><ele>71.0</ele><time>2026-04-19T08:30:06.565Z</time></trkpt><trkpt lat="45.2799293" lon="8.9834036"><ele>71.0</ele><time>2026-04-19T08:30:08.569Z</time></trkpt><trkpt lat="45.2799612" lon="8.9834815"><ele>71.0</ele><time>2026-04-19T08:30:10.572Z</time></trkpt><trkpt lat="45.2799939" lon="8.9835813"><ele>71.0</ele><time>2026-04-19T08:30:13.565Z</time></trkpt><trkpt lat="45.2800355" lon="8.9836518"><ele>71.0</ele><time>2026-04-19T08:30:15.56Z</time></trkpt><trkpt lat="45.2800992" lon="8.9837427"><ele>71.83333333333334</ele><time>2026-04-19T08:30:18.633Z</time></trkpt><trkpt lat="45.2801412" lon="8.9838164"><ele>72.66666666666667</ele><time>2026-04-19T08:30:20.566Z</time></trkpt><trkpt lat="45.2801947" lon="8.983927"><ele>73.5</ele><time>2026-04-19T08:30:23.561Z</time></trkpt><trkpt lat="45.2802358" lon="8.9840365"><ele>74.33333333333333</ele><time>2026-04-19T08:30:26.564Z</time></trkpt><trkpt lat="45.2802556" lon="8.9841583"><ele>75.16666666666666</ele><time>2026-04-19T08:30:29.566Z</time></trkpt><trkpt lat="45.2802788" lon="8.9842423"><ele>76.0</ele><time>2026-04-19T08:30:31.63Z</time></trkpt><trkpt lat="45.2803005" lon="8.9843266"><ele>76.66666666666666</ele><time>2026-04-19T08:30:33.578Z</time></trkpt><trkpt lat="45.2803276" lon="8.9844414"><ele>77.33333333333333</ele><time>2026-04-19T08:30:36.566Z</time></trkpt><trkpt lat="45.2803382" lon="8.9845396"><ele>78.0</ele><time>2026-04-19T08:30:38.566Z</time></trkpt><trkpt lat="45.2803396" lon="8.9846315"><ele>78.66666666666667</ele><time>2026-04-19T08:30:40.574Z</time></trkpt><trkpt lat="45.2803439" lon="8.98476"><ele>79.33333333333334</ele><time>2026-04-19T08:30:43.57Z</time></trkpt><trkpt lat="45.2803281" lon="8.984863"><ele>80.0</ele><time>2026-04-19T08:30:46.574Z</time></trkpt><trkpt lat="45.2802943" lon="8.9849751"><ele>79.83333333333334</ele><time>2026-04-19T08:30:48.574Z</time></trkpt><trkpt lat="45.2802786" lon="8.9850767"><ele>79.66666666666667</ele><time>2026-04-19T08:30:51.561Z</time></trkpt><trkpt lat="45.2802649" lon="8.9851767"><ele>79.5</ele><time>2026-04-19T08:30:54.565Z</time></trkpt><trkpt lat="45.2802397" lon="8.9852964"><ele>79.33333333333333</ele><time>2026-04-19T08:30:57.565Z</time></trkpt><trkpt lat="45.2802211" lon="8.9853927"><ele>79.16666666666666</ele><time>2026-04-19T08:30:59.572Z</time></trkpt><trkpt lat="45.2802137" lon="8.9854954"><ele>79.0</ele><time>2026-04-19T08:31:02.57Z</time></trkpt><trkpt lat="45.2802135" lon="8.9856533"><ele>79.0</ele><time>2026-04-19T08:31:06.571Z</time></trkpt><trkpt lat="45.2802155" lon="8.9857879"><ele>79.0</ele><time>2026-04-19T08:31:09.571Z</time></trkpt><trkpt lat="45.2802392" lon="8.98589"><ele>79.0</ele><time>2026-04-19T08:31:11.573Z</time></trkpt><trkpt lat="45.2802484" lon="8.9859809"><ele>79.0</ele><time>2026-04-19T08:31:13.571Z</time></trkpt><trkpt lat="45.2802574" lon="8.9860892"><ele>79.0</ele><time>2026-04-19T08:31:15.568Z</time></trkpt><trkpt lat="45.2802642" lon="8.9862083"><ele>79.0</ele><time>2026-04-19T08:31:17.578Z</time></trkpt><trkpt lat="45.2802564" lon="8.9863003"><ele>78.66666666666666</ele><time>2026-04-19T08:31:19.562Z</time></trkpt><trkpt lat="45.280253" lon="8.9864006"><ele>78.33333333333333</ele><time>2026-04-19T08:31:21.559Z</time></trkpt><trkpt lat="45.2802478" lon="8.9865059"><ele>78.0</ele><time>2026-04-19T08:31:23.561Z</time></trkpt><trkpt lat="45.2802425" lon="8.9866224"><ele>77.66666666666667</ele><time>2026-04-19T08:31:25.569Z</time></trkpt><trkpt lat="45.2802182" lon="8.9867319"><ele>77.33333333333334</ele><time>2026-04-19T08:31:27.561Z</time></trkpt><trkpt lat="45.2801872" lon="8.9868369"><ele>77.0</ele><time>2026-04-19T08:31:29.567Z</time></trkpt><trkpt lat="45.280154" lon="8.9869518"><ele>76.5</ele><time>2026-04-19T08:31:31.57Z</time></trkpt><trkpt lat="45.2801139" lon="8.9870554"><ele>76.0</ele><time>2026-04-19T08:31:33.568Z</time></trkpt><trkpt lat="45.2800917" lon="8.9871479"><ele>75.5</ele><time>2026-04-19T08:31:35.568Z</time></trkpt><trkpt lat="45.2800748" lon="8.9872621"><ele>75.0</ele><time>2026-04-19T08:31:37.572Z</time></trkpt><trkpt lat="45.2800638" lon="8.9873696"><ele>74.5</ele><time>2026-04-19T08:31:39.571Z</time></trkpt><trkpt lat="45.2800491" lon="8.9874663"><ele>74.0</ele><time>2026-04-19T08:31:41.564Z</time></trkpt><trkpt lat="45.2800253" lon="8.9875621"><ele>73.5</ele><time>2026-04-19T08:31:43.566Z</time></trkpt><trkpt lat="45.28" lon="8.9876575"><ele>73.0</ele><time>2026-04-19T08:31:45.567Z</time></trkpt><trkpt lat="45.2799695" lon="8.9877449"><ele>72.5</ele><time>2026-04-19T08:31:47.602Z</time></trkpt><trkpt lat="45.279936" lon="8.9878739"><ele>72.0</ele><time>2026-04-19T08:31:50.56Z</time></trkpt><trkpt lat="45.2799092" lon="8.9879751"><ele>71.5</ele><time>2026-04-19T08:31:53.561Z</time></trkpt><trkpt lat="45.2798736" lon="8.9881019"><ele>71.0</ele><time>2026-04-19T08:31:56.579Z</time></trkpt><trkpt lat="45.2798481" lon="8.9881919"><ele>71.0</ele><time>2026-04-19T08:31:58.57Z</time></trkpt><trkpt lat="45.2798329" lon="8.9882906"><ele>71.0</ele><time>2026-04-19T08:32:00.564Z</time></trkpt><trkpt lat="45.2798085" lon="8.9883958"><ele>71.0</ele><time>2026-04-19T08:32:03.661Z</time></trkpt><trkpt lat="45.2797513" lon="8.9884728"><ele>71.0</ele><time>2026-04-19T08:32:06.571Z</time></trkpt><trkpt lat="45.2796737" lon="8.9884856"><ele>71.0</ele><time>2026-04-19T08:32:10.571Z</time></trkpt><trkpt lat="45.2796086" lon="8.9885396"><ele>71.0</ele><time>2026-04-19T08:32:13.565Z</time></trkpt><trkpt lat="45.2795526" lon="8.988583"><ele>71.0</ele><time>2026-04-19T08:32:15.563Z</time></trkpt><trkpt lat="45.2794731" lon="8.988641"><ele>71.5</ele><time>2026-04-19T08:32:18.57Z</time></trkpt><trkpt lat="45.2794266" lon="8.9887274"><ele>72.0</ele><time>2026-04-19T08:32:21.569Z</time></trkpt><trkpt lat="45.279375" lon="8.9888468"><ele>72.5</ele><time>2026-04-19T08:32:24.568Z</time></trkpt><trkpt lat="45.2793348" lon="8.9889315"><ele>73.0</ele><time>2026-04-19T08:32:26.569Z</time></trkpt><trkpt lat="45.2792891" lon="8.9890369"><ele>73.5</ele><time>2026-04-19T08:32:29.603Z</time></trkpt><trkpt lat="45.2792548" lon="8.9891284"><ele>74.0</ele><time>2026-04-19T08:32:32.563Z</time></trkpt><trkpt lat="45.2792225" lon="8.9892052"><ele>74.28571428571429</ele><time>2026-04-19T08:32:35.561Z</time></trkpt><trkpt lat="45.2791875" lon="8.9893043"><ele>74.57142857142857</ele><time>2026-04-19T08:32:38.57Z</time></trkpt><trkpt lat="45.2791571" lon="8.9893918"><ele>74.85714285714286</ele><time>2026-04-19T08:32:40.564Z</time></trkpt><trkpt lat="45.2791307" lon="8.9894751"><ele>75.14285714285714</ele><time>2026-04-19T08:32:42.568Z</time></trkpt><trkpt lat="45.2791011" lon="8.9895809"><ele>75.42857142857143</ele><time>2026-04-19T08:32:45.561Z</time></trkpt><trkpt lat="45.2790723" lon="8.9896692"><ele>75.71428571428571</ele><time>2026-04-19T08:32:47.575Z</time></trkpt><trkpt lat="45.2790344" lon="8.9897605"><ele>76.0</ele><time>2026-04-19T08:32:49.603Z</time></trkpt><trkpt lat="45.2790003" lon="8.9898522"><ele>76.0</ele><time>2026-04-19T08:32:51.56Z</time></trkpt><trkpt lat="45.2789651" lon="8.9899423"><ele>76.0</ele><time>2026-04-19T08:32:53.569Z</time></trkpt><trkpt lat="45.2789291" lon="8.9900315"><ele>76.0</ele><time>2026-04-19T08:32:55.638Z</time></trkpt><trkpt lat="45.2789178" lon="8.9901496"><ele>76.0</ele><time>2026-04-19T08:32:58.563Z</time></trkpt><trkpt lat="45.2788945" lon="8.9902692"><ele>76.0</ele><time>2026-04-19T08:33:01.567Z</time></trkpt><trkpt lat="45.2788917" lon="8.990383"><ele>76.0</ele><time>2026-04-19T08:33:04.561Z</time></trkpt><trkpt lat="45.2789126" lon="8.9905086"><ele>75.85714285714285</ele><time>2026-04-19T08:33:07.57Z</time></trkpt><trkpt lat="45.2789279" lon="8.99061"><ele>75.71428571428572</ele><time>2026-04-19T08:33:10.584Z</time></trkpt><trkpt lat="45.2789356" lon="8.9907004"><ele>75.57142857142857</ele><time>2026-04-19T08:33:13.576Z</time></trkpt><trkpt lat="45.278931" lon="8.9908037"><ele>75.42857142857142</ele><time>2026-04-19T08:33:16.574Z</time></trkpt><trkpt lat="45.2789243" lon="8.990932"><ele>75.28571428571428</ele><time>2026-04-19T08:33:19.565Z</time></trkpt><trkpt lat="45.278919" lon="8.9910215"><ele>75.14285714285714</ele><time>2026-04-19T08:33:21.631Z</time></trkpt><trkpt lat="45.2789016" lon="8.9911228"><ele>75.0</ele><time>2026-04-19T08:33:23.569Z</time></trkpt><trkpt lat="45.2788725" lon="8.9912372"><ele>75.0</ele><time>2026-04-19T08:33:25.573Z</time></trkpt><trkpt lat="45.2788506" lon="8.9913382"><ele>75.0</ele><time>2026-04-19T08:33:27.569Z</time></trkpt><trkpt lat="45.2788172" lon="8.9914595"><ele>75.0</ele><time>2026-04-19T08:33:30.568Z</time></trkpt><trkpt lat="45.2787859" lon="8.9915508"><ele>75.0</ele><time>2026-04-19T08:33:32.574Z</time></trkpt><trkpt lat="45.278746" lon="8.9916389"><ele>75.0</ele><time>2026-04-19T08:33:34.562Z</time></trkpt><trkpt lat="45.2786909" lon="8.991729"><ele>75.0</ele><time>2026-04-19T08:33:36.576Z</time></trkpt><trkpt lat="45.2786457" lon="8.9917953"><ele>75.5</ele><time>2026-04-19T08:33:38.563Z</time></trkpt><trkpt lat="45.278597" lon="8.9918797"><ele>76.0</ele><time>2026-04-19T08:33:40.565Z</time></trkpt><trkpt lat="45.2785582" lon="8.9919725"><ele>76.5</ele><time>2026-04-19T08:33:42.57Z</time></trkpt><trkpt lat="45.2785172" lon="8.9920579"><ele>77.0</ele><time>2026-04-19T08:33:44.567Z</time></trkpt><trkpt lat="45.2784682" lon="8.9921383"><ele>77.5</ele><time>2026-04-19T08:33:46.564Z</time></trkpt><trkpt lat="45.2784142" lon="8.9922186"><ele>78.0</ele><time>2026-04-19T08:33:48.563Z</time></trkpt><trkpt lat="45.2783622" lon="8.9922993"><ele>78.0</ele><time>2026-04-19T08:33:50.564Z</time></trkpt><trkpt lat="45.2783054" lon="8.9923732"><ele>78.0</ele><time>2026-04-19T08:33:52.561Z</time></trkpt><trkpt lat="45.2782479" lon="8.9924343"><ele>78.0</ele><time>2026-04-19T08:33:54.568Z</time></trkpt><trkpt lat="45.2781604" lon="8.9924743"><ele>78.0</ele><time>2026-04-19T08:33:57.559Z</time></trkpt><trkpt lat="45.2780937" lon="8.9924978"><ele>78.0</ele><time>2026-04-19T08:33:59.57Z</time></trkpt><trkpt lat="45.2780301" lon="8.9925162"><ele>78.0</ele><time>2026-04-19T08:34:01.567Z</time></trkpt><trkpt lat="45.2779645" lon="8.9925366"><ele>78.0</ele><time>2026-04-19T08:34:03.559Z</time></trkpt><trkpt lat="45.2778727" lon="8.9925497"><ele>78.14285714285715</ele><time>2026-04-19T08:34:06.562Z</time></trkpt><trkpt lat="45.277806" lon="8.992538"><ele>78.28571428571428</ele><time>2026-04-19T08:34:08.565Z</time></trkpt><trkpt lat="45.2777339" lon="8.9925309"><ele>78.42857142857143</ele><time>2026-04-19T08:34:10.561Z</time></trkpt><trkpt lat="45.2776681" lon="8.9925135"><ele>78.57142857142858</ele><time>2026-04-19T08:34:12.566Z</time></trkpt><trkpt lat="45.2776054" lon="8.9925003"><ele>78.71428571428572</ele><time>2026-04-19T08:34:14.57Z</time></trkpt><trkpt lat="45.2775387" lon="8.9925087"><ele>78.85714285714286</ele><time>2026-04-19T08:34:16.559Z</time></trkpt><trkpt lat="45.2774977" lon="8.9926113"><ele>79.0</ele><time>2026-04-19T08:34:19.566Z</time></trkpt><trkpt lat="45.2774839" lon="8.9927066"><ele>80.85714285714286</ele><time>2026-04-19T08:34:22.563Z</time></trkpt><trkpt lat="45.2774102" lon="8.9927514"><ele>82.71428571428572</ele><time>2026-04-19T08:34:25.559Z</time></trkpt><trkpt lat="45.2773444" lon="8.9927665"><ele>84.57142857142858</ele><time>2026-04-19T08:34:27.567Z</time></trkpt><trkpt lat="45.2772778" lon="8.9927942"><ele>86.42857142857143</ele><time>2026-04-19T08:34:29.558Z</time></trkpt><trkpt lat="45.2771954" lon="8.9928294"><ele>88.28571428571428</ele><time>2026-04-19T08:34:32.558Z</time></trkpt><trkpt lat="45.2771231" lon="8.9928445"><ele>90.14285714285715</ele><time>2026-04-19T08:34:34.554Z</time></trkpt><trkpt lat="45.2770564" lon="8.992861"><ele>92.0</ele><time>2026-04-19T08:34:36.617Z</time></trkpt><trkpt lat="45.2769848" lon="8.9928723"><ele>92.16666666666667</ele><time>2026-04-19T08:34:38.567Z</time></trkpt><trkpt lat="45.2769127" lon="8.992883"><ele>92.33333333333334</ele><time>2026-04-19T08:34:40.565Z</time></trkpt><trkpt lat="45.2768381" lon="8.992888"><ele>92.5</ele><time>2026-04-19T08:34:42.566Z</time></trkpt><trkpt lat="45.276775" lon="8.9928971"><ele>92.66666666666667</ele><time>2026-04-19T08:34:44.558Z</time></trkpt><trkpt lat="45.2767066" lon="8.9928759"><ele>92.83333333333333</ele><time>2026-04-19T08:34:46.565Z</time></trkpt><trkpt lat="45.2766179" lon="8.9928631"><ele>93.0</ele><time>2026-04-19T08:34:49.582Z</time></trkpt><trkpt lat="45.2765387" lon="8.992838"><ele>93.0</ele><time>2026-04-19T08:34:52.555Z</time></trkpt><trkpt lat="45.2764598" lon="8.9928194"><ele>93.0</ele><time>2026-04-19T08:34:55.562Z</time></trkpt><trkpt lat="45.2763855" lon="8.9928077"><ele>93.0</ele><time>2026-04-19T08:34:58.563Z</time></trkpt><trkpt lat="45.2763135" lon="8.9928137"><ele>93.0</ele><time>2026-04-19T08:35:01.567Z</time></trkpt><trkpt lat="45.2762471" lon="8.9927928"><ele>93.0</ele><time>2026-04-19T08:35:04.571Z</time></trkpt><trkpt lat="45.2761821" lon="8.9927367"><ele>93.0</ele><time>2026-04-19T08:35:07.557Z</time></trkpt><trkpt lat="45.2760931" lon="8.9926697"><ele>93.66666666666667</ele><time>2026-04-19T08:35:10.558Z</time></trkpt><trkpt lat="45.2760133" lon="8.9926324"><ele>94.33333333333334</ele><time>2026-04-19T08:35:13.561Z</time></trkpt><trkpt lat="45.275926" lon="8.9925877"><ele>95.0</ele><time>2026-04-19T08:35:16.563Z</time></trkpt><trkpt lat="45.2758426" lon="8.9925457"><ele>95.66666666666667</ele><time>2026-04-19T08:35:19.562Z</time></trkpt><trkpt lat="45.2757486" lon="8.9925144"><ele>96.33333333333334</ele><time>2026-04-19T08:35:22.563Z</time></trkpt><trkpt lat="45.2756866" lon="8.9924949"><ele>97.0</ele><time>2026-04-19T08:35:24.562Z</time></trkpt><trkpt lat="45.2756166" lon="8.9924893"><ele>94.16666666666667</ele><time>2026-04-19T08:35:27.562Z</time></trkpt><trkpt lat="45.2755243" lon="8.9924695"><ele>91.33333333333334</ele><time>2026-04-19T08:35:30.574Z</time></trkpt><trkpt lat="45.2754506" lon="8.9924719"><ele>88.5</ele><time>2026-04-19T08:35:33.558Z</time></trkpt><trkpt lat="45.2753865" lon="8.9924564"><ele>85.66666666666667</ele><time>2026-04-19T08:35:35.565Z</time></trkpt><trkpt lat="45.2752943" lon="8.9924714"><ele>82.83333333333334</ele><time>2026-04-19T08:35:38.561Z</time></trkpt><trkpt lat="45.2752003" lon="8.9924954"><ele>80.0</ele><time>2026-04-19T08:35:41.561Z</time></trkpt><trkpt lat="45.2751059" lon="8.9924975"><ele>81.5</ele><time>2026-04-19T08:35:43.566Z</time></trkpt><trkpt lat="45.2750361" lon="8.992516"><ele>83.0</ele><time>2026-04-19T08:35:45.565Z</time></trkpt><trkpt lat="45.2749528" lon="8.9925592"><ele>84.5</ele><time>2026-04-19T08:35:49.567Z</time></trkpt><trkpt lat="45.2748747" lon="8.992586"><ele>86.0</ele><time>2026-04-19T08:35:52.578Z</time></trkpt><trkpt lat="45.2748084" lon="8.9925741"><ele>87.5</ele><time>2026-04-19T08:35:54.564Z</time></trkpt><trkpt lat="45.2747441" lon="8.9925816"><ele>89.0</ele><time>2026-04-19T08:35:56.566Z</time></trkpt><trkpt lat="45.2746592" lon="8.9926308"><ele>89.0</ele><time>2026-04-19T08:35:59.556Z</time></trkpt><trkpt lat="45.2745898" lon="8.9926721"><ele>89.0</ele><time>2026-04-19T08:36:01.576Z</time></trkpt><trkpt lat="45.274533" lon="8.9927334"><ele>89.0</ele><time>2026-04-19T08:36:03.6Z</time></trkpt><trkpt lat="45.2744638" lon="8.9927483"><ele>89.0</ele><time>2026-04-19T08:36:05.56Z</time></trkpt><trkpt lat="45.2744013" lon="8.9927648"><ele>89.0</ele><time>2026-04-19T08:36:07.565Z</time></trkpt><trkpt lat="45.2743225" lon="8.9927965"><ele>89.0</ele><time>2026-04-19T08:36:10.563Z</time></trkpt><trkpt lat="45.2742373" lon="8.9928279"><ele>89.0</ele><time>2026-04-19T08:36:13.588Z</time></trkpt><trkpt lat="45.2741554" lon="8.9928341"><ele>89.0</ele><time>2026-04-19T08:36:15.566Z</time></trkpt><trkpt lat="45.2740633" lon="8.9928383"><ele>89.0</ele><time>2026-04-19T08:36:18.57Z</time></trkpt><trkpt lat="45.2739932" lon="8.9928474"><ele>89.0</ele><time>2026-04-19T08:36:20.62Z</time></trkpt><trkpt lat="45.2739007" lon="8.9928628"><ele>89.0</ele><time>2026-04-19T08:36:23.607Z</time></trkpt><trkpt lat="45.2738409" lon="8.9928915"><ele>89.0</ele><time>2026-04-19T08:36:25.581Z</time></trkpt><trkpt lat="45.273752" lon="8.9929417"><ele>87.33333333333334</ele><time>2026-04-19T08:36:28.564Z</time></trkpt><trkpt lat="45.2736851" lon="8.9929997"><ele>85.66666666666667</ele><time>2026-04-19T08:36:31.571Z</time></trkpt><trkpt lat="45.2736146" lon="8.9930847"><ele>84.0</ele><time>2026-04-19T08:36:34.562Z</time></trkpt><trkpt lat="45.2735463" lon="8.9931484"><ele>82.33333333333333</ele><time>2026-04-19T08:36:37.565Z</time></trkpt><trkpt lat="45.2734664" lon="8.9932006"><ele>80.66666666666666</ele><time>2026-04-19T08:36:40.564Z</time></trkpt><trkpt lat="45.2734066" lon="8.9932343"><ele>79.0</ele><time>2026-04-19T08:36:42.56Z</time></trkpt><trkpt lat="45.2733381" lon="8.9932571"><ele>79.0</ele><time>2026-04-19T08:36:44.571Z</time></trkpt><trkpt lat="45.2732795" lon="8.9932909"><ele>79.0</ele><time>2026-04-19T08:36:46.572Z</time></trkpt><trkpt lat="45.2732025" lon="8.9933406"><ele>79.0</ele><time>2026-04-19T08:36:49.562Z</time></trkpt><trkpt lat="45.2731359" lon="8.9933747"><ele>79.0</ele><time>2026-04-19T08:36:51.568Z</time></trkpt><trkpt lat="45.2730622" lon="8.9934168"><ele>79.0</ele><time>2026-04-19T08:36:53.562Z</time></trkpt><trkpt lat="45.2729963" lon="8.9934569"><ele>79.0</ele><time>2026-04-19T08:36:56.572Z</time></trkpt><trkpt lat="45.2729136" lon="8.9935052"><ele>80.14285714285715</ele><time>2026-04-19T08:36:59.56Z</time></trkpt><trkpt lat="45.2728449" lon="8.9935275"><ele>81.28571428571429</ele><time>2026-04-19T08:37:01.558Z</time></trkpt><trkpt lat="45.2727651" lon="8.9935509"><ele>82.42857142857143</ele><time>2026-04-19T08:37:03.564Z</time></trkpt><trkpt lat="45.2726985" lon="8.9935749"><ele>83.57142857142858</ele><time>2026-04-19T08:37:05.563Z</time></trkpt><trkpt lat="45.2726369" lon="8.993602"><ele>84.71428571428572</ele><time>2026-04-19T08:37:07.568Z</time></trkpt><trkpt lat="45.2725602" lon="8.9936449"><ele>85.85714285714286</ele><time>2026-04-19T08:37:10.561Z</time></trkpt><trkpt lat="45.2724877" lon="8.9936641"><ele>87.0</ele><time>2026-04-19T08:37:12.567Z</time></trkpt><trkpt lat="45.2724134" lon="8.9936783"><ele>87.0</ele><time>2026-04-19T08:37:14.562Z</time></trkpt><trkpt lat="45.2723479" lon="8.9937083"><ele>87.0</ele><time>2026-04-19T08:37:16.558Z</time></trkpt><trkpt lat="45.2722828" lon="8.993726"><ele>87.0</ele><time>2026-04-19T08:37:18.562Z</time></trkpt><trkpt lat="45.2722107" lon="8.9937168"><ele>87.0</ele><time>2026-04-19T08:37:20.567Z</time></trkpt><trkpt lat="45.2721401" lon="8.9937068"><ele>87.0</ele><time>2026-04-19T08:37:22.563Z</time></trkpt><trkpt lat="45.2720558" lon="8.993699"><ele>87.0</ele><time>2026-04-19T08:37:25.629Z</time></trkpt><trkpt lat="45.2719963" lon="8.9937522"><ele>87.0</ele><time>2026-04-19T08:37:28.567Z</time></trkpt><trkpt lat="45.2719256" lon="8.9938215"><ele>86.71428571428571</ele><time>2026-04-19T08:37:32.565Z</time></trkpt><trkpt lat="45.2718522" lon="8.9938174"><ele>86.42857142857143</ele><time>2026-04-19T08:37:35.558Z</time></trkpt><trkpt lat="45.2717765" lon="8.9938308"><ele>86.14285714285714</ele><time>2026-04-19T08:37:38.567Z</time></trkpt><trkpt lat="45.2717162" lon="8.9938632"><ele>85.85714285714286</ele><time>2026-04-19T08:37:40.565Z</time></trkpt><trkpt lat="45.2716526" lon="8.9938963"><ele>85.57142857142857</ele><time>2026-04-19T08:37:42.565Z</time></trkpt><trkpt lat="45.2715921" lon="8.993931"><ele>85.28571428571429</ele><time>2026-04-19T08:37:44.562Z</time></trkpt><trkpt lat="45.2715267" lon="8.993964"><ele>85.0</ele><time>2026-04-19T08:37:46.566Z</time></trkpt><trkpt lat="45.2714566" lon="8.9939846"><ele>84.42857142857143</ele><time>2026-04-19T08:37:48.575Z</time></trkpt><trkpt lat="45.2713908" lon="8.9940058"><ele>83.85714285714285</ele><time>2026-04-19T08:37:50.568Z</time></trkpt><trkpt lat="45.2713258" lon="8.9940332"><ele>83.28571428571428</ele><time>2026-04-19T08:37:52.565Z</time></trkpt><trkpt lat="45.2712568" lon="8.9940664"><ele>82.71428571428572</ele><time>2026-04-19T08:37:54.623Z</time></trkpt><trkpt lat="45.2711908" lon="8.9941051"><ele>82.14285714285714</ele><time>2026-04-19T08:37:56.562Z</time></trkpt><trkpt lat="45.2711195" lon="8.994143"><ele>81.57142857142857</ele><time>2026-04-19T08:37:58.564Z</time></trkpt><trkpt lat="45.2710486" lon="8.9941855"><ele>81.0</ele><time>2026-04-19T08:38:00.564Z</time></trkpt><trkpt lat="45.2709799" lon="8.9942162"><ele>82.5</ele><time>2026-04-19T08:38:02.56Z</time></trkpt><trkpt lat="45.2709002" lon="8.9942601"><ele>84.0</ele><time>2026-04-19T08:38:05.619Z</time></trkpt><trkpt lat="45.2708221" lon="8.9942976"><ele>85.5</ele><time>2026-04-19T08:38:08.575Z</time></trkpt><trkpt lat="45.2707444" lon="8.994343"><ele>87.0</ele><time>2026-04-19T08:38:11.564Z</time></trkpt><trkpt lat="45.2706611" lon="8.994395"><ele>88.5</ele><time>2026-04-19T08:38:14.556Z</time></trkpt><trkpt lat="45.2705719" lon="8.9944435"><ele>90.0</ele><time>2026-04-19T08:38:17.57Z</time></trkpt><trkpt lat="45.2704949" lon="8.9944737"><ele>90.0</ele><time>2026-04-19T08:38:19.57Z</time></trkpt><trkpt lat="45.2704289" lon="8.9945029"><ele>90.0</ele><time>2026-04-19T08:38:21.567Z</time></trkpt><trkpt lat="45.2703609" lon="8.994537"><ele>90.0</ele><time>2026-04-19T08:38:23.565Z</time></trkpt><trkpt lat="45.270298" lon="8.9945718"><ele>90.0</ele><time>2026-04-19T08:38:25.567Z</time></trkpt><trkpt lat="45.2702348" lon="8.9946145"><ele>90.0</ele><time>2026-04-19T08:38:27.567Z</time></trkpt><trkpt lat="45.2701489" lon="8.9946374"><ele>90.0</ele><time>2026-04-19T08:38:30.578Z</time></trkpt><trkpt lat="45.2700668" lon="8.9945926"><ele>90.0</ele><time>2026-04-19T08:38:33.564Z</time></trkpt><trkpt lat="45.2700021" lon="8.9945654"><ele>90.0</ele><time>2026-04-19T08:38:35.595Z</time></trkpt><trkpt lat="45.26994" lon="8.9945429"><ele>90.0</ele><time>2026-04-19T08:38:37.563Z</time></trkpt><trkpt lat="45.2698707" lon="8.9945119"><ele>90.0</ele><time>2026-04-19T08:38:39.566Z</time></trkpt><trkpt lat="45.2698013" lon="8.9944877"><ele>90.0</ele><time>2026-04-19T08:38:41.569Z</time></trkpt><trkpt lat="45.2697371" lon="8.9944728"><ele>90.0</ele><time>2026-04-19T08:38:43.563Z</time></trkpt><trkpt lat="45.2696635" lon="8.9945061"><ele>90.0</ele><time>2026-04-19T08:38:46.563Z</time></trkpt><trkpt lat="45.2696421" lon="8.9946036"><ele>90.0</ele><time>2026-04-19T08:38:50.561Z</time></trkpt><trkpt lat="45.2696936" lon="8.994696"><ele>90.0</ele><time>2026-04-19T08:38:53.562Z</time></trkpt><trkpt lat="45.2697545" lon="8.9947676"><ele>90.0</ele><time>2026-04-19T08:38:56.558Z</time></trkpt><trkpt lat="45.2698154" lon="8.9948284"><ele>90.0</ele><time>2026-04-19T08:38:59.57Z</time></trkpt><trkpt lat="45.2698848" lon="8.9948876"><ele>90.0</ele><time>2026-04-19T08:39:02.56Z</time></trkpt><trkpt lat="45.269939" lon="8.9949443"><ele>90.0</ele><time>2026-04-19T08:39:04.567Z</time></trkpt><trkpt lat="45.270021" lon="8.9950108"><ele>90.0</ele><time>2026-04-19T08:39:07.573Z</time></trkpt><trkpt lat="45.2700829" lon="8.9950455"><ele>90.0</ele><time>2026-04-19T08:39:09.564Z</time></trkpt><trkpt lat="45.270154" lon="8.9950671"><ele>90.0</ele><time>2026-04-19T08:39:11.573Z</time></trkpt><trkpt lat="45.2702251" lon="8.9950536"><ele>90.0</ele><time>2026-04-19T08:39:13.596Z</time></trkpt><trkpt lat="45.2703027" lon="8.9950238"><ele>90.0</ele><time>2026-04-19T08:39:15.559Z</time></trkpt><trkpt lat="45.2703675" lon="8.9949945"><ele>90.0</ele><time>2026-04-19T08:39:17.561Z</time></trkpt><trkpt lat="45.2704341" lon="8.9949623"><ele>90.0</ele><time>2026-04-19T08:39:19.567Z</time></trkpt><trkpt lat="45.2704982" lon="8.9949433"><ele>90.0</ele><time>2026-04-19T08:39:21.563Z</time></trkpt><trkpt lat="45.2705884" lon="8.9949392"><ele>90.0</ele><time>2026-04-19T08:39:24.569Z</time></trkpt><trkpt lat="45.2706807" lon="8.9949489"><ele>90.0</ele><time>2026-04-19T08:39:27.565Z</time></trkpt><trkpt lat="45.2707776" lon="8.9949437"><ele>90.0</ele><time>2026-04-19T08:39:30.556Z</time></trkpt><trkpt lat="45.2708715" lon="8.9949424"><ele>90.0</ele><time>2026-04-19T08:39:33.571Z</time></trkpt><trkpt lat="45.2709663" lon="8.994951"><ele>90.85714285714285</ele><time>2026-04-19T08:39:36.565Z</time></trkpt><trkpt lat="45.2710183" lon="8.9950345"><ele>91.71428571428572</ele><time>2026-04-19T08:39:39.562Z</time></trkpt><trkpt lat="45.271016" lon="8.9951287"><ele>92.57142857142857</ele><time>2026-04-19T08:39:42.562Z</time></trkpt><trkpt lat="45.2709498" lon="8.9951026"><ele>93.42857142857142</ele><time>2026-04-19T08:39:46.565Z</time></trkpt><trkpt lat="45.2708575" lon="8.9950926"><ele>94.28571428571428</ele><time>2026-04-19T08:39:49.568Z</time></trkpt><trkpt lat="45.2707881" lon="8.9951063"><ele>95.14285714285714</ele><time>2026-04-19T08:39:51.56Z</time></trkpt><trkpt lat="45.2707182" lon="8.9951333"><ele>96.0</ele><time>2026-04-19T08:39:53.566Z</time></trkpt><trkpt lat="45.2706281" lon="8.9951915"><ele>96.0</ele><time>2026-04-19T08:39:55.563Z</time></trkpt><trkpt lat="45.2705435" lon="8.9952538"><ele>96.0</ele><time>2026-04-19T08:39:57.566Z</time></trkpt><trkpt lat="45.2704956" lon="8.9953351"><ele>96.0</ele><time>2026-04-19T08:39:59.563Z</time></trkpt><trkpt lat="45.2704422" lon="8.9954174"><ele>96.0</ele><time>2026-04-19T08:40:01.562Z</time></trkpt><trkpt lat="45.2703868" lon="8.9955076"><ele>96.0</ele><time>2026-04-19T08:40:03.566Z</time></trkpt><trkpt lat="45.2703367" lon="8.9956073"><ele>96.0</ele><time>2026-04-19T08:40:05.572Z</time></trkpt><trkpt lat="45.2702805" lon="8.995699"><ele>96.0</ele><time>2026-04-19T08:40:07.589Z</time></trkpt><trkpt lat="45.2702336" lon="8.995774"><ele>96.0</ele><time>2026-04-19T08:40:09.569Z</time></trkpt><trkpt lat="45.270186" lon="8.9958373"><ele>96.0</ele><time>2026-04-19T08:40:11.558Z</time></trkpt><trkpt lat="45.2701207" lon="8.9958722"><ele>96.0</ele><time>2026-04-19T08:40:13.604Z</time></trkpt><trkpt lat="45.2700354" lon="8.9958303"><ele>96.0</ele><time>2026-04-19T08:40:16.561Z</time></trkpt><trkpt lat="45.2699628" lon="8.9957672"><ele>96.0</ele><time>2026-04-19T08:40:18.568Z</time></trkpt><trkpt lat="45.2698794" lon="8.995705"><ele>96.0</ele><time>2026-04-19T08:40:20.562Z</time></trkpt><trkpt lat="45.2697991" lon="8.9956521"><ele>96.0</ele><time>2026-04-19T08:40:22.566Z</time></trkpt><trkpt lat="45.2697396" lon="8.9955912"><ele>96.0</ele><time>2026-04-19T08:40:24.57Z</time></trkpt><trkpt lat="45.2696683" lon="8.9955276"><ele>96.0</ele><time>2026-04-19T08:40:26.577Z</time></trkpt><trkpt lat="45.2696032" lon="8.9954536"><ele>96.0</ele><time>2026-04-19T08:40:28.564Z</time></trkpt><trkpt lat="45.2695396" lon="8.995391"><ele>96.0</ele><time>2026-04-19T08:40:30.567Z</time></trkpt><trkpt lat="45.2694447" lon="8.9953996"><ele>96.19999999999999</ele><time>2026-04-19T08:40:33.56Z</time></trkpt><trkpt lat="45.2693753" lon="8.995491"><ele>96.39999999999999</ele><time>2026-04-19T08:40:35.562Z</time></trkpt><trkpt lat="45.2692822" lon="8.9955982"><ele>96.6</ele><time>2026-04-19T08:40:37.597Z</time></trkpt><trkpt lat="45.2692165" lon="8.9956967"><ele>96.8</ele><time>2026-04-19T08:40:39.562Z</time></trkpt><trkpt lat="45.269158" lon="8.9957828"><ele>97.0</ele><time>2026-04-19T08:40:41.567Z</time></trkpt><trkpt lat="45.2690883" lon="8.9958701"><ele>97.00000000000001</ele><time>2026-04-19T08:40:43.564Z</time></trkpt><trkpt lat="45.2690155" lon="8.9959611"><ele>97.0</ele><time>2026-04-19T08:40:45.626Z</time></trkpt><trkpt lat="45.2689324" lon="8.9960471"><ele>97.0</ele><time>2026-04-19T08:40:47.589Z</time></trkpt><trkpt lat="45.2688707" lon="8.9961341"><ele>97.0</ele><time>2026-04-19T08:40:49.567Z</time></trkpt><trkpt lat="45.2688134" lon="8.9962114"><ele>97.00000000000001</ele><time>2026-04-19T08:40:51.566Z</time></trkpt><trkpt lat="45.2687567" lon="8.9962809"><ele>97.0</ele><time>2026-04-19T08:40:53.565Z</time></trkpt><trkpt lat="45.2686698" lon="8.9963423"><ele>97.00000000000001</ele><time>2026-04-19T08:40:55.566Z</time></trkpt><trkpt lat="45.2685904" lon="8.9963788"><ele>97.0</ele><time>2026-04-19T08:40:57.569Z</time></trkpt><trkpt lat="45.2685227" lon="8.99643"><ele>97.0</ele><time>2026-04-19T08:40:59.593Z</time></trkpt><trkpt lat="45.268459" lon="8.9965301"><ele>97.0</ele><time>2026-04-19T08:41:01.57Z</time></trkpt><trkpt lat="45.2684194" lon="8.9966523"><ele>97.00000000000001</ele><time>2026-04-19T08:41:03.564Z</time></trkpt><trkpt lat="45.2683734" lon="8.9967689"><ele>97.0</ele><time>2026-04-19T08:41:05.574Z</time></trkpt><trkpt lat="45.2683243" lon="8.9969087"><ele>97.0</ele><time>2026-04-19T08:41:07.604Z</time></trkpt><trkpt lat="45.2682742" lon="8.9970387"><ele>97.0</ele><time>2026-04-19T08:41:09.566Z</time></trkpt><trkpt lat="45.268236" lon="8.9971639"><ele>97.0</ele><time>2026-04-19T08:41:11.565Z</time></trkpt><trkpt lat="45.2682054" lon="8.9972888"><ele>97.0</ele><time>2026-04-19T08:41:13.558Z</time></trkpt><trkpt lat="45.2681727" lon="8.9973929"><ele>97.0</ele><time>2026-04-19T08:41:15.575Z</time></trkpt><trkpt lat="45.2681367" lon="8.9975134"><ele>97.00000000000001</ele><time>2026-04-19T08:41:17.563Z</time></trkpt><trkpt lat="45.2680965" lon="8.9976131"><ele>97.0</ele><time>2026-04-19T08:41:19.563Z</time></trkpt><trkpt lat="45.2680307" lon="8.9976491"><ele>97.0</ele><time>2026-04-19T08:41:21.564Z</time></trkpt><trkpt lat="45.2679437" lon="8.9975935"><ele>97.0</ele><time>2026-04-19T08:41:23.562Z</time></trkpt><trkpt lat="45.2678661" lon="8.9975439"><ele>97.00000000000001</ele><time>2026-04-19T08:41:25.563Z</time></trkpt><trkpt lat="45.2677839" lon="8.9974867"><ele>97.0</ele><time>2026-04-19T08:41:27.591Z</time></trkpt><trkpt lat="45.2677127" lon="8.9974297"><ele>97.0</ele><time>2026-04-19T08:41:29.562Z</time></trkpt><trkpt lat="45.2676385" lon="8.9973611"><ele>97.0</ele><time>2026-04-19T08:41:31.571Z</time></trkpt><trkpt lat="45.2675556" lon="8.9972946"><ele>97.0</ele><time>2026-04-19T08:41:33.593Z</time></trkpt><trkpt lat="45.2674701" lon="8.9972304"><ele>97.0</ele><time>2026-04-19T08:41:35.572Z</time></trkpt><trkpt lat="45.2673944" lon="8.9971689"><ele>97.0</ele><time>2026-04-19T08:41:37.572Z</time></trkpt><trkpt lat="45.2673248" lon="8.9970996"><ele>96.50000000000001</ele><time>2026-04-19T08:41:39.565Z</time></trkpt><trkpt lat="45.267255" lon="8.9970424"><ele>96.0</ele><time>2026-04-19T08:41:41.562Z</time></trkpt><trkpt lat="45.267182" lon="8.9969824"><ele>95.5</ele><time>2026-04-19T08:41:43.561Z</time></trkpt><trkpt lat="45.2671072" lon="8.9969181"><ele>95.0</ele><time>2026-04-19T08:41:45.56Z</time></trkpt><trkpt lat="45.2670303" lon="8.9968562"><ele>94.5</ele><time>2026-04-19T08:41:47.573Z</time></trkpt><trkpt lat="45.2669533" lon="8.9967894"><ele>94.0</ele><time>2026-04-19T08:41:49.565Z</time></trkpt><trkpt lat="45.2668756" lon="8.9967248"><ele>94.0</ele><time>2026-04-19T08:41:51.564Z</time></trkpt><trkpt lat="45.266793" lon="8.9966397"><ele>94.0</ele><time>2026-04-19T08:41:53.567Z</time></trkpt><trkpt lat="45.2667145" lon="8.9966323"><ele>94.0</ele><time>2026-04-19T08:41:55.594Z</time></trkpt><trkpt lat="45.266663" lon="8.9967151"><ele>94.0</ele><time>2026-04-19T08:41:57.566Z</time></trkpt><trkpt lat="45.2666306" lon="8.9968171"><ele>94.0</ele><time>2026-04-19T08:41:59.557Z</time></trkpt><trkpt lat="45.2665835" lon="8.9969065"><ele>94.0</ele><time>2026-04-19T08:42:01.567Z</time></trkpt><trkpt lat="45.2665279" lon="8.9969886"><ele>94.0</ele><time>2026-04-19T08:42:03.567Z</time></trkpt><trkpt lat="45.266476" lon="8.9970734"><ele>94.0</ele><time>2026-04-19T08:42:05.57Z</time></trkpt><trkpt lat="45.2664255" lon="8.9971674"><ele>94.0</ele><time>2026-04-19T08:42:07.559Z</time></trkpt><trkpt lat="45.2663697" lon="8.9972722"><ele>94.0</ele><time>2026-04-19T08:42:09.561Z</time></trkpt><trkpt lat="45.2663279" lon="8.9973561"><ele>94.0</ele><time>2026-04-19T08:42:11.562Z</time></trkpt><trkpt lat="45.2662824" lon="8.9974597"><ele>94.0</ele><time>2026-04-19T08:42:13.562Z</time></trkpt><trkpt lat="45.2662192" lon="8.9975664"><ele>94.16666666666666</ele><time>2026-04-19T08:42:15.56Z</time></trkpt><trkpt lat="45.2661762" lon="8.997658"><ele>94.33333333333333</ele><time>2026-04-19T08:42:17.561Z</time></trkpt><trkpt lat="45.2661406" lon="8.9977391"><ele>94.5</ele><time>2026-04-19T08:42:19.557Z</time></trkpt><trkpt lat="45.2660947" lon="8.9978481"><ele>94.66666666666667</ele><time>2026-04-19T08:42:22.561Z</time></trkpt><trkpt lat="45.2660347" lon="8.9979501"><ele>94.83333333333334</ele><time>2026-04-19T08:42:24.563Z</time></trkpt><trkpt lat="45.2659907" lon="8.9980587"><ele>95.0</ele><time>2026-04-19T08:42:26.563Z</time></trkpt><trkpt lat="45.2659535" lon="8.9981427"><ele>95.0</ele><time>2026-04-19T08:42:28.637Z</time></trkpt><trkpt lat="45.2659141" lon="8.9982127"><ele>95.0</ele><time>2026-04-19T08:42:30.565Z</time></trkpt><trkpt lat="45.2658484" lon="8.9983183"><ele>95.0</ele><time>2026-04-19T08:42:32.562Z</time></trkpt><trkpt lat="45.2657837" lon="8.9984014"><ele>95.0</ele><time>2026-04-19T08:42:34.571Z</time></trkpt><trkpt lat="45.2657345" lon="8.9984806"><ele>95.0</ele><time>2026-04-19T08:42:36.566Z</time></trkpt><trkpt lat="45.265689" lon="8.9985641"><ele>95.0</ele><time>2026-04-19T08:42:38.563Z</time></trkpt><trkpt lat="45.2656334" lon="8.9986488"><ele>95.0</ele><time>2026-04-19T08:42:40.569Z</time></trkpt><trkpt lat="45.2655715" lon="8.9987674"><ele>95.0</ele><time>2026-04-19T08:42:43.558Z</time></trkpt><trkpt lat="45.26554" lon="8.9988463"><ele>95.0</ele><time>2026-04-19T08:42:45.564Z</time></trkpt><trkpt lat="45.2654997" lon="8.9989272"><ele>95.0</ele><time>2026-04-19T08:42:47.583Z</time></trkpt><trkpt lat="45.2654551" lon="8.999011"><ele>95.0</ele><time>2026-04-19T08:42:49.564Z</time></trkpt><trkpt lat="45.2654075" lon="8.9990998"><ele>95.0</ele><time>2026-04-19T08:42:51.558Z</time></trkpt><trkpt lat="45.2653509" lon="8.9991926"><ele>95.0</ele><time>2026-04-19T08:42:53.57Z</time></trkpt><trkpt lat="45.2653122" lon="8.9992829"><ele>95.0</ele><time>2026-04-19T08:42:55.566Z</time></trkpt><trkpt lat="45.2652755" lon="8.9993593"><ele>95.0</ele><time>2026-04-19T08:42:57.569Z</time></trkpt><trkpt lat="45.265237" lon="8.9994416"><ele>95.0</ele><time>2026-04-19T08:42:59.601Z</time></trkpt><trkpt lat="45.2651872" lon="8.9995459"><ele>95.0</ele><time>2026-04-19T08:43:01.554Z</time></trkpt><trkpt lat="45.2651525" lon="8.9996337"><ele>95.0</ele><time>2026-04-19T08:43:03.569Z</time></trkpt><trkpt lat="45.2651173" lon="8.9997192"><ele>95.0</ele><time>2026-04-19T08:43:05.568Z</time></trkpt><trkpt lat="45.2650679" lon="8.999812"><ele>95.0</ele><time>2026-04-19T08:43:08.569Z</time></trkpt><trkpt lat="45.2650158" lon="8.9998913"><ele>95.0</ele><time>2026-04-19T08:43:12.579Z</time></trkpt><trkpt lat="45.2649749" lon="8.9999602"><ele>95.0</ele><time>2026-04-19T08:43:14.559Z</time></trkpt><trkpt lat="45.2649197" lon="9.0000543"><ele>95.0</ele><time>2026-04-19T08:43:17.571Z</time></trkpt><trkpt lat="45.264886" lon="9.0001399"><ele>95.0</ele><time>2026-04-19T08:43:20.569Z</time></trkpt><trkpt lat="45.2648511" lon="9.0002207"><ele>95.0</ele><time>2026-04-19T08:43:22.567Z</time></trkpt><trkpt lat="45.264799" lon="9.0003094"><ele>95.0</ele><time>2026-04-19T08:43:24.568Z</time></trkpt><trkpt lat="45.2647397" lon="9.0004167"><ele>95.0</ele><time>2026-04-19T08:43:26.567Z</time></trkpt><trkpt lat="45.2646955" lon="9.0004993"><ele>95.0</ele><time>2026-04-19T08:43:28.568Z</time></trkpt><trkpt lat="45.2646553" lon="9.0005842"><ele>95.0</ele><time>2026-04-19T08:43:30.571Z</time></trkpt><trkpt lat="45.2645983" lon="9.0006799"><ele>95.0</ele><time>2026-04-19T08:43:32.569Z</time></trkpt><trkpt lat="45.2645494" lon="9.0007757"><ele>95.0</ele><time>2026-04-19T08:43:34.566Z</time></trkpt><trkpt lat="45.2645058" lon="9.0008754"><ele>95.0</ele><time>2026-04-19T08:43:36.562Z</time></trkpt><trkpt lat="45.2644632" lon="9.0009686"><ele>95.4</ele><time>2026-04-19T08:43:38.56Z</time></trkpt><trkpt lat="45.2644077" lon="9.0010721"><ele>95.8</ele><time>2026-04-19T08:43:40.566Z</time></trkpt><trkpt lat="45.2643546" lon="9.0011661"><ele>96.19999999999999</ele><time>2026-04-19T08:43:42.565Z</time></trkpt><trkpt lat="45.2642904" lon="9.0012561"><ele>96.6</ele><time>2026-04-19T08:43:44.565Z</time></trkpt><trkpt lat="45.264233" lon="9.0013578"><ele>97.0</ele><time>2026-04-19T08:43:46.564Z</time></trkpt><trkpt lat="45.2641824" lon="9.0014676"><ele>97.00000000000001</ele><time>2026-04-19T08:43:48.559Z</time></trkpt><trkpt lat="45.2641328" lon="9.0015708"><ele>97.0</ele><time>2026-04-19T08:43:50.564Z</time></trkpt><trkpt lat="45.2640821" lon="9.0016727"><ele>97.0</ele><time>2026-04-19T08:43:52.563Z</time></trkpt><trkpt lat="45.2640478" lon="9.0017659"><ele>97.0</ele><time>2026-04-19T08:43:54.558Z</time></trkpt><trkpt lat="45.2640048" lon="9.0018466"><ele>97.00000000000001</ele><time>2026-04-19T08:43:56.562Z</time></trkpt><trkpt lat="45.263942" lon="9.0019392"><ele>97.0</ele><time>2026-04-19T08:43:58.556Z</time></trkpt><trkpt lat="45.2638818" lon="9.0020452"><ele>96.66666666666667</ele><time>2026-04-19T08:44:00.569Z</time></trkpt><trkpt lat="45.263826" lon="9.002146"><ele>96.33333333333334</ele><time>2026-04-19T08:44:02.561Z</time></trkpt><trkpt lat="45.263771" lon="9.0022252"><ele>96.0</ele><time>2026-04-19T08:44:04.566Z</time></trkpt><trkpt lat="45.263733" lon="9.0022983"><ele>95.66666666666667</ele><time>2026-04-19T08:44:06.573Z</time></trkpt><trkpt lat="45.2636908" lon="9.0023745"><ele>95.33333333333334</ele><time>2026-04-19T08:44:08.562Z</time></trkpt><trkpt lat="45.2636455" lon="9.0024599"><ele>95.0</ele><time>2026-04-19T08:44:10.569Z</time></trkpt><trkpt lat="45.2635978" lon="9.0025512"><ele>95.0</ele><time>2026-04-19T08:44:12.563Z</time></trkpt><trkpt lat="45.2635364" lon="9.0026587"><ele>95.0</ele><time>2026-04-19T08:44:14.56Z</time></trkpt><trkpt lat="45.2634678" lon="9.0027061"><ele>95.0</ele><time>2026-04-19T08:44:16.571Z</time></trkpt><trkpt lat="45.2634076" lon="9.002756"><ele>95.0</ele><time>2026-04-19T08:44:18.558Z</time></trkpt><trkpt lat="45.2633342" lon="9.0028329"><ele>95.0</ele><time>2026-04-19T08:44:21.567Z</time></trkpt><trkpt lat="45.2632871" lon="9.0029118"><ele>95.0</ele><time>2026-04-19T08:44:23.558Z</time></trkpt><trkpt lat="45.2632522" lon="9.003007"><ele>95.0</ele><time>2026-04-19T08:44:25.571Z</time></trkpt><trkpt lat="45.2632255" lon="9.0030945"><ele>95.0</ele><time>2026-04-19T08:44:27.562Z</time></trkpt><trkpt lat="45.2631841" lon="9.0031797"><ele>95.0</ele><time>2026-04-19T08:44:29.559Z</time></trkpt><trkpt lat="45.2631345" lon="9.0032651"><ele>95.0</ele><time>2026-04-19T08:44:31.561Z</time></trkpt><trkpt lat="45.2630898" lon="9.0033419"><ele>95.0</ele><time>2026-04-19T08:44:33.56Z</time></trkpt><trkpt lat="45.2630368" lon="9.0034003"><ele>95.0</ele><time>2026-04-19T08:44:35.569Z</time></trkpt><trkpt lat="45.2629892" lon="9.0034733"><ele>95.0</ele><time>2026-04-19T08:44:37.568Z</time></trkpt><trkpt lat="45.2629354" lon="9.0035495"><ele>94.42857142857143</ele><time>2026-04-19T08:44:39.572Z</time></trkpt><trkpt lat="45.2628913" lon="9.0036203"><ele>93.85714285714286</ele><time>2026-04-19T08:44:41.596Z</time></trkpt><trkpt lat="45.2628425" lon="9.0036989"><ele>93.28571428571428</ele><time>2026-04-19T08:44:43.568Z</time></trkpt><trkpt lat="45.262788" lon="9.0037669"><ele>92.71428571428572</ele><time>2026-04-19T08:44:45.562Z</time></trkpt><trkpt lat="45.2627318" lon="9.0038256"><ele>92.14285714285714</ele><time>2026-04-19T08:44:47.566Z</time></trkpt><trkpt lat="45.2626695" lon="9.0038809"><ele>91.57142857142857</ele><time>2026-04-19T08:44:49.624Z</time></trkpt><trkpt lat="45.2626187" lon="9.0039437"><ele>91.0</ele><time>2026-04-19T08:44:51.6Z</time></trkpt><trkpt lat="45.2625515" lon="9.0040238"><ele>91.0</ele><time>2026-04-19T08:44:54.56Z</time></trkpt><trkpt lat="45.2625007" lon="9.0041095"><ele>91.0</ele><time>2026-04-19T08:44:56.57Z</time></trkpt><trkpt lat="45.2624474" lon="9.0041829"><ele>91.0</ele><time>2026-04-19T08:44:58.572Z</time></trkpt><trkpt lat="45.2624038" lon="9.0042884"><ele>91.0</ele><time>2026-04-19T08:45:00.559Z</time></trkpt><trkpt lat="45.2623511" lon="9.0043768"><ele>91.0</ele><time>2026-04-19T08:45:02.57Z</time></trkpt><trkpt lat="45.2623134" lon="9.0044743"><ele>91.0</ele><time>2026-04-19T08:45:04.562Z</time></trkpt><trkpt lat="45.2622727" lon="9.0045777"><ele>90.66666666666666</ele><time>2026-04-19T08:45:06.577Z</time></trkpt><trkpt lat="45.2622214" lon="9.0046766"><ele>90.33333333333333</ele><time>2026-04-19T08:45:08.567Z</time></trkpt><trkpt lat="45.2621818" lon="9.0047746"><ele>90.0</ele><time>2026-04-19T08:45:10.568Z</time></trkpt><trkpt lat="45.2621181" lon="9.0048732"><ele>89.66666666666667</ele><time>2026-04-19T08:45:12.571Z</time></trkpt><trkpt lat="45.2620641" lon="9.0049579"><ele>89.33333333333334</ele><time>2026-04-19T08:45:14.568Z</time></trkpt><trkpt lat="45.2620143" lon="9.0050393"><ele>89.0</ele><time>2026-04-19T08:45:16.567Z</time></trkpt><trkpt lat="45.2619616" lon="9.0051066"><ele>88.99999999999999</ele><time>2026-04-19T08:45:18.568Z</time></trkpt><trkpt lat="45.2619118" lon="9.0051771"><ele>89.0</ele><time>2026-04-19T08:45:20.555Z</time></trkpt><trkpt lat="45.2618578" lon="9.005242"><ele>89.0</ele><time>2026-04-19T08:45:22.554Z</time></trkpt><trkpt lat="45.2618054" lon="9.0053033"><ele>89.0</ele><time>2026-04-19T08:45:24.556Z</time></trkpt><trkpt lat="45.2617445" lon="9.005375"><ele>89.0</ele><time>2026-04-19T08:45:26.565Z</time></trkpt><trkpt lat="45.2616843" lon="9.0054426"><ele>88.99999999999999</ele><time>2026-04-19T08:45:28.566Z</time></trkpt><trkpt lat="45.2616157" lon="9.0055054"><ele>89.0</ele><time>2026-04-19T08:45:30.569Z</time></trkpt><trkpt lat="45.2615522" lon="9.0055595"><ele>88.99999999999999</ele><time>2026-04-19T08:45:32.569Z</time></trkpt><trkpt lat="45.261497" lon="9.0056047"><ele>89.0</ele><time>2026-04-19T08:45:34.565Z</time></trkpt><trkpt lat="45.2614383" lon="9.005664"><ele>89.0</ele><time>2026-04-19T08:45:36.563Z</time></trkpt><trkpt lat="45.261375" lon="9.0057267"><ele>89.0</ele><time>2026-04-19T08:45:38.569Z</time></trkpt><trkpt lat="45.2613169" lon="9.0057698"><ele>89.0</ele><time>2026-04-19T08:45:40.566Z</time></trkpt><trkpt lat="45.2612581" lon="9.0058413"><ele>88.99999999999999</ele><time>2026-04-19T08:45:42.558Z</time></trkpt><trkpt lat="45.2612116" lon="9.0059223"><ele>89.0</ele><time>2026-04-19T08:45:44.566Z</time></trkpt><trkpt lat="45.2611535" lon="9.0059867"><ele>88.5</ele><time>2026-04-19T08:45:46.564Z</time></trkpt><trkpt lat="45.2611088" lon="9.006057"><ele>88.0</ele><time>2026-04-19T08:45:48.562Z</time></trkpt><trkpt lat="45.2610606" lon="9.0061323"><ele>87.5</ele><time>2026-04-19T08:45:50.564Z</time></trkpt><trkpt lat="45.2610083" lon="9.0062175"><ele>87.0</ele><time>2026-04-19T08:45:52.564Z</time></trkpt><trkpt lat="45.2609525" lon="9.0062959"><ele>86.5</ele><time>2026-04-19T08:45:54.63Z</time></trkpt><trkpt lat="45.2609005" lon="9.0063965"><ele>86.0</ele><time>2026-04-19T08:45:56.574Z</time></trkpt><trkpt lat="45.2608537" lon="9.0064789"><ele>86.00000000000001</ele><time>2026-04-19T08:45:58.563Z</time></trkpt><trkpt lat="45.2608144" lon="9.0065493"><ele>86.0</ele><time>2026-04-19T08:46:00.575Z</time></trkpt><trkpt lat="45.2607723" lon="9.0066197"><ele>86.0</ele><time>2026-04-19T08:46:02.579Z</time></trkpt><trkpt lat="45.2607175" lon="9.0066817"><ele>86.0</ele><time>2026-04-19T08:46:04.563Z</time></trkpt><trkpt lat="45.2606655" lon="9.0067505"><ele>86.0</ele><time>2026-04-19T08:46:06.646Z</time></trkpt><trkpt lat="45.2606059" lon="9.006858"><ele>86.00000000000001</ele><time>2026-04-19T08:46:09.567Z</time></trkpt><trkpt lat="45.2605713" lon="9.0069363"><ele>86.0</ele><time>2026-04-19T08:46:11.563Z</time></trkpt><trkpt lat="45.2605254" lon="9.0070034"><ele>86.33333333333334</ele><time>2026-04-19T08:46:13.577Z</time></trkpt><trkpt lat="45.2604734" lon="9.0070773"><ele>86.66666666666667</ele><time>2026-04-19T08:46:15.562Z</time></trkpt><trkpt lat="45.2604224" lon="9.0071684"><ele>87.0</ele><time>2026-04-19T08:46:17.57Z</time></trkpt><trkpt lat="45.2603707" lon="9.0072634"><ele>87.33333333333333</ele><time>2026-04-19T08:46:19.604Z</time></trkpt><trkpt lat="45.2603272" lon="9.0073553"><ele>87.66666666666666</ele><time>2026-04-19T08:46:21.628Z</time></trkpt><trkpt lat="45.2602821" lon="9.0074601"><ele>88.0</ele><time>2026-04-19T08:46:23.561Z</time></trkpt><trkpt lat="45.2602306" lon="9.0075696"><ele>88.0</ele><time>2026-04-19T08:46:25.565Z</time></trkpt><trkpt lat="45.2601845" lon="9.0076663"><ele>88.0</ele><time>2026-04-19T08:46:27.581Z</time></trkpt><trkpt lat="45.2601479" lon="9.0077479"><ele>88.0</ele><time>2026-04-19T08:46:29.576Z</time></trkpt><trkpt lat="45.2601117" lon="9.0078415"><ele>88.0</ele><time>2026-04-19T08:46:31.562Z</time></trkpt><trkpt lat="45.2600738" lon="9.0079443"><ele>88.0</ele><time>2026-04-19T08:46:33.568Z</time></trkpt><trkpt lat="45.2600287" lon="9.0080411"><ele>88.0</ele><time>2026-04-19T08:46:35.571Z</time></trkpt><trkpt lat="45.259989" lon="9.0081317"><ele>88.0</ele><time>2026-04-19T08:46:37.567Z</time></trkpt><trkpt lat="45.2599487" lon="9.008219"><ele>88.0</ele><time>2026-04-19T08:46:39.568Z</time></trkpt><trkpt lat="45.2599061" lon="9.0083068"><ele>88.0</ele><time>2026-04-19T08:46:41.577Z</time></trkpt><trkpt lat="45.2598657" lon="9.0084047"><ele>88.0</ele><time>2026-04-19T08:46:43.564Z</time></trkpt><trkpt lat="45.2598241" lon="9.008511"><ele>88.0</ele><time>2026-04-19T08:46:45.561Z</time></trkpt><trkpt lat="45.2597742" lon="9.0086253"><ele>88.0</ele><time>2026-04-19T08:46:47.629Z</time></trkpt><trkpt lat="45.2597243" lon="9.0087316"><ele>88.33333333333333</ele><time>2026-04-19T08:46:49.591Z</time></trkpt><trkpt lat="45.2596822" lon="9.0088068"><ele>88.66666666666666</ele><time>2026-04-19T08:46:51.574Z</time></trkpt><trkpt lat="45.2596446" lon="9.008902"><ele>89.0</ele><time>2026-04-19T08:46:53.556Z</time></trkpt><trkpt lat="45.2596066" lon="9.0090119"><ele>89.33333333333333</ele><time>2026-04-19T08:46:55.555Z</time></trkpt><trkpt lat="45.2595707" lon="9.009115"><ele>89.66666666666667</ele><time>2026-04-19T08:46:57.563Z</time></trkpt><trkpt lat="45.2595361" lon="9.0092029"><ele>90.0</ele><time>2026-04-19T08:46:59.566Z</time></trkpt><trkpt lat="45.2594806" lon="9.0092743"><ele>90.16666666666667</ele><time>2026-04-19T08:47:01.566Z</time></trkpt><trkpt lat="45.2594056" lon="9.0093237"><ele>90.33333333333333</ele><time>2026-04-19T08:47:03.571Z</time></trkpt><trkpt lat="45.259336" lon="9.0093556"><ele>90.5</ele><time>2026-04-19T08:47:05.559Z</time></trkpt><trkpt lat="45.2592679" lon="9.0093955"><ele>90.66666666666666</ele><time>2026-04-19T08:47:07.559Z</time></trkpt><trkpt lat="45.2591894" lon="9.0094406"><ele>90.83333333333333</ele><time>2026-04-19T08:47:09.566Z</time></trkpt><trkpt lat="45.2591115" lon="9.0094891"><ele>91.0</ele><time>2026-04-19T08:47:11.563Z</time></trkpt><trkpt lat="45.2590315" lon="9.009549"><ele>91.0</ele><time>2026-04-19T08:47:13.563Z</time></trkpt><trkpt lat="45.258953" lon="9.0096133"><ele>91.0</ele><time>2026-04-19T08:47:15.569Z</time></trkpt><trkpt lat="45.2588863" lon="9.0096691"><ele>91.0</ele><time>2026-04-19T08:47:17.556Z</time></trkpt><trkpt lat="45.25882" lon="9.0097351"><ele>91.0</ele><time>2026-04-19T08:47:19.571Z</time></trkpt><trkpt lat="45.2587401" lon="9.009808"><ele>91.0</ele><time>2026-04-19T08:47:21.568Z</time></trkpt><trkpt lat="45.2586547" lon="9.0098778"><ele>91.0</ele><time>2026-04-19T08:47:23.569Z</time></trkpt><trkpt lat="45.2585814" lon="9.0099545"><ele>91.0</ele><time>2026-04-19T08:47:25.589Z</time></trkpt><trkpt lat="45.2585266" lon="9.010017"><ele>91.0</ele><time>2026-04-19T08:47:27.57Z</time></trkpt><trkpt lat="45.2584745" lon="9.0100971"><ele>91.0</ele><time>2026-04-19T08:47:29.558Z</time></trkpt><trkpt lat="45.2584103" lon="9.0101586"><ele>91.0</ele><time>2026-04-19T08:47:31.562Z</time></trkpt><trkpt lat="45.25835" lon="9.0102214"><ele>91.0</ele><time>2026-04-19T08:47:33.589Z</time></trkpt><trkpt lat="45.258287" lon="9.0102787"><ele>91.0</ele><time>2026-04-19T08:47:35.569Z</time></trkpt><trkpt lat="45.2582232" lon="9.0103482"><ele>91.0</ele><time>2026-04-19T08:47:37.564Z</time></trkpt><trkpt lat="45.2581548" lon="9.0104085"><ele>91.0</ele><time>2026-04-19T08:47:39.57Z</time></trkpt><trkpt lat="45.2580994" lon="9.0104658"><ele>91.0</ele><time>2026-04-19T08:47:41.565Z</time></trkpt><trkpt lat="45.2580408" lon="9.0105265"><ele>91.0</ele><time>2026-04-19T08:47:43.554Z</time></trkpt><trkpt lat="45.2579648" lon="9.0106016"><ele>91.0</ele><time>2026-04-19T08:47:45.556Z</time></trkpt><trkpt lat="45.2578947" lon="9.0106762"><ele>91.0</ele><time>2026-04-19T08:47:47.56Z</time></trkpt><trkpt lat="45.2578355" lon="9.0107485"><ele>90.83333333333333</ele><time>2026-04-19T08:47:49.564Z</time></trkpt><trkpt lat="45.2577901" lon="9.0108151"><ele>90.66666666666666</ele><time>2026-04-19T08:47:51.574Z</time></trkpt><trkpt lat="45.2577354" lon="9.0108755"><ele>90.5</ele><time>2026-04-19T08:47:53.568Z</time></trkpt><trkpt lat="45.2576529" lon="9.010953"><ele>90.33333333333333</ele><time>2026-04-19T08:47:55.57Z</time></trkpt><trkpt lat="45.257572" lon="9.0110274"><ele>90.16666666666667</ele><time>2026-04-19T08:47:57.572Z</time></trkpt><trkpt lat="45.2574984" lon="9.0110984"><ele>90.0</ele><time>2026-04-19T08:47:59.576Z</time></trkpt><trkpt lat="45.2574256" lon="9.0111601"><ele>90.0</ele><time>2026-04-19T08:48:01.568Z</time></trkpt><trkpt lat="45.2573513" lon="9.0112424"><ele>90.0</ele><time>2026-04-19T08:48:04.642Z</time></trkpt><trkpt lat="45.2572826" lon="9.0112999"><ele>90.0</ele><time>2026-04-19T08:48:06.563Z</time></trkpt><trkpt lat="45.257222" lon="9.0113563"><ele>90.0</ele><time>2026-04-19T08:48:08.565Z</time></trkpt><trkpt lat="45.257156" lon="9.0114145"><ele>90.0</ele><time>2026-04-19T08:48:10.573Z</time></trkpt><trkpt lat="45.2570973" lon="9.0114712"><ele>90.0</ele><time>2026-04-19T08:48:12.556Z</time></trkpt><trkpt lat="45.2570398" lon="9.0115439"><ele>89.66666666666667</ele><time>2026-04-19T08:48:14.565Z</time></trkpt><trkpt lat="45.2569976" lon="9.0116311"><ele>89.33333333333333</ele><time>2026-04-19T08:48:16.565Z</time></trkpt><trkpt lat="45.2569559" lon="9.0117217"><ele>89.0</ele><time>2026-04-19T08:48:18.638Z</time></trkpt><trkpt lat="45.2569113" lon="9.0118195"><ele>88.66666666666666</ele><time>2026-04-19T08:48:20.563Z</time></trkpt><trkpt lat="45.2568545" lon="9.0119265"><ele>88.33333333333333</ele><time>2026-04-19T08:48:22.569Z</time></trkpt><trkpt lat="45.256799" lon="9.0120205"><ele>88.0</ele><time>2026-04-19T08:48:24.569Z</time></trkpt><trkpt lat="45.256742" lon="9.0121079"><ele>88.0</ele><time>2026-04-19T08:48:26.58Z</time></trkpt><trkpt lat="45.2566839" lon="9.0122131"><ele>88.0</ele><time>2026-04-19T08:48:28.563Z</time></trkpt><trkpt lat="45.2566289" lon="9.0123015"><ele>88.0</ele><time>2026-04-19T08:48:30.568Z</time></trkpt><trkpt lat="45.2565779" lon="9.0123744"><ele>88.0</ele><time>2026-04-19T08:48:32.571Z</time></trkpt><trkpt lat="45.2565292" lon="9.012456"><ele>88.0</ele><time>2026-04-19T08:48:34.567Z</time></trkpt><trkpt lat="45.2564752" lon="9.0125341"><ele>88.0</ele><time>2026-04-19T08:48:36.569Z</time></trkpt><trkpt lat="45.256417" lon="9.0126097"><ele>88.0</ele><time>2026-04-19T08:48:38.578Z</time></trkpt><trkpt lat="45.2563675" lon="9.012688"><ele>88.0</ele><time>2026-04-19T08:48:40.563Z</time></trkpt><trkpt lat="45.2563202" lon="9.012776"><ele>88.0</ele><time>2026-04-19T08:48:42.564Z</time></trkpt><trkpt lat="45.2562753" lon="9.0128593"><ele>88.0</ele><time>2026-04-19T08:48:44.567Z</time></trkpt><trkpt lat="45.2562256" lon="9.012956"><ele>88.0</ele><time>2026-04-19T08:48:46.56Z</time></trkpt><trkpt lat="45.2561622" lon="9.0130561"><ele>88.0</ele><time>2026-04-19T08:48:48.565Z</time></trkpt><trkpt lat="45.2560876" lon="9.0131453"><ele>88.0</ele><time>2026-04-19T08:48:50.562Z</time></trkpt><trkpt lat="45.256016" lon="9.0132066"><ele>88.0</ele><time>2026-04-19T08:48:52.564Z</time></trkpt><trkpt lat="45.2559399" lon="9.0132646"><ele>88.0</ele><time>2026-04-19T08:48:54.577Z</time></trkpt><trkpt lat="45.2558739" lon="9.0133196"><ele>88.0</ele><time>2026-04-19T08:48:56.559Z</time></trkpt><trkpt lat="45.2557876" lon="9.0133824"><ele>88.0</ele><time>2026-04-19T08:48:58.561Z</time></trkpt><trkpt lat="45.2556997" lon="9.0134527"><ele>88.0</ele><time>2026-04-19T08:49:00.564Z</time></trkpt><trkpt lat="45.2556229" lon="9.0134982"><ele>87.83333333333333</ele><time>2026-04-19T08:49:02.564Z</time></trkpt><trkpt lat="45.2555527" lon="9.0135403"><ele>87.66666666666666</ele><time>2026-04-19T08:49:04.564Z</time></trkpt><trkpt lat="45.2554852" lon="9.0135889"><ele>87.5</ele><time>2026-04-19T08:49:06.568Z</time></trkpt><trkpt lat="45.2554147" lon="9.0136425"><ele>87.33333333333333</ele><time>2026-04-19T08:49:08.565Z</time></trkpt><trkpt lat="45.2553479" lon="9.0136902"><ele>87.16666666666667</ele><time>2026-04-19T08:49:10.564Z</time></trkpt><trkpt lat="45.2552793" lon="9.0137346"><ele>87.0</ele><time>2026-04-19T08:49:12.575Z</time></trkpt><trkpt lat="45.2552165" lon="9.0137755"><ele>87.0</ele><time>2026-04-19T08:49:14.568Z</time></trkpt><trkpt lat="45.2551568" lon="9.0138062"><ele>87.0</ele><time>2026-04-19T08:49:16.565Z</time></trkpt><trkpt lat="45.2550891" lon="9.0138538"><ele>87.0</ele><time>2026-04-19T08:49:18.556Z</time></trkpt><trkpt lat="45.2550118" lon="9.013901"><ele>87.0</ele><time>2026-04-19T08:49:20.561Z</time></trkpt><trkpt lat="45.2549404" lon="9.0139532"><ele>87.0</ele><time>2026-04-19T08:49:22.567Z</time></trkpt><trkpt lat="45.2548499" lon="9.0139873"><ele>87.0</ele><time>2026-04-19T08:49:24.567Z</time></trkpt><trkpt lat="45.2547633" lon="9.0140169"><ele>87.0</ele><time>2026-04-19T08:49:26.571Z</time></trkpt><trkpt lat="45.254684" lon="9.0140395"><ele>87.0</ele><time>2026-04-19T08:49:28.566Z</time></trkpt><trkpt lat="45.2546088" lon="9.0140253"><ele>87.0</ele><time>2026-04-19T08:49:30.57Z</time></trkpt><trkpt lat="45.2545408" lon="9.0139887"><ele>87.0</ele><time>2026-04-19T08:49:32.561Z</time></trkpt><trkpt lat="45.2544628" lon="9.0139426"><ele>87.0</ele><time>2026-04-19T08:49:34.561Z</time></trkpt><trkpt lat="45.2543932" lon="9.0138912"><ele>87.0</ele><time>2026-04-19T08:49:36.568Z</time></trkpt><trkpt lat="45.2543239" lon="9.0138486"><ele>87.0</ele><time>2026-04-19T08:49:38.559Z</time></trkpt><trkpt lat="45.2542484" lon="9.0138024"><ele>87.0</ele><time>2026-04-19T08:49:40.556Z</time></trkpt><trkpt lat="45.2541498" lon="9.0137306"><ele>87.0</ele><time>2026-04-19T08:49:42.563Z</time></trkpt><trkpt lat="45.2540426" lon="9.0136867"><ele>87.0</ele><time>2026-04-19T08:49:44.563Z</time></trkpt><trkpt lat="45.2539681" lon="9.0136395"><ele>87.0</ele><time>2026-04-19T08:49:46.556Z</time></trkpt><trkpt lat="45.2538927" lon="9.0135944"><ele>87.83333333333333</ele><time>2026-04-19T08:49:48.564Z</time></trkpt><trkpt lat="45.2538167" lon="9.0135477"><ele>88.66666666666667</ele><time>2026-04-19T08:49:50.565Z</time></trkpt><trkpt lat="45.2537241" lon="9.0134899"><ele>89.5</ele><time>2026-04-19T08:49:52.562Z</time></trkpt><trkpt lat="45.2536575" lon="9.0134424"><ele>90.33333333333334</ele><time>2026-04-19T08:49:54.562Z</time></trkpt><trkpt lat="45.2535979" lon="9.0133942"><ele>91.16666666666667</ele><time>2026-04-19T08:49:56.559Z</time></trkpt><trkpt lat="45.2535278" lon="9.0133492"><ele>92.0</ele><time>2026-04-19T08:49:58.566Z</time></trkpt><trkpt lat="45.2534541" lon="9.0132994"><ele>92.0</ele><time>2026-04-19T08:50:00.556Z</time></trkpt><trkpt lat="45.2533831" lon="9.0132544"><ele>92.0</ele><time>2026-04-19T08:50:02.563Z</time></trkpt><trkpt lat="45.2533084" lon="9.0132124"><ele>92.0</ele><time>2026-04-19T08:50:04.569Z</time></trkpt><trkpt lat="45.2532297" lon="9.0131791"><ele>92.0</ele><time>2026-04-19T08:50:06.563Z</time></trkpt><trkpt lat="45.2531545" lon="9.0131684"><ele>92.0</ele><time>2026-04-19T08:50:08.574Z</time></trkpt><trkpt lat="45.2530805" lon="9.0131859"><ele>92.0</ele><time>2026-04-19T08:50:10.556Z</time></trkpt><trkpt lat="45.2529958" lon="9.0132369"><ele>92.16666666666667</ele><time>2026-04-19T08:50:12.565Z</time></trkpt><trkpt lat="45.25293" lon="9.0132784"><ele>92.33333333333334</ele><time>2026-04-19T08:50:14.564Z</time></trkpt><trkpt lat="45.2528588" lon="9.0133274"><ele>92.5</ele><time>2026-04-19T08:50:16.564Z</time></trkpt><trkpt lat="45.2527843" lon="9.0133808"><ele>92.66666666666667</ele><time>2026-04-19T08:50:18.564Z</time></trkpt><trkpt lat="45.2526975" lon="9.0134383"><ele>92.83333333333333</ele><time>2026-04-19T08:50:20.566Z</time></trkpt><trkpt lat="45.2526308" lon="9.0134883"><ele>93.0</ele><time>2026-04-19T08:50:22.562Z</time></trkpt><trkpt lat="45.2525585" lon="9.0135251"><ele>93.0</ele><time>2026-04-19T08:50:24.568Z</time></trkpt><trkpt lat="45.2524892" lon="9.0135394"><ele>93.0</ele><time>2026-04-19T08:50:26.559Z</time></trkpt><trkpt lat="45.2524152" lon="9.0135497"><ele>93.0</ele><time>2026-04-19T08:50:28.562Z</time></trkpt><trkpt lat="45.2523349" lon="9.0135359"><ele>93.0</ele><time>2026-04-19T08:50:30.571Z</time></trkpt><trkpt lat="45.2522591" lon="9.0135289"><ele>93.0</ele><time>2026-04-19T08:50:32.566Z</time></trkpt><trkpt lat="45.2521799" lon="9.0135096"><ele>93.0</ele><time>2026-04-19T08:50:34.554Z</time></trkpt><trkpt lat="45.252102" lon="9.0134911"><ele>92.66666666666667</ele><time>2026-04-19T08:50:36.565Z</time></trkpt><trkpt lat="45.2520149" lon="9.0134681"><ele>92.33333333333333</ele><time>2026-04-19T08:50:38.567Z</time></trkpt><trkpt lat="45.2519341" lon="9.0134497"><ele>92.0</ele><time>2026-04-19T08:50:40.563Z</time></trkpt><trkpt lat="45.2518517" lon="9.0134112"><ele>91.66666666666666</ele><time>2026-04-19T08:50:42.555Z</time></trkpt><trkpt lat="45.2517769" lon="9.0133731"><ele>91.33333333333333</ele><time>2026-04-19T08:50:44.562Z</time></trkpt><trkpt lat="45.2517006" lon="9.0133367"><ele>91.0</ele><time>2026-04-19T08:50:46.567Z</time></trkpt><trkpt lat="45.2516316" lon="9.0133038"><ele>91.0</ele><time>2026-04-19T08:50:48.56Z</time></trkpt><trkpt lat="45.2515617" lon="9.0132482"><ele>91.0</ele><time>2026-04-19T08:50:50.567Z</time></trkpt><trkpt lat="45.2514667" lon="9.0131728"><ele>91.0</ele><time>2026-04-19T08:50:52.56Z</time></trkpt><trkpt lat="45.2513736" lon="9.0130888"><ele>91.0</ele><time>2026-04-19T08:50:54.564Z</time></trkpt><trkpt lat="45.2513074" lon="9.0130285"><ele>91.0</ele><time>2026-04-19T08:50:56.564Z</time></trkpt><trkpt lat="45.2512499" lon="9.0129669"><ele>90.66666666666666</ele><time>2026-04-19T08:50:58.562Z</time></trkpt><trkpt lat="45.2511935" lon="9.0129136"><ele>90.33333333333333</ele><time>2026-04-19T08:51:00.564Z</time></trkpt><trkpt lat="45.2511386" lon="9.0128624"><ele>90.0</ele><time>2026-04-19T08:51:02.557Z</time></trkpt><trkpt lat="45.2510787" lon="9.012807"><ele>89.66666666666667</ele><time>2026-04-19T08:51:04.562Z</time></trkpt><trkpt lat="45.251013" lon="9.0127463"><ele>89.33333333333334</ele><time>2026-04-19T08:51:06.565Z</time></trkpt><trkpt lat="45.2509231" lon="9.0127046"><ele>89.0</ele><time>2026-04-19T08:51:08.562Z</time></trkpt><trkpt lat="45.2508289" lon="9.0127089"><ele>89.0</ele><time>2026-04-19T08:51:10.564Z</time></trkpt><trkpt lat="45.2507237" lon="9.0126943"><ele>89.0</ele><time>2026-04-19T08:51:12.567Z</time></trkpt><trkpt lat="45.2506368" lon="9.0126796"><ele>89.0</ele><time>2026-04-19T08:51:14.566Z</time></trkpt><trkpt lat="45.2505419" lon="9.0126898"><ele>89.0</ele><time>2026-04-19T08:51:16.56Z</time></trkpt><trkpt lat="45.2504452" lon="9.0127019"><ele>89.0</ele><time>2026-04-19T08:51:18.566Z</time></trkpt><trkpt lat="45.2503755" lon="9.0127281"><ele>88.42857142857142</ele><time>2026-04-19T08:51:20.57Z</time></trkpt><trkpt lat="45.2503161" lon="9.0127661"><ele>87.85714285714286</ele><time>2026-04-19T08:51:22.562Z</time></trkpt><trkpt lat="45.2502618" lon="9.0128129"><ele>87.28571428571428</ele><time>2026-04-19T08:51:24.56Z</time></trkpt><trkpt lat="45.2502056" lon="9.0128685"><ele>86.71428571428571</ele><time>2026-04-19T08:51:26.562Z</time></trkpt><trkpt lat="45.2501467" lon="9.0129442"><ele>86.14285714285714</ele><time>2026-04-19T08:51:28.566Z</time></trkpt><trkpt lat="45.2500858" lon="9.0130354"><ele>85.57142857142857</ele><time>2026-04-19T08:51:30.564Z</time></trkpt><trkpt lat="45.2500358" lon="9.0131198"><ele>85.0</ele><time>2026-04-19T08:51:32.564Z</time></trkpt><trkpt lat="45.2499961" lon="9.0132008"><ele>85.0</ele><time>2026-04-19T08:51:34.563Z</time></trkpt><trkpt lat="45.2499556" lon="9.013278"><ele>85.0</ele><time>2026-04-19T08:51:36.564Z</time></trkpt><trkpt lat="45.2499188" lon="9.0133511"><ele>85.0</ele><time>2026-04-19T08:51:38.564Z</time></trkpt><trkpt lat="45.2499288" lon="9.0134398"><ele>85.0</ele><time>2026-04-19T08:51:41.561Z</time></trkpt><trkpt lat="45.2499891" lon="9.0135258"><ele>85.0</ele><time>2026-04-19T08:51:44.562Z</time></trkpt><trkpt lat="45.2500473" lon="9.0136141"><ele>85.0</ele><time>2026-04-19T08:51:47.597Z</time></trkpt><trkpt lat="45.2501042" lon="9.0136763"><ele>85.0</ele><time>2026-04-19T08:51:49.56Z</time></trkpt><trkpt lat="45.2501662" lon="9.0137549"><ele>85.16666666666666</ele><time>2026-04-19T08:51:51.559Z</time></trkpt><trkpt lat="45.250232" lon="9.0138525"><ele>85.33333333333333</ele><time>2026-04-19T08:51:53.561Z</time></trkpt><trkpt lat="45.2502717" lon="9.0139474"><ele>85.5</ele><time>2026-04-19T08:51:55.566Z</time></trkpt><trkpt lat="45.2503145" lon="9.0140388"><ele>85.66666666666667</ele><time>2026-04-19T08:51:57.753Z</time></trkpt><trkpt lat="45.2503491" lon="9.0141321"><ele>85.83333333333334</ele><time>2026-04-19T08:51:59.569Z</time></trkpt><trkpt lat="45.2503817" lon="9.0142244"><ele>86.0</ele><time>2026-04-19T08:52:01.561Z</time></trkpt><trkpt lat="45.250426" lon="9.0143487"><ele>86.0</ele><time>2026-04-19T08:52:03.562Z</time></trkpt><trkpt lat="45.2504733" lon="9.0144762"><ele>86.0</ele><time>2026-04-19T08:52:05.563Z</time></trkpt><trkpt lat="45.2505235" lon="9.0145921"><ele>86.0</ele><time>2026-04-19T08:52:07.557Z</time></trkpt><trkpt lat="45.2505605" lon="9.0147146"><ele>86.0</ele><time>2026-04-19T08:52:09.566Z</time></trkpt><trkpt lat="45.2506037" lon="9.0148286"><ele>86.0</ele><time>2026-04-19T08:52:11.568Z</time></trkpt><trkpt lat="45.2506334" lon="9.0149295"><ele>85.85714285714286</ele><time>2026-04-19T08:52:13.559Z</time></trkpt><trkpt lat="45.2506666" lon="9.0150211"><ele>85.71428571428572</ele><time>2026-04-19T08:52:15.566Z</time></trkpt><trkpt lat="45.250702" lon="9.0151113"><ele>85.57142857142858</ele><time>2026-04-19T08:52:17.571Z</time></trkpt><trkpt lat="45.2507446" lon="9.0152248"><ele>85.42857142857143</ele><time>2026-04-19T08:52:19.568Z</time></trkpt><trkpt lat="45.2507792" lon="9.01531"><ele>85.28571428571428</ele><time>2026-04-19T08:52:21.563Z</time></trkpt><trkpt lat="45.2508137" lon="9.0153973"><ele>85.14285714285715</ele><time>2026-04-19T08:52:23.557Z</time></trkpt><trkpt lat="45.250843" lon="9.0154903"><ele>85.0</ele><time>2026-04-19T08:52:25.557Z</time></trkpt><trkpt lat="45.2508737" lon="9.0155815"><ele>85.0</ele><time>2026-04-19T08:52:27.566Z</time></trkpt><trkpt lat="45.2509041" lon="9.0156743"><ele>85.0</ele><time>2026-04-19T08:52:29.569Z</time></trkpt><trkpt lat="45.2509335" lon="9.0157749"><ele>85.0</ele><time>2026-04-19T08:52:31.563Z</time></trkpt><trkpt lat="45.2509755" lon="9.015862"><ele>85.0</ele><time>2026-04-19T08:52:33.56Z</time></trkpt><trkpt lat="45.2510184" lon="9.0159604"><ele>85.0</ele><time>2026-04-19T08:52:35.562Z</time></trkpt><trkpt lat="45.2510565" lon="9.016077"><ele>85.0</ele><time>2026-04-19T08:52:37.57Z</time></trkpt><trkpt lat="45.2510896" lon="9.0161608"><ele>85.0</ele><time>2026-04-19T08:52:39.561Z</time></trkpt><trkpt lat="45.2511306" lon="9.0162537"><ele>85.0</ele><time>2026-04-19T08:52:41.557Z</time></trkpt><trkpt lat="45.2511682" lon="9.0163581"><ele>85.0</ele><time>2026-04-19T08:52:43.562Z</time></trkpt><trkpt lat="45.2512173" lon="9.016479"><ele>85.0</ele><time>2026-04-19T08:52:45.585Z</time></trkpt><trkpt lat="45.251249" lon="9.0165738"><ele>85.0</ele><time>2026-04-19T08:52:47.57Z</time></trkpt><trkpt lat="45.2512782" lon="9.0166679"><ele>85.0</ele><time>2026-04-19T08:52:49.627Z</time></trkpt><trkpt lat="45.2513109" lon="9.0167521"><ele>85.0</ele><time>2026-04-19T08:52:51.569Z</time></trkpt><trkpt lat="45.251348" lon="9.0168445"><ele>85.0</ele><time>2026-04-19T08:52:53.557Z</time></trkpt><trkpt lat="45.2513874" lon="9.0169412"><ele>85.0</ele><time>2026-04-19T08:52:55.566Z</time></trkpt><trkpt lat="45.2514247" lon="9.0170417"><ele>85.0</ele><time>2026-04-19T08:52:57.59Z</time></trkpt><trkpt lat="45.251466" lon="9.0171405"><ele>85.0</ele><time>2026-04-19T08:52:59.566Z</time></trkpt><trkpt lat="45.2515113" lon="9.0172787"><ele>85.0</ele><time>2026-04-19T08:53:01.563Z</time></trkpt><trkpt lat="45.2515651" lon="9.0174087"><ele>85.8</ele><time>2026-04-19T08:53:03.561Z</time></trkpt><trkpt lat="45.2516038" lon="9.0175084"><ele>86.6</ele><time>2026-04-19T08:53:05.566Z</time></trkpt><trkpt lat="45.2516472" lon="9.0176407"><ele>87.4</ele><time>2026-04-19T08:53:07.555Z</time></trkpt><trkpt lat="45.2516939" lon="9.0177574"><ele>88.2</ele><time>2026-04-19T08:53:09.557Z</time></trkpt><trkpt lat="45.2517248" lon="9.0178731"><ele>89.0</ele><time>2026-04-19T08:53:11.563Z</time></trkpt><trkpt lat="45.2517663" lon="9.0179828"><ele>89.0</ele><time>2026-04-19T08:53:13.566Z</time></trkpt><trkpt lat="45.2518104" lon="9.018091"><ele>89.0</ele><time>2026-04-19T08:53:15.556Z</time></trkpt><trkpt lat="45.2518595" lon="9.0181878"><ele>89.0</ele><time>2026-04-19T08:53:17.559Z</time></trkpt><trkpt lat="45.2519079" lon="9.0182744"><ele>89.0</ele><time>2026-04-19T08:53:19.573Z</time></trkpt><trkpt lat="45.2519595" lon="9.0183579"><ele>89.0</ele><time>2026-04-19T08:53:21.571Z</time></trkpt><trkpt lat="45.2520152" lon="9.0184521"><ele>89.0</ele><time>2026-04-19T08:53:23.559Z</time></trkpt><trkpt lat="45.2520695" lon="9.0185325"><ele>89.0</ele><time>2026-04-19T08:53:25.555Z</time></trkpt><trkpt lat="45.2521286" lon="9.0186279"><ele>89.0</ele><time>2026-04-19T08:53:27.555Z</time></trkpt><trkpt lat="45.2521876" lon="9.0187269"><ele>89.0</ele><time>2026-04-19T08:53:29.565Z</time></trkpt><trkpt lat="45.2522386" lon="9.0188245"><ele>89.0</ele><time>2026-04-19T08:53:31.591Z</time></trkpt><trkpt lat="45.2522815" lon="9.0189114"><ele>89.0</ele><time>2026-04-19T08:53:33.566Z</time></trkpt><trkpt lat="45.2523383" lon="9.0190232"><ele>89.0</ele><time>2026-04-19T08:53:36.556Z</time></trkpt><trkpt lat="45.2523851" lon="9.0191112"><ele>89.0</ele><time>2026-04-19T08:53:38.562Z</time></trkpt><trkpt lat="45.2524429" lon="9.0192079"><ele>89.0</ele><time>2026-04-19T08:53:40.566Z</time></trkpt><trkpt lat="45.2524937" lon="9.0192949"><ele>89.0</ele><time>2026-04-19T08:53:42.569Z</time></trkpt><trkpt lat="45.2525428" lon="9.0193928"><ele>89.0</ele><time>2026-04-19T08:53:44.568Z</time></trkpt><trkpt lat="45.2525982" lon="9.0194804"><ele>89.0</ele><time>2026-04-19T08:53:46.568Z</time></trkpt><trkpt lat="45.2526508" lon="9.0195836"><ele>89.0</ele><time>2026-04-19T08:53:48.564Z</time></trkpt><trkpt lat="45.2527105" lon="9.0196819"><ele>89.0</ele><time>2026-04-19T08:53:50.559Z</time></trkpt><trkpt lat="45.2527678" lon="9.0197809"><ele>89.0</ele><time>2026-04-19T08:53:52.568Z</time></trkpt><trkpt lat="45.2528275" lon="9.0198833"><ele>89.0</ele><time>2026-04-19T08:53:54.562Z</time></trkpt><trkpt lat="45.2528873" lon="9.0199895"><ele>89.0</ele><time>2026-04-19T08:53:56.565Z</time></trkpt><trkpt lat="45.2529266" lon="9.0200629"><ele>89.0</ele><time>2026-04-19T08:53:58.564Z</time></trkpt><trkpt lat="45.2529824" lon="9.0201441"><ele>89.0</ele><time>2026-04-19T08:54:00.579Z</time></trkpt><trkpt lat="45.2530441" lon="9.0202056"><ele>89.0</ele><time>2026-04-19T08:54:02.554Z</time></trkpt><trkpt lat="45.253105" lon="9.0202559"><ele>89.0</ele><time>2026-04-19T08:54:04.566Z</time></trkpt><trkpt lat="45.2531704" lon="9.0203104"><ele>89.0</ele><time>2026-04-19T08:54:06.568Z</time></trkpt><trkpt lat="45.2532434" lon="9.0203758"><ele>89.0</ele><time>2026-04-19T08:54:08.559Z</time></trkpt><trkpt lat="45.2533147" lon="9.0204247"><ele>89.0</ele><time>2026-04-19T08:54:10.561Z</time></trkpt><trkpt lat="45.2533849" lon="9.0204759"><ele>89.0</ele><time>2026-04-19T08:54:12.563Z</time></trkpt><trkpt lat="45.2534627" lon="9.020531"><ele>89.0</ele><time>2026-04-19T08:54:14.562Z</time></trkpt><trkpt lat="45.2535317" lon="9.0205682"><ele>89.0</ele><time>2026-04-19T08:54:16.559Z</time></trkpt><trkpt lat="45.2536037" lon="9.020618"><ele>89.0</ele><time>2026-04-19T08:54:18.556Z</time></trkpt><trkpt lat="45.2536856" lon="9.0206758"><ele>89.0</ele><time>2026-04-19T08:54:20.559Z</time></trkpt><trkpt lat="45.2537558" lon="9.0207287"><ele>89.0</ele><time>2026-04-19T08:54:22.559Z</time></trkpt><trkpt lat="45.2538318" lon="9.0207806"><ele>89.0</ele><time>2026-04-19T08:54:24.562Z</time></trkpt><trkpt lat="45.2539148" lon="9.0208371"><ele>89.16666666666667</ele><time>2026-04-19T08:54:26.562Z</time></trkpt><trkpt lat="45.2539914" lon="9.0208867"><ele>89.33333333333334</ele><time>2026-04-19T08:54:28.564Z</time></trkpt><trkpt lat="45.2540557" lon="9.0209345"><ele>89.5</ele><time>2026-04-19T08:54:30.564Z</time></trkpt><trkpt lat="45.2541207" lon="9.0209763"><ele>89.66666666666667</ele><time>2026-04-19T08:54:32.563Z</time></trkpt><trkpt lat="45.2541836" lon="9.0210129"><ele>89.83333333333333</ele><time>2026-04-19T08:54:34.631Z</time></trkpt><trkpt lat="45.2542593" lon="9.0210675"><ele>90.0</ele><time>2026-04-19T08:54:36.572Z</time></trkpt><trkpt lat="45.2543294" lon="9.021125"><ele>90.0</ele><time>2026-04-19T08:54:38.57Z</time></trkpt><trkpt lat="45.2543763" lon="9.0212188"><ele>90.0</ele><time>2026-04-19T08:54:40.559Z</time></trkpt><trkpt lat="45.2543661" lon="9.0213435"><ele>90.0</ele><time>2026-04-19T08:54:42.567Z</time></trkpt><trkpt lat="45.2543302" lon="9.0214436"><ele>90.0</ele><time>2026-04-19T08:54:44.564Z</time></trkpt><trkpt lat="45.2542816" lon="9.0215466"><ele>90.0</ele><time>2026-04-19T08:54:46.558Z</time></trkpt><trkpt lat="45.2542346" lon="9.0216558"><ele>90.0</ele><time>2026-04-19T08:54:48.571Z</time></trkpt><trkpt lat="45.2541907" lon="9.021769"><ele>89.83333333333333</ele><time>2026-04-19T08:54:50.561Z</time></trkpt><trkpt lat="45.2541326" lon="9.0218702"><ele>89.66666666666667</ele><time>2026-04-19T08:54:52.565Z</time></trkpt><trkpt lat="45.254082" lon="9.0219815"><ele>89.5</ele><time>2026-04-19T08:54:54.564Z</time></trkpt><trkpt lat="45.2540286" lon="9.0220933"><ele>89.33333333333334</ele><time>2026-04-19T08:54:56.573Z</time></trkpt><trkpt lat="45.2539866" lon="9.0222045"><ele>89.16666666666667</ele><time>2026-04-19T08:54:58.568Z</time></trkpt><trkpt lat="45.2539465" lon="9.0222828"><ele>89.0</ele><time>2026-04-19T08:55:00.56Z</time></trkpt><trkpt lat="45.2539078" lon="9.0223577"><ele>89.0</ele><time>2026-04-19T08:55:02.554Z</time></trkpt><trkpt lat="45.253865" lon="9.0224432"><ele>89.0</ele><time>2026-04-19T08:55:04.561Z</time></trkpt><trkpt lat="45.2538235" lon="9.0225484"><ele>89.0</ele><time>2026-04-19T08:55:06.555Z</time></trkpt><trkpt lat="45.2537747" lon="9.0226382"><ele>89.0</ele><time>2026-04-19T08:55:08.564Z</time></trkpt><trkpt lat="45.2537265" lon="9.0227242"><ele>89.0</ele><time>2026-04-19T08:55:10.559Z</time></trkpt><trkpt lat="45.2536791" lon="9.0228194"><ele>89.0</ele><time>2026-04-19T08:55:12.565Z</time></trkpt><trkpt lat="45.2536252" lon="9.0229168"><ele>88.99999999999999</ele><time>2026-04-19T08:55:14.572Z</time></trkpt><trkpt lat="45.2535743" lon="9.0230004"><ele>89.0</ele><time>2026-04-19T08:55:16.558Z</time></trkpt><trkpt lat="45.2535317" lon="9.0230748"><ele>89.0</ele><time>2026-04-19T08:55:18.566Z</time></trkpt><trkpt lat="45.2534855" lon="9.0231508"><ele>89.0</ele><time>2026-04-19T08:55:20.565Z</time></trkpt><trkpt lat="45.2534251" lon="9.0232261"><ele>89.0</ele><time>2026-04-19T08:55:22.561Z</time></trkpt><trkpt lat="45.2533881" lon="9.0233094"><ele>88.99999999999999</ele><time>2026-04-19T08:55:24.569Z</time></trkpt><trkpt lat="45.2533257" lon="9.023386"><ele>89.0</ele><time>2026-04-19T08:55:27.559Z</time></trkpt><trkpt lat="45.2532585" lon="9.0234812"><ele>89.16666666666667</ele><time>2026-04-19T08:55:30.561Z</time></trkpt><trkpt lat="45.2531889" lon="9.0235724"><ele>89.33333333333334</ele><time>2026-04-19T08:55:33.556Z</time></trkpt><trkpt lat="45.2531251" lon="9.0236578"><ele>89.5</ele><time>2026-04-19T08:55:36.564Z</time></trkpt><trkpt lat="45.253072" lon="9.023728"><ele>89.66666666666667</ele><time>2026-04-19T08:55:38.565Z</time></trkpt><trkpt lat="45.2530226" lon="9.0237928"><ele>89.83333333333333</ele><time>2026-04-19T08:55:40.561Z</time></trkpt><trkpt lat="45.2529645" lon="9.0238732"><ele>90.0</ele><time>2026-04-19T08:55:42.566Z</time></trkpt><trkpt lat="45.2529145" lon="9.023941"><ele>90.0</ele><time>2026-04-19T08:55:44.562Z</time></trkpt><trkpt lat="45.25287" lon="9.0240329"><ele>90.0</ele><time>2026-04-19T08:55:46.56Z</time></trkpt><trkpt lat="45.2528176" lon="9.0241332"><ele>90.0</ele><time>2026-04-19T08:55:48.562Z</time></trkpt><trkpt lat="45.2527814" lon="9.0242317"><ele>90.0</ele><time>2026-04-19T08:55:50.627Z</time></trkpt><trkpt lat="45.2527444" lon="9.0243469"><ele>90.0</ele><time>2026-04-19T08:55:52.554Z</time></trkpt><trkpt lat="45.2526974" lon="9.0244514"><ele>90.0</ele><time>2026-04-19T08:55:54.565Z</time></trkpt><trkpt lat="45.2526438" lon="9.0245543"><ele>90.16666666666667</ele><time>2026-04-19T08:55:56.563Z</time></trkpt><trkpt lat="45.2526055" lon="9.0246382"><ele>90.33333333333333</ele><time>2026-04-19T08:55:58.565Z</time></trkpt><trkpt lat="45.2525654" lon="9.0247332"><ele>90.5</ele><time>2026-04-19T08:56:00.562Z</time></trkpt><trkpt lat="45.2525072" lon="9.0248169"><ele>90.66666666666666</ele><time>2026-04-19T08:56:02.627Z</time></trkpt><trkpt lat="45.2524448" lon="9.0248989"><ele>90.83333333333333</ele><time>2026-04-19T08:56:04.567Z</time></trkpt><trkpt lat="45.2523763" lon="9.0249581"><ele>91.0</ele><time>2026-04-19T08:56:06.553Z</time></trkpt><trkpt lat="45.25231" lon="9.0250188"><ele>90.5</ele><time>2026-04-19T08:56:08.563Z</time></trkpt><trkpt lat="45.2522341" lon="9.0250816"><ele>90.0</ele><time>2026-04-19T08:56:10.57Z</time></trkpt><trkpt lat="45.2521569" lon="9.0251494"><ele>89.5</ele><time>2026-04-19T08:56:12.562Z</time></trkpt><trkpt lat="45.2520776" lon="9.0252077"><ele>89.0</ele><time>2026-04-19T08:56:14.566Z</time></trkpt><trkpt lat="45.2520028" lon="9.0252672"><ele>88.5</ele><time>2026-04-19T08:56:16.563Z</time></trkpt><trkpt lat="45.2519294" lon="9.0253174"><ele>88.0</ele><time>2026-04-19T08:56:18.562Z</time></trkpt><trkpt lat="45.2518665" lon="9.0253653"><ele>88.0</ele><time>2026-04-19T08:56:20.565Z</time></trkpt><trkpt lat="45.2517962" lon="9.0254261"><ele>88.0</ele><time>2026-04-19T08:56:22.566Z</time></trkpt><trkpt lat="45.2517236" lon="9.025495"><ele>88.0</ele><time>2026-04-19T08:56:24.559Z</time></trkpt><trkpt lat="45.2516493" lon="9.0255706"><ele>88.0</ele><time>2026-04-19T08:56:26.559Z</time></trkpt><trkpt lat="45.2515796" lon="9.02564"><ele>88.0</ele><time>2026-04-19T08:56:28.56Z</time></trkpt><trkpt lat="45.2515153" lon="9.0257151"><ele>88.0</ele><time>2026-04-19T08:56:30.626Z</time></trkpt><trkpt lat="45.2514343" lon="9.0257897"><ele>88.0</ele><time>2026-04-19T08:56:32.569Z</time></trkpt><trkpt lat="45.2513632" lon="9.025874"><ele>88.0</ele><time>2026-04-19T08:56:34.557Z</time></trkpt><trkpt lat="45.2512958" lon="9.0259599"><ele>88.0</ele><time>2026-04-19T08:56:36.557Z</time></trkpt><trkpt lat="45.2512305" lon="9.0260414"><ele>88.0</ele><time>2026-04-19T08:56:38.563Z</time></trkpt><trkpt lat="45.2511758" lon="9.0261013"><ele>88.0</ele><time>2026-04-19T08:56:40.556Z</time></trkpt><trkpt lat="45.251119" lon="9.0261641"><ele>88.0</ele><time>2026-04-19T08:56:42.559Z</time></trkpt><trkpt lat="45.2510598" lon="9.026243"><ele>88.0</ele><time>2026-04-19T08:56:44.568Z</time></trkpt><trkpt lat="45.2509916" lon="9.0263109"><ele>88.0</ele><time>2026-04-19T08:56:46.555Z</time></trkpt><trkpt lat="45.2509243" lon="9.0263774"><ele>88.0</ele><time>2026-04-19T08:56:48.56Z</time></trkpt><trkpt lat="45.2508534" lon="9.0264444"><ele>88.0</ele><time>2026-04-19T08:56:50.56Z</time></trkpt><trkpt lat="45.2507882" lon="9.0265179"><ele>88.0</ele><time>2026-04-19T08:56:52.566Z</time></trkpt><trkpt lat="45.2507189" lon="9.0265901"><ele>88.0</ele><time>2026-04-19T08:56:54.634Z</time></trkpt><trkpt lat="45.2506405" lon="9.0266582"><ele>88.0</ele><time>2026-04-19T08:56:56.634Z</time></trkpt><trkpt lat="45.250568" lon="9.0267363"><ele>88.0</ele><time>2026-04-19T08:56:58.568Z</time></trkpt><trkpt lat="45.250499" lon="9.0268191"><ele>88.0</ele><time>2026-04-19T08:57:00.568Z</time></trkpt><trkpt lat="45.2504279" lon="9.0268934"><ele>88.0</ele><time>2026-04-19T08:57:02.568Z</time></trkpt><trkpt lat="45.2503615" lon="9.0269664"><ele>88.0</ele><time>2026-04-19T08:57:04.564Z</time></trkpt><trkpt lat="45.2502932" lon="9.0270288"><ele>88.0</ele><time>2026-04-19T08:57:06.562Z</time></trkpt><trkpt lat="45.2502181" lon="9.027106"><ele>88.0</ele><time>2026-04-19T08:57:08.563Z</time></trkpt><trkpt lat="45.2501478" lon="9.027177"><ele>88.0</ele><time>2026-04-19T08:57:10.56Z</time></trkpt><trkpt lat="45.2500688" lon="9.0272686"><ele>88.0</ele><time>2026-04-19T08:57:12.558Z</time></trkpt><trkpt lat="45.2499894" lon="9.0273499"><ele>88.0</ele><time>2026-04-19T08:57:14.562Z</time></trkpt><trkpt lat="45.2499224" lon="9.0274218"><ele>88.0</ele><time>2026-04-19T08:57:16.561Z</time></trkpt><trkpt lat="45.2498661" lon="9.0274893"><ele>88.0</ele><time>2026-04-19T08:57:18.562Z</time></trkpt><trkpt lat="45.2498036" lon="9.0275598"><ele>88.0</ele><time>2026-04-19T08:57:20.559Z</time></trkpt><trkpt lat="45.2497261" lon="9.0276237"><ele>88.0</ele><time>2026-04-19T08:57:22.629Z</time></trkpt><trkpt lat="45.2496515" lon="9.0276845"><ele>88.0</ele><time>2026-04-19T08:57:24.577Z</time></trkpt><trkpt lat="45.2495799" lon="9.0277353"><ele>88.0</ele><time>2026-04-19T08:57:26.563Z</time></trkpt><trkpt lat="45.249526" lon="9.0278035"><ele>88.0</ele><time>2026-04-19T08:57:28.557Z</time></trkpt><trkpt lat="45.2494893" lon="9.0278819"><ele>88.0</ele><time>2026-04-19T08:57:30.558Z</time></trkpt><trkpt lat="45.2494476" lon="9.027955"><ele>88.0</ele><time>2026-04-19T08:57:32.561Z</time></trkpt><trkpt lat="45.2494032" lon="9.0280548"><ele>88.0</ele><time>2026-04-19T08:57:34.565Z</time></trkpt><trkpt lat="45.2493691" lon="9.0281438"><ele>88.0</ele><time>2026-04-19T08:57:36.563Z</time></trkpt><trkpt lat="45.2493241" lon="9.0282435"><ele>88.0</ele><time>2026-04-19T08:57:38.564Z</time></trkpt><trkpt lat="45.2492902" lon="9.0283322"><ele>88.0</ele><time>2026-04-19T08:57:40.561Z</time></trkpt><trkpt lat="45.2492537" lon="9.0284179"><ele>88.0</ele><time>2026-04-19T08:57:42.573Z</time></trkpt><trkpt lat="45.2492113" lon="9.0285118"><ele>88.33333333333333</ele><time>2026-04-19T08:57:44.558Z</time></trkpt><trkpt lat="45.2491667" lon="9.0286248"><ele>88.66666666666666</ele><time>2026-04-19T08:57:46.566Z</time></trkpt><trkpt lat="45.2491343" lon="9.0287269"><ele>89.0</ele><time>2026-04-19T08:57:48.561Z</time></trkpt><trkpt lat="45.2490952" lon="9.0288313"><ele>89.33333333333333</ele><time>2026-04-19T08:57:50.564Z</time></trkpt><trkpt lat="45.2490629" lon="9.0289454"><ele>89.66666666666667</ele><time>2026-04-19T08:57:52.571Z</time></trkpt><trkpt lat="45.2490376" lon="9.0290604"><ele>90.0</ele><time>2026-04-19T08:57:54.567Z</time></trkpt><trkpt lat="45.2490012" lon="9.0291745"><ele>90.16666666666667</ele><time>2026-04-19T08:57:56.564Z</time></trkpt><trkpt lat="45.248968" lon="9.0292775"><ele>90.33333333333333</ele><time>2026-04-19T08:57:58.562Z</time></trkpt><trkpt lat="45.2489398" lon="9.0293716"><ele>90.5</ele><time>2026-04-19T08:58:00.564Z</time></trkpt><trkpt lat="45.2489066" lon="9.0294641"><ele>90.66666666666666</ele><time>2026-04-19T08:58:02.567Z</time></trkpt><trkpt lat="45.2488719" lon="9.0295573"><ele>90.83333333333333</ele><time>2026-04-19T08:58:04.564Z</time></trkpt><trkpt lat="45.2488322" lon="9.0296692"><ele>91.0</ele><time>2026-04-19T08:58:06.563Z</time></trkpt><trkpt lat="45.2487892" lon="9.0297661"><ele>90.83333333333333</ele><time>2026-04-19T08:58:08.563Z</time></trkpt><trkpt lat="45.2487456" lon="9.0298665"><ele>90.66666666666666</ele><time>2026-04-19T08:58:10.558Z</time></trkpt><trkpt lat="45.248711" lon="9.0299738"><ele>90.5</ele><time>2026-04-19T08:58:12.558Z</time></trkpt><trkpt lat="45.2486717" lon="9.0300702"><ele>90.33333333333333</ele><time>2026-04-19T08:58:14.571Z</time></trkpt><trkpt lat="45.2486319" lon="9.0301823"><ele>90.16666666666667</ele><time>2026-04-19T08:58:16.562Z</time></trkpt><trkpt lat="45.2485905" lon="9.03028"><ele>90.0</ele><time>2026-04-19T08:58:18.565Z</time></trkpt><trkpt lat="45.2485523" lon="9.0303867"><ele>90.0</ele><time>2026-04-19T08:58:20.558Z</time></trkpt><trkpt lat="45.2485186" lon="9.0304763"><ele>90.0</ele><time>2026-04-19T08:58:22.567Z</time></trkpt><trkpt lat="45.2484815" lon="9.0305637"><ele>90.0</ele><time>2026-04-19T08:58:24.573Z</time></trkpt><trkpt lat="45.2484353" lon="9.03065"><ele>90.0</ele><time>2026-04-19T08:58:26.564Z</time></trkpt><trkpt lat="45.2483883" lon="9.0307357"><ele>90.0</ele><time>2026-04-19T08:58:28.554Z</time></trkpt><trkpt lat="45.2483042" lon="9.0308791"><ele>90.0</ele><time>2026-04-19T08:58:31.56Z</time></trkpt><trkpt lat="45.2482541" lon="9.0309755"><ele>89.83333333333333</ele><time>2026-04-19T08:58:33.564Z</time></trkpt><trkpt lat="45.2482174" lon="9.0310733"><ele>89.66666666666667</ele><time>2026-04-19T08:58:35.566Z</time></trkpt><trkpt lat="45.2481861" lon="9.0311563"><ele>89.5</ele><time>2026-04-19T08:58:37.562Z</time></trkpt><trkpt lat="45.2481607" lon="9.0312419"><ele>89.33333333333334</ele><time>2026-04-19T08:58:39.557Z</time></trkpt><trkpt lat="45.2481301" lon="9.0313415"><ele>89.16666666666667</ele><time>2026-04-19T08:58:41.564Z</time></trkpt><trkpt lat="45.2480988" lon="9.0314607"><ele>89.0</ele><time>2026-04-19T08:58:43.566Z</time></trkpt><trkpt lat="45.2480651" lon="9.0315803"><ele>88.85714285714285</ele><time>2026-04-19T08:58:45.563Z</time></trkpt><trkpt lat="45.2480308" lon="9.0316842"><ele>88.71428571428571</ele><time>2026-04-19T08:58:47.605Z</time></trkpt><trkpt lat="45.2479949" lon="9.0317811"><ele>88.57142857142857</ele><time>2026-04-19T08:58:49.563Z</time></trkpt><trkpt lat="45.247962" lon="9.0318646"><ele>88.42857142857142</ele><time>2026-04-19T08:58:51.633Z</time></trkpt><trkpt lat="45.2479326" lon="9.0319488"><ele>88.28571428571428</ele><time>2026-04-19T08:58:53.569Z</time></trkpt><trkpt lat="45.2478919" lon="9.0320414"><ele>88.14285714285714</ele><time>2026-04-19T08:58:55.565Z</time></trkpt><trkpt lat="45.247847" lon="9.0321296"><ele>88.0</ele><time>2026-04-19T08:58:57.562Z</time></trkpt><trkpt lat="45.2477975" lon="9.0322186"><ele>88.0</ele><time>2026-04-19T08:58:59.581Z</time></trkpt><trkpt lat="45.2477541" lon="9.0323252"><ele>88.0</ele><time>2026-04-19T08:59:01.564Z</time></trkpt><trkpt lat="45.2477066" lon="9.0324267"><ele>88.0</ele><time>2026-04-19T08:59:03.562Z</time></trkpt><trkpt lat="45.2476677" lon="9.0325333"><ele>88.0</ele><time>2026-04-19T08:59:05.561Z</time></trkpt><trkpt lat="45.2476302" lon="9.0326413"><ele>88.0</ele><time>2026-04-19T08:59:07.559Z</time></trkpt><trkpt lat="45.2475914" lon="9.0327466"><ele>88.0</ele><time>2026-04-19T08:59:09.562Z</time></trkpt><trkpt lat="45.2475588" lon="9.0328559"><ele>88.0</ele><time>2026-04-19T08:59:11.56Z</time></trkpt><trkpt lat="45.247533" lon="9.0329734"><ele>88.0</ele><time>2026-04-19T08:59:13.588Z</time></trkpt><trkpt lat="45.2474943" lon="9.0330841"><ele>88.0</ele><time>2026-04-19T08:59:15.557Z</time></trkpt><trkpt lat="45.2474459" lon="9.0331866"><ele>88.0</ele><time>2026-04-19T08:59:17.627Z</time></trkpt><trkpt lat="45.2473908" lon="9.0332842"><ele>88.0</ele><time>2026-04-19T08:59:19.569Z</time></trkpt><trkpt lat="45.2473368" lon="9.0333816"><ele>88.0</ele><time>2026-04-19T08:59:21.565Z</time></trkpt><trkpt lat="45.2472848" lon="9.0334784"><ele>87.83333333333333</ele><time>2026-04-19T08:59:23.564Z</time></trkpt><trkpt lat="45.2472336" lon="9.0335731"><ele>87.66666666666666</ele><time>2026-04-19T08:59:25.56Z</time></trkpt><trkpt lat="45.2471816" lon="9.0336645"><ele>87.5</ele><time>2026-04-19T08:59:27.57Z</time></trkpt><trkpt lat="45.2471358" lon="9.0337436"><ele>87.33333333333333</ele><time>2026-04-19T08:59:29.572Z</time></trkpt><trkpt lat="45.2470808" lon="9.0338322"><ele>87.16666666666667</ele><time>2026-04-19T08:59:31.563Z</time></trkpt><trkpt lat="45.2470285" lon="9.0339136"><ele>87.0</ele><time>2026-04-19T08:59:33.558Z</time></trkpt><trkpt lat="45.2469857" lon="9.0339893"><ele>87.0</ele><time>2026-04-19T08:59:35.565Z</time></trkpt><trkpt lat="45.2469404" lon="9.0340704"><ele>87.0</ele><time>2026-04-19T08:59:37.564Z</time></trkpt><trkpt lat="45.2469025" lon="9.0341509"><ele>87.0</ele><time>2026-04-19T08:59:39.562Z</time></trkpt><trkpt lat="45.2468651" lon="9.0342293"><ele>87.0</ele><time>2026-04-19T08:59:41.565Z</time></trkpt><trkpt lat="45.2468256" lon="9.0343089"><ele>87.0</ele><time>2026-04-19T08:59:43.589Z</time></trkpt><trkpt lat="45.2467726" lon="9.0344005"><ele>87.0</ele><time>2026-04-19T08:59:46.567Z</time></trkpt><trkpt lat="45.2467155" lon="9.0344425"><ele>87.0</ele><time>2026-04-19T08:59:48.568Z</time></trkpt><trkpt lat="45.2466376" lon="9.0344263"><ele>87.0</ele><time>2026-04-19T08:59:50.563Z</time></trkpt><trkpt lat="45.2465642" lon="9.0343799"><ele>87.0</ele><time>2026-04-19T08:59:52.563Z</time></trkpt><trkpt lat="45.2464853" lon="9.0343313"><ele>87.0</ele><time>2026-04-19T08:59:54.556Z</time></trkpt><trkpt lat="45.2464194" lon="9.034297"><ele>87.0</ele><time>2026-04-19T08:59:56.558Z</time></trkpt><trkpt lat="45.2463495" lon="9.0342591"><ele>87.0</ele><time>2026-04-19T08:59:58.564Z</time></trkpt><trkpt lat="45.2462749" lon="9.0342014"><ele>87.0</ele><time>2026-04-19T09:00:00.575Z</time></trkpt><trkpt lat="45.2462048" lon="9.0341443"><ele>86.66666666666667</ele><time>2026-04-19T09:00:02.559Z</time></trkpt><trkpt lat="45.2461335" lon="9.0340877"><ele>86.33333333333333</ele><time>2026-04-19T09:00:04.556Z</time></trkpt><trkpt lat="45.2460602" lon="9.034041"><ele>86.0</ele><time>2026-04-19T09:00:06.56Z</time></trkpt><trkpt lat="45.2459836" lon="9.0339856"><ele>85.66666666666666</ele><time>2026-04-19T09:00:08.556Z</time></trkpt><trkpt lat="45.2459066" lon="9.0339318"><ele>85.33333333333333</ele><time>2026-04-19T09:00:10.562Z</time></trkpt><trkpt lat="45.2458303" lon="9.0338857"><ele>85.0</ele><time>2026-04-19T09:00:12.563Z</time></trkpt><trkpt lat="45.2457602" lon="9.0338304"><ele>85.0</ele><time>2026-04-19T09:00:14.567Z</time></trkpt><trkpt lat="45.2456946" lon="9.0337792"><ele>85.0</ele><time>2026-04-19T09:00:16.559Z</time></trkpt><trkpt lat="45.2456326" lon="9.0337328"><ele>85.0</ele><time>2026-04-19T09:00:18.564Z</time></trkpt><trkpt lat="45.2455646" lon="9.0336825"><ele>85.0</ele><time>2026-04-19T09:00:20.562Z</time></trkpt><trkpt lat="45.2454952" lon="9.0336303"><ele>85.0</ele><time>2026-04-19T09:00:22.566Z</time></trkpt><trkpt lat="45.2454195" lon="9.0335749"><ele>85.0</ele><time>2026-04-19T09:00:24.567Z</time></trkpt><trkpt lat="45.2453435" lon="9.0335189"><ele>85.0</ele><time>2026-04-19T09:00:26.558Z</time></trkpt><trkpt lat="45.2452695" lon="9.0334716"><ele>85.0</ele><time>2026-04-19T09:00:28.566Z</time></trkpt><trkpt lat="45.2452005" lon="9.033413"><ele>85.0</ele><time>2026-04-19T09:00:30.558Z</time></trkpt><trkpt lat="45.2451341" lon="9.0333721"><ele>85.0</ele><time>2026-04-19T09:00:32.569Z</time></trkpt><trkpt lat="45.245061" lon="9.0333218"><ele>85.0</ele><time>2026-04-19T09:00:34.569Z</time></trkpt><trkpt lat="45.2449762" lon="9.0332686"><ele>85.0</ele><time>2026-04-19T09:00:36.561Z</time></trkpt><trkpt lat="45.2448919" lon="9.0332025"><ele>85.33333333333333</ele><time>2026-04-19T09:00:38.557Z</time></trkpt><trkpt lat="45.2448137" lon="9.0331542"><ele>85.66666666666666</ele><time>2026-04-19T09:00:40.557Z</time></trkpt><trkpt lat="45.2447349" lon="9.0330946"><ele>86.0</ele><time>2026-04-19T09:00:42.564Z</time></trkpt><trkpt lat="45.2446549" lon="9.0330393"><ele>86.33333333333333</ele><time>2026-04-19T09:00:44.569Z</time></trkpt><trkpt lat="45.2445763" lon="9.0329838"><ele>86.66666666666667</ele><time>2026-04-19T09:00:46.559Z</time></trkpt><trkpt lat="45.2444974" lon="9.0329232"><ele>87.0</ele><time>2026-04-19T09:00:48.56Z</time></trkpt><trkpt lat="45.2444116" lon="9.0328519"><ele>87.0</ele><time>2026-04-19T09:00:50.557Z</time></trkpt><trkpt lat="45.2443278" lon="9.032803"><ele>87.0</ele><time>2026-04-19T09:00:52.559Z</time></trkpt><trkpt lat="45.2442548" lon="9.0327443"><ele>87.0</ele><time>2026-04-19T09:00:54.573Z</time></trkpt><trkpt lat="45.2441851" lon="9.032696"><ele>87.0</ele><time>2026-04-19T09:00:56.561Z</time></trkpt><trkpt lat="45.2441205" lon="9.0326434"><ele>87.0</ele><time>2026-04-19T09:00:58.556Z</time></trkpt><trkpt lat="45.2440599" lon="9.0325974"><ele>87.0</ele><time>2026-04-19T09:01:00.559Z</time></trkpt><trkpt lat="45.2440253" lon="9.0324823"><ele>87.0</ele><time>2026-04-19T09:01:03.566Z</time></trkpt><trkpt lat="45.2440626" lon="9.032358"><ele>87.0</ele><time>2026-04-19T09:01:06.559Z</time></trkpt><trkpt lat="45.2441089" lon="9.0322591"><ele>87.0</ele><time>2026-04-19T09:01:08.563Z</time></trkpt><trkpt lat="45.2441606" lon="9.0321441"><ele>87.0</ele><time>2026-04-19T09:01:10.578Z</time></trkpt><trkpt lat="45.2442047" lon="9.0320263"><ele>87.0</ele><time>2026-04-19T09:01:12.565Z</time></trkpt><trkpt lat="45.2442427" lon="9.0319158"><ele>87.0</ele><time>2026-04-19T09:01:14.566Z</time></trkpt><trkpt lat="45.2442908" lon="9.0318053"><ele>87.0</ele><time>2026-04-19T09:01:16.605Z</time></trkpt><trkpt lat="45.244334" lon="9.0316876"><ele>87.0</ele><time>2026-04-19T09:01:18.57Z</time></trkpt><trkpt lat="45.2443891" lon="9.0315838"><ele>87.0</ele><time>2026-04-19T09:01:20.565Z</time></trkpt><trkpt lat="45.2444364" lon="9.0314924"><ele>87.0</ele><time>2026-04-19T09:01:22.564Z</time></trkpt><trkpt lat="45.2444952" lon="9.0313994"><ele>87.0</ele><time>2026-04-19T09:01:24.554Z</time></trkpt><trkpt lat="45.2445536" lon="9.0313101"><ele>87.0</ele><time>2026-04-19T09:01:26.563Z</time></trkpt><trkpt lat="45.2445809" lon="9.0312138"><ele>87.0</ele><time>2026-04-19T09:01:28.57Z</time></trkpt><trkpt lat="45.2445675" lon="9.0310979"><ele>87.0</ele><time>2026-04-19T09:01:30.564Z</time></trkpt><trkpt lat="45.2445265" lon="9.0309693"><ele>87.0</ele><time>2026-04-19T09:01:32.56Z</time></trkpt><trkpt lat="45.2444745" lon="9.030863"><ele>87.0</ele><time>2026-04-19T09:01:34.559Z</time></trkpt><trkpt lat="45.2444127" lon="9.0307723"><ele>87.0</ele><time>2026-04-19T09:01:36.555Z</time></trkpt><trkpt lat="45.2443441" lon="9.030687"><ele>86.19999999999999</ele><time>2026-04-19T09:01:38.575Z</time></trkpt><trkpt lat="45.2442736" lon="9.0306096"><ele>85.4</ele><time>2026-04-19T09:01:40.636Z</time></trkpt><trkpt lat="45.2442076" lon="9.0305232"><ele>84.6</ele><time>2026-04-19T09:01:42.634Z</time></trkpt><trkpt lat="45.2441332" lon="9.0304494"><ele>83.80000000000001</ele><time>2026-04-19T09:01:44.56Z</time></trkpt><trkpt lat="45.2440568" lon="9.0303692"><ele>83.0</ele><time>2026-04-19T09:01:46.551Z</time></trkpt><trkpt lat="45.2439818" lon="9.0302812"><ele>83.0</ele><time>2026-04-19T09:01:48.562Z</time></trkpt><trkpt lat="45.2439067" lon="9.0302247"><ele>83.0</ele><time>2026-04-19T09:01:50.558Z</time></trkpt><trkpt lat="45.2438374" lon="9.0301676"><ele>83.0</ele><time>2026-04-19T09:01:52.561Z</time></trkpt><trkpt lat="45.2437729" lon="9.03011"><ele>83.0</ele><time>2026-04-19T09:01:54.555Z</time></trkpt><trkpt lat="45.2437142" lon="9.0300559"><ele>83.0</ele><time>2026-04-19T09:01:56.559Z</time></trkpt><trkpt lat="45.2436485" lon="9.029995"><ele>83.0</ele><time>2026-04-19T09:01:58.557Z</time></trkpt><trkpt lat="45.2435809" lon="9.0299301"><ele>82.66666666666667</ele><time>2026-04-19T09:02:00.557Z</time></trkpt><trkpt lat="45.2435115" lon="9.0298669"><ele>82.33333333333334</ele><time>2026-04-19T09:02:02.559Z</time></trkpt><trkpt lat="45.2434406" lon="9.0297827"><ele>82.0</ele><time>2026-04-19T09:02:04.55Z</time></trkpt><trkpt lat="45.2433758" lon="9.0297043"><ele>81.66666666666667</ele><time>2026-04-19T09:02:06.561Z</time></trkpt><trkpt lat="45.2433127" lon="9.0296286"><ele>81.33333333333333</ele><time>2026-04-19T09:02:08.632Z</time></trkpt><trkpt lat="45.2432525" lon="9.029551"><ele>81.0</ele><time>2026-04-19T09:02:10.576Z</time></trkpt><trkpt lat="45.2431984" lon="9.029476"><ele>81.0</ele><time>2026-04-19T09:02:12.563Z</time></trkpt><trkpt lat="45.2431467" lon="9.0294026"><ele>81.0</ele><time>2026-04-19T09:02:14.56Z</time></trkpt><trkpt lat="45.2430916" lon="9.0293415"><ele>81.0</ele><time>2026-04-19T09:02:16.559Z</time></trkpt><trkpt lat="45.2430422" lon="9.0292826"><ele>81.0</ele><time>2026-04-19T09:02:18.56Z</time></trkpt><trkpt lat="45.2429695" lon="9.0292139"><ele>81.0</ele><time>2026-04-19T09:02:21.628Z</time></trkpt><trkpt lat="45.2429037" lon="9.0292345"><ele>81.0</ele><time>2026-04-19T09:02:23.588Z</time></trkpt><trkpt lat="45.2428453" lon="9.029289"><ele>81.0</ele><time>2026-04-19T09:02:25.563Z</time></trkpt><trkpt lat="45.2427765" lon="9.0293477"><ele>80.33333333333333</ele><time>2026-04-19T09:02:27.563Z</time></trkpt><trkpt lat="45.2427017" lon="9.0294068"><ele>79.66666666666667</ele><time>2026-04-19T09:02:29.562Z</time></trkpt><trkpt lat="45.2426364" lon="9.0294748"><ele>79.0</ele><time>2026-04-19T09:02:31.561Z</time></trkpt><trkpt lat="45.2425737" lon="9.0295353"><ele>78.33333333333334</ele><time>2026-04-19T09:02:33.576Z</time></trkpt><trkpt lat="45.2425116" lon="9.0295885"><ele>77.66666666666667</ele><time>2026-04-19T09:02:35.555Z</time></trkpt><trkpt lat="45.2424294" lon="9.0296224"><ele>77.0</ele><time>2026-04-19T09:02:38.56Z</time></trkpt><trkpt lat="45.242373" lon="9.0295685"><ele>77.0</ele><time>2026-04-19T09:02:40.561Z</time></trkpt><trkpt lat="45.2423076" lon="9.0294498"><ele>77.0</ele><time>2026-04-19T09:02:42.564Z</time></trkpt><trkpt lat="45.2422183" lon="9.0293394"><ele>77.0</ele><time>2026-04-19T09:02:44.564Z</time></trkpt><trkpt lat="45.2421153" lon="9.0292345"><ele>77.0</ele><time>2026-04-19T09:02:46.562Z</time></trkpt><trkpt lat="45.2420555" lon="9.029173"><ele>77.0</ele><time>2026-04-19T09:02:47.582Z</time></trkpt><trkpt lat="45.2419961" lon="9.0291018"><ele>75.83333333333334</ele><time>2026-04-19T09:02:48.557Z</time></trkpt><trkpt lat="45.2419338" lon="9.0290207"><ele>74.66666666666667</ele><time>2026-04-19T09:02:49.555Z</time></trkpt><trkpt lat="45.2418677" lon="9.0289402"><ele>73.5</ele><time>2026-04-19T09:02:50.56Z</time></trkpt><trkpt lat="45.2418025" lon="9.0288579"><ele>72.33333333333333</ele><time>2026-04-19T09:02:51.567Z</time></trkpt><trkpt lat="45.2417322" lon="9.0287704"><ele>71.16666666666666</ele><time>2026-04-19T09:02:52.555Z</time></trkpt><trkpt lat="45.2416663" lon="9.0286792"><ele>70.0</ele><time>2026-04-19T09:02:53.57Z</time></trkpt><trkpt lat="45.2416036" lon="9.0285864"><ele>70.0</ele><time>2026-04-19T09:02:54.571Z</time></trkpt><trkpt lat="45.2415401" lon="9.02849"><ele>70.0</ele><time>2026-04-19T09:02:55.556Z</time></trkpt><trkpt lat="45.2414732" lon="9.0284054"><ele>70.0</ele><time>2026-04-19T09:02:56.573Z</time></trkpt><trkpt lat="45.2414088" lon="9.0283258"><ele>70.0</ele><time>2026-04-19T09:02:57.558Z</time></trkpt><trkpt lat="45.2413422" lon="9.0282476"><ele>70.0</ele><time>2026-04-19T09:02:58.561Z</time></trkpt><trkpt lat="45.2412753" lon="9.028174"><ele>70.0</ele><time>2026-04-19T09:02:59.56Z</time></trkpt><trkpt lat="45.2412076" lon="9.0281"><ele>69.33333333333333</ele><time>2026-04-19T09:03:00.559Z</time></trkpt><trkpt lat="45.2411403" lon="9.0280291"><ele>68.66666666666666</ele><time>2026-04-19T09:03:01.566Z</time></trkpt><trkpt lat="45.2410741" lon="9.0279662"><ele>68.0</ele><time>2026-04-19T09:03:02.564Z</time></trkpt><trkpt lat="45.2410182" lon="9.0279052"><ele>67.33333333333333</ele><time>2026-04-19T09:03:03.568Z</time></trkpt><trkpt lat="45.2409658" lon="9.0278461"><ele>66.66666666666667</ele><time>2026-04-19T09:03:04.566Z</time></trkpt><trkpt lat="45.2409142" lon="9.0277925"><ele>66.0</ele><time>2026-04-19T09:03:05.573Z</time></trkpt><trkpt lat="45.240817" lon="9.0276945"><ele>66.0</ele><time>2026-04-19T09:03:07.563Z</time></trkpt><trkpt lat="45.2407316" lon="9.0276217"><ele>66.0</ele><time>2026-04-19T09:03:09.558Z</time></trkpt><trkpt lat="45.2406532" lon="9.0275393"><ele>66.0</ele><time>2026-04-19T09:03:11.563Z</time></trkpt><trkpt lat="45.2405872" lon="9.0274534"><ele>66.0</ele><time>2026-04-19T09:03:13.559Z</time></trkpt><trkpt lat="45.2405273" lon="9.0273909"><ele>66.0</ele><time>2026-04-19T09:03:15.564Z</time></trkpt><trkpt lat="45.2404575" lon="9.0273152"><ele>66.0</ele><time>2026-04-19T09:03:18.56Z</time></trkpt><trkpt lat="45.2403934" lon="9.027302"><ele>66.0</ele><time>2026-04-19T09:03:21.56Z</time></trkpt><trkpt lat="45.2403298" lon="9.0273388"><ele>66.0</ele><time>2026-04-19T09:03:25.593Z</time></trkpt><trkpt lat="45.2402901" lon="9.0274184"><ele>66.0</ele><time>2026-04-19T09:03:39.587Z</time></trkpt><trkpt lat="45.2402508" lon="9.027509"><ele>66.0</ele><time>2026-04-19T09:03:43.566Z</time></trkpt><trkpt lat="45.2402081" lon="9.0276033"><ele>66.0</ele><time>2026-04-19T09:03:46.568Z</time></trkpt><trkpt lat="45.2401721" lon="9.0276825"><ele>66.0</ele><time>2026-04-19T09:03:48.558Z</time></trkpt><trkpt lat="45.2401314" lon="9.027768"><ele>66.0</ele><time>2026-04-19T09:03:50.568Z</time></trkpt><trkpt lat="45.240066" lon="9.0279055"><ele>66.0</ele><time>2026-04-19T09:03:53.567Z</time></trkpt><trkpt lat="45.2400109" lon="9.0280098"><ele>66.0</ele><time>2026-04-19T09:03:55.553Z</time></trkpt><trkpt lat="45.2399559" lon="9.0280966"><ele>66.0</ele><time>2026-04-19T09:03:57.563Z</time></trkpt><trkpt lat="45.239908" lon="9.0281776"><ele>66.0</ele><time>2026-04-19T09:03:59.574Z</time></trkpt><trkpt lat="45.2398629" lon="9.0282429"><ele>66.0</ele><time>2026-04-19T09:04:01.555Z</time></trkpt><trkpt lat="45.2398193" lon="9.0283108"><ele>66.0</ele><time>2026-04-19T09:04:03.566Z</time></trkpt><trkpt lat="45.2397698" lon="9.0283865"><ele>66.0</ele><time>2026-04-19T09:04:05.557Z</time></trkpt><trkpt lat="45.2397182" lon="9.0284704"><ele>66.0</ele><time>2026-04-19T09:04:07.558Z</time></trkpt><trkpt lat="45.2396603" lon="9.0285476"><ele>66.0</ele><time>2026-04-19T09:04:09.561Z</time></trkpt><trkpt lat="45.2395967" lon="9.0286237"><ele>66.0</ele><time>2026-04-19T09:04:11.556Z</time></trkpt><trkpt lat="45.2395343" lon="9.0287153"><ele>66.0</ele><time>2026-04-19T09:04:13.557Z</time></trkpt><trkpt lat="45.2394775" lon="9.0287902"><ele>66.0</ele><time>2026-04-19T09:04:15.595Z</time></trkpt><trkpt lat="45.239433" lon="9.0288797"><ele>66.0</ele><time>2026-04-19T09:04:17.556Z</time></trkpt><trkpt lat="45.2394038" lon="9.0290008"><ele>66.0</ele><time>2026-04-19T09:04:19.56Z</time></trkpt><trkpt lat="45.239406" lon="9.0291036"><ele>66.0</ele><time>2026-04-19T09:04:21.556Z</time></trkpt><trkpt lat="45.2393766" lon="9.0292091"><ele>66.0</ele><time>2026-04-19T09:04:23.553Z</time></trkpt><trkpt lat="45.2393449" lon="9.0293101"><ele>66.0</ele><time>2026-04-19T09:04:25.555Z</time></trkpt><trkpt lat="45.2393617" lon="9.029436"><ele>66.0</ele><time>2026-04-19T09:04:27.554Z</time></trkpt><trkpt lat="45.2393844" lon="9.0295726"><ele>66.33333333333333</ele><time>2026-04-19T09:04:29.564Z</time></trkpt><trkpt lat="45.2394079" lon="9.0296901"><ele>66.66666666666667</ele><time>2026-04-19T09:04:31.56Z</time></trkpt><trkpt lat="45.2394265" lon="9.029797"><ele>67.0</ele><time>2026-04-19T09:04:33.597Z</time></trkpt><trkpt lat="45.2394477" lon="9.0299094"><ele>67.33333333333334</ele><time>2026-04-19T09:04:35.561Z</time></trkpt><trkpt lat="45.2394698" lon="9.0300292"><ele>67.66666666666667</ele><time>2026-04-19T09:04:37.563Z</time></trkpt><trkpt lat="45.2394924" lon="9.0301585"><ele>68.0</ele><time>2026-04-19T09:04:39.559Z</time></trkpt><trkpt lat="45.239519" lon="9.0302744"><ele>69.33333333333334</ele><time>2026-04-19T09:04:41.559Z</time></trkpt><trkpt lat="45.2395375" lon="9.0304055"><ele>70.66666666666667</ele><time>2026-04-19T09:04:43.566Z</time></trkpt><trkpt lat="45.2395526" lon="9.0305262"><ele>72.0</ele><time>2026-04-19T09:04:45.562Z</time></trkpt><trkpt lat="45.2395702" lon="9.0306485"><ele>73.33333333333333</ele><time>2026-04-19T09:04:47.561Z</time></trkpt><trkpt lat="45.2395965" lon="9.0307748"><ele>74.66666666666666</ele><time>2026-04-19T09:04:49.566Z</time></trkpt><trkpt lat="45.2396227" lon="9.0308934"><ele>76.0</ele><time>2026-04-19T09:04:51.553Z</time></trkpt><trkpt lat="45.2396779" lon="9.0310016"><ele>77.0</ele><time>2026-04-19T09:04:54.563Z</time></trkpt><trkpt lat="45.239741" lon="9.0310667"><ele>78.0</ele><time>2026-04-19T09:04:56.565Z</time></trkpt><trkpt lat="45.2398099" lon="9.0311315"><ele>79.0</ele><time>2026-04-19T09:04:58.563Z</time></trkpt><trkpt lat="45.239877" lon="9.0311922"><ele>80.0</ele><time>2026-04-19T09:05:00.552Z</time></trkpt><trkpt lat="45.2399425" lon="9.0312583"><ele>81.0</ele><time>2026-04-19T09:05:02.56Z</time></trkpt><trkpt lat="45.2399971" lon="9.0313364"><ele>82.0</ele><time>2026-04-19T09:05:04.57Z</time></trkpt><trkpt lat="45.2400653" lon="9.0314199"><ele>82.0</ele><time>2026-04-19T09:05:06.554Z</time></trkpt><trkpt lat="45.2401308" lon="9.0314987"><ele>82.0</ele><time>2026-04-19T09:05:08.565Z</time></trkpt><trkpt lat="45.2401794" lon="9.031566"><ele>82.0</ele><time>2026-04-19T09:05:10.551Z</time></trkpt><trkpt lat="45.2402387" lon="9.0316232"><ele>82.0</ele><time>2026-04-19T09:05:12.562Z</time></trkpt><trkpt lat="45.2402316" lon="9.0317181"><ele>82.0</ele><time>2026-04-19T09:05:16.563Z</time></trkpt><trkpt lat="45.2401353" lon="9.0316887"><ele>82.0</ele><time>2026-04-19T09:05:19.634Z</time></trkpt><trkpt lat="45.2400531" lon="9.031626"><ele>82.0</ele><time>2026-04-19T09:05:21.728Z</time></trkpt><trkpt lat="45.2399643" lon="9.0315829"><ele>82.0</ele><time>2026-04-19T09:05:23.557Z</time></trkpt><trkpt lat="45.2398922" lon="9.0315507"><ele>82.0</ele><time>2026-04-19T09:05:25.554Z</time></trkpt><trkpt lat="45.2398151" lon="9.0314877"><ele>82.0</ele><time>2026-04-19T09:05:28.57Z</time></trkpt><trkpt lat="45.2397527" lon="9.0314204"><ele>82.0</ele><time>2026-04-19T09:05:30.557Z</time></trkpt><trkpt lat="45.2397024" lon="9.0313401"><ele>82.0</ele><time>2026-04-19T09:05:32.558Z</time></trkpt><trkpt lat="45.23963" lon="9.0312873"><ele>82.14285714285714</ele><time>2026-04-19T09:05:34.635Z</time></trkpt><trkpt lat="45.2395641" lon="9.0312426"><ele>82.28571428571428</ele><time>2026-04-19T09:05:36.574Z</time></trkpt><trkpt lat="45.2395065" lon="9.0311738"><ele>82.42857142857142</ele><time>2026-04-19T09:05:38.56Z</time></trkpt><trkpt lat="45.2394524" lon="9.031098"><ele>82.57142857142857</ele><time>2026-04-19T09:05:40.567Z</time></trkpt><trkpt lat="45.2393968" lon="9.0310376"><ele>82.71428571428572</ele><time>2026-04-19T09:05:42.56Z</time></trkpt><trkpt lat="45.2393355" lon="9.03098"><ele>82.85714285714285</ele><time>2026-04-19T09:05:44.559Z</time></trkpt><trkpt lat="45.2392729" lon="9.0309579"><ele>83.0</ele><time>2026-04-19T09:05:46.557Z</time></trkpt><trkpt lat="45.2392038" lon="9.0309965"><ele>83.0</ele><time>2026-04-19T09:05:48.558Z</time></trkpt><trkpt lat="45.2391459" lon="9.0310775"><ele>83.0</ele><time>2026-04-19T09:05:50.556Z</time></trkpt><trkpt lat="45.2390935" lon="9.0311806"><ele>83.0</ele><time>2026-04-19T09:05:52.56Z</time></trkpt><trkpt lat="45.2390408" lon="9.0312708"><ele>83.0</ele><time>2026-04-19T09:05:54.557Z</time></trkpt><trkpt lat="45.2389815" lon="9.0313626"><ele>83.0</ele><time>2026-04-19T09:05:56.56Z</time></trkpt><trkpt lat="45.2389254" lon="9.0314524"><ele>83.0</ele><time>2026-04-19T09:05:58.579Z</time></trkpt><trkpt lat="45.2388624" lon="9.0315454"><ele>81.66666666666667</ele><time>2026-04-19T09:06:00.556Z</time></trkpt><trkpt lat="45.2387981" lon="9.0316251"><ele>80.33333333333334</ele><time>2026-04-19T09:06:02.562Z</time></trkpt><trkpt lat="45.2387407" lon="9.0317128"><ele>79.0</ele><time>2026-04-19T09:06:04.561Z</time></trkpt><trkpt lat="45.2386879" lon="9.031794"><ele>77.66666666666667</ele><time>2026-04-19T09:06:06.562Z</time></trkpt><trkpt lat="45.2386457" lon="9.0318771"><ele>76.33333333333333</ele><time>2026-04-19T09:06:08.564Z</time></trkpt><trkpt lat="45.2386171" lon="9.0319586"><ele>75.0</ele><time>2026-04-19T09:06:10.555Z</time></trkpt><trkpt lat="45.2386063" lon="9.0320562"><ele>75.0</ele><time>2026-04-19T09:06:12.555Z</time></trkpt><trkpt lat="45.2386052" lon="9.032167"><ele>75.0</ele><time>2026-04-19T09:06:14.561Z</time></trkpt><trkpt lat="45.2386078" lon="9.0322804"><ele>75.0</ele><time>2026-04-19T09:06:16.559Z</time></trkpt><trkpt lat="45.238599" lon="9.0323748"><ele>75.0</ele><time>2026-04-19T09:06:18.559Z</time></trkpt><trkpt lat="45.238595" lon="9.0325104"><ele>75.0</ele><time>2026-04-19T09:06:21.567Z</time></trkpt><trkpt lat="45.2386111" lon="9.032616"><ele>75.0</ele><time>2026-04-19T09:06:23.585Z</time></trkpt><trkpt lat="45.2386376" lon="9.0327037"><ele>74.66666666666667</ele><time>2026-04-19T09:06:25.554Z</time></trkpt><trkpt lat="45.238669" lon="9.0327823"><ele>74.33333333333333</ele><time>2026-04-19T09:06:27.555Z</time></trkpt><trkpt lat="45.2387091" lon="9.0328607"><ele>74.0</ele><time>2026-04-19T09:06:29.561Z</time></trkpt><trkpt lat="45.2387675" lon="9.0329162"><ele>73.66666666666666</ele><time>2026-04-19T09:06:31.567Z</time></trkpt><trkpt lat="45.2388447" lon="9.0329257"><ele>73.33333333333333</ele><time>2026-04-19T09:06:33.558Z</time></trkpt><trkpt lat="45.2389464" lon="9.0328999"><ele>73.0</ele><time>2026-04-19T09:06:35.554Z</time></trkpt><trkpt lat="45.2390236" lon="9.0328912"><ele>74.83333333333333</ele><time>2026-04-19T09:06:37.564Z</time></trkpt><trkpt lat="45.2390965" lon="9.0329201"><ele>76.66666666666666</ele><time>2026-04-19T09:06:39.584Z</time></trkpt><trkpt lat="45.239143" lon="9.0330118"><ele>78.5</ele><time>2026-04-19T09:06:41.564Z</time></trkpt><trkpt lat="45.2391572" lon="9.0331432"><ele>80.33333333333333</ele><time>2026-04-19T09:06:44.568Z</time></trkpt><trkpt lat="45.2391567" lon="9.0332431"><ele>82.16666666666667</ele><time>2026-04-19T09:06:46.552Z</time></trkpt><trkpt lat="45.2391417" lon="9.033332"><ele>84.0</ele><time>2026-04-19T09:06:48.558Z</time></trkpt><trkpt lat="45.2390895" lon="9.033406"><ele>84.0</ele><time>2026-04-19T09:06:50.627Z</time></trkpt><trkpt lat="45.2390219" lon="9.0334818"><ele>84.0</ele><time>2026-04-19T09:06:52.569Z</time></trkpt><trkpt lat="45.2389597" lon="9.0335501"><ele>84.0</ele><time>2026-04-19T09:06:54.559Z</time></trkpt><trkpt lat="45.2389114" lon="9.0336236"><ele>84.0</ele><time>2026-04-19T09:06:56.55Z</time></trkpt><trkpt lat="45.238887" lon="9.0337089"><ele>84.0</ele><time>2026-04-19T09:06:58.551Z</time></trkpt><trkpt lat="45.2388756" lon="9.0338053"><ele>84.0</ele><time>2026-04-19T09:07:00.566Z</time></trkpt><trkpt lat="45.2388658" lon="9.0338991"><ele>84.0</ele><time>2026-04-19T09:07:02.559Z</time></trkpt><trkpt lat="45.2388665" lon="9.0340009"><ele>83.83333333333333</ele><time>2026-04-19T09:07:04.562Z</time></trkpt><trkpt lat="45.2388757" lon="9.0341027"><ele>83.66666666666667</ele><time>2026-04-19T09:07:06.558Z</time></trkpt><trkpt lat="45.2388959" lon="9.0342074"><ele>83.5</ele><time>2026-04-19T09:07:08.567Z</time></trkpt><trkpt lat="45.2389274" lon="9.0343044"><ele>83.33333333333334</ele><time>2026-04-19T09:07:10.571Z</time></trkpt><trkpt lat="45.2389786" lon="9.034377"><ele>83.16666666666667</ele><time>2026-04-19T09:07:12.557Z</time></trkpt><trkpt lat="45.2390517" lon="9.0344364"><ele>83.0</ele><time>2026-04-19T09:07:14.56Z</time></trkpt><trkpt lat="45.2391198" lon="9.034514"><ele>83.0</ele><time>2026-04-19T09:07:16.564Z</time></trkpt><trkpt lat="45.2391712" lon="9.034594"><ele>83.0</ele><time>2026-04-19T09:07:18.559Z</time></trkpt><trkpt lat="45.2392162" lon="9.034669"><ele>83.0</ele><time>2026-04-19T09:07:20.559Z</time></trkpt><trkpt lat="45.2392779" lon="9.0347627"><ele>83.0</ele><time>2026-04-19T09:07:23.557Z</time></trkpt><trkpt lat="45.2393529" lon="9.0348555"><ele>83.0</ele><time>2026-04-19T09:07:26.555Z</time></trkpt><trkpt lat="45.2394328" lon="9.0349139"><ele>83.0</ele><time>2026-04-19T09:07:28.558Z</time></trkpt><trkpt lat="45.2395038" lon="9.0349561"><ele>82.71428571428571</ele><time>2026-04-19T09:07:30.634Z</time></trkpt><trkpt lat="45.2395804" lon="9.0349938"><ele>82.42857142857143</ele><time>2026-04-19T09:07:32.567Z</time></trkpt><trkpt lat="45.2396482" lon="9.0350284"><ele>82.14285714285714</ele><time>2026-04-19T09:07:34.565Z</time></trkpt><trkpt lat="45.2397054" lon="9.0350671"><ele>81.85714285714286</ele><time>2026-04-19T09:07:36.556Z</time></trkpt><trkpt lat="45.2397634" lon="9.035102"><ele>81.57142857142857</ele><time>2026-04-19T09:07:38.56Z</time></trkpt><trkpt lat="45.2398363" lon="9.0351583"><ele>81.28571428571429</ele><time>2026-04-19T09:07:41.56Z</time></trkpt><trkpt lat="45.2398052" lon="9.0352362"><ele>81.0</ele><time>2026-04-19T09:07:45.566Z</time></trkpt><trkpt lat="45.2397267" lon="9.0352032"><ele>81.0</ele><time>2026-04-19T09:07:48.559Z</time></trkpt><trkpt lat="45.2396574" lon="9.0351648"><ele>81.0</ele><time>2026-04-19T09:07:50.562Z</time></trkpt><trkpt lat="45.239576" lon="9.0351191"><ele>81.0</ele><time>2026-04-19T09:07:52.562Z</time></trkpt><trkpt lat="45.2394786" lon="9.0350857"><ele>81.0</ele><time>2026-04-19T09:07:54.556Z</time></trkpt><trkpt lat="45.2393754" lon="9.0350439"><ele>81.0</ele><time>2026-04-19T09:07:56.569Z</time></trkpt><trkpt lat="45.2392634" lon="9.0349989"><ele>81.33333333333333</ele><time>2026-04-19T09:07:58.558Z</time></trkpt><trkpt lat="45.2391519" lon="9.0349673"><ele>81.66666666666667</ele><time>2026-04-19T09:08:00.566Z</time></trkpt><trkpt lat="45.2390875" lon="9.0349517"><ele>82.0</ele><time>2026-04-19T09:08:01.581Z</time></trkpt><trkpt lat="45.2390217" lon="9.0349355"><ele>82.33333333333334</ele><time>2026-04-19T09:08:02.563Z</time></trkpt><trkpt lat="45.2389536" lon="9.0349153"><ele>82.66666666666667</ele><time>2026-04-19T09:08:03.562Z</time></trkpt><trkpt lat="45.2388857" lon="9.0348959"><ele>83.0</ele><time>2026-04-19T09:08:04.56Z</time></trkpt><trkpt lat="45.2388187" lon="9.034881"><ele>81.33333333333334</ele><time>2026-04-19T09:08:05.553Z</time></trkpt><trkpt lat="45.2387532" lon="9.0348764"><ele>79.66666666666667</ele><time>2026-04-19T09:08:06.567Z</time></trkpt><trkpt lat="45.2386423" lon="9.0348548"><ele>78.0</ele><time>2026-04-19T09:08:08.556Z</time></trkpt><trkpt lat="45.238569" lon="9.034801"><ele>76.33333333333333</ele><time>2026-04-19T09:08:10.623Z</time></trkpt><trkpt lat="45.2385097" lon="9.0347534"><ele>74.66666666666666</ele><time>2026-04-19T09:08:12.565Z</time></trkpt><trkpt lat="45.2384356" lon="9.0347452"><ele>73.0</ele><time>2026-04-19T09:08:16.56Z</time></trkpt><trkpt lat="45.2383507" lon="9.0347331"><ele>73.0</ele><time>2026-04-19T09:08:19.561Z</time></trkpt><trkpt lat="45.2382863" lon="9.0347141"><ele>73.0</ele><time>2026-04-19T09:08:21.624Z</time></trkpt><trkpt lat="45.2382238" lon="9.0346922"><ele>73.0</ele><time>2026-04-19T09:08:23.597Z</time></trkpt><trkpt lat="45.238159" lon="9.034671"><ele>73.0</ele><time>2026-04-19T09:08:25.552Z</time></trkpt><trkpt lat="45.2380871" lon="9.0346411"><ele>73.0</ele><time>2026-04-19T09:08:27.559Z</time></trkpt><trkpt lat="45.2380182" lon="9.0346144"><ele>73.0</ele><time>2026-04-19T09:08:29.563Z</time></trkpt><trkpt lat="45.2379481" lon="9.034587"><ele>73.0</ele><time>2026-04-19T09:08:31.586Z</time></trkpt><trkpt lat="45.2378748" lon="9.0345704"><ele>72.33333333333333</ele><time>2026-04-19T09:08:33.552Z</time></trkpt><trkpt lat="45.2378023" lon="9.0345306"><ele>71.66666666666666</ele><time>2026-04-19T09:08:35.555Z</time></trkpt><trkpt lat="45.2377346" lon="9.0345012"><ele>71.0</ele><time>2026-04-19T09:08:37.548Z</time></trkpt><trkpt lat="45.2376626" lon="9.0344822"><ele>70.33333333333333</ele><time>2026-04-19T09:08:39.556Z</time></trkpt><trkpt lat="45.2375824" lon="9.0344597"><ele>69.66666666666667</ele><time>2026-04-19T09:08:42.559Z</time></trkpt><trkpt lat="45.2374965" lon="9.0344208"><ele>69.0</ele><time>2026-04-19T09:08:45.581Z</time></trkpt><trkpt lat="45.2374361" lon="9.0343938"><ele>69.0</ele><time>2026-04-19T09:08:47.564Z</time></trkpt><trkpt lat="45.2373689" lon="9.0343811"><ele>69.0</ele><time>2026-04-19T09:08:49.625Z</time></trkpt><trkpt lat="45.2373056" lon="9.0343536"><ele>69.0</ele><time>2026-04-19T09:08:51.556Z</time></trkpt><trkpt lat="45.2372368" lon="9.0343199"><ele>69.0</ele><time>2026-04-19T09:08:53.556Z</time></trkpt><trkpt lat="45.2371505" lon="9.0342817"><ele>69.0</ele><time>2026-04-19T09:08:56.554Z</time></trkpt><trkpt lat="45.2370743" lon="9.0342441"><ele>69.0</ele><time>2026-04-19T09:08:58.569Z</time></trkpt><trkpt lat="45.237008" lon="9.0341998"><ele>69.0</ele><time>2026-04-19T09:09:00.554Z</time></trkpt><trkpt lat="45.2369429" lon="9.0341587"><ele>69.0</ele><time>2026-04-19T09:09:02.553Z</time></trkpt><trkpt lat="45.2368725" lon="9.0341603"><ele>69.0</ele><time>2026-04-19T09:09:04.556Z</time></trkpt><trkpt lat="45.2368106" lon="9.0342448"><ele>69.0</ele><time>2026-04-19T09:09:07.553Z</time></trkpt><trkpt lat="45.2367582" lon="9.0343282"><ele>69.0</ele><time>2026-04-19T09:09:11.544Z</time></trkpt><trkpt lat="45.2366981" lon="9.0343949"><ele>69.0</ele><time>2026-04-19T09:09:13.551Z</time></trkpt><trkpt lat="45.2365276" lon="9.0347792"><ele>69.0</ele><time>2026-04-19T09:09:20.55Z</time></trkpt><trkpt lat="45.2364819" lon="9.0348752"><ele>69.0</ele><time>2026-04-19T09:09:24.562Z</time></trkpt><trkpt lat="45.2364175" lon="9.0348689"><ele>69.0</ele><time>2026-04-19T09:09:29.564Z</time></trkpt><trkpt lat="45.2364276" lon="9.034978"><ele>69.0</ele><time>2026-04-19T09:09:35.556Z</time></trkpt><trkpt lat="45.2364675" lon="9.0350634"><ele>69.0</ele><time>2026-04-19T09:09:39.563Z</time></trkpt><trkpt lat="45.2364964" lon="9.0351473"><ele>69.0</ele><time>2026-04-19T09:09:43.556Z</time></trkpt><trkpt lat="45.2365183" lon="9.0352525"><ele>69.0</ele><time>2026-04-19T09:09:47.561Z</time></trkpt><trkpt lat="45.2365251" lon="9.0353504"><ele>69.0</ele><time>2026-04-19T09:09:49.561Z</time></trkpt><trkpt lat="45.236532" lon="9.035442"><ele>69.0</ele><time>2026-04-19T09:09:51.553Z</time></trkpt><trkpt lat="45.2365225" lon="9.0355766"><ele>69.0</ele><time>2026-04-19T09:09:54.564Z</time></trkpt><trkpt lat="45.2365074" lon="9.0356679"><ele>69.0</ele><time>2026-04-19T09:09:56.559Z</time></trkpt><trkpt lat="45.2364774" lon="9.0357695"><ele>69.0</ele><time>2026-04-19T09:09:58.554Z</time></trkpt><trkpt lat="45.2364232" lon="9.0358538"><ele>69.0</ele><time>2026-04-19T09:10:00.569Z</time></trkpt><trkpt lat="45.2363775" lon="9.035923"><ele>68.71428571428572</ele><time>2026-04-19T09:10:02.553Z</time></trkpt><trkpt lat="45.2363399" lon="9.0360031"><ele>68.42857142857143</ele><time>2026-04-19T09:10:04.554Z</time></trkpt><trkpt lat="45.2362972" lon="9.03608"><ele>68.14285714285714</ele><time>2026-04-19T09:10:06.563Z</time></trkpt><trkpt lat="45.2362543" lon="9.0361594"><ele>67.85714285714286</ele><time>2026-04-19T09:10:08.549Z</time></trkpt><trkpt lat="45.2362014" lon="9.0362455"><ele>67.57142857142857</ele><time>2026-04-19T09:10:10.546Z</time></trkpt><trkpt lat="45.2361533" lon="9.0363332"><ele>67.28571428571429</ele><time>2026-04-19T09:10:12.557Z</time></trkpt><trkpt lat="45.2361024" lon="9.0364196"><ele>67.0</ele><time>2026-04-19T09:10:14.562Z</time></trkpt><trkpt lat="45.2360507" lon="9.0365073"><ele>67.0</ele><time>2026-04-19T09:10:16.563Z</time></trkpt><trkpt lat="45.2360049" lon="9.0365931"><ele>67.0</ele><time>2026-04-19T09:10:18.559Z</time></trkpt><trkpt lat="45.2359506" lon="9.0366911"><ele>67.0</ele><time>2026-04-19T09:10:21.572Z</time></trkpt><trkpt lat="45.2359038" lon="9.0367693"><ele>67.0</ele><time>2026-04-19T09:10:23.56Z</time></trkpt><trkpt lat="45.2358523" lon="9.0368443"><ele>67.0</ele><time>2026-04-19T09:10:25.557Z</time></trkpt><trkpt lat="45.2358047" lon="9.0369217"><ele>67.0</ele><time>2026-04-19T09:10:27.559Z</time></trkpt><trkpt lat="45.235746" lon="9.0370161"><ele>66.0</ele><time>2026-04-19T09:10:30.553Z</time></trkpt><trkpt lat="45.2356835" lon="9.0371047"><ele>66.0</ele><time>2026-04-19T09:10:33.564Z</time></trkpt><trkpt lat="45.2356197" lon="9.0371741"><ele>67.0</ele><time>2026-04-19T09:10:36.57Z</time></trkpt><trkpt lat="45.2355629" lon="9.0372196"><ele>67.0</ele><time>2026-04-19T09:10:39.554Z</time></trkpt><trkpt lat="45.235458" lon="9.0371528"><ele>67.0</ele><time>2026-04-19T09:11:12.683Z</time></trkpt></trkseg></trk></gpx>